<?xml version="1.0" encoding="UTF-8"?>
<gpx version="1.1" creator="2bulu-scraper" xmlns="http://www.topografix.com/GPX/1/1">
  <metadata><name>宜宾天象之门</name><desc>source: 2bulu.com trackId=84980120; exported 2026-09-01T14:22:57.567Z</desc>
    <bounds minlat="28.694148" minlon="104.703554" maxlat="28.723239" maxlon="104.743222"/>
    <link href="https://www.2bulu.com/track/t-sapcNujQRzbp%252FR2KBg5Tzw%253D%253D.htm"><text>2bulu 源页面</text></link>
  </metadata>
  <wpt lat="28.704997" lon="104.708787"><ele>509</ele><name></name></wpt>
  <wpt lat="28.704738" lon="104.711342"><ele>482</ele><name></name></wpt>
  <wpt lat="28.705963" lon="104.71563"><ele>540</ele><name></name></wpt>
  <wpt lat="28.706522" lon="104.718025"><ele>596</ele><name></name></wpt>
  <wpt lat="28.707225" lon="104.722258"><ele>607</ele><name></name></wpt>
  <wpt lat="28.707888" lon="104.722412"><ele>611</ele><name></name></wpt>
  <wpt lat="28.708258" lon="104.723083"><ele>612</ele><name></name></wpt>
  <wpt lat="28.70952" lon="104.724305"><ele>618</ele><name></name></wpt>
  <wpt lat="28.711995" lon="104.723162"><ele>611</ele><name></name></wpt>
  <wpt lat="28.718197" lon="104.726172"><ele>602</ele><name></name></wpt>
  <wpt lat="28.719953" lon="104.729753"><ele>592</ele><name></name></wpt>
  <wpt lat="28.721653" lon="104.729942"><ele>546</ele><name></name></wpt>
  <wpt lat="28.72188" lon="104.729933"><ele>551</ele><name></name></wpt>
  <wpt lat="28.72172" lon="104.730438"><ele>554</ele><name></name></wpt>
  <wpt lat="28.717767" lon="104.742005"><ele>458</ele><name></name></wpt>
  <wpt lat="28.713075" lon="104.740587"><ele>463</ele><name></name></wpt>
  <wpt lat="28.711062" lon="104.741403"><ele>562</ele><name></name></wpt>
  <wpt lat="28.710725" lon="104.74025"><ele>540</ele><name></name></wpt>
  <wpt lat="28.710478" lon="104.740203"><ele>541</ele><name></name></wpt>
  <wpt lat="28.708392" lon="104.740137"><ele>584</ele><name></name></wpt>
  <wpt lat="28.707388" lon="104.739838"><ele>604</ele><name></name></wpt>
  <wpt lat="28.701717" lon="104.729453"><ele>596</ele><name></name></wpt>
  <wpt lat="28.701088" lon="104.725258"><ele>668</ele><name></name></wpt>
  <wpt lat="28.70108" lon="104.725297"><ele>664</ele><name></name></wpt>
  <wpt lat="28.698497" lon="104.721237"><ele>542</ele><name></name></wpt>
  <wpt lat="28.694728" lon="104.712653"><ele>589</ele><name></name></wpt>
  <wpt lat="28.69517" lon="104.710638"><ele>569</ele><name></name></wpt>
  <wpt lat="28.69612" lon="104.7088"><ele>513</ele><name></name></wpt>
  <wpt lat="28.700042" lon="104.7063"><ele>427</ele><name></name></wpt>
  <trk><name>宜宾天象之门</name>
      <trkseg>
        <trkpt lat="28.707841" lon="104.704625"><ele>486.14075</ele><time>2026-05-28T17:26:53.000Z</time></trkpt>
        <trkpt lat="28.707846" lon="104.70457"><ele>487.75775</ele><time>2026-05-28T17:26:59.000Z</time></trkpt>
        <trkpt lat="28.707833" lon="104.704518"><ele>488.388</ele><time>2026-05-28T17:27:04.000Z</time></trkpt>
        <trkpt lat="28.70783" lon="104.704465"><ele>488.51822</ele><time>2026-05-28T17:27:08.000Z</time></trkpt>
        <trkpt lat="28.70783" lon="104.704407"><ele>489.89798</ele><time>2026-05-28T17:27:13.000Z</time></trkpt>
        <trkpt lat="28.70785" lon="104.704348"><ele>491.1131</ele><time>2026-05-28T17:27:18.000Z</time></trkpt>
        <trkpt lat="28.707864" lon="104.704292"><ele>491.84402</ele><time>2026-05-28T17:27:22.000Z</time></trkpt>
        <trkpt lat="28.707871" lon="104.704236"><ele>493.1</ele><time>2026-05-28T17:27:27.000Z</time></trkpt>
        <trkpt lat="28.707873" lon="104.70418"><ele>493.09735</ele><time>2026-05-28T17:27:32.000Z</time></trkpt>
        <trkpt lat="28.707879" lon="104.704127"><ele>495.31482</ele><time>2026-05-28T17:27:37.000Z</time></trkpt>
        <trkpt lat="28.707879" lon="104.704075"><ele>495.47122</ele><time>2026-05-28T17:27:42.000Z</time></trkpt>
        <trkpt lat="28.707873" lon="104.704013"><ele>495.52496</ele><time>2026-05-28T17:27:47.000Z</time></trkpt>
        <trkpt lat="28.707858" lon="104.703965"><ele>496.01373</ele><time>2026-05-28T17:27:52.000Z</time></trkpt>
        <trkpt lat="28.707834" lon="104.703912"><ele>496.29657</ele><time>2026-05-28T17:27:59.000Z</time></trkpt>
        <trkpt lat="28.707806" lon="104.70387"><ele>498.08307</ele><time>2026-05-28T17:28:06.000Z</time></trkpt>
        <trkpt lat="28.707793" lon="104.703819"><ele>499.18658</ele><time>2026-05-28T17:28:12.000Z</time></trkpt>
        <trkpt lat="28.707778" lon="104.703767"><ele>499.0952</ele><time>2026-05-28T17:28:18.000Z</time></trkpt>
        <trkpt lat="28.707759" lon="104.703707"><ele>499.8287</ele><time>2026-05-28T17:28:24.000Z</time></trkpt>
        <trkpt lat="28.707745" lon="104.703654"><ele>500.39954</ele><time>2026-05-28T17:28:29.000Z</time></trkpt>
        <trkpt lat="28.707721" lon="104.703604"><ele>500.9655</ele><time>2026-05-28T17:28:33.000Z</time></trkpt>
        <trkpt lat="28.707683" lon="104.703562"><ele>501.00314</ele><time>2026-05-28T17:28:38.000Z</time></trkpt>
        <trkpt lat="28.707636" lon="104.703554"><ele>501.57428</ele><time>2026-05-28T17:28:44.000Z</time></trkpt>
        <trkpt lat="28.707613" lon="104.703603"><ele>501.86896</ele><time>2026-05-28T17:28:50.000Z</time></trkpt>
        <trkpt lat="28.70762" lon="104.703655"><ele>503.45926</ele><time>2026-05-28T17:28:55.000Z</time></trkpt>
        <trkpt lat="28.707621" lon="104.703716"><ele>505.0634</ele><time>2026-05-28T17:29:00.000Z</time></trkpt>
        <trkpt lat="28.707623" lon="104.703771"><ele>505.774</ele><time>2026-05-28T17:29:06.000Z</time></trkpt>
        <trkpt lat="28.707623" lon="104.703826"><ele>507.02094</ele><time>2026-05-28T17:29:12.000Z</time></trkpt>
        <trkpt lat="28.707626" lon="104.703879"><ele>507.75082</ele><time>2026-05-28T17:29:18.000Z</time></trkpt>
        <trkpt lat="28.707631" lon="104.703937"><ele>507.70398</ele><time>2026-05-28T17:29:23.000Z</time></trkpt>
        <trkpt lat="28.707619" lon="104.703989"><ele>508.13406</ele><time>2026-05-28T17:29:30.000Z</time></trkpt>
        <trkpt lat="28.707608" lon="104.704039"><ele>508.9501</ele><time>2026-05-28T17:29:34.000Z</time></trkpt>
        <trkpt lat="28.707613" lon="104.704093"><ele>510.12833</ele><time>2026-05-28T17:29:40.000Z</time></trkpt>
        <trkpt lat="28.70759" lon="104.704139"><ele>510.47873</ele><time>2026-05-28T17:29:45.000Z</time></trkpt>
        <trkpt lat="28.707562" lon="104.704184"><ele>510.7826</ele><time>2026-05-28T17:29:50.000Z</time></trkpt>
        <trkpt lat="28.707531" lon="104.70423"><ele>511.5264</ele><time>2026-05-28T17:29:55.000Z</time></trkpt>
        <trkpt lat="28.707493" lon="104.704276"><ele>512.2843</ele><time>2026-05-28T17:30:01.000Z</time></trkpt>
        <trkpt lat="28.707455" lon="104.704307"><ele>512.7271</ele><time>2026-05-28T17:30:06.000Z</time></trkpt>
        <trkpt lat="28.707412" lon="104.704325"><ele>511.70758</ele><time>2026-05-28T17:30:09.000Z</time></trkpt>
        <trkpt lat="28.707374" lon="104.704361"><ele>511.02826</ele><time>2026-05-28T17:30:16.000Z</time></trkpt>
        <trkpt lat="28.707356" lon="104.704412"><ele>510.43198</ele><time>2026-05-28T17:30:37.000Z</time></trkpt>
        <trkpt lat="28.70735" lon="104.704464"><ele>509.91064</ele><time>2026-05-28T17:30:42.000Z</time></trkpt>
        <trkpt lat="28.707344" lon="104.704523"><ele>510.4496</ele><time>2026-05-28T17:30:52.000Z</time></trkpt>
        <trkpt lat="28.707336" lon="104.704581"><ele>510.8858</ele><time>2026-05-28T17:30:58.000Z</time></trkpt>
        <trkpt lat="28.707328" lon="104.704637"><ele>511.21606</ele><time>2026-05-28T17:31:04.000Z</time></trkpt>
        <trkpt lat="28.707321" lon="104.704692"><ele>510.7081</ele><time>2026-05-28T17:31:10.000Z</time></trkpt>
        <trkpt lat="28.707315" lon="104.70475"><ele>510.8937</ele><time>2026-05-28T17:31:16.000Z</time></trkpt>
        <trkpt lat="28.707302" lon="104.704805"><ele>511.0264</ele><time>2026-05-28T17:31:22.000Z</time></trkpt>
        <trkpt lat="28.707298" lon="104.704856"><ele>511.61685</ele><time>2026-05-28T17:31:29.000Z</time></trkpt>
        <trkpt lat="28.707321" lon="104.704902"><ele>512.38745</ele><time>2026-05-28T17:31:53.000Z</time></trkpt>
        <trkpt lat="28.707359" lon="104.704938"><ele>512.54675</ele><time>2026-05-28T17:32:01.000Z</time></trkpt>
        <trkpt lat="28.707391" lon="104.704978"><ele>512.8676</ele><time>2026-05-28T17:32:11.000Z</time></trkpt>
        <trkpt lat="28.707434" lon="104.705012"><ele>512.6422</ele><time>2026-05-28T17:32:21.000Z</time></trkpt>
        <trkpt lat="28.707394" lon="104.704979"><ele>512.9876</ele><time>2026-05-28T17:32:42.000Z</time></trkpt>
        <trkpt lat="28.707369" lon="104.704937"><ele>513.0274</ele><time>2026-05-28T17:32:47.000Z</time></trkpt>
        <trkpt lat="28.70733" lon="104.704969"><ele>514.02655</ele><time>2026-05-28T17:33:02.000Z</time></trkpt>
        <trkpt lat="28.707321" lon="104.705027"><ele>517.34894</ele><time>2026-05-28T17:33:15.000Z</time></trkpt>
        <trkpt lat="28.707332" lon="104.70508"><ele>518.4699</ele><time>2026-05-28T17:33:24.000Z</time></trkpt>
        <trkpt lat="28.707334" lon="104.705132"><ele>521.13696</ele><time>2026-05-28T17:33:34.000Z</time></trkpt>
        <trkpt lat="28.707324" lon="104.70519"><ele>522.8345</ele><time>2026-05-28T17:33:45.000Z</time></trkpt>
        <trkpt lat="28.707312" lon="104.705243"><ele>526.0775</ele><time>2026-05-28T17:33:55.000Z</time></trkpt>
        <trkpt lat="28.707319" lon="104.705297"><ele>527.92993</ele><time>2026-05-28T17:34:03.000Z</time></trkpt>
        <trkpt lat="28.707301" lon="104.705346"><ele>531.2444</ele><time>2026-05-28T17:34:25.000Z</time></trkpt>
        <trkpt lat="28.707257" lon="104.705373"><ele>531.7997</ele><time>2026-05-28T17:35:08.000Z</time></trkpt>
        <trkpt lat="28.707306" lon="104.705365"><ele>533.0181</ele><time>2026-05-28T17:35:54.000Z</time></trkpt>
        <trkpt lat="28.707258" lon="104.705368"><ele>532.1935</ele><time>2026-05-28T17:36:28.000Z</time></trkpt>
        <trkpt lat="28.707302" lon="104.705384"><ele>532.8882</ele><time>2026-05-28T17:37:38.000Z</time></trkpt>
        <trkpt lat="28.707329" lon="104.705428"><ele>536.7878</ele><time>2026-05-28T17:38:25.000Z</time></trkpt>
        <trkpt lat="28.707311" lon="104.705479"><ele>537.59283</ele><time>2026-05-28T17:39:20.000Z</time></trkpt>
        <trkpt lat="28.707332" lon="104.705526"><ele>540.3887</ele><time>2026-05-28T17:40:49.000Z</time></trkpt>
        <trkpt lat="28.707297" lon="104.705478"><ele>540.64874</ele><time>2026-05-28T17:42:53.000Z</time></trkpt>
        <trkpt lat="28.707332" lon="104.705489"><ele>537.8751</ele><time>2026-05-28T17:43:29.000Z</time></trkpt>
        <trkpt lat="28.707319" lon="104.705437"><ele>535.8968</ele><time>2026-05-28T17:44:33.000Z</time></trkpt>
        <trkpt lat="28.707292" lon="104.705396"><ele>534.3666</ele><time>2026-05-28T17:46:14.000Z</time></trkpt>
        <trkpt lat="28.707281" lon="104.705343"><ele>533.0665</ele><time>2026-05-28T17:46:42.000Z</time></trkpt>
        <trkpt lat="28.707312" lon="104.705305"><ele>530.76276</ele><time>2026-05-28T17:46:55.000Z</time></trkpt>
        <trkpt lat="28.707314" lon="104.705249"><ele>528.2452</ele><time>2026-05-28T17:47:04.000Z</time></trkpt>
        <trkpt lat="28.707311" lon="104.705193"><ele>525.34094</ele><time>2026-05-28T17:47:12.000Z</time></trkpt>
        <trkpt lat="28.707327" lon="104.705136"><ele>523.8564</ele><time>2026-05-28T17:47:20.000Z</time></trkpt>
        <trkpt lat="28.707329" lon="104.705081"><ele>520.9988</ele><time>2026-05-28T17:47:30.000Z</time></trkpt>
        <trkpt lat="28.707325" lon="104.705029"><ele>517.60925</ele><time>2026-05-28T17:47:41.000Z</time></trkpt>
        <trkpt lat="28.707321" lon="104.704977"><ele>516.00995</ele><time>2026-05-28T17:47:50.000Z</time></trkpt>
        <trkpt lat="28.707319" lon="104.704922"><ele>513.6237</ele><time>2026-05-28T17:48:00.000Z</time></trkpt>
        <trkpt lat="28.707271" lon="104.704942"><ele>514.6598</ele><time>2026-05-28T17:48:06.000Z</time></trkpt>
        <trkpt lat="28.707235" lon="104.704988"><ele>516.0926</ele><time>2026-05-28T17:48:11.000Z</time></trkpt>
        <trkpt lat="28.707195" lon="104.705031"><ele>516.5314</ele><time>2026-05-28T17:48:18.000Z</time></trkpt>
        <trkpt lat="28.707156" lon="104.70506"><ele>517.0954</ele><time>2026-05-28T17:48:22.000Z</time></trkpt>
        <trkpt lat="28.707121" lon="104.705101"><ele>516.9874</ele><time>2026-05-28T17:48:26.000Z</time></trkpt>
        <trkpt lat="28.707086" lon="104.705145"><ele>517.99207</ele><time>2026-05-28T17:48:32.000Z</time></trkpt>
        <trkpt lat="28.707047" lon="104.705185"><ele>519.19965</ele><time>2026-05-28T17:48:38.000Z</time></trkpt>
        <trkpt lat="28.70702" lon="104.705234"><ele>519.5957</ele><time>2026-05-28T17:48:44.000Z</time></trkpt>
        <trkpt lat="28.706995" lon="104.705285"><ele>520.30396</ele><time>2026-05-28T17:48:48.000Z</time></trkpt>
        <trkpt lat="28.706978" lon="104.705335"><ele>520.4663</ele><time>2026-05-28T17:48:52.000Z</time></trkpt>
        <trkpt lat="28.706959" lon="104.705397"><ele>522.0237</ele><time>2026-05-28T17:48:58.000Z</time></trkpt>
        <trkpt lat="28.706956" lon="104.705453"><ele>522.87646</ele><time>2026-05-28T17:49:02.000Z</time></trkpt>
        <trkpt lat="28.706951" lon="104.705512"><ele>523.6805</ele><time>2026-05-28T17:49:07.000Z</time></trkpt>
        <trkpt lat="28.706946" lon="104.705567"><ele>525.22485</ele><time>2026-05-28T17:49:11.000Z</time></trkpt>
        <trkpt lat="28.706942" lon="104.705621"><ele>526.92926</ele><time>2026-05-28T17:49:15.000Z</time></trkpt>
        <trkpt lat="28.706932" lon="104.705678"><ele>529.1069</ele><time>2026-05-28T17:49:19.000Z</time></trkpt>
        <trkpt lat="28.706915" lon="104.705736"><ele>531.4748</ele><time>2026-05-28T17:49:24.000Z</time></trkpt>
        <trkpt lat="28.706881" lon="104.705779"><ele>533.05145</ele><time>2026-05-28T17:49:28.000Z</time></trkpt>
        <trkpt lat="28.706838" lon="104.705819"><ele>533.9256</ele><time>2026-05-28T17:49:32.000Z</time></trkpt>
        <trkpt lat="28.706789" lon="104.705844"><ele>534.7631</ele><time>2026-05-28T17:49:36.000Z</time></trkpt>
        <trkpt lat="28.706747" lon="104.705874"><ele>535.1546</ele><time>2026-05-28T17:49:41.000Z</time></trkpt>
        <trkpt lat="28.706708" lon="104.705903"><ele>535.1591</ele><time>2026-05-28T17:49:46.000Z</time></trkpt>
        <trkpt lat="28.706664" lon="104.705928"><ele>535.89825</ele><time>2026-05-28T17:49:52.000Z</time></trkpt>
        <trkpt lat="28.706626" lon="104.705967"><ele>536.3156</ele><time>2026-05-28T17:49:58.000Z</time></trkpt>
        <trkpt lat="28.706581" lon="104.705998"><ele>536.5135</ele><time>2026-05-28T17:50:04.000Z</time></trkpt>
        <trkpt lat="28.706537" lon="104.706019"><ele>537.1595</ele><time>2026-05-28T17:50:08.000Z</time></trkpt>
        <trkpt lat="28.706489" lon="104.706035"><ele>535.6474</ele><time>2026-05-28T17:50:14.000Z</time></trkpt>
        <trkpt lat="28.706435" lon="104.706051"><ele>533.7365</ele><time>2026-05-28T17:50:20.000Z</time></trkpt>
        <trkpt lat="28.706381" lon="104.706057"><ele>533.2551</ele><time>2026-05-28T17:50:25.000Z</time></trkpt>
        <trkpt lat="28.706333" lon="104.706076"><ele>532.5155</ele><time>2026-05-28T17:50:30.000Z</time></trkpt>
        <trkpt lat="28.70629" lon="104.706101"><ele>531.92645</ele><time>2026-05-28T17:50:37.000Z</time></trkpt>
        <trkpt lat="28.706253" lon="104.70615"><ele>531.77826</ele><time>2026-05-28T17:50:42.000Z</time></trkpt>
        <trkpt lat="28.706229" lon="104.706197"><ele>531.56964</ele><time>2026-05-28T17:50:48.000Z</time></trkpt>
        <trkpt lat="28.70621" lon="104.706253"><ele>531.7499</ele><time>2026-05-28T17:50:53.000Z</time></trkpt>
        <trkpt lat="28.706207" lon="104.706315"><ele>533.4145</ele><time>2026-05-28T17:50:58.000Z</time></trkpt>
        <trkpt lat="28.706193" lon="104.706364"><ele>533.5945</ele><time>2026-05-28T17:51:02.000Z</time></trkpt>
        <trkpt lat="28.706174" lon="104.706416"><ele>533.96045</ele><time>2026-05-28T17:51:06.000Z</time></trkpt>
        <trkpt lat="28.706144" lon="104.706458"><ele>534.3959</ele><time>2026-05-28T17:51:11.000Z</time></trkpt>
        <trkpt lat="28.706112" lon="104.706503"><ele>534.0016</ele><time>2026-05-28T17:51:16.000Z</time></trkpt>
        <trkpt lat="28.706096" lon="104.706552"><ele>534.8199</ele><time>2026-05-28T17:51:20.000Z</time></trkpt>
        <trkpt lat="28.706075" lon="104.706607"><ele>535.8383</ele><time>2026-05-28T17:51:25.000Z</time></trkpt>
        <trkpt lat="28.706043" lon="104.706649"><ele>535.72687</ele><time>2026-05-28T17:51:29.000Z</time></trkpt>
        <trkpt lat="28.706017" lon="104.706698"><ele>535.7119</ele><time>2026-05-28T17:51:33.000Z</time></trkpt>
        <trkpt lat="28.706012" lon="104.706756"><ele>535.451</ele><time>2026-05-28T17:51:37.000Z</time></trkpt>
        <trkpt lat="28.70602" lon="104.706814"><ele>536.421</ele><time>2026-05-28T17:51:42.000Z</time></trkpt>
        <trkpt lat="28.706027" lon="104.706878"><ele>536.65497</ele><time>2026-05-28T17:51:48.000Z</time></trkpt>
        <trkpt lat="28.706045" lon="104.706928"><ele>536.9823</ele><time>2026-05-28T17:51:53.000Z</time></trkpt>
        <trkpt lat="28.706072" lon="104.706983"><ele>537.3119</ele><time>2026-05-28T17:51:58.000Z</time></trkpt>
        <trkpt lat="28.706099" lon="104.707026"><ele>537.1517</ele><time>2026-05-28T17:52:11.000Z</time></trkpt>
        <trkpt lat="28.706099" lon="104.707082"><ele>536.57794</ele><time>2026-05-28T17:52:19.000Z</time></trkpt>
        <trkpt lat="28.706083" lon="104.707132"><ele>535.5529</ele><time>2026-05-28T17:52:26.000Z</time></trkpt>
        <trkpt lat="28.706053" lon="104.70718"><ele>532.5316</ele><time>2026-05-28T17:52:34.000Z</time></trkpt>
        <trkpt lat="28.706011" lon="104.707213"><ele>530.14325</ele><time>2026-05-28T17:52:40.000Z</time></trkpt>
        <trkpt lat="28.70599" lon="104.707262"><ele>528.77136</ele><time>2026-05-28T17:52:45.000Z</time></trkpt>
        <trkpt lat="28.705972" lon="104.707321"><ele>526.1997</ele><time>2026-05-28T17:52:52.000Z</time></trkpt>
        <trkpt lat="28.705947" lon="104.707373"><ele>524.01794</ele><time>2026-05-28T17:53:02.000Z</time></trkpt>
        <trkpt lat="28.70593" lon="104.707424"><ele>522.2903</ele><time>2026-05-28T17:53:11.000Z</time></trkpt>
        <trkpt lat="28.705926" lon="104.707482"><ele>517.9697</ele><time>2026-05-28T17:53:22.000Z</time></trkpt>
        <trkpt lat="28.705885" lon="104.70751"><ele>517.4527</ele><time>2026-05-28T17:53:30.000Z</time></trkpt>
        <trkpt lat="28.705831" lon="104.707541"><ele>517.5168</ele><time>2026-05-28T17:53:42.000Z</time></trkpt>
        <trkpt lat="28.705796" lon="104.707576"><ele>515.8467</ele><time>2026-05-28T17:53:46.000Z</time></trkpt>
        <trkpt lat="28.705764" lon="104.707619"><ele>514.98505</ele><time>2026-05-28T17:53:48.000Z</time></trkpt>
        <trkpt lat="28.705747" lon="104.707676"><ele>516.04974</ele><time>2026-05-28T17:53:52.000Z</time></trkpt>
        <trkpt lat="28.705709" lon="104.707706"><ele>516.2894</ele><time>2026-05-28T17:53:58.000Z</time></trkpt>
        <trkpt lat="28.705667" lon="104.707735"><ele>516.5348</ele><time>2026-05-28T17:54:01.000Z</time></trkpt>
        <trkpt lat="28.705642" lon="104.707791"><ele>517.24066</ele><time>2026-05-28T17:54:20.000Z</time></trkpt>
        <trkpt lat="28.705619" lon="104.707841"><ele>517.17664</ele><time>2026-05-28T17:54:25.000Z</time></trkpt>
        <trkpt lat="28.705606" lon="104.707895"><ele>517.4087</ele><time>2026-05-28T17:54:30.000Z</time></trkpt>
        <trkpt lat="28.705586" lon="104.707949"><ele>517.6822</ele><time>2026-05-28T17:54:35.000Z</time></trkpt>
        <trkpt lat="28.705558" lon="104.70799"><ele>517.48346</ele><time>2026-05-28T17:54:39.000Z</time></trkpt>
        <trkpt lat="28.705523" lon="104.708028"><ele>516.46625</ele><time>2026-05-28T17:54:44.000Z</time></trkpt>
        <trkpt lat="28.705506" lon="104.708092"><ele>515.65497</ele><time>2026-05-28T17:54:47.000Z</time></trkpt>
        <trkpt lat="28.705536" lon="104.708136"><ele>516.004</ele><time>2026-05-28T17:54:51.000Z</time></trkpt>
        <trkpt lat="28.705558" lon="104.708194"><ele>515.54346</ele><time>2026-05-28T17:54:56.000Z</time></trkpt>
        <trkpt lat="28.705552" lon="104.708245"><ele>515.5855</ele><time>2026-05-28T17:55:01.000Z</time></trkpt>
        <trkpt lat="28.705525" lon="104.708296"><ele>516.86145</ele><time>2026-05-28T17:55:06.000Z</time></trkpt>
        <trkpt lat="28.705499" lon="104.708345"><ele>516.92236</ele><time>2026-05-28T17:55:11.000Z</time></trkpt>
        <trkpt lat="28.705479" lon="104.7084"><ele>516.4491</ele><time>2026-05-28T17:55:16.000Z</time></trkpt>
        <trkpt lat="28.705453" lon="104.708442"><ele>515.87933</ele><time>2026-05-28T17:55:20.000Z</time></trkpt>
        <trkpt lat="28.705418" lon="104.708488"><ele>515.73334</ele><time>2026-05-28T17:55:25.000Z</time></trkpt>
        <trkpt lat="28.705381" lon="104.708535"><ele>516.1464</ele><time>2026-05-28T17:55:30.000Z</time></trkpt>
        <trkpt lat="28.705348" lon="104.708571"><ele>516.88544</ele><time>2026-05-28T17:55:34.000Z</time></trkpt>
        <trkpt lat="28.705304" lon="104.708589"><ele>516.4623</ele><time>2026-05-28T17:55:39.000Z</time></trkpt>
        <trkpt lat="28.70526" lon="104.708611"><ele>516.23883</ele><time>2026-05-28T17:55:44.000Z</time></trkpt>
        <trkpt lat="28.705214" lon="104.708645"><ele>516.0889</ele><time>2026-05-28T17:55:50.000Z</time></trkpt>
        <trkpt lat="28.705166" lon="104.708666"><ele>514.8534</ele><time>2026-05-28T17:55:55.000Z</time></trkpt>
        <trkpt lat="28.705119" lon="104.70868"><ele>512.76166</ele><time>2026-05-28T17:56:00.000Z</time></trkpt>
        <trkpt lat="28.705073" lon="104.708697"><ele>510.58743</ele><time>2026-05-28T17:56:06.000Z</time></trkpt>
        <trkpt lat="28.705025" lon="104.708721"><ele>509.24606</ele><time>2026-05-28T17:56:09.000Z</time></trkpt>
        <trkpt lat="28.705" lon="104.708774"><ele>508.73935</ele><time>2026-05-28T17:56:14.000Z</time></trkpt>
        <trkpt lat="28.705003" lon="104.708838"><ele>507.72897</ele><time>2026-05-28T17:56:20.000Z</time></trkpt>
        <trkpt lat="28.705002" lon="104.708903"><ele>505.84354</ele><time>2026-05-28T17:56:26.000Z</time></trkpt>
        <trkpt lat="28.705002" lon="104.70897"><ele>504.2596</ele><time>2026-05-28T17:56:30.000Z</time></trkpt>
        <trkpt lat="28.704997" lon="104.709026"><ele>505.2523</ele><time>2026-05-28T17:56:36.000Z</time></trkpt>
        <trkpt lat="28.705001" lon="104.709085"><ele>504.4751</ele><time>2026-05-28T17:56:41.000Z</time></trkpt>
        <trkpt lat="28.705005" lon="104.709143"><ele>504.31046</ele><time>2026-05-28T17:56:46.000Z</time></trkpt>
        <trkpt lat="28.705027" lon="104.709195"><ele>503.96674</ele><time>2026-05-28T17:56:50.000Z</time></trkpt>
        <trkpt lat="28.705053" lon="104.709251"><ele>503.6058</ele><time>2026-05-28T17:56:56.000Z</time></trkpt>
        <trkpt lat="28.70502" lon="104.709288"><ele>503.0517</ele><time>2026-05-28T17:57:06.000Z</time></trkpt>
        <trkpt lat="28.704972" lon="104.709293"><ele>502.413</ele><time>2026-05-28T17:57:13.000Z</time></trkpt>
        <trkpt lat="28.704929" lon="104.709314"><ele>502.99725</ele><time>2026-05-28T17:57:17.000Z</time></trkpt>
        <trkpt lat="28.704878" lon="104.70933"><ele>502.2078</ele><time>2026-05-28T17:57:22.000Z</time></trkpt>
        <trkpt lat="28.704835" lon="104.709348"><ele>502.2229</ele><time>2026-05-28T17:57:24.000Z</time></trkpt>
        <trkpt lat="28.704812" lon="104.709397"><ele>502.0809</ele><time>2026-05-28T17:57:28.000Z</time></trkpt>
        <trkpt lat="28.704765" lon="104.709435"><ele>501.83438</ele><time>2026-05-28T17:57:36.000Z</time></trkpt>
        <trkpt lat="28.704739" lon="104.709486"><ele>501.714</ele><time>2026-05-28T17:57:43.000Z</time></trkpt>
        <trkpt lat="28.704763" lon="104.709534"><ele>500.93704</ele><time>2026-05-28T17:57:47.000Z</time></trkpt>
        <trkpt lat="28.704761" lon="104.709589"><ele>500.93356</ele><time>2026-05-28T17:57:52.000Z</time></trkpt>
        <trkpt lat="28.704731" lon="104.709636"><ele>501.34338</ele><time>2026-05-28T17:57:57.000Z</time></trkpt>
        <trkpt lat="28.704711" lon="104.709682"><ele>502.4261</ele><time>2026-05-28T17:58:02.000Z</time></trkpt>
        <trkpt lat="28.704706" lon="104.709749"><ele>502.57095</ele><time>2026-05-28T17:58:05.000Z</time></trkpt>
        <trkpt lat="28.704674" lon="104.709795"><ele>503.32443</ele><time>2026-05-28T17:58:10.000Z</time></trkpt>
        <trkpt lat="28.704646" lon="104.709845"><ele>503.13153</ele><time>2026-05-28T17:58:14.000Z</time></trkpt>
        <trkpt lat="28.704613" lon="104.709892"><ele>502.20352</ele><time>2026-05-28T17:58:19.000Z</time></trkpt>
        <trkpt lat="28.70457" lon="104.709912"><ele>500.6979</ele><time>2026-05-28T17:58:23.000Z</time></trkpt>
        <trkpt lat="28.704528" lon="104.709943"><ele>498.77393</ele><time>2026-05-28T17:58:30.000Z</time></trkpt>
        <trkpt lat="28.704525" lon="104.709998"><ele>495.9148</ele><time>2026-05-28T17:58:43.000Z</time></trkpt>
        <trkpt lat="28.704567" lon="104.710038"><ele>494.6441</ele><time>2026-05-28T17:58:51.000Z</time></trkpt>
        <trkpt lat="28.704585" lon="104.710087"><ele>494.95898</ele><time>2026-05-28T17:58:59.000Z</time></trkpt>
        <trkpt lat="28.704579" lon="104.710144"><ele>493.8285</ele><time>2026-05-28T17:59:17.000Z</time></trkpt>
        <trkpt lat="28.70462" lon="104.710172"><ele>491.6338</ele><time>2026-05-28T17:59:25.000Z</time></trkpt>
        <trkpt lat="28.704663" lon="104.710201"><ele>490.6658</ele><time>2026-05-28T17:59:37.000Z</time></trkpt>
        <trkpt lat="28.704714" lon="104.710194"><ele>492.24918</ele><time>2026-05-28T17:59:42.000Z</time></trkpt>
        <trkpt lat="28.70476" lon="104.710154"><ele>492.16998</ele><time>2026-05-28T17:59:46.000Z</time></trkpt>
        <trkpt lat="28.704774" lon="104.710104"><ele>493.02225</ele><time>2026-05-28T18:00:03.000Z</time></trkpt>
        <trkpt lat="28.704768" lon="104.710158"><ele>493.50992</ele><time>2026-05-28T18:00:23.000Z</time></trkpt>
        <trkpt lat="28.704801" lon="104.7102"><ele>493.21506</ele><time>2026-05-28T18:00:30.000Z</time></trkpt>
        <trkpt lat="28.704836" lon="104.710246"><ele>493.1247</ele><time>2026-05-28T18:00:36.000Z</time></trkpt>
        <trkpt lat="28.70482" lon="104.710298"><ele>493.32568</ele><time>2026-05-28T18:00:41.000Z</time></trkpt>
        <trkpt lat="28.704804" lon="104.710349"><ele>490.81528</ele><time>2026-05-28T18:00:50.000Z</time></trkpt>
        <trkpt lat="28.70478" lon="104.7104"><ele>490.65106</ele><time>2026-05-28T18:00:53.000Z</time></trkpt>
        <trkpt lat="28.704773" lon="104.710453"><ele>489.87088</ele><time>2026-05-28T18:00:56.000Z</time></trkpt>
        <trkpt lat="28.704756" lon="104.710503"><ele>490.28763</ele><time>2026-05-28T18:01:00.000Z</time></trkpt>
        <trkpt lat="28.704739" lon="104.710554"><ele>489.73346</ele><time>2026-05-28T18:01:05.000Z</time></trkpt>
        <trkpt lat="28.704704" lon="104.710594"><ele>488.90402</ele><time>2026-05-28T18:01:10.000Z</time></trkpt>
        <trkpt lat="28.704658" lon="104.710595"><ele>487.6808</ele><time>2026-05-28T18:01:24.000Z</time></trkpt>
        <trkpt lat="28.704633" lon="104.710644"><ele>487.31372</ele><time>2026-05-28T18:01:37.000Z</time></trkpt>
        <trkpt lat="28.704606" lon="104.710697"><ele>487.23724</ele><time>2026-05-28T18:01:42.000Z</time></trkpt>
        <trkpt lat="28.7046" lon="104.710756"><ele>485.73285</ele><time>2026-05-28T18:01:48.000Z</time></trkpt>
        <trkpt lat="28.704579" lon="104.710807"><ele>484.1909</ele><time>2026-05-28T18:01:55.000Z</time></trkpt>
        <trkpt lat="28.704547" lon="104.710856"><ele>483.65765</ele><time>2026-05-28T18:02:00.000Z</time></trkpt>
        <trkpt lat="28.704527" lon="104.710906"><ele>482.37988</ele><time>2026-05-28T18:02:03.000Z</time></trkpt>
        <trkpt lat="28.704543" lon="104.710971"><ele>481.2609</ele><time>2026-05-28T18:02:07.000Z</time></trkpt>
        <trkpt lat="28.704573" lon="104.71102"><ele>480.58914</ele><time>2026-05-28T18:02:11.000Z</time></trkpt>
        <trkpt lat="28.704614" lon="104.711059"><ele>481.33096</ele><time>2026-05-28T18:02:15.000Z</time></trkpt>
        <trkpt lat="28.704661" lon="104.711084"><ele>481.2113</ele><time>2026-05-28T18:02:19.000Z</time></trkpt>
        <trkpt lat="28.704711" lon="104.711114"><ele>481.2038</ele><time>2026-05-28T18:02:24.000Z</time></trkpt>
        <trkpt lat="28.704748" lon="104.711144"><ele>481.45078</ele><time>2026-05-28T18:02:28.000Z</time></trkpt>
        <trkpt lat="28.70476" lon="104.711198"><ele>482.36768</ele><time>2026-05-28T18:02:32.000Z</time></trkpt>
        <trkpt lat="28.704754" lon="104.71125"><ele>481.14853</ele><time>2026-05-28T18:02:37.000Z</time></trkpt>
        <trkpt lat="28.704745" lon="104.711304"><ele>480.91312</ele><time>2026-05-28T18:02:42.000Z</time></trkpt>
        <trkpt lat="28.704732" lon="104.711374"><ele>481.02408</ele><time>2026-05-28T18:02:52.000Z</time></trkpt>
        <trkpt lat="28.704675" lon="104.711371"><ele>481.89838</ele><time>2026-05-28T18:02:57.000Z</time></trkpt>
        <trkpt lat="28.704694" lon="104.711424"><ele>482.03323</ele><time>2026-05-28T18:03:05.000Z</time></trkpt>
        <trkpt lat="28.70474" lon="104.711439"><ele>481.44278</ele><time>2026-05-28T18:03:09.000Z</time></trkpt>
        <trkpt lat="28.704778" lon="104.711471"><ele>481.2622</ele><time>2026-05-28T18:03:12.000Z</time></trkpt>
        <trkpt lat="28.704825" lon="104.711483"><ele>481.33533</ele><time>2026-05-28T18:03:16.000Z</time></trkpt>
        <trkpt lat="28.704876" lon="104.711514"><ele>481.6224</ele><time>2026-05-28T18:03:20.000Z</time></trkpt>
        <trkpt lat="28.704921" lon="104.711548"><ele>483.03232</ele><time>2026-05-28T18:03:25.000Z</time></trkpt>
        <trkpt lat="28.704962" lon="104.711585"><ele>482.94144</ele><time>2026-05-28T18:03:30.000Z</time></trkpt>
        <trkpt lat="28.705002" lon="104.71162"><ele>484.15262</ele><time>2026-05-28T18:03:35.000Z</time></trkpt>
        <trkpt lat="28.705036" lon="104.711667"><ele>484.65027</ele><time>2026-05-28T18:03:40.000Z</time></trkpt>
        <trkpt lat="28.705069" lon="104.711717"><ele>485.2516</ele><time>2026-05-28T18:03:44.000Z</time></trkpt>
        <trkpt lat="28.705092" lon="104.711776"><ele>485.82718</ele><time>2026-05-28T18:03:49.000Z</time></trkpt>
        <trkpt lat="28.705106" lon="104.711826"><ele>486.59988</ele><time>2026-05-28T18:03:54.000Z</time></trkpt>
        <trkpt lat="28.70513" lon="104.711886"><ele>487.31888</ele><time>2026-05-28T18:03:59.000Z</time></trkpt>
        <trkpt lat="28.705141" lon="104.711936"><ele>486.478</ele><time>2026-05-28T18:04:03.000Z</time></trkpt>
        <trkpt lat="28.705163" lon="104.711987"><ele>486.90027</ele><time>2026-05-28T18:04:07.000Z</time></trkpt>
        <trkpt lat="28.705176" lon="104.712042"><ele>487.47308</ele><time>2026-05-28T18:04:11.000Z</time></trkpt>
        <trkpt lat="28.705193" lon="104.712091"><ele>488.24023</ele><time>2026-05-28T18:04:15.000Z</time></trkpt>
        <trkpt lat="28.705209" lon="104.712141"><ele>488.47324</ele><time>2026-05-28T18:04:19.000Z</time></trkpt>
        <trkpt lat="28.705226" lon="104.712204"><ele>488.5067</ele><time>2026-05-28T18:04:24.000Z</time></trkpt>
        <trkpt lat="28.705234" lon="104.712267"><ele>490.17453</ele><time>2026-05-28T18:04:28.000Z</time></trkpt>
        <trkpt lat="28.705231" lon="104.712319"><ele>490.76675</ele><time>2026-05-28T18:04:31.000Z</time></trkpt>
        <trkpt lat="28.705239" lon="104.712377"><ele>491.84985</ele><time>2026-05-28T18:04:36.000Z</time></trkpt>
        <trkpt lat="28.705239" lon="104.712434"><ele>492.69568</ele><time>2026-05-28T18:04:41.000Z</time></trkpt>
        <trkpt lat="28.705233" lon="104.712491"><ele>493.6858</ele><time>2026-05-28T18:04:48.000Z</time></trkpt>
        <trkpt lat="28.705215" lon="104.712543"><ele>493.97375</ele><time>2026-05-28T18:04:55.000Z</time></trkpt>
        <trkpt lat="28.705196" lon="104.712593"><ele>494.4276</ele><time>2026-05-28T18:05:01.000Z</time></trkpt>
        <trkpt lat="28.70516" lon="104.712642"><ele>495.8639</ele><time>2026-05-28T18:05:07.000Z</time></trkpt>
        <trkpt lat="28.70513" lon="104.712692"><ele>496.28375</ele><time>2026-05-28T18:05:12.000Z</time></trkpt>
        <trkpt lat="28.705103" lon="104.712737"><ele>496.94006</ele><time>2026-05-28T18:05:16.000Z</time></trkpt>
        <trkpt lat="28.705073" lon="104.712784"><ele>497.5511</ele><time>2026-05-28T18:05:21.000Z</time></trkpt>
        <trkpt lat="28.705051" lon="104.712843"><ele>497.45276</ele><time>2026-05-28T18:05:27.000Z</time></trkpt>
        <trkpt lat="28.705058" lon="104.712899"><ele>497.89703</ele><time>2026-05-28T18:05:32.000Z</time></trkpt>
        <trkpt lat="28.705059" lon="104.712957"><ele>499.25204</ele><time>2026-05-28T18:05:38.000Z</time></trkpt>
        <trkpt lat="28.705088" lon="104.713006"><ele>499.5852</ele><time>2026-05-28T18:05:44.000Z</time></trkpt>
        <trkpt lat="28.705113" lon="104.713059"><ele>499.33447</ele><time>2026-05-28T18:05:50.000Z</time></trkpt>
        <trkpt lat="28.705123" lon="104.713109"><ele>499.22943</ele><time>2026-05-28T18:05:55.000Z</time></trkpt>
        <trkpt lat="28.705116" lon="104.713162"><ele>499.7122</ele><time>2026-05-28T18:05:59.000Z</time></trkpt>
        <trkpt lat="28.705103" lon="104.713217"><ele>499.16742</ele><time>2026-05-28T18:06:04.000Z</time></trkpt>
        <trkpt lat="28.705086" lon="104.713277"><ele>499.1262</ele><time>2026-05-28T18:06:09.000Z</time></trkpt>
        <trkpt lat="28.705071" lon="104.713327"><ele>498.73257</ele><time>2026-05-28T18:06:13.000Z</time></trkpt>
        <trkpt lat="28.70507" lon="104.713384"><ele>498.84497</ele><time>2026-05-28T18:06:18.000Z</time></trkpt>
        <trkpt lat="28.705069" lon="104.713438"><ele>499.33743</ele><time>2026-05-28T18:06:23.000Z</time></trkpt>
        <trkpt lat="28.705087" lon="104.713503"><ele>499.32303</ele><time>2026-05-28T18:06:28.000Z</time></trkpt>
        <trkpt lat="28.705102" lon="104.713556"><ele>498.43277</ele><time>2026-05-28T18:06:32.000Z</time></trkpt>
        <trkpt lat="28.705112" lon="104.713611"><ele>499.36325</ele><time>2026-05-28T18:06:39.000Z</time></trkpt>
        <trkpt lat="28.705129" lon="104.713676"><ele>499.23032</ele><time>2026-05-28T18:06:44.000Z</time></trkpt>
        <trkpt lat="28.705142" lon="104.713735"><ele>499.1854</ele><time>2026-05-28T18:06:49.000Z</time></trkpt>
        <trkpt lat="28.705158" lon="104.713786"><ele>498.88678</ele><time>2026-05-28T18:06:53.000Z</time></trkpt>
        <trkpt lat="28.705177" lon="104.713844"><ele>498.81882</ele><time>2026-05-28T18:06:57.000Z</time></trkpt>
        <trkpt lat="28.705191" lon="104.713908"><ele>498.2958</ele><time>2026-05-28T18:07:02.000Z</time></trkpt>
        <trkpt lat="28.705214" lon="104.713967"><ele>498.3955</ele><time>2026-05-28T18:07:06.000Z</time></trkpt>
        <trkpt lat="28.705237" lon="104.714028"><ele>498.7407</ele><time>2026-05-28T18:07:10.000Z</time></trkpt>
        <trkpt lat="28.705276" lon="104.714068"><ele>499.33313</ele><time>2026-05-28T18:07:14.000Z</time></trkpt>
        <trkpt lat="28.705322" lon="104.714104"><ele>500.32816</ele><time>2026-05-28T18:07:18.000Z</time></trkpt>
        <trkpt lat="28.705373" lon="104.714101"><ele>501.31778</ele><time>2026-05-28T18:07:22.000Z</time></trkpt>
        <trkpt lat="28.705416" lon="104.714071"><ele>502.36597</ele><time>2026-05-28T18:07:27.000Z</time></trkpt>
        <trkpt lat="28.705443" lon="104.714019"><ele>503.81387</ele><time>2026-05-28T18:07:33.000Z</time></trkpt>
        <trkpt lat="28.705452" lon="104.713959"><ele>503.77786</ele><time>2026-05-28T18:07:38.000Z</time></trkpt>
        <trkpt lat="28.705472" lon="104.713912"><ele>503.45862</ele><time>2026-05-28T18:07:42.000Z</time></trkpt>
        <trkpt lat="28.705492" lon="104.713846"><ele>503.66547</ele><time>2026-05-28T18:07:46.000Z</time></trkpt>
        <trkpt lat="28.705512" lon="104.71379"><ele>504.4409</ele><time>2026-05-28T18:07:50.000Z</time></trkpt>
        <trkpt lat="28.705545" lon="104.713735"><ele>504.77847</ele><time>2026-05-28T18:07:55.000Z</time></trkpt>
        <trkpt lat="28.705568" lon="104.713687"><ele>504.91315</ele><time>2026-05-28T18:07:59.000Z</time></trkpt>
        <trkpt lat="28.705591" lon="104.713642"><ele>504.0325</ele><time>2026-05-28T18:08:03.000Z</time></trkpt>
        <trkpt lat="28.705614" lon="104.713584"><ele>503.3885</ele><time>2026-05-28T18:08:08.000Z</time></trkpt>
        <trkpt lat="28.705645" lon="104.713543"><ele>502.60883</ele><time>2026-05-28T18:08:12.000Z</time></trkpt>
        <trkpt lat="28.705699" lon="104.713559"><ele>501.89053</ele><time>2026-05-28T18:08:16.000Z</time></trkpt>
        <trkpt lat="28.705714" lon="104.713608"><ele>501.5105</ele><time>2026-05-28T18:08:20.000Z</time></trkpt>
        <trkpt lat="28.705722" lon="104.713666"><ele>501.89188</ele><time>2026-05-28T18:08:27.000Z</time></trkpt>
        <trkpt lat="28.705729" lon="104.71373"><ele>502.24826</ele><time>2026-05-28T18:08:32.000Z</time></trkpt>
        <trkpt lat="28.705724" lon="104.713787"><ele>503.20224</ele><time>2026-05-28T18:08:36.000Z</time></trkpt>
        <trkpt lat="28.705725" lon="104.713842"><ele>503.89474</ele><time>2026-05-28T18:08:40.000Z</time></trkpt>
        <trkpt lat="28.70572" lon="104.713898"><ele>505.60785</ele><time>2026-05-28T18:08:45.000Z</time></trkpt>
        <trkpt lat="28.705712" lon="104.713957"><ele>505.65842</ele><time>2026-05-28T18:08:53.000Z</time></trkpt>
        <trkpt lat="28.70571" lon="104.714017"><ele>505.46375</ele><time>2026-05-28T18:08:58.000Z</time></trkpt>
        <trkpt lat="28.705716" lon="104.71407"><ele>506.18097</ele><time>2026-05-28T18:09:02.000Z</time></trkpt>
        <trkpt lat="28.705708" lon="104.714127"><ele>506.5106</ele><time>2026-05-28T18:09:07.000Z</time></trkpt>
        <trkpt lat="28.705698" lon="104.714179"><ele>506.6966</ele><time>2026-05-28T18:09:11.000Z</time></trkpt>
        <trkpt lat="28.705699" lon="104.714242"><ele>508.46597</ele><time>2026-05-28T18:09:16.000Z</time></trkpt>
        <trkpt lat="28.705693" lon="104.714293"><ele>510.84784</ele><time>2026-05-28T18:09:23.000Z</time></trkpt>
        <trkpt lat="28.705667" lon="104.714337"><ele>510.68796</ele><time>2026-05-28T18:09:44.000Z</time></trkpt>
        <trkpt lat="28.705631" lon="104.714375"><ele>511.75836</ele><time>2026-05-28T18:09:48.000Z</time></trkpt>
        <trkpt lat="28.705593" lon="104.714421"><ele>512.50555</ele><time>2026-05-28T18:09:53.000Z</time></trkpt>
        <trkpt lat="28.705553" lon="104.714448"><ele>513.8028</ele><time>2026-05-28T18:10:10.000Z</time></trkpt>
        <trkpt lat="28.705515" lon="104.714478"><ele>514.6535</ele><time>2026-05-28T18:10:30.000Z</time></trkpt>
        <trkpt lat="28.705479" lon="104.714514"><ele>515.1842</ele><time>2026-05-28T18:10:35.000Z</time></trkpt>
        <trkpt lat="28.705459" lon="104.714562"><ele>515.3301</ele><time>2026-05-28T18:10:40.000Z</time></trkpt>
        <trkpt lat="28.705474" lon="104.714617"><ele>516.52704</ele><time>2026-05-28T18:10:45.000Z</time></trkpt>
        <trkpt lat="28.7055" lon="104.71467"><ele>517.8218</ele><time>2026-05-28T18:10:51.000Z</time></trkpt>
        <trkpt lat="28.705525" lon="104.714715"><ele>518.64703</ele><time>2026-05-28T18:10:56.000Z</time></trkpt>
        <trkpt lat="28.705564" lon="104.714755"><ele>518.9275</ele><time>2026-05-28T18:11:01.000Z</time></trkpt>
        <trkpt lat="28.705598" lon="104.714797"><ele>519.74744</ele><time>2026-05-28T18:11:06.000Z</time></trkpt>
        <trkpt lat="28.705625" lon="104.714844"><ele>520.0384</ele><time>2026-05-28T18:11:11.000Z</time></trkpt>
        <trkpt lat="28.705663" lon="104.714889"><ele>520.5173</ele><time>2026-05-28T18:11:17.000Z</time></trkpt>
        <trkpt lat="28.705693" lon="104.71494"><ele>520.60077</ele><time>2026-05-28T18:11:23.000Z</time></trkpt>
        <trkpt lat="28.705729" lon="104.714974"><ele>521.2715</ele><time>2026-05-28T18:11:29.000Z</time></trkpt>
        <trkpt lat="28.705773" lon="104.715002"><ele>522.2628</ele><time>2026-05-28T18:11:35.000Z</time></trkpt>
        <trkpt lat="28.705815" lon="104.715038"><ele>523.0699</ele><time>2026-05-28T18:11:41.000Z</time></trkpt>
        <trkpt lat="28.705848" lon="104.715076"><ele>526.1919</ele><time>2026-05-28T18:11:47.000Z</time></trkpt>
        <trkpt lat="28.705882" lon="104.715115"><ele>526.9531</ele><time>2026-05-28T18:11:54.000Z</time></trkpt>
        <trkpt lat="28.705894" lon="104.71517"><ele>528.58704</ele><time>2026-05-28T18:12:02.000Z</time></trkpt>
        <trkpt lat="28.705916" lon="104.715219"><ele>528.428</ele><time>2026-05-28T18:12:06.000Z</time></trkpt>
        <trkpt lat="28.705945" lon="104.715266"><ele>529.80206</ele><time>2026-05-28T18:12:12.000Z</time></trkpt>
        <trkpt lat="28.70598" lon="104.715306"><ele>532.4281</ele><time>2026-05-28T18:12:20.000Z</time></trkpt>
        <trkpt lat="28.706021" lon="104.715333"><ele>533.4723</ele><time>2026-05-28T18:12:26.000Z</time></trkpt>
        <trkpt lat="28.706057" lon="104.71537"><ele>536.0381</ele><time>2026-05-28T18:12:34.000Z</time></trkpt>
        <trkpt lat="28.706086" lon="104.71541"><ele>536.3274</ele><time>2026-05-28T18:12:43.000Z</time></trkpt>
        <trkpt lat="28.706043" lon="104.715383"><ele>537.0916</ele><time>2026-05-28T18:13:31.000Z</time></trkpt>
        <trkpt lat="28.706083" lon="104.715419"><ele>536.8572</ele><time>2026-05-28T18:13:46.000Z</time></trkpt>
        <trkpt lat="28.706044" lon="104.715448"><ele>538.9497</ele><time>2026-05-28T18:13:52.000Z</time></trkpt>
        <trkpt lat="28.706004" lon="104.715478"><ele>538.0037</ele><time>2026-05-28T18:14:03.000Z</time></trkpt>
        <trkpt lat="28.706" lon="104.715535"><ele>539.2985</ele><time>2026-05-28T18:14:14.000Z</time></trkpt>
        <trkpt lat="28.705986" lon="104.71559"><ele>539.771</ele><time>2026-05-28T18:14:21.000Z</time></trkpt>
        <trkpt lat="28.705964" lon="104.715641"><ele>540.24133</ele><time>2026-05-28T18:14:29.000Z</time></trkpt>
        <trkpt lat="28.705944" lon="104.715688"><ele>540.4275</ele><time>2026-05-28T18:14:39.000Z</time></trkpt>
        <trkpt lat="28.70593" lon="104.715746"><ele>541.01935</ele><time>2026-05-28T18:14:53.000Z</time></trkpt>
        <trkpt lat="28.705934" lon="104.715804"><ele>543.1022</ele><time>2026-05-28T18:15:00.000Z</time></trkpt>
        <trkpt lat="28.705929" lon="104.715856"><ele>544.9783</ele><time>2026-05-28T18:15:06.000Z</time></trkpt>
        <trkpt lat="28.705959" lon="104.715905"><ele>547.5247</ele><time>2026-05-28T18:15:16.000Z</time></trkpt>
        <trkpt lat="28.705991" lon="104.71595"><ele>550.62946</ele><time>2026-05-28T18:15:34.000Z</time></trkpt>
        <trkpt lat="28.706037" lon="104.715957"><ele>551.4367</ele><time>2026-05-28T18:15:41.000Z</time></trkpt>
        <trkpt lat="28.706081" lon="104.71597"><ele>552.82166</ele><time>2026-05-28T18:15:48.000Z</time></trkpt>
        <trkpt lat="28.706123" lon="104.716008"><ele>556.1716</ele><time>2026-05-28T18:15:57.000Z</time></trkpt>
        <trkpt lat="28.706165" lon="104.716045"><ele>557.51324</ele><time>2026-05-28T18:16:06.000Z</time></trkpt>
        <trkpt lat="28.706192" lon="104.716088"><ele>558.3267</ele><time>2026-05-28T18:16:59.000Z</time></trkpt>
        <trkpt lat="28.706228" lon="104.716139"><ele>560.22974</ele><time>2026-05-28T18:17:06.000Z</time></trkpt>
        <trkpt lat="28.706251" lon="104.716189"><ele>563.3237</ele><time>2026-05-28T18:17:16.000Z</time></trkpt>
        <trkpt lat="28.70627" lon="104.716236"><ele>563.2513</ele><time>2026-05-28T18:17:23.000Z</time></trkpt>
        <trkpt lat="28.70629" lon="104.716287"><ele>563.74603</ele><time>2026-05-28T18:17:30.000Z</time></trkpt>
        <trkpt lat="28.7063" lon="104.716337"><ele>564.6826</ele><time>2026-05-28T18:17:38.000Z</time></trkpt>
        <trkpt lat="28.706338" lon="104.716372"><ele>565.81836</ele><time>2026-05-28T18:17:44.000Z</time></trkpt>
        <trkpt lat="28.706381" lon="104.716405"><ele>567.2613</ele><time>2026-05-28T18:17:50.000Z</time></trkpt>
        <trkpt lat="28.706424" lon="104.71643"><ele>567.8066</ele><time>2026-05-28T18:17:54.000Z</time></trkpt>
        <trkpt lat="28.706463" lon="104.71646"><ele>568.8908</ele><time>2026-05-28T18:17:58.000Z</time></trkpt>
        <trkpt lat="28.706508" lon="104.716491"><ele>570.0332</ele><time>2026-05-28T18:18:04.000Z</time></trkpt>
        <trkpt lat="28.706553" lon="104.716517"><ele>571.96204</ele><time>2026-05-28T18:18:08.000Z</time></trkpt>
        <trkpt lat="28.70659" lon="104.716558"><ele>574.1116</ele><time>2026-05-28T18:18:13.000Z</time></trkpt>
        <trkpt lat="28.7066" lon="104.716617"><ele>576.59265</ele><time>2026-05-28T18:18:18.000Z</time></trkpt>
        <trkpt lat="28.706612" lon="104.716669"><ele>577.14264</ele><time>2026-05-28T18:18:24.000Z</time></trkpt>
        <trkpt lat="28.706622" lon="104.716721"><ele>577.1113</ele><time>2026-05-28T18:18:31.000Z</time></trkpt>
        <trkpt lat="28.706643" lon="104.716774"><ele>576.958</ele><time>2026-05-28T18:18:38.000Z</time></trkpt>
        <trkpt lat="28.706632" lon="104.716826"><ele>577.48895</ele><time>2026-05-28T18:18:44.000Z</time></trkpt>
        <trkpt lat="28.706608" lon="104.716881"><ele>577.5789</ele><time>2026-05-28T18:18:49.000Z</time></trkpt>
        <trkpt lat="28.706597" lon="104.716936"><ele>577.1065</ele><time>2026-05-28T18:18:53.000Z</time></trkpt>
        <trkpt lat="28.706597" lon="104.716989"><ele>575.933</ele><time>2026-05-28T18:18:57.000Z</time></trkpt>
        <trkpt lat="28.706583" lon="104.717038"><ele>575.00476</ele><time>2026-05-28T18:19:02.000Z</time></trkpt>
        <trkpt lat="28.706562" lon="104.717093"><ele>574.8325</ele><time>2026-05-28T18:19:07.000Z</time></trkpt>
        <trkpt lat="28.706558" lon="104.717155"><ele>574.3582</ele><time>2026-05-28T18:19:13.000Z</time></trkpt>
        <trkpt lat="28.706545" lon="104.717209"><ele>575.18787</ele><time>2026-05-28T18:19:18.000Z</time></trkpt>
        <trkpt lat="28.706538" lon="104.717272"><ele>576.07556</ele><time>2026-05-28T18:19:23.000Z</time></trkpt>
        <trkpt lat="28.706558" lon="104.71732"><ele>576.41235</ele><time>2026-05-28T18:19:28.000Z</time></trkpt>
        <trkpt lat="28.706585" lon="104.717362"><ele>576.37756</ele><time>2026-05-28T18:19:33.000Z</time></trkpt>
        <trkpt lat="28.706617" lon="104.717403"><ele>577.0697</ele><time>2026-05-28T18:19:38.000Z</time></trkpt>
        <trkpt lat="28.706602" lon="104.717458"><ele>579.418</ele><time>2026-05-28T18:19:44.000Z</time></trkpt>
        <trkpt lat="28.706561" lon="104.717491"><ele>581.35175</ele><time>2026-05-28T18:19:49.000Z</time></trkpt>
        <trkpt lat="28.706541" lon="104.717544"><ele>580.82166</ele><time>2026-05-28T18:20:20.000Z</time></trkpt>
        <trkpt lat="28.706589" lon="104.717542"><ele>582.3093</ele><time>2026-05-28T18:20:26.000Z</time></trkpt>
        <trkpt lat="28.706611" lon="104.717594"><ele>584.791</ele><time>2026-05-28T18:20:32.000Z</time></trkpt>
        <trkpt lat="28.706596" lon="104.717651"><ele>589.25366</ele><time>2026-05-28T18:20:42.000Z</time></trkpt>
        <trkpt lat="28.70656" lon="104.717686"><ele>591.6204</ele><time>2026-05-28T18:20:49.000Z</time></trkpt>
        <trkpt lat="28.706539" lon="104.717737"><ele>589.99835</ele><time>2026-05-28T18:20:55.000Z</time></trkpt>
        <trkpt lat="28.706523" lon="104.717796"><ele>591.6451</ele><time>2026-05-28T18:21:02.000Z</time></trkpt>
        <trkpt lat="28.706539" lon="104.717849"><ele>593.2221</ele><time>2026-05-28T18:21:09.000Z</time></trkpt>
        <trkpt lat="28.706537" lon="104.71791"><ele>593.77075</ele><time>2026-05-28T18:21:14.000Z</time></trkpt>
        <trkpt lat="28.706536" lon="104.717972"><ele>594.4716</ele><time>2026-05-28T18:21:19.000Z</time></trkpt>
        <trkpt lat="28.706524" lon="104.718024"><ele>596.0736</ele><time>2026-05-28T18:21:26.000Z</time></trkpt>
        <trkpt lat="28.70652" lon="104.718077"><ele>595.35175</ele><time>2026-05-28T18:21:31.000Z</time></trkpt>
        <trkpt lat="28.706512" lon="104.718133"><ele>596.38794</ele><time>2026-05-28T18:21:36.000Z</time></trkpt>
        <trkpt lat="28.706511" lon="104.718196"><ele>595.937</ele><time>2026-05-28T18:21:41.000Z</time></trkpt>
        <trkpt lat="28.706499" lon="104.718255"><ele>596.3945</ele><time>2026-05-28T18:21:46.000Z</time></trkpt>
        <trkpt lat="28.706494" lon="104.718319"><ele>596.4083</ele><time>2026-05-28T18:21:51.000Z</time></trkpt>
        <trkpt lat="28.706486" lon="104.718371"><ele>596.13403</ele><time>2026-05-28T18:21:55.000Z</time></trkpt>
        <trkpt lat="28.706473" lon="104.718431"><ele>596.9034</ele><time>2026-05-28T18:22:00.000Z</time></trkpt>
        <trkpt lat="28.706459" lon="104.718482"><ele>596.98004</ele><time>2026-05-28T18:22:04.000Z</time></trkpt>
        <trkpt lat="28.706435" lon="104.718538"><ele>597.10645</ele><time>2026-05-28T18:22:09.000Z</time></trkpt>
        <trkpt lat="28.706404" lon="104.718577"><ele>597.79724</ele><time>2026-05-28T18:22:13.000Z</time></trkpt>
        <trkpt lat="28.706376" lon="104.718626"><ele>597.9993</ele><time>2026-05-28T18:22:18.000Z</time></trkpt>
        <trkpt lat="28.70634" lon="104.718675"><ele>597.82245</ele><time>2026-05-28T18:22:23.000Z</time></trkpt>
        <trkpt lat="28.706329" lon="104.71873"><ele>597.37946</ele><time>2026-05-28T18:22:28.000Z</time></trkpt>
        <trkpt lat="28.706374" lon="104.718759"><ele>596.48914</ele><time>2026-05-28T18:23:29.000Z</time></trkpt>
        <trkpt lat="28.706336" lon="104.718787"><ele>598.5419</ele><time>2026-05-28T18:23:57.000Z</time></trkpt>
        <trkpt lat="28.70632" lon="104.718843"><ele>597.5501</ele><time>2026-05-28T18:24:01.000Z</time></trkpt>
        <trkpt lat="28.706317" lon="104.718906"><ele>597.722</ele><time>2026-05-28T18:24:59.000Z</time></trkpt>
        <trkpt lat="28.706315" lon="104.718965"><ele>596.7577</ele><time>2026-05-28T18:25:04.000Z</time></trkpt>
        <trkpt lat="28.706314" lon="104.719026"><ele>595.2023</ele><time>2026-05-28T18:25:16.000Z</time></trkpt>
        <trkpt lat="28.706315" lon="104.719087"><ele>595.68097</ele><time>2026-05-28T18:25:22.000Z</time></trkpt>
        <trkpt lat="28.706316" lon="104.719138"><ele>596.2945</ele><time>2026-05-28T18:25:27.000Z</time></trkpt>
        <trkpt lat="28.70632" lon="104.719199"><ele>596.41113</ele><time>2026-05-28T18:25:33.000Z</time></trkpt>
        <trkpt lat="28.706324" lon="104.719253"><ele>596.8513</ele><time>2026-05-28T18:25:38.000Z</time></trkpt>
        <trkpt lat="28.70634" lon="104.719303"><ele>596.7803</ele><time>2026-05-28T18:25:43.000Z</time></trkpt>
        <trkpt lat="28.706362" lon="104.719351"><ele>596.36743</ele><time>2026-05-28T18:25:48.000Z</time></trkpt>
        <trkpt lat="28.706397" lon="104.719394"><ele>597.42035</ele><time>2026-05-28T18:25:54.000Z</time></trkpt>
        <trkpt lat="28.706434" lon="104.719433"><ele>598.6943</ele><time>2026-05-28T18:25:59.000Z</time></trkpt>
        <trkpt lat="28.706464" lon="104.719472"><ele>600.254</ele><time>2026-05-28T18:26:04.000Z</time></trkpt>
        <trkpt lat="28.706494" lon="104.719522"><ele>601.3509</ele><time>2026-05-28T18:26:09.000Z</time></trkpt>
        <trkpt lat="28.706526" lon="104.719573"><ele>601.1181</ele><time>2026-05-28T18:26:14.000Z</time></trkpt>
        <trkpt lat="28.706563" lon="104.719617"><ele>600.9849</ele><time>2026-05-28T18:26:19.000Z</time></trkpt>
        <trkpt lat="28.706586" lon="104.719664"><ele>602.0387</ele><time>2026-05-28T18:26:23.000Z</time></trkpt>
        <trkpt lat="28.706611" lon="104.719727"><ele>602.85126</ele><time>2026-05-28T18:26:27.000Z</time></trkpt>
        <trkpt lat="28.70663" lon="104.719778"><ele>603.75604</ele><time>2026-05-28T18:26:32.000Z</time></trkpt>
        <trkpt lat="28.706655" lon="104.719821"><ele>603.5203</ele><time>2026-05-28T18:26:36.000Z</time></trkpt>
        <trkpt lat="28.706678" lon="104.71987"><ele>603.9343</ele><time>2026-05-28T18:26:41.000Z</time></trkpt>
        <trkpt lat="28.706703" lon="104.719917"><ele>604.6676</ele><time>2026-05-28T18:26:46.000Z</time></trkpt>
        <trkpt lat="28.706727" lon="104.719968"><ele>604.3571</ele><time>2026-05-28T18:26:50.000Z</time></trkpt>
        <trkpt lat="28.706755" lon="104.720009"><ele>603.8981</ele><time>2026-05-28T18:26:54.000Z</time></trkpt>
        <trkpt lat="28.706779" lon="104.720065"><ele>604.2978</ele><time>2026-05-28T18:26:59.000Z</time></trkpt>
        <trkpt lat="28.706804" lon="104.72011"><ele>604.3509</ele><time>2026-05-28T18:27:04.000Z</time></trkpt>
        <trkpt lat="28.706821" lon="104.720163"><ele>605.6207</ele><time>2026-05-28T18:27:11.000Z</time></trkpt>
        <trkpt lat="28.706877" lon="104.720164"><ele>605.71906</ele><time>2026-05-28T18:27:27.000Z</time></trkpt>
        <trkpt lat="28.706921" lon="104.720142"><ele>607.4881</ele><time>2026-05-28T18:27:33.000Z</time></trkpt>
        <trkpt lat="28.70697" lon="104.720153"><ele>609.10034</ele><time>2026-05-28T18:27:43.000Z</time></trkpt>
        <trkpt lat="28.707001" lon="104.720196"><ele>610.16455</ele><time>2026-05-28T18:27:49.000Z</time></trkpt>
        <trkpt lat="28.707021" lon="104.720242"><ele>612.1005</ele><time>2026-05-28T18:27:56.000Z</time></trkpt>
        <trkpt lat="28.707038" lon="104.720298"><ele>613.61743</ele><time>2026-05-28T18:28:06.000Z</time></trkpt>
        <trkpt lat="28.707063" lon="104.720345"><ele>615.1119</ele><time>2026-05-28T18:28:14.000Z</time></trkpt>
        <trkpt lat="28.707073" lon="104.720396"><ele>616.9954</ele><time>2026-05-28T18:28:22.000Z</time></trkpt>
        <trkpt lat="28.707085" lon="104.720447"><ele>617.0699</ele><time>2026-05-28T18:28:30.000Z</time></trkpt>
        <trkpt lat="28.707106" lon="104.720495"><ele>619.35474</ele><time>2026-05-28T18:28:38.000Z</time></trkpt>
        <trkpt lat="28.707118" lon="104.72055"><ele>620.9458</ele><time>2026-05-28T18:28:52.000Z</time></trkpt>
        <trkpt lat="28.707151" lon="104.72059"><ele>621.97955</ele><time>2026-05-28T18:29:00.000Z</time></trkpt>
        <trkpt lat="28.707181" lon="104.720632"><ele>623.29767</ele><time>2026-05-28T18:29:07.000Z</time></trkpt>
        <trkpt lat="28.707212" lon="104.720682"><ele>625.6409</ele><time>2026-05-28T18:29:16.000Z</time></trkpt>
        <trkpt lat="28.707232" lon="104.720732"><ele>626.4174</ele><time>2026-05-28T18:29:23.000Z</time></trkpt>
        <trkpt lat="28.707242" lon="104.720784"><ele>626.813</ele><time>2026-05-28T18:29:30.000Z</time></trkpt>
        <trkpt lat="28.707237" lon="104.720835"><ele>626.4178</ele><time>2026-05-28T18:29:37.000Z</time></trkpt>
        <trkpt lat="28.707213" lon="104.720884"><ele>626.853</ele><time>2026-05-28T18:29:46.000Z</time></trkpt>
        <trkpt lat="28.707167" lon="104.720899"><ele>626.17426</ele><time>2026-05-28T18:29:53.000Z</time></trkpt>
        <trkpt lat="28.707133" lon="104.720934"><ele>625.83563</ele><time>2026-05-28T18:30:00.000Z</time></trkpt>
        <trkpt lat="28.70709" lon="104.720957"><ele>624.46875</ele><time>2026-05-28T18:30:10.000Z</time></trkpt>
        <trkpt lat="28.70705" lon="104.720985"><ele>622.4642</ele><time>2026-05-28T18:30:20.000Z</time></trkpt>
        <trkpt lat="28.707007" lon="104.721004"><ele>622.5641</ele><time>2026-05-28T18:30:34.000Z</time></trkpt>
        <trkpt lat="28.707024" lon="104.721052"><ele>623.01135</ele><time>2026-05-28T18:30:40.000Z</time></trkpt>
        <trkpt lat="28.70706" lon="104.721089"><ele>624.1405</ele><time>2026-05-28T18:30:46.000Z</time></trkpt>
        <trkpt lat="28.70708" lon="104.721138"><ele>624.3087</ele><time>2026-05-28T18:30:52.000Z</time></trkpt>
        <trkpt lat="28.707082" lon="104.7212"><ele>623.97955</ele><time>2026-05-28T18:30:59.000Z</time></trkpt>
        <trkpt lat="28.707087" lon="104.721253"><ele>622.69196</ele><time>2026-05-28T18:31:07.000Z</time></trkpt>
        <trkpt lat="28.707085" lon="104.721308"><ele>619.5428</ele><time>2026-05-28T18:31:14.000Z</time></trkpt>
        <trkpt lat="28.707091" lon="104.721359"><ele>619.3029</ele><time>2026-05-28T18:31:22.000Z</time></trkpt>
        <trkpt lat="28.707064" lon="104.721411"><ele>618.5669</ele><time>2026-05-28T18:31:29.000Z</time></trkpt>
        <trkpt lat="28.707028" lon="104.721459"><ele>615.46344</ele><time>2026-05-28T18:31:37.000Z</time></trkpt>
        <trkpt lat="28.706985" lon="104.721476"><ele>614.8893</ele><time>2026-05-28T18:31:42.000Z</time></trkpt>
        <trkpt lat="28.706967" lon="104.721529"><ele>613.3511</ele><time>2026-05-28T18:31:51.000Z</time></trkpt>
        <trkpt lat="28.706949" lon="104.72158"><ele>612.34906</ele><time>2026-05-28T18:31:57.000Z</time></trkpt>
        <trkpt lat="28.70694" lon="104.721631"><ele>611.9431</ele><time>2026-05-28T18:32:05.000Z</time></trkpt>
        <trkpt lat="28.7069" lon="104.721682"><ele>608.3378</ele><time>2026-05-28T18:32:15.000Z</time></trkpt>
        <trkpt lat="28.706925" lon="104.721726"><ele>608.99365</ele><time>2026-05-28T18:32:20.000Z</time></trkpt>
        <trkpt lat="28.70694" lon="104.72179"><ele>608.7076</ele><time>2026-05-28T18:32:25.000Z</time></trkpt>
        <trkpt lat="28.70696" lon="104.721847"><ele>608.11334</ele><time>2026-05-28T18:32:30.000Z</time></trkpt>
        <trkpt lat="28.706996" lon="104.721894"><ele>607.76105</ele><time>2026-05-28T18:32:35.000Z</time></trkpt>
        <trkpt lat="28.707019" lon="104.721939"><ele>607.40784</ele><time>2026-05-28T18:32:40.000Z</time></trkpt>
        <trkpt lat="28.707066" lon="104.721963"><ele>607.81323</ele><time>2026-05-28T18:32:46.000Z</time></trkpt>
        <trkpt lat="28.707103" lon="104.722"><ele>607.57886</ele><time>2026-05-28T18:32:51.000Z</time></trkpt>
        <trkpt lat="28.707132" lon="104.722043"><ele>606.69037</ele><time>2026-05-28T18:32:56.000Z</time></trkpt>
        <trkpt lat="28.707161" lon="104.722089"><ele>606.6088</ele><time>2026-05-28T18:33:01.000Z</time></trkpt>
        <trkpt lat="28.707189" lon="104.722136"><ele>605.9654</ele><time>2026-05-28T18:33:05.000Z</time></trkpt>
        <trkpt lat="28.707202" lon="104.722196"><ele>606.68134</ele><time>2026-05-28T18:33:10.000Z</time></trkpt>
        <trkpt lat="28.70722" lon="104.72225"><ele>607.0845</ele><time>2026-05-28T18:33:15.000Z</time></trkpt>
        <trkpt lat="28.707257" lon="104.722286"><ele>607.2797</ele><time>2026-05-28T18:33:20.000Z</time></trkpt>
        <trkpt lat="28.707298" lon="104.722312"><ele>608.6581</ele><time>2026-05-28T18:33:24.000Z</time></trkpt>
        <trkpt lat="28.707345" lon="104.722319"><ele>608.2998</ele><time>2026-05-28T18:33:28.000Z</time></trkpt>
        <trkpt lat="28.707407" lon="104.722308"><ele>609.57635</ele><time>2026-05-28T18:33:34.000Z</time></trkpt>
        <trkpt lat="28.707463" lon="104.722292"><ele>611.88043</ele><time>2026-05-28T18:33:39.000Z</time></trkpt>
        <trkpt lat="28.707505" lon="104.722264"><ele>612.76056</ele><time>2026-05-28T18:33:44.000Z</time></trkpt>
        <trkpt lat="28.707556" lon="104.722231"><ele>611.43677</ele><time>2026-05-28T18:33:48.000Z</time></trkpt>
        <trkpt lat="28.707601" lon="104.722215"><ele>611.20215</ele><time>2026-05-28T18:33:53.000Z</time></trkpt>
        <trkpt lat="28.70764" lon="104.722186"><ele>612.65607</ele><time>2026-05-28T18:33:57.000Z</time></trkpt>
        <trkpt lat="28.70769" lon="104.722169"><ele>612.4931</ele><time>2026-05-28T18:34:01.000Z</time></trkpt>
        <trkpt lat="28.70774" lon="104.722164"><ele>612.8188</ele><time>2026-05-28T18:34:05.000Z</time></trkpt>
        <trkpt lat="28.70778" lon="104.72219"><ele>610.96295</ele><time>2026-05-28T18:34:08.000Z</time></trkpt>
        <trkpt lat="28.707836" lon="104.722228"><ele>611.7298</ele><time>2026-05-28T18:34:12.000Z</time></trkpt>
        <trkpt lat="28.707866" lon="104.722282"><ele>612.1903</ele><time>2026-05-28T18:34:17.000Z</time></trkpt>
        <trkpt lat="28.707886" lon="104.722336"><ele>611.2234</ele><time>2026-05-28T18:34:22.000Z</time></trkpt>
        <trkpt lat="28.707895" lon="104.722391"><ele>610.9584</ele><time>2026-05-28T18:34:37.000Z</time></trkpt>
        <trkpt lat="28.707898" lon="104.722449"><ele>613.5792</ele><time>2026-05-28T18:37:50.000Z</time></trkpt>
        <trkpt lat="28.70795" lon="104.722473"><ele>611.8621</ele><time>2026-05-28T18:37:56.000Z</time></trkpt>
        <trkpt lat="28.707964" lon="104.722525"><ele>610.90326</ele><time>2026-05-28T18:38:00.000Z</time></trkpt>
        <trkpt lat="28.707974" lon="104.722577"><ele>610.2066</ele><time>2026-05-28T18:38:04.000Z</time></trkpt>
        <trkpt lat="28.707999" lon="104.722628"><ele>610.1108</ele><time>2026-05-28T18:38:09.000Z</time></trkpt>
        <trkpt lat="28.708034" lon="104.72268"><ele>610.19714</ele><time>2026-05-28T18:38:15.000Z</time></trkpt>
        <trkpt lat="28.708039" lon="104.722734"><ele>610.73773</ele><time>2026-05-28T18:38:20.000Z</time></trkpt>
        <trkpt lat="28.708057" lon="104.722792"><ele>611.53613</ele><time>2026-05-28T18:38:26.000Z</time></trkpt>
        <trkpt lat="28.708075" lon="104.722845"><ele>611.1019</ele><time>2026-05-28T18:38:32.000Z</time></trkpt>
        <trkpt lat="28.708098" lon="104.722894"><ele>612.22327</ele><time>2026-05-28T18:38:37.000Z</time></trkpt>
        <trkpt lat="28.708125" lon="104.722942"><ele>611.7062</ele><time>2026-05-28T18:38:43.000Z</time></trkpt>
        <trkpt lat="28.708169" lon="104.722972"><ele>610.9223</ele><time>2026-05-28T18:39:17.000Z</time></trkpt>
        <trkpt lat="28.70821" lon="104.723002"><ele>610.9651</ele><time>2026-05-28T18:39:22.000Z</time></trkpt>
        <trkpt lat="28.708241" lon="104.723046"><ele>611.9433</ele><time>2026-05-28T18:39:29.000Z</time></trkpt>
        <trkpt lat="28.708266" lon="104.723091"><ele>610.9729</ele><time>2026-05-28T18:39:45.000Z</time></trkpt>
        <trkpt lat="28.708296" lon="104.723137"><ele>612.1037</ele><time>2026-05-28T18:40:16.000Z</time></trkpt>
        <trkpt lat="28.708334" lon="104.723167"><ele>613.08185</ele><time>2026-05-28T18:40:24.000Z</time></trkpt>
        <trkpt lat="28.708368" lon="104.723206"><ele>615.2937</ele><time>2026-05-28T18:40:55.000Z</time></trkpt>
        <trkpt lat="28.708402" lon="104.723241"><ele>614.8094</ele><time>2026-05-28T18:41:01.000Z</time></trkpt>
        <trkpt lat="28.708428" lon="104.723291"><ele>615.3151</ele><time>2026-05-28T18:41:06.000Z</time></trkpt>
        <trkpt lat="28.708454" lon="104.723343"><ele>614.7874</ele><time>2026-05-28T18:41:11.000Z</time></trkpt>
        <trkpt lat="28.708488" lon="104.723394"><ele>614.104</ele><time>2026-05-28T18:41:15.000Z</time></trkpt>
        <trkpt lat="28.708501" lon="104.72345"><ele>613.8405</ele><time>2026-05-28T18:41:21.000Z</time></trkpt>
        <trkpt lat="28.708535" lon="104.723501"><ele>613.7687</ele><time>2026-05-28T18:41:26.000Z</time></trkpt>
        <trkpt lat="28.708569" lon="104.723548"><ele>614.2856</ele><time>2026-05-28T18:41:30.000Z</time></trkpt>
        <trkpt lat="28.70859" lon="104.723603"><ele>615.0163</ele><time>2026-05-28T18:41:35.000Z</time></trkpt>
        <trkpt lat="28.70862" lon="104.723649"><ele>615.425</ele><time>2026-05-28T18:41:40.000Z</time></trkpt>
        <trkpt lat="28.708651" lon="104.723697"><ele>615.21387</ele><time>2026-05-28T18:41:47.000Z</time></trkpt>
        <trkpt lat="28.708676" lon="104.723741"><ele>615.92896</ele><time>2026-05-28T18:41:52.000Z</time></trkpt>
        <trkpt lat="28.708706" lon="104.723787"><ele>616.2443</ele><time>2026-05-28T18:41:58.000Z</time></trkpt>
        <trkpt lat="28.708746" lon="104.723821"><ele>616.4171</ele><time>2026-05-28T18:42:04.000Z</time></trkpt>
        <trkpt lat="28.708796" lon="104.723845"><ele>616.27563</ele><time>2026-05-28T18:42:12.000Z</time></trkpt>
        <trkpt lat="28.708843" lon="104.723852"><ele>617.0551</ele><time>2026-05-28T18:42:17.000Z</time></trkpt>
        <trkpt lat="28.708888" lon="104.723866"><ele>617.4907</ele><time>2026-05-28T18:42:22.000Z</time></trkpt>
        <trkpt lat="28.708933" lon="104.723875"><ele>617.60425</ele><time>2026-05-28T18:42:27.000Z</time></trkpt>
        <trkpt lat="28.708978" lon="104.723881"><ele>618.3679</ele><time>2026-05-28T18:42:32.000Z</time></trkpt>
        <trkpt lat="28.709027" lon="104.723884"><ele>618.99774</ele><time>2026-05-28T18:42:36.000Z</time></trkpt>
        <trkpt lat="28.709073" lon="104.723887"><ele>619.49536</ele><time>2026-05-28T18:42:41.000Z</time></trkpt>
        <trkpt lat="28.709123" lon="104.723888"><ele>619.12555</ele><time>2026-05-28T18:42:46.000Z</time></trkpt>
        <trkpt lat="28.709171" lon="104.723875"><ele>619.0937</ele><time>2026-05-28T18:42:52.000Z</time></trkpt>
        <trkpt lat="28.709227" lon="104.72386"><ele>618.6522</ele><time>2026-05-28T18:42:59.000Z</time></trkpt>
        <trkpt lat="28.709277" lon="104.723833"><ele>617.9362</ele><time>2026-05-28T18:43:05.000Z</time></trkpt>
        <trkpt lat="28.709328" lon="104.723819"><ele>616.4538</ele><time>2026-05-28T18:43:12.000Z</time></trkpt>
        <trkpt lat="28.709375" lon="104.723821"><ele>616.44226</ele><time>2026-05-28T18:43:21.000Z</time></trkpt>
        <trkpt lat="28.709418" lon="104.723838"><ele>614.92035</ele><time>2026-05-28T18:43:51.000Z</time></trkpt>
        <trkpt lat="28.709438" lon="104.723885"><ele>616.86487</ele><time>2026-05-28T18:44:07.000Z</time></trkpt>
        <trkpt lat="28.709446" lon="104.723937"><ele>623.93176</ele><time>2026-05-28T18:44:38.000Z</time></trkpt>
        <trkpt lat="28.709482" lon="104.723969"><ele>618.9365</ele><time>2026-05-28T18:45:00.000Z</time></trkpt>
        <trkpt lat="28.709463" lon="104.724022"><ele>615.8621</ele><time>2026-05-28T18:45:21.000Z</time></trkpt>
        <trkpt lat="28.709461" lon="104.724081"><ele>616.0742</ele><time>2026-05-28T18:45:29.000Z</time></trkpt>
        <trkpt lat="28.709473" lon="104.724137"><ele>617.7147</ele><time>2026-05-28T18:45:35.000Z</time></trkpt>
        <trkpt lat="28.709499" lon="104.724185"><ele>618.0505</ele><time>2026-05-28T18:45:40.000Z</time></trkpt>
        <trkpt lat="28.709522" lon="104.724232"><ele>616.16</ele><time>2026-05-28T18:45:47.000Z</time></trkpt>
        <trkpt lat="28.709515" lon="104.724287"><ele>616.20135</ele><time>2026-05-28T18:45:54.000Z</time></trkpt>
        <trkpt lat="28.709523" lon="104.724348"><ele>616.6652</ele><time>2026-05-28T18:46:14.000Z</time></trkpt>
        <trkpt lat="28.709538" lon="104.724396"><ele>616.9727</ele><time>2026-05-28T18:46:18.000Z</time></trkpt>
        <trkpt lat="28.709564" lon="104.724442"><ele>615.42944</ele><time>2026-05-28T18:46:23.000Z</time></trkpt>
        <trkpt lat="28.709581" lon="104.724502"><ele>616.4235</ele><time>2026-05-28T18:46:29.000Z</time></trkpt>
        <trkpt lat="28.709608" lon="104.72455"><ele>616.7233</ele><time>2026-05-28T18:46:35.000Z</time></trkpt>
        <trkpt lat="28.709641" lon="104.724593"><ele>617.9328</ele><time>2026-05-28T18:46:51.000Z</time></trkpt>
        <trkpt lat="28.709665" lon="104.724637"><ele>619.58276</ele><time>2026-05-28T18:46:56.000Z</time></trkpt>
        <trkpt lat="28.70969" lon="104.724686"><ele>620.869</ele><time>2026-05-28T18:47:02.000Z</time></trkpt>
        <trkpt lat="28.709709" lon="104.724733"><ele>621.80396</ele><time>2026-05-28T18:47:08.000Z</time></trkpt>
        <trkpt lat="28.709718" lon="104.724785"><ele>622.93427</ele><time>2026-05-28T18:47:13.000Z</time></trkpt>
        <trkpt lat="28.709732" lon="104.724834"><ele>624.8318</ele><time>2026-05-28T18:47:21.000Z</time></trkpt>
        <trkpt lat="28.709739" lon="104.724886"><ele>625.29407</ele><time>2026-05-28T18:47:29.000Z</time></trkpt>
        <trkpt lat="28.709751" lon="104.724946"><ele>626.5691</ele><time>2026-05-28T18:47:37.000Z</time></trkpt>
        <trkpt lat="28.709761" lon="104.724999"><ele>628.6136</ele><time>2026-05-28T18:47:46.000Z</time></trkpt>
        <trkpt lat="28.709767" lon="104.725054"><ele>630.2468</ele><time>2026-05-28T18:47:55.000Z</time></trkpt>
        <trkpt lat="28.709789" lon="104.725107"><ele>632.3487</ele><time>2026-05-28T18:48:06.000Z</time></trkpt>
        <trkpt lat="28.7098" lon="104.725158"><ele>631.86633</ele><time>2026-05-28T18:48:14.000Z</time></trkpt>
        <trkpt lat="28.709837" lon="104.725186"><ele>631.9895</ele><time>2026-05-28T18:48:39.000Z</time></trkpt>
        <trkpt lat="28.709888" lon="104.725187"><ele>633.09033</ele><time>2026-05-28T18:48:45.000Z</time></trkpt>
        <trkpt lat="28.709938" lon="104.725195"><ele>633.92944</ele><time>2026-05-28T18:48:49.000Z</time></trkpt>
        <trkpt lat="28.709982" lon="104.725206"><ele>635.5729</ele><time>2026-05-28T18:48:52.000Z</time></trkpt>
        <trkpt lat="28.710034" lon="104.72521"><ele>637.0501</ele><time>2026-05-28T18:48:57.000Z</time></trkpt>
        <trkpt lat="28.710079" lon="104.725217"><ele>639.3579</ele><time>2026-05-28T18:49:04.000Z</time></trkpt>
        <trkpt lat="28.710126" lon="104.725223"><ele>641.23914</ele><time>2026-05-28T18:49:12.000Z</time></trkpt>
        <trkpt lat="28.710171" lon="104.725227"><ele>642.1186</ele><time>2026-05-28T18:49:20.000Z</time></trkpt>
        <trkpt lat="28.710225" lon="104.725237"><ele>640.7974</ele><time>2026-05-28T18:49:29.000Z</time></trkpt>
        <trkpt lat="28.710272" lon="104.725253"><ele>638.98944</ele><time>2026-05-28T18:49:36.000Z</time></trkpt>
        <trkpt lat="28.710318" lon="104.725258"><ele>639.36597</ele><time>2026-05-28T18:49:43.000Z</time></trkpt>
        <trkpt lat="28.710364" lon="104.725261"><ele>639.61523</ele><time>2026-05-28T18:49:56.000Z</time></trkpt>
        <trkpt lat="28.710417" lon="104.725281"><ele>640.2908</ele><time>2026-05-28T18:50:03.000Z</time></trkpt>
        <trkpt lat="28.710472" lon="104.725288"><ele>639.542</ele><time>2026-05-28T18:50:09.000Z</time></trkpt>
        <trkpt lat="28.71052" lon="104.725264"><ele>640.35394</ele><time>2026-05-28T18:50:19.000Z</time></trkpt>
        <trkpt lat="28.71056" lon="104.725232"><ele>639.9417</ele><time>2026-05-28T18:50:24.000Z</time></trkpt>
        <trkpt lat="28.710596" lon="104.7252"><ele>638.76495</ele><time>2026-05-28T18:50:30.000Z</time></trkpt>
        <trkpt lat="28.710615" lon="104.725151"><ele>638.53174</ele><time>2026-05-28T18:50:37.000Z</time></trkpt>
        <trkpt lat="28.710593" lon="104.725104"><ele>636.9479</ele><time>2026-05-28T18:50:42.000Z</time></trkpt>
        <trkpt lat="28.710621" lon="104.725064"><ele>636.77496</ele><time>2026-05-28T18:50:45.000Z</time></trkpt>
        <trkpt lat="28.710661" lon="104.725093"><ele>635.8879</ele><time>2026-05-28T18:50:51.000Z</time></trkpt>
        <trkpt lat="28.710693" lon="104.725137"><ele>636.428</ele><time>2026-05-28T18:50:58.000Z</time></trkpt>
        <trkpt lat="28.710714" lon="104.72519"><ele>636.3576</ele><time>2026-05-28T18:51:03.000Z</time></trkpt>
        <trkpt lat="28.710701" lon="104.725246"><ele>637.97424</ele><time>2026-05-28T18:51:08.000Z</time></trkpt>
        <trkpt lat="28.710685" lon="104.725297"><ele>638.60394</ele><time>2026-05-28T18:51:13.000Z</time></trkpt>
        <trkpt lat="28.710655" lon="104.725338"><ele>640.58905</ele><time>2026-05-28T18:51:19.000Z</time></trkpt>
        <trkpt lat="28.710624" lon="104.725382"><ele>639.08484</ele><time>2026-05-28T18:51:27.000Z</time></trkpt>
        <trkpt lat="28.71059" lon="104.725437"><ele>638.25586</ele><time>2026-05-28T18:51:32.000Z</time></trkpt>
        <trkpt lat="28.710561" lon="104.725483"><ele>638.13794</ele><time>2026-05-28T18:51:37.000Z</time></trkpt>
        <trkpt lat="28.710525" lon="104.725533"><ele>637.47595</ele><time>2026-05-28T18:51:43.000Z</time></trkpt>
        <trkpt lat="28.71051" lon="104.725584"><ele>638.0485</ele><time>2026-05-28T18:51:47.000Z</time></trkpt>
        <trkpt lat="28.710517" lon="104.725648"><ele>639.6518</ele><time>2026-05-28T18:51:52.000Z</time></trkpt>
        <trkpt lat="28.7105" lon="104.725712"><ele>642.19464</ele><time>2026-05-28T18:51:57.000Z</time></trkpt>
        <trkpt lat="28.710484" lon="104.725762"><ele>643.56213</ele><time>2026-05-28T18:52:01.000Z</time></trkpt>
        <trkpt lat="28.710455" lon="104.725813"><ele>644.68005</ele><time>2026-05-28T18:52:08.000Z</time></trkpt>
        <trkpt lat="28.710432" lon="104.725863"><ele>644.50604</ele><time>2026-05-28T18:52:14.000Z</time></trkpt>
        <trkpt lat="28.710427" lon="104.725915"><ele>645.11896</ele><time>2026-05-28T18:52:20.000Z</time></trkpt>
        <trkpt lat="28.71043" lon="104.725966"><ele>645.3642</ele><time>2026-05-28T18:52:25.000Z</time></trkpt>
        <trkpt lat="28.71043" lon="104.726021"><ele>646.5718</ele><time>2026-05-28T18:52:31.000Z</time></trkpt>
        <trkpt lat="28.710418" lon="104.726078"><ele>648.61066</ele><time>2026-05-28T18:52:42.000Z</time></trkpt>
        <trkpt lat="28.710397" lon="104.72613"><ele>648.90405</ele><time>2026-05-28T18:52:50.000Z</time></trkpt>
        <trkpt lat="28.710388" lon="104.726187"><ele>650.00586</ele><time>2026-05-28T18:52:56.000Z</time></trkpt>
        <trkpt lat="28.710372" lon="104.726238"><ele>650.4907</ele><time>2026-05-28T18:53:02.000Z</time></trkpt>
        <trkpt lat="28.710366" lon="104.726295"><ele>652.19165</ele><time>2026-05-28T18:53:09.000Z</time></trkpt>
        <trkpt lat="28.710369" lon="104.726346"><ele>653.3922</ele><time>2026-05-28T18:53:15.000Z</time></trkpt>
        <trkpt lat="28.710377" lon="104.7264"><ele>654.88477</ele><time>2026-05-28T18:53:21.000Z</time></trkpt>
        <trkpt lat="28.710378" lon="104.72646"><ele>655.8362</ele><time>2026-05-28T18:53:27.000Z</time></trkpt>
        <trkpt lat="28.710367" lon="104.72651"><ele>656.32135</ele><time>2026-05-28T18:53:35.000Z</time></trkpt>
        <trkpt lat="28.710348" lon="104.726561"><ele>655.60657</ele><time>2026-05-28T18:53:41.000Z</time></trkpt>
        <trkpt lat="28.710336" lon="104.726613"><ele>654.62463</ele><time>2026-05-28T18:53:46.000Z</time></trkpt>
        <trkpt lat="28.710306" lon="104.726654"><ele>652.92566</ele><time>2026-05-28T18:53:50.000Z</time></trkpt>
        <trkpt lat="28.710327" lon="104.726598"><ele>654.2706</ele><time>2026-05-28T18:54:09.000Z</time></trkpt>
        <trkpt lat="28.710338" lon="104.726548"><ele>655.42267</ele><time>2026-05-28T18:54:13.000Z</time></trkpt>
        <trkpt lat="28.710356" lon="104.726498"><ele>655.37573</ele><time>2026-05-28T18:54:19.000Z</time></trkpt>
        <trkpt lat="28.710401" lon="104.72651"><ele>655.5832</ele><time>2026-05-28T18:55:26.000Z</time></trkpt>
        <trkpt lat="28.710446" lon="104.726542"><ele>656.5283</ele><time>2026-05-28T18:55:34.000Z</time></trkpt>
        <trkpt lat="28.71048" lon="104.726579"><ele>655.095</ele><time>2026-05-28T18:55:52.000Z</time></trkpt>
        <trkpt lat="28.710525" lon="104.726589"><ele>654.53467</ele><time>2026-05-28T18:56:14.000Z</time></trkpt>
        <trkpt lat="28.710489" lon="104.726556"><ele>654.74756</ele><time>2026-05-28T18:56:42.000Z</time></trkpt>
        <trkpt lat="28.710439" lon="104.726543"><ele>654.30835</ele><time>2026-05-28T18:56:55.000Z</time></trkpt>
        <trkpt lat="28.710403" lon="104.726507"><ele>654.31244</ele><time>2026-05-28T18:57:02.000Z</time></trkpt>
        <trkpt lat="28.71038" lon="104.726448"><ele>655.1355</ele><time>2026-05-28T18:57:12.000Z</time></trkpt>
        <trkpt lat="28.710362" lon="104.726391"><ele>654.6368</ele><time>2026-05-28T18:57:17.000Z</time></trkpt>
        <trkpt lat="28.710359" lon="104.726335"><ele>652.7666</ele><time>2026-05-28T18:57:22.000Z</time></trkpt>
        <trkpt lat="28.710356" lon="104.726269"><ele>650.5402</ele><time>2026-05-28T18:57:28.000Z</time></trkpt>
        <trkpt lat="28.710359" lon="104.7262"><ele>650.3041</ele><time>2026-05-28T18:57:31.000Z</time></trkpt>
        <trkpt lat="28.710379" lon="104.726146"><ele>649.07166</ele><time>2026-05-28T18:57:34.000Z</time></trkpt>
        <trkpt lat="28.710391" lon="104.726097"><ele>648.0867</ele><time>2026-05-28T18:57:37.000Z</time></trkpt>
        <trkpt lat="28.710416" lon="104.726043"><ele>646.6646</ele><time>2026-05-28T18:57:41.000Z</time></trkpt>
        <trkpt lat="28.710426" lon="104.725982"><ele>644.38214</ele><time>2026-05-28T18:57:47.000Z</time></trkpt>
        <trkpt lat="28.710424" lon="104.725927"><ele>643.37427</ele><time>2026-05-28T18:57:51.000Z</time></trkpt>
        <trkpt lat="28.710431" lon="104.725876"><ele>643.56866</ele><time>2026-05-28T18:57:59.000Z</time></trkpt>
        <trkpt lat="28.710444" lon="104.725825"><ele>643.6252</ele><time>2026-05-28T18:58:12.000Z</time></trkpt>
        <trkpt lat="28.710475" lon="104.725785"><ele>643.1824</ele><time>2026-05-28T18:58:17.000Z</time></trkpt>
        <trkpt lat="28.710499" lon="104.725729"><ele>642.9468</ele><time>2026-05-28T18:58:22.000Z</time></trkpt>
        <trkpt lat="28.710517" lon="104.725664"><ele>641.7052</ele><time>2026-05-28T18:58:27.000Z</time></trkpt>
        <trkpt lat="28.710512" lon="104.725605"><ele>641.6563</ele><time>2026-05-28T18:58:29.000Z</time></trkpt>
        <trkpt lat="28.710504" lon="104.725551"><ele>641.8774</ele><time>2026-05-28T18:58:32.000Z</time></trkpt>
        <trkpt lat="28.710541" lon="104.725501"><ele>642.6358</ele><time>2026-05-28T18:58:35.000Z</time></trkpt>
        <trkpt lat="28.710566" lon="104.72545"><ele>643.6426</ele><time>2026-05-28T18:58:39.000Z</time></trkpt>
        <trkpt lat="28.710594" lon="104.725398"><ele>642.3541</ele><time>2026-05-28T18:58:43.000Z</time></trkpt>
        <trkpt lat="28.710625" lon="104.725356"><ele>641.5553</ele><time>2026-05-28T18:58:47.000Z</time></trkpt>
        <trkpt lat="28.710652" lon="104.725308"><ele>640.143</ele><time>2026-05-28T18:58:53.000Z</time></trkpt>
        <trkpt lat="28.710671" lon="104.725257"><ele>640.1959</ele><time>2026-05-28T18:58:57.000Z</time></trkpt>
        <trkpt lat="28.710694" lon="104.725211"><ele>639.30853</ele><time>2026-05-28T18:59:01.000Z</time></trkpt>
        <trkpt lat="28.710697" lon="104.725147"><ele>639.1079</ele><time>2026-05-28T18:59:07.000Z</time></trkpt>
        <trkpt lat="28.71066" lon="104.725111"><ele>638.5764</ele><time>2026-05-28T18:59:15.000Z</time></trkpt>
        <trkpt lat="28.710615" lon="104.725092"><ele>638.4635</ele><time>2026-05-28T18:59:26.000Z</time></trkpt>
        <trkpt lat="28.710662" lon="104.72511"><ele>637.37054</ele><time>2026-05-28T18:59:39.000Z</time></trkpt>
        <trkpt lat="28.710692" lon="104.72515"><ele>636.2834</ele><time>2026-05-28T18:59:43.000Z</time></trkpt>
        <trkpt lat="28.710738" lon="104.725139"><ele>635.1771</ele><time>2026-05-28T19:00:29.000Z</time></trkpt>
        <trkpt lat="28.710757" lon="104.725092"><ele>634.06805</ele><time>2026-05-28T19:01:03.000Z</time></trkpt>
        <trkpt lat="28.710796" lon="104.725052"><ele>633.9068</ele><time>2026-05-28T19:01:15.000Z</time></trkpt>
        <trkpt lat="28.710832" lon="104.72501"><ele>634.09314</ele><time>2026-05-28T19:01:23.000Z</time></trkpt>
        <trkpt lat="28.710805" lon="104.724961"><ele>632.9056</ele><time>2026-05-28T19:01:30.000Z</time></trkpt>
        <trkpt lat="28.71077" lon="104.724919"><ele>629.6775</ele><time>2026-05-28T19:01:38.000Z</time></trkpt>
        <trkpt lat="28.71074" lon="104.724869"><ele>627.6123</ele><time>2026-05-28T19:01:46.000Z</time></trkpt>
        <trkpt lat="28.710752" lon="104.724819"><ele>624.1599</ele><time>2026-05-28T19:01:51.000Z</time></trkpt>
        <trkpt lat="28.710785" lon="104.724784"><ele>625.00684</ele><time>2026-05-28T19:02:00.000Z</time></trkpt>
        <trkpt lat="28.710823" lon="104.724752"><ele>624.35986</ele><time>2026-05-28T19:02:29.000Z</time></trkpt>
        <trkpt lat="28.710854" lon="104.724711"><ele>622.4222</ele><time>2026-05-28T19:02:45.000Z</time></trkpt>
        <trkpt lat="28.710854" lon="104.724657"><ele>623.9339</ele><time>2026-05-28T19:02:55.000Z</time></trkpt>
        <trkpt lat="28.710869" lon="104.72459"><ele>623.5191</ele><time>2026-05-28T19:03:04.000Z</time></trkpt>
        <trkpt lat="28.71089" lon="104.724537"><ele>622.80414</ele><time>2026-05-28T19:03:09.000Z</time></trkpt>
        <trkpt lat="28.71091" lon="104.724479"><ele>624.22815</ele><time>2026-05-28T19:03:13.000Z</time></trkpt>
        <trkpt lat="28.710921" lon="104.724423"><ele>623.73926</ele><time>2026-05-28T19:03:17.000Z</time></trkpt>
        <trkpt lat="28.710934" lon="104.724373"><ele>622.6932</ele><time>2026-05-28T19:03:21.000Z</time></trkpt>
        <trkpt lat="28.710964" lon="104.724332"><ele>621.4983</ele><time>2026-05-28T19:03:26.000Z</time></trkpt>
        <trkpt lat="28.710988" lon="104.724286"><ele>621.2591</ele><time>2026-05-28T19:03:30.000Z</time></trkpt>
        <trkpt lat="28.711011" lon="104.724234"><ele>620.0919</ele><time>2026-05-28T19:03:35.000Z</time></trkpt>
        <trkpt lat="28.711045" lon="104.72418"><ele>619.22345</ele><time>2026-05-28T19:03:40.000Z</time></trkpt>
        <trkpt lat="28.711079" lon="104.724137"><ele>617.8785</ele><time>2026-05-28T19:03:44.000Z</time></trkpt>
        <trkpt lat="28.711119" lon="104.724109"><ele>617.4121</ele><time>2026-05-28T19:03:47.000Z</time></trkpt>
        <trkpt lat="28.711174" lon="104.724105"><ele>617.531</ele><time>2026-05-28T19:03:52.000Z</time></trkpt>
        <trkpt lat="28.711221" lon="104.724121"><ele>618.2935</ele><time>2026-05-28T19:03:57.000Z</time></trkpt>
        <trkpt lat="28.711271" lon="104.724101"><ele>617.8391</ele><time>2026-05-28T19:04:01.000Z</time></trkpt>
        <trkpt lat="28.711308" lon="104.724062"><ele>615.74664</ele><time>2026-05-28T19:04:05.000Z</time></trkpt>
        <trkpt lat="28.711347" lon="104.724016"><ele>615.75555</ele><time>2026-05-28T19:04:10.000Z</time></trkpt>
        <trkpt lat="28.711377" lon="104.723973"><ele>615.5741</ele><time>2026-05-28T19:04:14.000Z</time></trkpt>
        <trkpt lat="28.711401" lon="104.723924"><ele>615.0655</ele><time>2026-05-28T19:04:18.000Z</time></trkpt>
        <trkpt lat="28.711421" lon="104.723863"><ele>615.6529</ele><time>2026-05-28T19:04:23.000Z</time></trkpt>
        <trkpt lat="28.711437" lon="104.723802"><ele>615.7144</ele><time>2026-05-28T19:04:27.000Z</time></trkpt>
        <trkpt lat="28.711455" lon="104.723751"><ele>615.34174</ele><time>2026-05-28T19:04:31.000Z</time></trkpt>
        <trkpt lat="28.711473" lon="104.723704"><ele>615.2665</ele><time>2026-05-28T19:04:35.000Z</time></trkpt>
        <trkpt lat="28.711495" lon="104.723648"><ele>613.8801</ele><time>2026-05-28T19:04:39.000Z</time></trkpt>
        <trkpt lat="28.71153" lon="104.723604"><ele>612.7242</ele><time>2026-05-28T19:04:43.000Z</time></trkpt>
        <trkpt lat="28.711556" lon="104.723547"><ele>611.57153</ele><time>2026-05-28T19:04:47.000Z</time></trkpt>
        <trkpt lat="28.71158" lon="104.723491"><ele>610.5931</ele><time>2026-05-28T19:04:51.000Z</time></trkpt>
        <trkpt lat="28.71161" lon="104.723448"><ele>610.02936</ele><time>2026-05-28T19:04:55.000Z</time></trkpt>
        <trkpt lat="28.71164" lon="104.723397"><ele>609.3383</ele><time>2026-05-28T19:04:59.000Z</time></trkpt>
        <trkpt lat="28.711666" lon="104.723352"><ele>608.21985</ele><time>2026-05-28T19:05:02.000Z</time></trkpt>
        <trkpt lat="28.711699" lon="104.723312"><ele>606.6708</ele><time>2026-05-28T19:05:06.000Z</time></trkpt>
        <trkpt lat="28.711731" lon="104.72327"><ele>605.47833</ele><time>2026-05-28T19:05:11.000Z</time></trkpt>
        <trkpt lat="28.711757" lon="104.723219"><ele>605.5106</ele><time>2026-05-28T19:05:16.000Z</time></trkpt>
        <trkpt lat="28.711796" lon="104.723181"><ele>606.5033</ele><time>2026-05-28T19:05:20.000Z</time></trkpt>
        <trkpt lat="28.711843" lon="104.723159"><ele>608.668</ele><time>2026-05-28T19:05:25.000Z</time></trkpt>
        <trkpt lat="28.711896" lon="104.723149"><ele>609.8477</ele><time>2026-05-28T19:05:34.000Z</time></trkpt>
        <trkpt lat="28.711943" lon="104.723149"><ele>610.4085</ele><time>2026-05-28T19:05:42.000Z</time></trkpt>
        <trkpt lat="28.711989" lon="104.723155"><ele>610.83344</ele><time>2026-05-28T19:05:47.000Z</time></trkpt>
        <trkpt lat="28.71204" lon="104.723165"><ele>609.9875</ele><time>2026-05-28T19:05:54.000Z</time></trkpt>
        <trkpt lat="28.712084" lon="104.723177"><ele>610.50494</ele><time>2026-05-28T19:05:58.000Z</time></trkpt>
        <trkpt lat="28.712125" lon="104.7232"><ele>610.6432</ele><time>2026-05-28T19:06:02.000Z</time></trkpt>
        <trkpt lat="28.712182" lon="104.723217"><ele>611.0081</ele><time>2026-05-28T19:06:07.000Z</time></trkpt>
        <trkpt lat="28.712232" lon="104.723238"><ele>611.25757</ele><time>2026-05-28T19:06:12.000Z</time></trkpt>
        <trkpt lat="28.712278" lon="104.72325"><ele>609.72064</ele><time>2026-05-28T19:06:16.000Z</time></trkpt>
        <trkpt lat="28.712325" lon="104.723269"><ele>609.184</ele><time>2026-05-28T19:06:20.000Z</time></trkpt>
        <trkpt lat="28.712377" lon="104.723281"><ele>608.74426</ele><time>2026-05-28T19:06:25.000Z</time></trkpt>
        <trkpt lat="28.712427" lon="104.723283"><ele>608.19055</ele><time>2026-05-28T19:06:29.000Z</time></trkpt>
        <trkpt lat="28.712473" lon="104.723284"><ele>607.76715</ele><time>2026-05-28T19:06:33.000Z</time></trkpt>
        <trkpt lat="28.712529" lon="104.723289"><ele>606.95514</ele><time>2026-05-28T19:06:38.000Z</time></trkpt>
        <trkpt lat="28.712579" lon="104.723294"><ele>606.5385</ele><time>2026-05-28T19:06:42.000Z</time></trkpt>
        <trkpt lat="28.712632" lon="104.723289"><ele>606.71136</ele><time>2026-05-28T19:06:47.000Z</time></trkpt>
        <trkpt lat="28.712685" lon="104.723272"><ele>605.19775</ele><time>2026-05-28T19:06:52.000Z</time></trkpt>
        <trkpt lat="28.712733" lon="104.723246"><ele>604.77466</ele><time>2026-05-28T19:06:57.000Z</time></trkpt>
        <trkpt lat="28.712785" lon="104.723226"><ele>604.76935</ele><time>2026-05-28T19:07:02.000Z</time></trkpt>
        <trkpt lat="28.712821" lon="104.72318"><ele>604.48474</ele><time>2026-05-28T19:07:07.000Z</time></trkpt>
        <trkpt lat="28.712844" lon="104.723134"><ele>605.61865</ele><time>2026-05-28T19:07:11.000Z</time></trkpt>
        <trkpt lat="28.712861" lon="104.723085"><ele>606.4736</ele><time>2026-05-28T19:07:15.000Z</time></trkpt>
        <trkpt lat="28.712871" lon="104.723026"><ele>607.9872</ele><time>2026-05-28T19:07:20.000Z</time></trkpt>
        <trkpt lat="28.712891" lon="104.722967"><ele>607.627</ele><time>2026-05-28T19:07:25.000Z</time></trkpt>
        <trkpt lat="28.712905" lon="104.722915"><ele>607.4681</ele><time>2026-05-28T19:07:29.000Z</time></trkpt>
        <trkpt lat="28.712916" lon="104.72286"><ele>606.7162</ele><time>2026-05-28T19:07:33.000Z</time></trkpt>
        <trkpt lat="28.712954" lon="104.722814"><ele>604.6294</ele><time>2026-05-28T19:07:39.000Z</time></trkpt>
        <trkpt lat="28.712989" lon="104.722771"><ele>603.58167</ele><time>2026-05-28T19:07:43.000Z</time></trkpt>
        <trkpt lat="28.713023" lon="104.722732"><ele>602.3792</ele><time>2026-05-28T19:07:47.000Z</time></trkpt>
        <trkpt lat="28.713054" lon="104.72269"><ele>601.76575</ele><time>2026-05-28T19:07:51.000Z</time></trkpt>
        <trkpt lat="28.713095" lon="104.722654"><ele>601.298</ele><time>2026-05-28T19:07:55.000Z</time></trkpt>
        <trkpt lat="28.713133" lon="104.722607"><ele>600.7199</ele><time>2026-05-28T19:08:00.000Z</time></trkpt>
        <trkpt lat="28.713155" lon="104.722554"><ele>601.9955</ele><time>2026-05-28T19:08:04.000Z</time></trkpt>
        <trkpt lat="28.71317" lon="104.722499"><ele>602.4993</ele><time>2026-05-28T19:08:08.000Z</time></trkpt>
        <trkpt lat="28.713181" lon="104.72244"><ele>603.66254</ele><time>2026-05-28T19:08:12.000Z</time></trkpt>
        <trkpt lat="28.713195" lon="104.72239"><ele>603.9581</ele><time>2026-05-28T19:08:16.000Z</time></trkpt>
        <trkpt lat="28.713214" lon="104.722339"><ele>602.9335</ele><time>2026-05-28T19:08:20.000Z</time></trkpt>
        <trkpt lat="28.71323" lon="104.722286"><ele>602.4232</ele><time>2026-05-28T19:08:24.000Z</time></trkpt>
        <trkpt lat="28.713249" lon="104.722231"><ele>602.3441</ele><time>2026-05-28T19:08:28.000Z</time></trkpt>
        <trkpt lat="28.713286" lon="104.722193"><ele>602.6242</ele><time>2026-05-28T19:08:31.000Z</time></trkpt>
        <trkpt lat="28.713323" lon="104.722151"><ele>603.0832</ele><time>2026-05-28T19:08:35.000Z</time></trkpt>
        <trkpt lat="28.713368" lon="104.72213"><ele>603.9547</ele><time>2026-05-28T19:08:39.000Z</time></trkpt>
        <trkpt lat="28.713418" lon="104.722127"><ele>604.55237</ele><time>2026-05-28T19:08:44.000Z</time></trkpt>
        <trkpt lat="28.713466" lon="104.722135"><ele>605.17474</ele><time>2026-05-28T19:08:49.000Z</time></trkpt>
        <trkpt lat="28.713516" lon="104.722137"><ele>605.17554</ele><time>2026-05-28T19:08:53.000Z</time></trkpt>
        <trkpt lat="28.713562" lon="104.722145"><ele>605.35834</ele><time>2026-05-28T19:08:57.000Z</time></trkpt>
        <trkpt lat="28.713607" lon="104.722169"><ele>602.94354</ele><time>2026-05-28T19:09:01.000Z</time></trkpt>
        <trkpt lat="28.713659" lon="104.72219"><ele>603.07416</ele><time>2026-05-28T19:09:05.000Z</time></trkpt>
        <trkpt lat="28.713705" lon="104.722203"><ele>601.657</ele><time>2026-05-28T19:09:09.000Z</time></trkpt>
        <trkpt lat="28.713757" lon="104.722215"><ele>601.0526</ele><time>2026-05-28T19:09:13.000Z</time></trkpt>
        <trkpt lat="28.713807" lon="104.722244"><ele>600.38617</ele><time>2026-05-28T19:09:18.000Z</time></trkpt>
        <trkpt lat="28.713852" lon="104.722263"><ele>598.9077</ele><time>2026-05-28T19:09:23.000Z</time></trkpt>
        <trkpt lat="28.713886" lon="104.722298"><ele>599.0842</ele><time>2026-05-28T19:09:27.000Z</time></trkpt>
        <trkpt lat="28.713919" lon="104.722334"><ele>599.8206</ele><time>2026-05-28T19:09:31.000Z</time></trkpt>
        <trkpt lat="28.713966" lon="104.722354"><ele>598.6304</ele><time>2026-05-28T19:09:35.000Z</time></trkpt>
        <trkpt lat="28.714016" lon="104.722382"><ele>599.3617</ele><time>2026-05-28T19:09:40.000Z</time></trkpt>
        <trkpt lat="28.714044" lon="104.722433"><ele>598.623</ele><time>2026-05-28T19:09:47.000Z</time></trkpt>
        <trkpt lat="28.714081" lon="104.722474"><ele>598.32587</ele><time>2026-05-28T19:09:51.000Z</time></trkpt>
        <trkpt lat="28.714122" lon="104.722517"><ele>598.1128</ele><time>2026-05-28T19:09:56.000Z</time></trkpt>
        <trkpt lat="28.714152" lon="104.722556"><ele>596.5937</ele><time>2026-05-28T19:10:01.000Z</time></trkpt>
        <trkpt lat="28.714182" lon="104.722594"><ele>596.26874</ele><time>2026-05-28T19:10:06.000Z</time></trkpt>
        <trkpt lat="28.714221" lon="104.722631"><ele>596.4961</ele><time>2026-05-28T19:10:22.000Z</time></trkpt>
        <trkpt lat="28.714258" lon="104.722665"><ele>597.695</ele><time>2026-05-28T19:10:28.000Z</time></trkpt>
        <trkpt lat="28.714296" lon="104.722701"><ele>595.3637</ele><time>2026-05-28T19:10:35.000Z</time></trkpt>
        <trkpt lat="28.714332" lon="104.72274"><ele>594.5395</ele><time>2026-05-28T19:10:41.000Z</time></trkpt>
        <trkpt lat="28.714361" lon="104.722787"><ele>595.6426</ele><time>2026-05-28T19:10:50.000Z</time></trkpt>
        <trkpt lat="28.71439" lon="104.722826"><ele>595.2552</ele><time>2026-05-28T19:10:55.000Z</time></trkpt>
        <trkpt lat="28.714419" lon="104.722872"><ele>594.0388</ele><time>2026-05-28T19:11:02.000Z</time></trkpt>
        <trkpt lat="28.714439" lon="104.722921"><ele>594.2134</ele><time>2026-05-28T19:11:07.000Z</time></trkpt>
        <trkpt lat="28.714472" lon="104.722971"><ele>593.2097</ele><time>2026-05-28T19:11:12.000Z</time></trkpt>
        <trkpt lat="28.714508" lon="104.723011"><ele>590.8071</ele><time>2026-05-28T19:11:17.000Z</time></trkpt>
        <trkpt lat="28.714547" lon="104.723048"><ele>588.72705</ele><time>2026-05-28T19:11:26.000Z</time></trkpt>
        <trkpt lat="28.714589" lon="104.72309"><ele>588.2961</ele><time>2026-05-28T19:11:31.000Z</time></trkpt>
        <trkpt lat="28.714622" lon="104.723138"><ele>587.7611</ele><time>2026-05-28T19:11:36.000Z</time></trkpt>
        <trkpt lat="28.714642" lon="104.723188"><ele>585.98816</ele><time>2026-05-28T19:11:40.000Z</time></trkpt>
        <trkpt lat="28.714649" lon="104.723247"><ele>585.17804</ele><time>2026-05-28T19:11:44.000Z</time></trkpt>
        <trkpt lat="28.714651" lon="104.723298"><ele>584.5543</ele><time>2026-05-28T19:11:47.000Z</time></trkpt>
        <trkpt lat="28.714675" lon="104.723353"><ele>584.5434</ele><time>2026-05-28T19:11:51.000Z</time></trkpt>
        <trkpt lat="28.714697" lon="104.723415"><ele>585.60565</ele><time>2026-05-28T19:12:02.000Z</time></trkpt>
        <trkpt lat="28.714717" lon="104.723477"><ele>586.05554</ele><time>2026-05-28T19:12:07.000Z</time></trkpt>
        <trkpt lat="28.714738" lon="104.723533"><ele>587.3441</ele><time>2026-05-28T19:12:12.000Z</time></trkpt>
        <trkpt lat="28.714749" lon="104.72359"><ele>588.95386</ele><time>2026-05-28T19:12:17.000Z</time></trkpt>
        <trkpt lat="28.714754" lon="104.723645"><ele>590.05927</ele><time>2026-05-28T19:12:22.000Z</time></trkpt>
        <trkpt lat="28.714759" lon="104.723696"><ele>590.9338</ele><time>2026-05-28T19:12:27.000Z</time></trkpt>
        <trkpt lat="28.714763" lon="104.723752"><ele>593.5508</ele><time>2026-05-28T19:12:32.000Z</time></trkpt>
        <trkpt lat="28.714767" lon="104.723808"><ele>594.70795</ele><time>2026-05-28T19:12:36.000Z</time></trkpt>
        <trkpt lat="28.714785" lon="104.72386"><ele>594.96326</ele><time>2026-05-28T19:12:41.000Z</time></trkpt>
        <trkpt lat="28.714796" lon="104.723912"><ele>595.60944</ele><time>2026-05-28T19:12:46.000Z</time></trkpt>
        <trkpt lat="28.714809" lon="104.723966"><ele>595.77484</ele><time>2026-05-28T19:12:51.000Z</time></trkpt>
        <trkpt lat="28.714818" lon="104.724023"><ele>595.8522</ele><time>2026-05-28T19:12:56.000Z</time></trkpt>
        <trkpt lat="28.71484" lon="104.724078"><ele>596.8912</ele><time>2026-05-28T19:13:01.000Z</time></trkpt>
        <trkpt lat="28.714833" lon="104.724145"><ele>596.68884</ele><time>2026-05-28T19:13:11.000Z</time></trkpt>
        <trkpt lat="28.714858" lon="104.724196"><ele>596.5672</ele><time>2026-05-28T19:13:15.000Z</time></trkpt>
        <trkpt lat="28.714856" lon="104.724255"><ele>595.26624</ele><time>2026-05-28T19:13:19.000Z</time></trkpt>
        <trkpt lat="28.71487" lon="104.724308"><ele>595.00903</ele><time>2026-05-28T19:13:24.000Z</time></trkpt>
        <trkpt lat="28.714886" lon="104.724365"><ele>594.93835</ele><time>2026-05-28T19:13:29.000Z</time></trkpt>
        <trkpt lat="28.714906" lon="104.724412"><ele>594.7251</ele><time>2026-05-28T19:13:33.000Z</time></trkpt>
        <trkpt lat="28.714926" lon="104.724463"><ele>595.376</ele><time>2026-05-28T19:13:38.000Z</time></trkpt>
        <trkpt lat="28.714965" lon="104.724501"><ele>594.9961</ele><time>2026-05-28T19:13:42.000Z</time></trkpt>
        <trkpt lat="28.714991" lon="104.724545"><ele>594.8944</ele><time>2026-05-28T19:13:46.000Z</time></trkpt>
        <trkpt lat="28.715013" lon="104.724601"><ele>593.8603</ele><time>2026-05-28T19:13:51.000Z</time></trkpt>
        <trkpt lat="28.715039" lon="104.724652"><ele>593.4485</ele><time>2026-05-28T19:13:55.000Z</time></trkpt>
        <trkpt lat="28.715059" lon="104.72471"><ele>592.3541</ele><time>2026-05-28T19:14:00.000Z</time></trkpt>
        <trkpt lat="28.715095" lon="104.724755"><ele>591.7591</ele><time>2026-05-28T19:14:04.000Z</time></trkpt>
        <trkpt lat="28.715138" lon="104.724786"><ele>590.19977</ele><time>2026-05-28T19:14:08.000Z</time></trkpt>
        <trkpt lat="28.715185" lon="104.724798"><ele>590.3106</ele><time>2026-05-28T19:14:15.000Z</time></trkpt>
        <trkpt lat="28.715239" lon="104.724811"><ele>591.87067</ele><time>2026-05-28T19:14:22.000Z</time></trkpt>
        <trkpt lat="28.715285" lon="104.724813"><ele>593.5189</ele><time>2026-05-28T19:14:27.000Z</time></trkpt>
        <trkpt lat="28.715323" lon="104.724848"><ele>593.0499</ele><time>2026-05-28T19:14:33.000Z</time></trkpt>
        <trkpt lat="28.715358" lon="104.724893"><ele>593.40497</ele><time>2026-05-28T19:14:39.000Z</time></trkpt>
        <trkpt lat="28.715401" lon="104.724933"><ele>593.2743</ele><time>2026-05-28T19:14:44.000Z</time></trkpt>
        <trkpt lat="28.715451" lon="104.72496"><ele>592.94586</ele><time>2026-05-28T19:14:49.000Z</time></trkpt>
        <trkpt lat="28.715495" lon="104.724986"><ele>593.16693</ele><time>2026-05-28T19:14:53.000Z</time></trkpt>
        <trkpt lat="28.715541" lon="104.725011"><ele>592.7454</ele><time>2026-05-28T19:14:57.000Z</time></trkpt>
        <trkpt lat="28.715585" lon="104.725039"><ele>592.25305</ele><time>2026-05-28T19:15:01.000Z</time></trkpt>
        <trkpt lat="28.715635" lon="104.725068"><ele>591.00415</ele><time>2026-05-28T19:15:04.000Z</time></trkpt>
        <trkpt lat="28.715687" lon="104.725094"><ele>590.8388</ele><time>2026-05-28T19:15:09.000Z</time></trkpt>
        <trkpt lat="28.715729" lon="104.725118"><ele>590.7658</ele><time>2026-05-28T19:15:14.000Z</time></trkpt>
        <trkpt lat="28.715769" lon="104.725148"><ele>590.40344</ele><time>2026-05-28T19:15:18.000Z</time></trkpt>
        <trkpt lat="28.715816" lon="104.725186"><ele>590.05945</ele><time>2026-05-28T19:15:25.000Z</time></trkpt>
        <trkpt lat="28.715867" lon="104.725207"><ele>589.46704</ele><time>2026-05-28T19:15:30.000Z</time></trkpt>
        <trkpt lat="28.715901" lon="104.725241"><ele>589.1942</ele><time>2026-05-28T19:15:35.000Z</time></trkpt>
        <trkpt lat="28.715942" lon="104.725277"><ele>589.2556</ele><time>2026-05-28T19:15:39.000Z</time></trkpt>
        <trkpt lat="28.715975" lon="104.725329"><ele>589.79987</ele><time>2026-05-28T19:15:44.000Z</time></trkpt>
        <trkpt lat="28.716001" lon="104.725372"><ele>590.1314</ele><time>2026-05-28T19:15:49.000Z</time></trkpt>
        <trkpt lat="28.716012" lon="104.725429"><ele>590.91455</ele><time>2026-05-28T19:15:54.000Z</time></trkpt>
        <trkpt lat="28.716033" lon="104.725483"><ele>591.42084</ele><time>2026-05-28T19:15:59.000Z</time></trkpt>
        <trkpt lat="28.716053" lon="104.725536"><ele>591.5667</ele><time>2026-05-28T19:16:03.000Z</time></trkpt>
        <trkpt lat="28.716071" lon="104.725586"><ele>592.0148</ele><time>2026-05-28T19:16:07.000Z</time></trkpt>
        <trkpt lat="28.716064" lon="104.725527"><ele>592.6222</ele><time>2026-05-28T19:16:15.000Z</time></trkpt>
        <trkpt lat="28.716055" lon="104.725466"><ele>592.6003</ele><time>2026-05-28T19:16:19.000Z</time></trkpt>
        <trkpt lat="28.716101" lon="104.725467"><ele>593.05585</ele><time>2026-05-28T19:16:22.000Z</time></trkpt>
        <trkpt lat="28.716144" lon="104.725488"><ele>592.0623</ele><time>2026-05-28T19:16:27.000Z</time></trkpt>
        <trkpt lat="28.716191" lon="104.725521"><ele>593.00586</ele><time>2026-05-28T19:16:33.000Z</time></trkpt>
        <trkpt lat="28.716233" lon="104.725554"><ele>591.9838</ele><time>2026-05-28T19:16:38.000Z</time></trkpt>
        <trkpt lat="28.716278" lon="104.725582"><ele>592.2223</ele><time>2026-05-28T19:16:43.000Z</time></trkpt>
        <trkpt lat="28.716325" lon="104.725606"><ele>592.6748</ele><time>2026-05-28T19:16:48.000Z</time></trkpt>
        <trkpt lat="28.71637" lon="104.725635"><ele>593.5172</ele><time>2026-05-28T19:17:00.000Z</time></trkpt>
        <trkpt lat="28.716412" lon="104.725656"><ele>591.52466</ele><time>2026-05-28T19:17:26.000Z</time></trkpt>
        <trkpt lat="28.71646" lon="104.72567"><ele>593.06683</ele><time>2026-05-28T19:17:43.000Z</time></trkpt>
        <trkpt lat="28.716508" lon="104.725666"><ele>594.49146</ele><time>2026-05-28T19:17:50.000Z</time></trkpt>
        <trkpt lat="28.716558" lon="104.725678"><ele>596.68585</ele><time>2026-05-28T19:17:57.000Z</time></trkpt>
        <trkpt lat="28.716603" lon="104.725683"><ele>598.4627</ele><time>2026-05-28T19:18:02.000Z</time></trkpt>
        <trkpt lat="28.716651" lon="104.725677"><ele>600.17786</ele><time>2026-05-28T19:18:07.000Z</time></trkpt>
        <trkpt lat="28.716698" lon="104.725697"><ele>600.59674</ele><time>2026-05-28T19:18:13.000Z</time></trkpt>
        <trkpt lat="28.716739" lon="104.72572"><ele>601.5995</ele><time>2026-05-28T19:18:18.000Z</time></trkpt>
        <trkpt lat="28.716782" lon="104.725756"><ele>601.1945</ele><time>2026-05-28T19:18:23.000Z</time></trkpt>
        <trkpt lat="28.716824" lon="104.725793"><ele>598.9858</ele><time>2026-05-28T19:18:30.000Z</time></trkpt>
        <trkpt lat="28.716864" lon="104.725825"><ele>599.2281</ele><time>2026-05-28T19:18:35.000Z</time></trkpt>
        <trkpt lat="28.716898" lon="104.725869"><ele>597.4087</ele><time>2026-05-28T19:18:42.000Z</time></trkpt>
        <trkpt lat="28.716947" lon="104.725901"><ele>596.7062</ele><time>2026-05-28T19:18:48.000Z</time></trkpt>
        <trkpt lat="28.716978" lon="104.725941"><ele>595.9147</ele><time>2026-05-28T19:18:53.000Z</time></trkpt>
        <trkpt lat="28.717022" lon="104.725971"><ele>596.7011</ele><time>2026-05-28T19:18:58.000Z</time></trkpt>
        <trkpt lat="28.717061" lon="104.726003"><ele>596.64386</ele><time>2026-05-28T19:19:04.000Z</time></trkpt>
        <trkpt lat="28.717102" lon="104.726031"><ele>596.6287</ele><time>2026-05-28T19:19:10.000Z</time></trkpt>
        <trkpt lat="28.717138" lon="104.726063"><ele>597.81335</ele><time>2026-05-28T19:19:16.000Z</time></trkpt>
        <trkpt lat="28.717185" lon="104.726084"><ele>597.7627</ele><time>2026-05-28T19:19:23.000Z</time></trkpt>
        <trkpt lat="28.717235" lon="104.726083"><ele>599.2051</ele><time>2026-05-28T19:19:36.000Z</time></trkpt>
        <trkpt lat="28.717291" lon="104.72608"><ele>598.84515</ele><time>2026-05-28T19:19:41.000Z</time></trkpt>
        <trkpt lat="28.71734" lon="104.726094"><ele>599.4418</ele><time>2026-05-28T19:19:46.000Z</time></trkpt>
        <trkpt lat="28.717386" lon="104.726091"><ele>600.6269</ele><time>2026-05-28T19:19:52.000Z</time></trkpt>
        <trkpt lat="28.717437" lon="104.726093"><ele>600.07666</ele><time>2026-05-28T19:19:57.000Z</time></trkpt>
        <trkpt lat="28.717491" lon="104.726084"><ele>600.22736</ele><time>2026-05-28T19:20:04.000Z</time></trkpt>
        <trkpt lat="28.717536" lon="104.726066"><ele>599.67065</ele><time>2026-05-28T19:20:09.000Z</time></trkpt>
        <trkpt lat="28.717588" lon="104.726057"><ele>599.3505</ele><time>2026-05-28T19:20:14.000Z</time></trkpt>
        <trkpt lat="28.717643" lon="104.726056"><ele>599.4304</ele><time>2026-05-28T19:20:18.000Z</time></trkpt>
        <trkpt lat="28.717696" lon="104.726043"><ele>600.2485</ele><time>2026-05-28T19:20:25.000Z</time></trkpt>
        <trkpt lat="28.717743" lon="104.726031"><ele>600.249</ele><time>2026-05-28T19:20:30.000Z</time></trkpt>
        <trkpt lat="28.717785" lon="104.726007"><ele>599.3497</ele><time>2026-05-28T19:20:35.000Z</time></trkpt>
        <trkpt lat="28.717838" lon="104.725988"><ele>598.34955</ele><time>2026-05-28T19:20:40.000Z</time></trkpt>
        <trkpt lat="28.717883" lon="104.725968"><ele>597.11664</ele><time>2026-05-28T19:20:45.000Z</time></trkpt>
        <trkpt lat="28.717938" lon="104.725968"><ele>596.091</ele><time>2026-05-28T19:20:50.000Z</time></trkpt>
        <trkpt lat="28.717982" lon="104.725986"><ele>596.8121</ele><time>2026-05-28T19:20:54.000Z</time></trkpt>
        <trkpt lat="28.718021" lon="104.726025"><ele>596.7491</ele><time>2026-05-28T19:20:59.000Z</time></trkpt>
        <trkpt lat="28.718059" lon="104.726073"><ele>597.44354</ele><time>2026-05-28T19:21:04.000Z</time></trkpt>
        <trkpt lat="28.718099" lon="104.726112"><ele>598.395</ele><time>2026-05-28T19:21:09.000Z</time></trkpt>
        <trkpt lat="28.718142" lon="104.726137"><ele>599.1449</ele><time>2026-05-28T19:21:13.000Z</time></trkpt>
        <trkpt lat="28.718187" lon="104.72617"><ele>599.982</ele><time>2026-05-28T19:21:18.000Z</time></trkpt>
        <trkpt lat="28.718231" lon="104.726199"><ele>602.2839</ele><time>2026-05-28T19:21:29.000Z</time></trkpt>
        <trkpt lat="28.718275" lon="104.72622"><ele>603.2499</ele><time>2026-05-28T19:21:45.000Z</time></trkpt>
        <trkpt lat="28.718318" lon="104.726241"><ele>603.6159</ele><time>2026-05-28T19:21:49.000Z</time></trkpt>
        <trkpt lat="28.718372" lon="104.726234"><ele>604.5391</ele><time>2026-05-28T19:21:54.000Z</time></trkpt>
        <trkpt lat="28.718416" lon="104.726222"><ele>603.9089</ele><time>2026-05-28T19:22:00.000Z</time></trkpt>
        <trkpt lat="28.718467" lon="104.726215"><ele>602.95294</ele><time>2026-05-28T19:22:05.000Z</time></trkpt>
        <trkpt lat="28.718515" lon="104.726199"><ele>602.21344</ele><time>2026-05-28T19:22:10.000Z</time></trkpt>
        <trkpt lat="28.718563" lon="104.726178"><ele>601.30164</ele><time>2026-05-28T19:22:17.000Z</time></trkpt>
        <trkpt lat="28.718602" lon="104.726133"><ele>599.4846</ele><time>2026-05-28T19:22:22.000Z</time></trkpt>
        <trkpt lat="28.718627" lon="104.72608"><ele>600.8211</ele><time>2026-05-28T19:22:39.000Z</time></trkpt>
        <trkpt lat="28.718666" lon="104.726053"><ele>597.90454</ele><time>2026-05-28T19:22:45.000Z</time></trkpt>
        <trkpt lat="28.718706" lon="104.726022"><ele>594.21796</ele><time>2026-05-28T19:22:52.000Z</time></trkpt>
        <trkpt lat="28.71873" lon="104.725977"><ele>592.56445</ele><time>2026-05-28T19:22:57.000Z</time></trkpt>
        <trkpt lat="28.718765" lon="104.725935"><ele>589.3062</ele><time>2026-05-28T19:23:03.000Z</time></trkpt>
        <trkpt lat="28.718806" lon="104.725904"><ele>586.4652</ele><time>2026-05-28T19:23:08.000Z</time></trkpt>
        <trkpt lat="28.718842" lon="104.725872"><ele>586.2909</ele><time>2026-05-28T19:23:12.000Z</time></trkpt>
        <trkpt lat="28.718876" lon="104.725838"><ele>584.30707</ele><time>2026-05-28T19:23:16.000Z</time></trkpt>
        <trkpt lat="28.718916" lon="104.725811"><ele>583.6112</ele><time>2026-05-28T19:23:19.000Z</time></trkpt>
        <trkpt lat="28.718966" lon="104.725779"><ele>582.53766</ele><time>2026-05-28T19:23:23.000Z</time></trkpt>
        <trkpt lat="28.719016" lon="104.725757"><ele>581.2323</ele><time>2026-05-28T19:23:27.000Z</time></trkpt>
        <trkpt lat="28.71906" lon="104.725734"><ele>579.86414</ele><time>2026-05-28T19:23:32.000Z</time></trkpt>
        <trkpt lat="28.719104" lon="104.725705"><ele>578.6176</ele><time>2026-05-28T19:23:36.000Z</time></trkpt>
        <trkpt lat="28.719148" lon="104.725672"><ele>576.9794</ele><time>2026-05-28T19:23:40.000Z</time></trkpt>
        <trkpt lat="28.719195" lon="104.725645"><ele>576.1135</ele><time>2026-05-28T19:23:44.000Z</time></trkpt>
        <trkpt lat="28.71924" lon="104.725633"><ele>575.91077</ele><time>2026-05-28T19:23:46.000Z</time></trkpt>
        <trkpt lat="28.719291" lon="104.725633"><ele>575.3181</ele><time>2026-05-28T19:23:51.000Z</time></trkpt>
        <trkpt lat="28.719346" lon="104.725635"><ele>575.60144</ele><time>2026-05-28T19:23:57.000Z</time></trkpt>
        <trkpt lat="28.719385" lon="104.725681"><ele>575.3635</ele><time>2026-05-28T19:24:02.000Z</time></trkpt>
        <trkpt lat="28.719414" lon="104.725733"><ele>575.156</ele><time>2026-05-28T19:24:07.000Z</time></trkpt>
        <trkpt lat="28.719433" lon="104.725786"><ele>574.7479</ele><time>2026-05-28T19:24:12.000Z</time></trkpt>
        <trkpt lat="28.719398" lon="104.725825"><ele>574.94275</ele><time>2026-05-28T19:24:18.000Z</time></trkpt>
        <trkpt lat="28.719346" lon="104.725846"><ele>574.744</ele><time>2026-05-28T19:24:23.000Z</time></trkpt>
        <trkpt lat="28.719305" lon="104.725882"><ele>575.3321</ele><time>2026-05-28T19:24:28.000Z</time></trkpt>
        <trkpt lat="28.719273" lon="104.72593"><ele>575.0496</ele><time>2026-05-28T19:24:34.000Z</time></trkpt>
        <trkpt lat="28.719242" lon="104.725993"><ele>574.75507</ele><time>2026-05-28T19:24:39.000Z</time></trkpt>
        <trkpt lat="28.719215" lon="104.726045"><ele>574.74963</ele><time>2026-05-28T19:24:44.000Z</time></trkpt>
        <trkpt lat="28.719207" lon="104.7261"><ele>573.4414</ele><time>2026-05-28T19:24:50.000Z</time></trkpt>
        <trkpt lat="28.719184" lon="104.726151"><ele>573.4058</ele><time>2026-05-28T19:25:02.000Z</time></trkpt>
        <trkpt lat="28.719166" lon="104.726199"><ele>573.8656</ele><time>2026-05-28T19:25:07.000Z</time></trkpt>
        <trkpt lat="28.719132" lon="104.726256"><ele>572.96765</ele><time>2026-05-28T19:25:13.000Z</time></trkpt>
        <trkpt lat="28.719105" lon="104.726298"><ele>572.9373</ele><time>2026-05-28T19:25:18.000Z</time></trkpt>
        <trkpt lat="28.71909" lon="104.726346"><ele>572.86456</ele><time>2026-05-28T19:25:22.000Z</time></trkpt>
        <trkpt lat="28.719087" lon="104.726401"><ele>572.6949</ele><time>2026-05-28T19:25:28.000Z</time></trkpt>
        <trkpt lat="28.719091" lon="104.726454"><ele>573.8911</ele><time>2026-05-28T19:25:33.000Z</time></trkpt>
        <trkpt lat="28.719096" lon="104.726517"><ele>572.97485</ele><time>2026-05-28T19:25:38.000Z</time></trkpt>
        <trkpt lat="28.719096" lon="104.726569"><ele>572.80396</ele><time>2026-05-28T19:25:42.000Z</time></trkpt>
        <trkpt lat="28.719078" lon="104.726625"><ele>572.0253</ele><time>2026-05-28T19:25:51.000Z</time></trkpt>
        <trkpt lat="28.719069" lon="104.726676"><ele>573.6124</ele><time>2026-05-28T19:25:56.000Z</time></trkpt>
        <trkpt lat="28.719051" lon="104.72673"><ele>573.33295</ele><time>2026-05-28T19:26:01.000Z</time></trkpt>
        <trkpt lat="28.719033" lon="104.726781"><ele>573.045</ele><time>2026-05-28T19:26:07.000Z</time></trkpt>
        <trkpt lat="28.719018" lon="104.726839"><ele>573.1571</ele><time>2026-05-28T19:26:12.000Z</time></trkpt>
        <trkpt lat="28.719039" lon="104.72689"><ele>573.6649</ele><time>2026-05-28T19:26:16.000Z</time></trkpt>
        <trkpt lat="28.71907" lon="104.726941"><ele>573.20636</ele><time>2026-05-28T19:26:20.000Z</time></trkpt>
        <trkpt lat="28.719111" lon="104.726977"><ele>573.6677</ele><time>2026-05-28T19:26:24.000Z</time></trkpt>
        <trkpt lat="28.719156" lon="104.727004"><ele>574.7597</ele><time>2026-05-28T19:26:29.000Z</time></trkpt>
        <trkpt lat="28.719218" lon="104.727021"><ele>575.5108</ele><time>2026-05-28T19:26:35.000Z</time></trkpt>
        <trkpt lat="28.719267" lon="104.727041"><ele>575.4547</ele><time>2026-05-28T19:26:39.000Z</time></trkpt>
        <trkpt lat="28.719321" lon="104.727066"><ele>574.66833</ele><time>2026-05-28T19:26:44.000Z</time></trkpt>
        <trkpt lat="28.719371" lon="104.727081"><ele>575.59753</ele><time>2026-05-28T19:26:48.000Z</time></trkpt>
        <trkpt lat="28.719421" lon="104.727101"><ele>577.3645</ele><time>2026-05-28T19:26:53.000Z</time></trkpt>
        <trkpt lat="28.719471" lon="104.7271"><ele>577.093</ele><time>2026-05-28T19:26:58.000Z</time></trkpt>
        <trkpt lat="28.719516" lon="104.727111"><ele>574.86365</ele><time>2026-05-28T19:27:03.000Z</time></trkpt>
        <trkpt lat="28.719568" lon="104.727108"><ele>573.67395</ele><time>2026-05-28T19:27:08.000Z</time></trkpt>
        <trkpt lat="28.71962" lon="104.727114"><ele>573.43134</ele><time>2026-05-28T19:27:13.000Z</time></trkpt>
        <trkpt lat="28.719668" lon="104.727133"><ele>573.3296</ele><time>2026-05-28T19:27:18.000Z</time></trkpt>
        <trkpt lat="28.719711" lon="104.727157"><ele>573.69476</ele><time>2026-05-28T19:27:22.000Z</time></trkpt>
        <trkpt lat="28.719751" lon="104.727185"><ele>573.1309</ele><time>2026-05-28T19:27:25.000Z</time></trkpt>
        <trkpt lat="28.719775" lon="104.727238"><ele>569.97095</ele><time>2026-05-28T19:27:31.000Z</time></trkpt>
        <trkpt lat="28.719784" lon="104.72729"><ele>569.96375</ele><time>2026-05-28T19:27:35.000Z</time></trkpt>
        <trkpt lat="28.719793" lon="104.727346"><ele>568.5951</ele><time>2026-05-28T19:27:40.000Z</time></trkpt>
        <trkpt lat="28.719796" lon="104.7274"><ele>569.3612</ele><time>2026-05-28T19:27:46.000Z</time></trkpt>
        <trkpt lat="28.719807" lon="104.727461"><ele>569.75024</ele><time>2026-05-28T19:27:50.000Z</time></trkpt>
        <trkpt lat="28.719816" lon="104.727511"><ele>569.7648</ele><time>2026-05-28T19:27:54.000Z</time></trkpt>
        <trkpt lat="28.71982" lon="104.727565"><ele>570.4678</ele><time>2026-05-28T19:28:00.000Z</time></trkpt>
        <trkpt lat="28.71984" lon="104.727618"><ele>570.0598</ele><time>2026-05-28T19:28:04.000Z</time></trkpt>
        <trkpt lat="28.719852" lon="104.727675"><ele>570.59467</ele><time>2026-05-28T19:28:10.000Z</time></trkpt>
        <trkpt lat="28.719865" lon="104.727725"><ele>568.3863</ele><time>2026-05-28T19:28:15.000Z</time></trkpt>
        <trkpt lat="28.719857" lon="104.727776"><ele>568.75604</ele><time>2026-05-28T19:28:20.000Z</time></trkpt>
        <trkpt lat="28.719849" lon="104.727834"><ele>568.43915</ele><time>2026-05-28T19:28:27.000Z</time></trkpt>
        <trkpt lat="28.719834" lon="104.727887"><ele>568.07556</ele><time>2026-05-28T19:28:33.000Z</time></trkpt>
        <trkpt lat="28.719808" lon="104.727935"><ele>569.6899</ele><time>2026-05-28T19:28:39.000Z</time></trkpt>
        <trkpt lat="28.719806" lon="104.727989"><ele>570.12976</ele><time>2026-05-28T19:28:47.000Z</time></trkpt>
        <trkpt lat="28.719813" lon="104.728043"><ele>570.2714</ele><time>2026-05-28T19:28:56.000Z</time></trkpt>
        <trkpt lat="28.719842" lon="104.728087"><ele>570.6789</ele><time>2026-05-28T19:29:02.000Z</time></trkpt>
        <trkpt lat="28.719872" lon="104.728132"><ele>570.6265</ele><time>2026-05-28T19:29:09.000Z</time></trkpt>
        <trkpt lat="28.719913" lon="104.728164"><ele>572.35547</ele><time>2026-05-28T19:29:23.000Z</time></trkpt>
        <trkpt lat="28.719967" lon="104.728169"><ele>572.1208</ele><time>2026-05-28T19:29:31.000Z</time></trkpt>
        <trkpt lat="28.720017" lon="104.728159"><ele>570.98676</ele><time>2026-05-28T19:29:38.000Z</time></trkpt>
        <trkpt lat="28.720062" lon="104.728137"><ele>570.3133</ele><time>2026-05-28T19:29:47.000Z</time></trkpt>
        <trkpt lat="28.720098" lon="104.728103"><ele>570.45685</ele><time>2026-05-28T19:29:53.000Z</time></trkpt>
        <trkpt lat="28.720132" lon="104.728063"><ele>569.33655</ele><time>2026-05-28T19:30:05.000Z</time></trkpt>
        <trkpt lat="28.720156" lon="104.728017"><ele>568.7266</ele><time>2026-05-28T19:30:12.000Z</time></trkpt>
        <trkpt lat="28.720194" lon="104.727979"><ele>568.60046</ele><time>2026-05-28T19:30:20.000Z</time></trkpt>
        <trkpt lat="28.720225" lon="104.727934"><ele>569.46216</ele><time>2026-05-28T19:30:27.000Z</time></trkpt>
        <trkpt lat="28.720259" lon="104.727898"><ele>570.00653</ele><time>2026-05-28T19:30:34.000Z</time></trkpt>
        <trkpt lat="28.720301" lon="104.727853"><ele>569.77496</ele><time>2026-05-28T19:30:42.000Z</time></trkpt>
        <trkpt lat="28.720329" lon="104.72779"><ele>568.87823</ele><time>2026-05-28T19:30:49.000Z</time></trkpt>
        <trkpt lat="28.720373" lon="104.727775"><ele>569.4948</ele><time>2026-05-28T19:30:53.000Z</time></trkpt>
        <trkpt lat="28.720416" lon="104.727737"><ele>569.4606</ele><time>2026-05-28T19:30:58.000Z</time></trkpt>
        <trkpt lat="28.720462" lon="104.727716"><ele>568.9686</ele><time>2026-05-28T19:31:03.000Z</time></trkpt>
        <trkpt lat="28.720511" lon="104.727709"><ele>568.6933</ele><time>2026-05-28T19:31:11.000Z</time></trkpt>
        <trkpt lat="28.720559" lon="104.727721"><ele>569.2591</ele><time>2026-05-28T19:31:18.000Z</time></trkpt>
        <trkpt lat="28.720595" lon="104.727758"><ele>569.9552</ele><time>2026-05-28T19:31:23.000Z</time></trkpt>
        <trkpt lat="28.720625" lon="104.727804"><ele>570.05255</ele><time>2026-05-28T19:31:29.000Z</time></trkpt>
        <trkpt lat="28.720635" lon="104.727862"><ele>568.58655</ele><time>2026-05-28T19:31:35.000Z</time></trkpt>
        <trkpt lat="28.720625" lon="104.727914"><ele>567.6701</ele><time>2026-05-28T19:31:40.000Z</time></trkpt>
        <trkpt lat="28.720627" lon="104.727969"><ele>568.9462</ele><time>2026-05-28T19:31:48.000Z</time></trkpt>
        <trkpt lat="28.720613" lon="104.728025"><ele>568.33655</ele><time>2026-05-28T19:31:54.000Z</time></trkpt>
        <trkpt lat="28.720597" lon="104.728073"><ele>568.165</ele><time>2026-05-28T19:31:59.000Z</time></trkpt>
        <trkpt lat="28.720579" lon="104.72812"><ele>568.7383</ele><time>2026-05-28T19:32:04.000Z</time></trkpt>
        <trkpt lat="28.720561" lon="104.728168"><ele>568.83545</ele><time>2026-05-28T19:32:08.000Z</time></trkpt>
        <trkpt lat="28.720546" lon="104.728225"><ele>568.27374</ele><time>2026-05-28T19:32:13.000Z</time></trkpt>
        <trkpt lat="28.720517" lon="104.728281"><ele>568.0832</ele><time>2026-05-28T19:32:21.000Z</time></trkpt>
        <trkpt lat="28.720486" lon="104.728323"><ele>567.86597</ele><time>2026-05-28T19:32:28.000Z</time></trkpt>
        <trkpt lat="28.720448" lon="104.728358"><ele>567.67224</ele><time>2026-05-28T19:32:33.000Z</time></trkpt>
        <trkpt lat="28.720419" lon="104.728402"><ele>568.1465</ele><time>2026-05-28T19:32:39.000Z</time></trkpt>
        <trkpt lat="28.720394" lon="104.728448"><ele>569.81915</ele><time>2026-05-28T19:32:44.000Z</time></trkpt>
        <trkpt lat="28.720356" lon="104.728481"><ele>569.96216</ele><time>2026-05-28T19:32:55.000Z</time></trkpt>
        <trkpt lat="28.720321" lon="104.72852"><ele>570.1478</ele><time>2026-05-28T19:33:01.000Z</time></trkpt>
        <trkpt lat="28.720289" lon="104.728568"><ele>570.5428</ele><time>2026-05-28T19:33:07.000Z</time></trkpt>
        <trkpt lat="28.720262" lon="104.728619"><ele>570.4867</ele><time>2026-05-28T19:33:13.000Z</time></trkpt>
        <trkpt lat="28.72023" lon="104.72866"><ele>570.98816</ele><time>2026-05-28T19:33:20.000Z</time></trkpt>
        <trkpt lat="28.720199" lon="104.728703"><ele>572.2729</ele><time>2026-05-28T19:33:24.000Z</time></trkpt>
        <trkpt lat="28.72019" lon="104.728758"><ele>574.06793</ele><time>2026-05-28T19:33:32.000Z</time></trkpt>
        <trkpt lat="28.720167" lon="104.728818"><ele>575.7138</ele><time>2026-05-28T19:33:38.000Z</time></trkpt>
        <trkpt lat="28.720157" lon="104.728886"><ele>576.24585</ele><time>2026-05-28T19:33:43.000Z</time></trkpt>
        <trkpt lat="28.720129" lon="104.728935"><ele>577.59784</ele><time>2026-05-28T19:33:49.000Z</time></trkpt>
        <trkpt lat="28.720145" lon="104.72899"><ele>577.5329</ele><time>2026-05-28T19:33:57.000Z</time></trkpt>
        <trkpt lat="28.720133" lon="104.729048"><ele>579.05426</ele><time>2026-05-28T19:34:03.000Z</time></trkpt>
        <trkpt lat="28.720102" lon="104.729104"><ele>581.5675</ele><time>2026-05-28T19:34:10.000Z</time></trkpt>
        <trkpt lat="28.720076" lon="104.729156"><ele>581.4331</ele><time>2026-05-28T19:34:15.000Z</time></trkpt>
        <trkpt lat="28.720082" lon="104.729214"><ele>588.9007</ele><time>2026-05-28T19:34:33.000Z</time></trkpt>
        <trkpt lat="28.72005" lon="104.729263"><ele>589.12695</ele><time>2026-05-28T19:34:38.000Z</time></trkpt>
        <trkpt lat="28.720028" lon="104.729309"><ele>586.89874</ele><time>2026-05-28T19:34:48.000Z</time></trkpt>
        <trkpt lat="28.720002" lon="104.729353"><ele>584.1401</ele><time>2026-05-28T19:34:59.000Z</time></trkpt>
        <trkpt lat="28.719992" lon="104.729415"><ele>589.6362</ele><time>2026-05-28T19:35:06.000Z</time></trkpt>
        <trkpt lat="28.719953" lon="104.729441"><ele>589.97046</ele><time>2026-05-28T19:35:11.000Z</time></trkpt>
        <trkpt lat="28.719972" lon="104.729488"><ele>595.0584</ele><time>2026-05-28T19:35:18.000Z</time></trkpt>
        <trkpt lat="28.719964" lon="104.72955"><ele>597.7159</ele><time>2026-05-28T19:35:24.000Z</time></trkpt>
        <trkpt lat="28.719924" lon="104.729583"><ele>599.6588</ele><time>2026-05-28T19:35:30.000Z</time></trkpt>
        <trkpt lat="28.719883" lon="104.729612"><ele>598.00024</ele><time>2026-05-28T19:35:32.000Z</time></trkpt>
        <trkpt lat="28.719871" lon="104.729664"><ele>601.7035</ele><time>2026-05-28T19:35:47.000Z</time></trkpt>
        <trkpt lat="28.719867" lon="104.72972"><ele>602.8372</ele><time>2026-05-28T19:35:53.000Z</time></trkpt>
        <trkpt lat="28.719882" lon="104.729769"><ele>603.3169</ele><time>2026-05-28T19:35:59.000Z</time></trkpt>
        <trkpt lat="28.719927" lon="104.729791"><ele>603.88617</ele><time>2026-05-28T19:36:13.000Z</time></trkpt>
        <trkpt lat="28.719969" lon="104.72976"><ele>598.62805</ele><time>2026-05-28T19:36:23.000Z</time></trkpt>
        <trkpt lat="28.720012" lon="104.72974"><ele>584.13727</ele><time>2026-05-28T19:36:44.000Z</time></trkpt>
        <trkpt lat="28.720019" lon="104.729795"><ele>578.791</ele><time>2026-05-28T19:36:54.000Z</time></trkpt>
        <trkpt lat="28.720067" lon="104.729791"><ele>576.4727</ele><time>2026-05-28T19:37:03.000Z</time></trkpt>
        <trkpt lat="28.720117" lon="104.729799"><ele>574.1332</ele><time>2026-05-28T19:37:17.000Z</time></trkpt>
        <trkpt lat="28.720162" lon="104.729804"><ele>570.5136</ele><time>2026-05-28T19:37:29.000Z</time></trkpt>
        <trkpt lat="28.720214" lon="104.729817"><ele>567.8515</ele><time>2026-05-28T19:38:02.000Z</time></trkpt>
        <trkpt lat="28.720264" lon="104.729831"><ele>572.3463</ele><time>2026-05-28T19:38:12.000Z</time></trkpt>
        <trkpt lat="28.72031" lon="104.729831"><ele>572.25397</ele><time>2026-05-28T19:38:19.000Z</time></trkpt>
        <trkpt lat="28.720359" lon="104.729832"><ele>573.33014</ele><time>2026-05-28T19:38:26.000Z</time></trkpt>
        <trkpt lat="28.720411" lon="104.72983"><ele>572.60406</ele><time>2026-05-28T19:38:35.000Z</time></trkpt>
        <trkpt lat="28.72046" lon="104.72983"><ele>573.0672</ele><time>2026-05-28T19:38:42.000Z</time></trkpt>
        <trkpt lat="28.720515" lon="104.729847"><ele>572.3403</ele><time>2026-05-28T19:38:51.000Z</time></trkpt>
        <trkpt lat="28.720566" lon="104.729854"><ele>571.34143</ele><time>2026-05-28T19:38:58.000Z</time></trkpt>
        <trkpt lat="28.720613" lon="104.729875"><ele>567.93494</ele><time>2026-05-28T19:39:06.000Z</time></trkpt>
        <trkpt lat="28.720656" lon="104.729862"><ele>569.95807</ele><time>2026-05-28T19:39:11.000Z</time></trkpt>
        <trkpt lat="28.720702" lon="104.729849"><ele>571.42175</ele><time>2026-05-28T19:39:16.000Z</time></trkpt>
        <trkpt lat="28.720747" lon="104.729842"><ele>571.7656</ele><time>2026-05-28T19:39:22.000Z</time></trkpt>
        <trkpt lat="28.720801" lon="104.72984"><ele>573.22235</ele><time>2026-05-28T19:39:27.000Z</time></trkpt>
        <trkpt lat="28.720854" lon="104.729845"><ele>560.8854</ele><time>2026-05-28T19:39:34.000Z</time></trkpt>
        <trkpt lat="28.720896" lon="104.729868"><ele>557.8287</ele><time>2026-05-28T19:39:39.000Z</time></trkpt>
        <trkpt lat="28.720938" lon="104.729888"><ele>555.6967</ele><time>2026-05-28T19:39:44.000Z</time></trkpt>
        <trkpt lat="28.720983" lon="104.729901"><ele>554.71454</ele><time>2026-05-28T19:39:49.000Z</time></trkpt>
        <trkpt lat="28.721029" lon="104.729931"><ele>555.9933</ele><time>2026-05-28T19:39:55.000Z</time></trkpt>
        <trkpt lat="28.721087" lon="104.72995"><ele>557.25726</ele><time>2026-05-28T19:40:01.000Z</time></trkpt>
        <trkpt lat="28.721139" lon="104.729964"><ele>557.1584</ele><time>2026-05-28T19:40:06.000Z</time></trkpt>
        <trkpt lat="28.721189" lon="104.729988"><ele>557.41736</ele><time>2026-05-28T19:40:11.000Z</time></trkpt>
        <trkpt lat="28.721234" lon="104.72999"><ele>557.35706</ele><time>2026-05-28T19:40:17.000Z</time></trkpt>
        <trkpt lat="28.72128" lon="104.729969"><ele>555.4224</ele><time>2026-05-28T19:40:24.000Z</time></trkpt>
        <trkpt lat="28.721313" lon="104.729929"><ele>555.4331</ele><time>2026-05-28T19:40:44.000Z</time></trkpt>
        <trkpt lat="28.721357" lon="104.729914"><ele>561.91943</ele><time>2026-05-28T19:41:37.000Z</time></trkpt>
        <trkpt lat="28.721395" lon="104.729953"><ele>557.3106</ele><time>2026-05-28T19:41:51.000Z</time></trkpt>
        <trkpt lat="28.721434" lon="104.729978"><ele>553.8568</ele><time>2026-05-28T19:42:21.000Z</time></trkpt>
        <trkpt lat="28.721477" lon="104.729998"><ele>550.93536</ele><time>2026-05-28T19:42:47.000Z</time></trkpt>
        <trkpt lat="28.721488" lon="104.729947"><ele>550.29944</ele><time>2026-05-28T19:42:58.000Z</time></trkpt>
        <trkpt lat="28.721503" lon="104.729896"><ele>553.16113</ele><time>2026-05-28T19:43:18.000Z</time></trkpt>
        <trkpt lat="28.721505" lon="104.729844"><ele>558.8962</ele><time>2026-05-28T19:45:06.000Z</time></trkpt>
        <trkpt lat="28.721476" lon="104.729896"><ele>552.6595</ele><time>2026-05-28T19:46:32.000Z</time></trkpt>
        <trkpt lat="28.721511" lon="104.729862"><ele>551.9774</ele><time>2026-05-28T19:46:55.000Z</time></trkpt>
        <trkpt lat="28.721558" lon="104.729874"><ele>548.24335</ele><time>2026-05-28T19:47:04.000Z</time></trkpt>
        <trkpt lat="28.721608" lon="104.729895"><ele>548.12585</ele><time>2026-05-28T19:47:14.000Z</time></trkpt>
        <trkpt lat="28.721637" lon="104.729937"><ele>546.00745</ele><time>2026-05-28T19:47:31.000Z</time></trkpt>
        <trkpt lat="28.721684" lon="104.729949"><ele>547.9689</ele><time>2026-05-28T19:50:14.000Z</time></trkpt>
        <trkpt lat="28.721718" lon="104.729915"><ele>549.38275</ele><time>2026-05-28T19:50:34.000Z</time></trkpt>
        <trkpt lat="28.721754" lon="104.729879"><ele>550.7071</ele><time>2026-05-28T19:53:45.000Z</time></trkpt>
        <trkpt lat="28.721825" lon="104.729944"><ele>549.29</ele><time>2026-05-28T19:53:56.000Z</time></trkpt>
        <trkpt lat="28.721851" lon="104.729987"><ele>549.4817</ele><time>2026-05-28T19:54:08.000Z</time></trkpt>
        <trkpt lat="28.721854" lon="104.729933"><ele>549.311</ele><time>2026-05-28T19:54:20.000Z</time></trkpt>
        <trkpt lat="28.721899" lon="104.729933"><ele>554.3396</ele><time>2026-05-28T20:07:22.000Z</time></trkpt>
        <trkpt lat="28.721901" lon="104.729986"><ele>547.7038</ele><time>2026-05-28T20:15:34.000Z</time></trkpt>
        <trkpt lat="28.721878" lon="104.729938"><ele>550.7596</ele><time>2026-05-28T20:17:35.000Z</time></trkpt>
        <trkpt lat="28.721888" lon="104.729989"><ele>550.5663</ele><time>2026-05-28T20:35:35.000Z</time></trkpt>
        <trkpt lat="28.721917" lon="104.730035"><ele>547.77594</ele><time>2026-05-28T20:35:47.000Z</time></trkpt>
        <trkpt lat="28.721884" lon="104.730074"><ele>545.6023</ele><time>2026-05-28T20:35:59.000Z</time></trkpt>
        <trkpt lat="28.721854" lon="104.730116"><ele>545.12103</ele><time>2026-05-28T20:36:12.000Z</time></trkpt>
        <trkpt lat="28.721824" lon="104.730159"><ele>546.7782</ele><time>2026-05-28T20:36:19.000Z</time></trkpt>
        <trkpt lat="28.72181" lon="104.730214"><ele>548.1015</ele><time>2026-05-28T20:36:25.000Z</time></trkpt>
        <trkpt lat="28.721787" lon="104.730269"><ele>548.5005</ele><time>2026-05-28T20:36:33.000Z</time></trkpt>
        <trkpt lat="28.72176" lon="104.730312"><ele>552.48016</ele><time>2026-05-28T20:36:49.000Z</time></trkpt>
        <trkpt lat="28.721742" lon="104.730371"><ele>552.78766</ele><time>2026-05-28T20:36:56.000Z</time></trkpt>
        <trkpt lat="28.721714" lon="104.730419"><ele>552.9072</ele><time>2026-05-28T20:37:02.000Z</time></trkpt>
        <trkpt lat="28.721716" lon="104.730474"><ele>553.6995</ele><time>2026-05-28T20:37:13.000Z</time></trkpt>
        <trkpt lat="28.721734" lon="104.730527"><ele>553.8572</ele><time>2026-05-28T20:37:21.000Z</time></trkpt>
        <trkpt lat="28.72175" lon="104.73058"><ele>552.84814</ele><time>2026-05-28T20:37:28.000Z</time></trkpt>
        <trkpt lat="28.721778" lon="104.730625"><ele>553.5454</ele><time>2026-05-28T20:37:35.000Z</time></trkpt>
        <trkpt lat="28.721796" lon="104.730681"><ele>553.2704</ele><time>2026-05-28T20:37:40.000Z</time></trkpt>
        <trkpt lat="28.721824" lon="104.73073"><ele>553.5667</ele><time>2026-05-28T20:37:46.000Z</time></trkpt>
        <trkpt lat="28.721854" lon="104.73077"><ele>553.54614</ele><time>2026-05-28T20:37:52.000Z</time></trkpt>
        <trkpt lat="28.721901" lon="104.730785"><ele>553.2875</ele><time>2026-05-28T20:37:56.000Z</time></trkpt>
        <trkpt lat="28.721946" lon="104.730807"><ele>553.30615</ele><time>2026-05-28T20:38:01.000Z</time></trkpt>
        <trkpt lat="28.721984" lon="104.730844"><ele>552.2536</ele><time>2026-05-28T20:38:06.000Z</time></trkpt>
        <trkpt lat="28.722027" lon="104.730879"><ele>550.7339</ele><time>2026-05-28T20:38:11.000Z</time></trkpt>
        <trkpt lat="28.722051" lon="104.730929"><ele>550.0924</ele><time>2026-05-28T20:38:17.000Z</time></trkpt>
        <trkpt lat="28.722053" lon="104.730981"><ele>549.24927</ele><time>2026-05-28T20:38:27.000Z</time></trkpt>
        <trkpt lat="28.722021" lon="104.73102"><ele>549.2917</ele><time>2026-05-28T20:38:33.000Z</time></trkpt>
        <trkpt lat="28.721984" lon="104.731055"><ele>549.3419</ele><time>2026-05-28T20:38:39.000Z</time></trkpt>
        <trkpt lat="28.721948" lon="104.731092"><ele>552.10004</ele><time>2026-05-28T20:38:44.000Z</time></trkpt>
        <trkpt lat="28.721925" lon="104.731139"><ele>554.2396</ele><time>2026-05-28T20:38:49.000Z</time></trkpt>
        <trkpt lat="28.721896" lon="104.731184"><ele>555.333</ele><time>2026-05-28T20:38:54.000Z</time></trkpt>
        <trkpt lat="28.721861" lon="104.731219"><ele>554.8878</ele><time>2026-05-28T20:38:58.000Z</time></trkpt>
        <trkpt lat="28.72184" lon="104.731278"><ele>555.79297</ele><time>2026-05-28T20:39:04.000Z</time></trkpt>
        <trkpt lat="28.721825" lon="104.731341"><ele>555.408</ele><time>2026-05-28T20:39:10.000Z</time></trkpt>
        <trkpt lat="28.721831" lon="104.731392"><ele>553.3599</ele><time>2026-05-28T20:39:17.000Z</time></trkpt>
        <trkpt lat="28.721836" lon="104.731448"><ele>553.1348</ele><time>2026-05-28T20:39:23.000Z</time></trkpt>
        <trkpt lat="28.721827" lon="104.731498"><ele>551.855</ele><time>2026-05-28T20:39:28.000Z</time></trkpt>
        <trkpt lat="28.721842" lon="104.731564"><ele>552.40967</ele><time>2026-05-28T20:39:51.000Z</time></trkpt>
        <trkpt lat="28.721846" lon="104.731622"><ele>551.4516</ele><time>2026-05-28T20:39:55.000Z</time></trkpt>
        <trkpt lat="28.721828" lon="104.731673"><ele>551.0036</ele><time>2026-05-28T20:39:59.000Z</time></trkpt>
        <trkpt lat="28.721809" lon="104.731732"><ele>552.0283</ele><time>2026-05-28T20:40:04.000Z</time></trkpt>
        <trkpt lat="28.721794" lon="104.731785"><ele>552.3395</ele><time>2026-05-28T20:40:10.000Z</time></trkpt>
        <trkpt lat="28.721779" lon="104.731835"><ele>553.1678</ele><time>2026-05-28T20:40:17.000Z</time></trkpt>
        <trkpt lat="28.721768" lon="104.731892"><ele>554.3454</ele><time>2026-05-28T20:40:23.000Z</time></trkpt>
        <trkpt lat="28.721752" lon="104.731944"><ele>555.1478</ele><time>2026-05-28T20:40:28.000Z</time></trkpt>
        <trkpt lat="28.721751" lon="104.732001"><ele>555.96124</ele><time>2026-05-28T20:40:34.000Z</time></trkpt>
        <trkpt lat="28.721768" lon="104.732055"><ele>556.5213</ele><time>2026-05-28T20:40:39.000Z</time></trkpt>
        <trkpt lat="28.721778" lon="104.732108"><ele>558.39014</ele><time>2026-05-28T20:40:50.000Z</time></trkpt>
        <trkpt lat="28.721816" lon="104.732141"><ele>559.65436</ele><time>2026-05-28T20:40:59.000Z</time></trkpt>
        <trkpt lat="28.721826" lon="104.732199"><ele>560.5484</ele><time>2026-05-28T20:41:09.000Z</time></trkpt>
        <trkpt lat="28.721827" lon="104.732251"><ele>559.8529</ele><time>2026-05-28T20:41:19.000Z</time></trkpt>
        <trkpt lat="28.721837" lon="104.73231"><ele>559.65405</ele><time>2026-05-28T20:41:26.000Z</time></trkpt>
        <trkpt lat="28.721838" lon="104.732367"><ele>559.3298</ele><time>2026-05-28T20:41:34.000Z</time></trkpt>
        <trkpt lat="28.721836" lon="104.732423"><ele>558.9007</ele><time>2026-05-28T20:41:40.000Z</time></trkpt>
        <trkpt lat="28.721837" lon="104.732475"><ele>559.42896</ele><time>2026-05-28T20:41:46.000Z</time></trkpt>
        <trkpt lat="28.721822" lon="104.732526"><ele>557.8231</ele><time>2026-05-28T20:41:53.000Z</time></trkpt>
        <trkpt lat="28.721799" lon="104.732575"><ele>558.12067</ele><time>2026-05-28T20:41:58.000Z</time></trkpt>
        <trkpt lat="28.72178" lon="104.732623"><ele>557.99554</ele><time>2026-05-28T20:42:04.000Z</time></trkpt>
        <trkpt lat="28.721756" lon="104.732676"><ele>558.4217</ele><time>2026-05-28T20:42:10.000Z</time></trkpt>
        <trkpt lat="28.721736" lon="104.732723"><ele>558.87897</ele><time>2026-05-28T20:42:16.000Z</time></trkpt>
        <trkpt lat="28.721736" lon="104.732781"><ele>557.9927</ele><time>2026-05-28T20:42:22.000Z</time></trkpt>
        <trkpt lat="28.721709" lon="104.732829"><ele>558.2737</ele><time>2026-05-28T20:42:28.000Z</time></trkpt>
        <trkpt lat="28.721694" lon="104.732884"><ele>558.2523</ele><time>2026-05-28T20:42:33.000Z</time></trkpt>
        <trkpt lat="28.72169" lon="104.73294"><ele>558.63477</ele><time>2026-05-28T20:42:37.000Z</time></trkpt>
        <trkpt lat="28.721673" lon="104.732991"><ele>559.0377</ele><time>2026-05-28T20:42:42.000Z</time></trkpt>
        <trkpt lat="28.721668" lon="104.733048"><ele>559.1085</ele><time>2026-05-28T20:42:47.000Z</time></trkpt>
        <trkpt lat="28.721669" lon="104.733107"><ele>559.42377</ele><time>2026-05-28T20:42:54.000Z</time></trkpt>
        <trkpt lat="28.721682" lon="104.733157"><ele>559.42834</ele><time>2026-05-28T20:42:58.000Z</time></trkpt>
        <trkpt lat="28.721668" lon="104.733214"><ele>559.2343</ele><time>2026-05-28T20:43:04.000Z</time></trkpt>
        <trkpt lat="28.721668" lon="104.733276"><ele>561.0952</ele><time>2026-05-28T20:43:15.000Z</time></trkpt>
        <trkpt lat="28.721686" lon="104.733323"><ele>560.3425</ele><time>2026-05-28T20:43:20.000Z</time></trkpt>
        <trkpt lat="28.721699" lon="104.733379"><ele>560.1665</ele><time>2026-05-28T20:43:26.000Z</time></trkpt>
        <trkpt lat="28.721716" lon="104.733436"><ele>559.8018</ele><time>2026-05-28T20:43:32.000Z</time></trkpt>
        <trkpt lat="28.721755" lon="104.73347"><ele>560.9637</ele><time>2026-05-28T20:43:38.000Z</time></trkpt>
        <trkpt lat="28.721798" lon="104.733499"><ele>562.0283</ele><time>2026-05-28T20:43:43.000Z</time></trkpt>
        <trkpt lat="28.721841" lon="104.733519"><ele>563.3236</ele><time>2026-05-28T20:43:48.000Z</time></trkpt>
        <trkpt lat="28.721883" lon="104.733562"><ele>564.9648</ele><time>2026-05-28T20:43:54.000Z</time></trkpt>
        <trkpt lat="28.721897" lon="104.733613"><ele>566.2889</ele><time>2026-05-28T20:44:00.000Z</time></trkpt>
        <trkpt lat="28.721902" lon="104.733664"><ele>566.8062</ele><time>2026-05-28T20:44:04.000Z</time></trkpt>
        <trkpt lat="28.721914" lon="104.733714"><ele>567.1105</ele><time>2026-05-28T20:44:07.000Z</time></trkpt>
        <trkpt lat="28.721881" lon="104.733759"><ele>567.8417</ele><time>2026-05-28T20:44:11.000Z</time></trkpt>
        <trkpt lat="28.721842" lon="104.733788"><ele>566.3482</ele><time>2026-05-28T20:44:22.000Z</time></trkpt>
        <trkpt lat="28.721799" lon="104.733804"><ele>564.26276</ele><time>2026-05-28T20:44:32.000Z</time></trkpt>
        <trkpt lat="28.721767" lon="104.733845"><ele>563.44867</ele><time>2026-05-28T20:44:38.000Z</time></trkpt>
        <trkpt lat="28.721744" lon="104.733896"><ele>560.0242</ele><time>2026-05-28T20:44:44.000Z</time></trkpt>
        <trkpt lat="28.721723" lon="104.733952"><ele>559.4361</ele><time>2026-05-28T20:44:49.000Z</time></trkpt>
        <trkpt lat="28.721709" lon="104.734005"><ele>558.41705</ele><time>2026-05-28T20:44:53.000Z</time></trkpt>
        <trkpt lat="28.721686" lon="104.734054"><ele>557.7948</ele><time>2026-05-28T20:44:56.000Z</time></trkpt>
        <trkpt lat="28.721668" lon="104.734103"><ele>556.35944</ele><time>2026-05-28T20:45:01.000Z</time></trkpt>
        <trkpt lat="28.721667" lon="104.734156"><ele>555.77563</ele><time>2026-05-28T20:45:07.000Z</time></trkpt>
        <trkpt lat="28.721669" lon="104.734208"><ele>555.2504</ele><time>2026-05-28T20:45:12.000Z</time></trkpt>
        <trkpt lat="28.721682" lon="104.734258"><ele>554.9752</ele><time>2026-05-28T20:45:16.000Z</time></trkpt>
        <trkpt lat="28.72173" lon="104.734315"><ele>555.02313</ele><time>2026-05-28T20:45:23.000Z</time></trkpt>
        <trkpt lat="28.72175" lon="104.734364"><ele>553.58923</ele><time>2026-05-28T20:45:28.000Z</time></trkpt>
        <trkpt lat="28.721772" lon="104.734409"><ele>555.3505</ele><time>2026-05-28T20:45:32.000Z</time></trkpt>
        <trkpt lat="28.721803" lon="104.734446"><ele>556.729</ele><time>2026-05-28T20:45:36.000Z</time></trkpt>
        <trkpt lat="28.721844" lon="104.734485"><ele>559.77026</ele><time>2026-05-28T20:45:41.000Z</time></trkpt>
        <trkpt lat="28.721874" lon="104.734525"><ele>561.35345</ele><time>2026-05-28T20:45:45.000Z</time></trkpt>
        <trkpt lat="28.721916" lon="104.734559"><ele>561.11743</ele><time>2026-05-28T20:45:49.000Z</time></trkpt>
        <trkpt lat="28.721958" lon="104.734583"><ele>561.726</ele><time>2026-05-28T20:45:54.000Z</time></trkpt>
        <trkpt lat="28.721988" lon="104.734623"><ele>561.84534</ele><time>2026-05-28T20:45:59.000Z</time></trkpt>
        <trkpt lat="28.722034" lon="104.734654"><ele>562.73486</ele><time>2026-05-28T20:46:04.000Z</time></trkpt>
        <trkpt lat="28.722078" lon="104.734688"><ele>563.25507</ele><time>2026-05-28T20:46:09.000Z</time></trkpt>
        <trkpt lat="28.722122" lon="104.734718"><ele>563.73376</ele><time>2026-05-28T20:46:14.000Z</time></trkpt>
        <trkpt lat="28.722171" lon="104.734725"><ele>565.17535</ele><time>2026-05-28T20:46:20.000Z</time></trkpt>
        <trkpt lat="28.722219" lon="104.734715"><ele>566.5546</ele><time>2026-05-28T20:46:24.000Z</time></trkpt>
        <trkpt lat="28.722259" lon="104.73469"><ele>568.8618</ele><time>2026-05-28T20:46:29.000Z</time></trkpt>
        <trkpt lat="28.72231" lon="104.734677"><ele>571.14514</ele><time>2026-05-28T20:46:34.000Z</time></trkpt>
        <trkpt lat="28.722368" lon="104.734696"><ele>572.57294</ele><time>2026-05-28T20:46:38.000Z</time></trkpt>
        <trkpt lat="28.722415" lon="104.734722"><ele>573.8575</ele><time>2026-05-28T20:46:42.000Z</time></trkpt>
        <trkpt lat="28.722464" lon="104.734754"><ele>574.3234</ele><time>2026-05-28T20:46:48.000Z</time></trkpt>
        <trkpt lat="28.722513" lon="104.734767"><ele>573.6873</ele><time>2026-05-28T20:46:54.000Z</time></trkpt>
        <trkpt lat="28.72257" lon="104.734777"><ele>574.0981</ele><time>2026-05-28T20:46:58.000Z</time></trkpt>
        <trkpt lat="28.722615" lon="104.734773"><ele>574.86804</ele><time>2026-05-28T20:47:02.000Z</time></trkpt>
        <trkpt lat="28.722656" lon="104.73475"><ele>574.4498</ele><time>2026-05-28T20:47:07.000Z</time></trkpt>
        <trkpt lat="28.722708" lon="104.734759"><ele>573.2549</ele><time>2026-05-28T20:47:12.000Z</time></trkpt>
        <trkpt lat="28.722762" lon="104.734751"><ele>574.83466</ele><time>2026-05-28T20:47:17.000Z</time></trkpt>
        <trkpt lat="28.722807" lon="104.734742"><ele>575.31036</ele><time>2026-05-28T20:47:22.000Z</time></trkpt>
        <trkpt lat="28.722841" lon="104.734709"><ele>575.6427</ele><time>2026-05-28T20:47:26.000Z</time></trkpt>
        <trkpt lat="28.722894" lon="104.734693"><ele>576.0695</ele><time>2026-05-28T20:47:31.000Z</time></trkpt>
        <trkpt lat="28.722949" lon="104.734681"><ele>575.73676</ele><time>2026-05-28T20:47:36.000Z</time></trkpt>
        <trkpt lat="28.723003" lon="104.73466"><ele>576.575</ele><time>2026-05-28T20:47:40.000Z</time></trkpt>
        <trkpt lat="28.72305" lon="104.734666"><ele>577.5627</ele><time>2026-05-28T20:47:44.000Z</time></trkpt>
        <trkpt lat="28.723105" lon="104.734677"><ele>577.10065</ele><time>2026-05-28T20:47:48.000Z</time></trkpt>
        <trkpt lat="28.723155" lon="104.73467"><ele>577.5793</ele><time>2026-05-28T20:47:54.000Z</time></trkpt>
        <trkpt lat="28.723201" lon="104.734662"><ele>578.2833</ele><time>2026-05-28T20:47:59.000Z</time></trkpt>
        <trkpt lat="28.723239" lon="104.734618"><ele>579.6994</ele><time>2026-05-28T20:48:04.000Z</time></trkpt>
        <trkpt lat="28.723192" lon="104.734652"><ele>578.44775</ele><time>2026-05-28T20:48:33.000Z</time></trkpt>
        <trkpt lat="28.72314" lon="104.734659"><ele>578.058</ele><time>2026-05-28T20:48:38.000Z</time></trkpt>
        <trkpt lat="28.72309" lon="104.734661"><ele>576.906</ele><time>2026-05-28T20:48:43.000Z</time></trkpt>
        <trkpt lat="28.723048" lon="104.734641"><ele>575.3541</ele><time>2026-05-28T20:48:47.000Z</time></trkpt>
        <trkpt lat="28.722998" lon="104.734632"><ele>575.439</ele><time>2026-05-28T20:48:51.000Z</time></trkpt>
        <trkpt lat="28.72295" lon="104.734648"><ele>574.83563</ele><time>2026-05-28T20:48:55.000Z</time></trkpt>
        <trkpt lat="28.722903" lon="104.734677"><ele>574.4099</ele><time>2026-05-28T20:48:59.000Z</time></trkpt>
        <trkpt lat="28.722855" lon="104.734695"><ele>574.7397</ele><time>2026-05-28T20:49:03.000Z</time></trkpt>
        <trkpt lat="28.722811" lon="104.734724"><ele>574.87164</ele><time>2026-05-28T20:49:08.000Z</time></trkpt>
        <trkpt lat="28.722763" lon="104.734735"><ele>573.639</ele><time>2026-05-28T20:49:13.000Z</time></trkpt>
        <trkpt lat="28.722719" lon="104.734749"><ele>573.48944</ele><time>2026-05-28T20:49:16.000Z</time></trkpt>
        <trkpt lat="28.722676" lon="104.734731"><ele>573.30804</ele><time>2026-05-28T20:49:21.000Z</time></trkpt>
        <trkpt lat="28.72263" lon="104.73475"><ele>572.9579</ele><time>2026-05-28T20:49:25.000Z</time></trkpt>
        <trkpt lat="28.722641" lon="104.734808"><ele>572.8166</ele><time>2026-05-28T20:49:33.000Z</time></trkpt>
        <trkpt lat="28.72262" lon="104.734855"><ele>573.06635</ele><time>2026-05-28T20:49:44.000Z</time></trkpt>
        <trkpt lat="28.722584" lon="104.734893"><ele>571.17664</ele><time>2026-05-28T20:49:56.000Z</time></trkpt>
        <trkpt lat="28.722543" lon="104.734915"><ele>569.75354</ele><time>2026-05-28T20:50:06.000Z</time></trkpt>
        <trkpt lat="28.722498" lon="104.734927"><ele>569.37836</ele><time>2026-05-28T20:50:13.000Z</time></trkpt>
        <trkpt lat="28.722451" lon="104.734918"><ele>567.80255</ele><time>2026-05-28T20:50:19.000Z</time></trkpt>
        <trkpt lat="28.722405" lon="104.734946"><ele>567.07446</ele><time>2026-05-28T20:50:29.000Z</time></trkpt>
        <trkpt lat="28.722355" lon="104.734928"><ele>564.99634</ele><time>2026-05-28T20:50:38.000Z</time></trkpt>
        <trkpt lat="28.722314" lon="104.734903"><ele>564.9077</ele><time>2026-05-28T20:50:41.000Z</time></trkpt>
        <trkpt lat="28.722271" lon="104.734885"><ele>564.1771</ele><time>2026-05-28T20:50:47.000Z</time></trkpt>
        <trkpt lat="28.722225" lon="104.734877"><ele>563.5459</ele><time>2026-05-28T20:50:53.000Z</time></trkpt>
        <trkpt lat="28.722193" lon="104.73492"><ele>563.02136</ele><time>2026-05-28T20:50:57.000Z</time></trkpt>
        <trkpt lat="28.722175" lon="104.734976"><ele>559.707</ele><time>2026-05-28T20:51:06.000Z</time></trkpt>
        <trkpt lat="28.722167" lon="104.735027"><ele>557.9439</ele><time>2026-05-28T20:51:30.000Z</time></trkpt>
        <trkpt lat="28.722117" lon="104.735032"><ele>555.2343</ele><time>2026-05-28T20:52:11.000Z</time></trkpt>
        <trkpt lat="28.722069" lon="104.735"><ele>552.89844</ele><time>2026-05-28T20:52:17.000Z</time></trkpt>
        <trkpt lat="28.722045" lon="104.734952"><ele>552.42896</ele><time>2026-05-28T20:52:21.000Z</time></trkpt>
        <trkpt lat="28.722005" lon="104.734917"><ele>552.3151</ele><time>2026-05-28T20:52:25.000Z</time></trkpt>
        <trkpt lat="28.721982" lon="104.734866"><ele>551.91437</ele><time>2026-05-28T20:52:29.000Z</time></trkpt>
        <trkpt lat="28.721944" lon="104.734836"><ele>551.63007</ele><time>2026-05-28T20:52:34.000Z</time></trkpt>
        <trkpt lat="28.72191" lon="104.734802"><ele>549.1306</ele><time>2026-05-28T20:52:39.000Z</time></trkpt>
        <trkpt lat="28.721877" lon="104.734766"><ele>547.3924</ele><time>2026-05-28T20:52:44.000Z</time></trkpt>
        <trkpt lat="28.721836" lon="104.734732"><ele>544.77704</ele><time>2026-05-28T20:52:51.000Z</time></trkpt>
        <trkpt lat="28.721798" lon="104.734698"><ele>544.94403</ele><time>2026-05-28T20:52:55.000Z</time></trkpt>
        <trkpt lat="28.721761" lon="104.734659"><ele>542.1858</ele><time>2026-05-28T20:53:05.000Z</time></trkpt>
        <trkpt lat="28.721722" lon="104.73463"><ele>539.7768</ele><time>2026-05-28T20:53:14.000Z</time></trkpt>
        <trkpt lat="28.721679" lon="104.734612"><ele>536.6732</ele><time>2026-05-28T20:53:19.000Z</time></trkpt>
        <trkpt lat="28.721633" lon="104.734571"><ele>535.10376</ele><time>2026-05-28T20:53:23.000Z</time></trkpt>
        <trkpt lat="28.721594" lon="104.734528"><ele>532.5014</ele><time>2026-05-28T20:53:29.000Z</time></trkpt>
        <trkpt lat="28.721558" lon="104.734476"><ele>531.8088</ele><time>2026-05-28T20:53:35.000Z</time></trkpt>
        <trkpt lat="28.721509" lon="104.734466"><ele>531.0593</ele><time>2026-05-28T20:53:39.000Z</time></trkpt>
        <trkpt lat="28.721462" lon="104.734446"><ele>528.41156</ele><time>2026-05-28T20:54:01.000Z</time></trkpt>
        <trkpt lat="28.721427" lon="104.734405"><ele>524.2999</ele><time>2026-05-28T20:54:07.000Z</time></trkpt>
        <trkpt lat="28.721383" lon="104.734378"><ele>522.48914</ele><time>2026-05-28T20:54:13.000Z</time></trkpt>
        <trkpt lat="28.721353" lon="104.734325"><ele>520.15704</ele><time>2026-05-28T20:54:21.000Z</time></trkpt>
        <trkpt lat="28.721327" lon="104.734373"><ele>519.4367</ele><time>2026-05-28T20:54:37.000Z</time></trkpt>
        <trkpt lat="28.721282" lon="104.734355"><ele>517.17377</ele><time>2026-05-28T20:55:09.000Z</time></trkpt>
        <trkpt lat="28.721247" lon="104.73439"><ele>516.15405</ele><time>2026-05-28T20:55:17.000Z</time></trkpt>
        <trkpt lat="28.721199" lon="104.734379"><ele>515.7659</ele><time>2026-05-28T20:55:30.000Z</time></trkpt>
        <trkpt lat="28.721153" lon="104.734356"><ele>515.37006</ele><time>2026-05-28T20:55:45.000Z</time></trkpt>
        <trkpt lat="28.721111" lon="104.734379"><ele>514.5842</ele><time>2026-05-28T20:55:53.000Z</time></trkpt>
        <trkpt lat="28.721076" lon="104.734421"><ele>513.668</ele><time>2026-05-28T20:55:59.000Z</time></trkpt>
        <trkpt lat="28.721038" lon="104.734454"><ele>510.75916</ele><time>2026-05-28T20:56:11.000Z</time></trkpt>
        <trkpt lat="28.720992" lon="104.734444"><ele>508.5698</ele><time>2026-05-28T20:56:22.000Z</time></trkpt>
        <trkpt lat="28.720981" lon="104.734391"><ele>508.00146</ele><time>2026-05-28T20:56:30.000Z</time></trkpt>
        <trkpt lat="28.720936" lon="104.734399"><ele>506.84644</ele><time>2026-05-28T20:56:47.000Z</time></trkpt>
        <trkpt lat="28.720891" lon="104.734409"><ele>504.87744</ele><time>2026-05-28T20:56:55.000Z</time></trkpt>
        <trkpt lat="28.720862" lon="104.734455"><ele>502.12125</ele><time>2026-05-28T20:57:05.000Z</time></trkpt>
        <trkpt lat="28.720849" lon="104.734505"><ele>500.3472</ele><time>2026-05-28T20:57:10.000Z</time></trkpt>
        <trkpt lat="28.720844" lon="104.734558"><ele>499.8139</ele><time>2026-05-28T20:57:15.000Z</time></trkpt>
        <trkpt lat="28.720859" lon="104.734609"><ele>498.17593</ele><time>2026-05-28T20:57:21.000Z</time></trkpt>
        <trkpt lat="28.720855" lon="104.734667"><ele>496.84793</ele><time>2026-05-28T20:57:28.000Z</time></trkpt>
        <trkpt lat="28.720861" lon="104.734718"><ele>496.46033</ele><time>2026-05-28T20:57:32.000Z</time></trkpt>
        <trkpt lat="28.720867" lon="104.734772"><ele>495.04868</ele><time>2026-05-28T20:57:35.000Z</time></trkpt>
        <trkpt lat="28.720846" lon="104.734821"><ele>493.0776</ele><time>2026-05-28T20:57:45.000Z</time></trkpt>
        <trkpt lat="28.720823" lon="104.73487"><ele>491.32745</ele><time>2026-05-28T20:57:51.000Z</time></trkpt>
        <trkpt lat="28.720776" lon="104.734895"><ele>488.975</ele><time>2026-05-28T20:58:00.000Z</time></trkpt>
        <trkpt lat="28.720744" lon="104.734937"><ele>487.63425</ele><time>2026-05-28T20:58:11.000Z</time></trkpt>
        <trkpt lat="28.7207" lon="104.734965"><ele>484.49493</ele><time>2026-05-28T20:58:21.000Z</time></trkpt>
        <trkpt lat="28.720729" lon="104.73502"><ele>484.4323</ele><time>2026-05-28T20:58:25.000Z</time></trkpt>
        <trkpt lat="28.720761" lon="104.735062"><ele>485.52078</ele><time>2026-05-28T20:58:29.000Z</time></trkpt>
        <trkpt lat="28.720783" lon="104.735115"><ele>483.6736</ele><time>2026-05-28T20:58:36.000Z</time></trkpt>
        <trkpt lat="28.720826" lon="104.735155"><ele>482.5028</ele><time>2026-05-28T20:58:40.000Z</time></trkpt>
        <trkpt lat="28.720778" lon="104.735134"><ele>480.7833</ele><time>2026-05-28T20:58:45.000Z</time></trkpt>
        <trkpt lat="28.720719" lon="104.735123"><ele>480.5004</ele><time>2026-05-28T20:58:50.000Z</time></trkpt>
        <trkpt lat="28.720673" lon="104.735105"><ele>479.94183</ele><time>2026-05-28T20:58:53.000Z</time></trkpt>
        <trkpt lat="28.720623" lon="104.735122"><ele>481.05273</ele><time>2026-05-28T20:58:58.000Z</time></trkpt>
        <trkpt lat="28.720605" lon="104.735181"><ele>480.22095</ele><time>2026-05-28T20:59:02.000Z</time></trkpt>
        <trkpt lat="28.720601" lon="104.735247"><ele>478.50812</ele><time>2026-05-28T20:59:08.000Z</time></trkpt>
        <trkpt lat="28.720587" lon="104.735303"><ele>476.95193</ele><time>2026-05-28T20:59:12.000Z</time></trkpt>
        <trkpt lat="28.720563" lon="104.735356"><ele>474.35757</ele><time>2026-05-28T20:59:19.000Z</time></trkpt>
        <trkpt lat="28.720537" lon="104.735415"><ele>473.74066</ele><time>2026-05-28T20:59:22.000Z</time></trkpt>
        <trkpt lat="28.720538" lon="104.735475"><ele>472.11786</ele><time>2026-05-28T20:59:27.000Z</time></trkpt>
        <trkpt lat="28.720541" lon="104.735526"><ele>472.03476</ele><time>2026-05-28T20:59:30.000Z</time></trkpt>
        <trkpt lat="28.72055" lon="104.735578"><ele>471.11072</ele><time>2026-05-28T20:59:33.000Z</time></trkpt>
        <trkpt lat="28.720573" lon="104.735634"><ele>471.56662</ele><time>2026-05-28T20:59:37.000Z</time></trkpt>
        <trkpt lat="28.720538" lon="104.735684"><ele>471.14648</ele><time>2026-05-28T20:59:42.000Z</time></trkpt>
        <trkpt lat="28.720483" lon="104.735698"><ele>471.0121</ele><time>2026-05-28T20:59:46.000Z</time></trkpt>
        <trkpt lat="28.720437" lon="104.735728"><ele>471.06296</ele><time>2026-05-28T20:59:51.000Z</time></trkpt>
        <trkpt lat="28.720405" lon="104.73577"><ele>471.19028</ele><time>2026-05-28T20:59:58.000Z</time></trkpt>
        <trkpt lat="28.720374" lon="104.73581"><ele>471.247</ele><time>2026-05-28T21:00:03.000Z</time></trkpt>
        <trkpt lat="28.720332" lon="104.735846"><ele>470.46884</ele><time>2026-05-28T21:00:08.000Z</time></trkpt>
        <trkpt lat="28.720291" lon="104.735877"><ele>470.19122</ele><time>2026-05-28T21:00:13.000Z</time></trkpt>
        <trkpt lat="28.720246" lon="104.735906"><ele>469.3617</ele><time>2026-05-28T21:00:17.000Z</time></trkpt>
        <trkpt lat="28.720205" lon="104.735929"><ele>469.7233</ele><time>2026-05-28T21:00:21.000Z</time></trkpt>
        <trkpt lat="28.720156" lon="104.735957"><ele>469.50824</ele><time>2026-05-28T21:00:26.000Z</time></trkpt>
        <trkpt lat="28.720112" lon="104.735984"><ele>468.97122</ele><time>2026-05-28T21:00:30.000Z</time></trkpt>
        <trkpt lat="28.720075" lon="104.736017"><ele>467.77826</ele><time>2026-05-28T21:00:34.000Z</time></trkpt>
        <trkpt lat="28.720044" lon="104.73607"><ele>467.38443</ele><time>2026-05-28T21:00:40.000Z</time></trkpt>
        <trkpt lat="28.72002" lon="104.736124"><ele>467.71848</ele><time>2026-05-28T21:00:45.000Z</time></trkpt>
        <trkpt lat="28.719995" lon="104.73618"><ele>466.93698</ele><time>2026-05-28T21:00:50.000Z</time></trkpt>
        <trkpt lat="28.719974" lon="104.736229"><ele>465.7457</ele><time>2026-05-28T21:00:54.000Z</time></trkpt>
        <trkpt lat="28.71995" lon="104.736277"><ele>465.3704</ele><time>2026-05-28T21:00:58.000Z</time></trkpt>
        <trkpt lat="28.719931" lon="104.736335"><ele>464.9173</ele><time>2026-05-28T21:01:02.000Z</time></trkpt>
        <trkpt lat="28.719934" lon="104.736403"><ele>464.1357</ele><time>2026-05-28T21:01:06.000Z</time></trkpt>
        <trkpt lat="28.71993" lon="104.736461"><ele>464.63953</ele><time>2026-05-28T21:01:10.000Z</time></trkpt>
        <trkpt lat="28.71993" lon="104.736513"><ele>464.74942</ele><time>2026-05-28T21:01:14.000Z</time></trkpt>
        <trkpt lat="28.719925" lon="104.736564"><ele>465.18567</ele><time>2026-05-28T21:01:17.000Z</time></trkpt>
        <trkpt lat="28.719929" lon="104.736624"><ele>465.81476</ele><time>2026-05-28T21:01:21.000Z</time></trkpt>
        <trkpt lat="28.719934" lon="104.73668"><ele>465.34277</ele><time>2026-05-28T21:01:25.000Z</time></trkpt>
        <trkpt lat="28.71993" lon="104.736737"><ele>465.0245</ele><time>2026-05-28T21:01:29.000Z</time></trkpt>
        <trkpt lat="28.719911" lon="104.736783"><ele>465.28998</ele><time>2026-05-28T21:01:33.000Z</time></trkpt>
        <trkpt lat="28.719909" lon="104.736844"><ele>465.43546</ele><time>2026-05-28T21:01:39.000Z</time></trkpt>
        <trkpt lat="28.719908" lon="104.736903"><ele>465.50876</ele><time>2026-05-28T21:01:44.000Z</time></trkpt>
        <trkpt lat="28.719919" lon="104.736956"><ele>466.01328</ele><time>2026-05-28T21:01:50.000Z</time></trkpt>
        <trkpt lat="28.719924" lon="104.737009"><ele>465.53244</ele><time>2026-05-28T21:01:58.000Z</time></trkpt>
        <trkpt lat="28.719923" lon="104.737061"><ele>465.18747</ele><time>2026-05-28T21:02:03.000Z</time></trkpt>
        <trkpt lat="28.719912" lon="104.737112"><ele>465.8809</ele><time>2026-05-28T21:02:07.000Z</time></trkpt>
        <trkpt lat="28.719908" lon="104.737168"><ele>465.9097</ele><time>2026-05-28T21:02:11.000Z</time></trkpt>
        <trkpt lat="28.71989" lon="104.737215"><ele>466.69156</ele><time>2026-05-28T21:02:16.000Z</time></trkpt>
        <trkpt lat="28.719867" lon="104.737271"><ele>466.8174</ele><time>2026-05-28T21:02:21.000Z</time></trkpt>
        <trkpt lat="28.719854" lon="104.737325"><ele>465.8435</ele><time>2026-05-28T21:02:26.000Z</time></trkpt>
        <trkpt lat="28.719853" lon="104.737378"><ele>466.74002</ele><time>2026-05-28T21:02:32.000Z</time></trkpt>
        <trkpt lat="28.719848" lon="104.737436"><ele>466.44562</ele><time>2026-05-28T21:02:38.000Z</time></trkpt>
        <trkpt lat="28.719831" lon="104.737485"><ele>466.7241</ele><time>2026-05-28T21:02:42.000Z</time></trkpt>
        <trkpt lat="28.719812" lon="104.737541"><ele>466.9619</ele><time>2026-05-28T21:02:47.000Z</time></trkpt>
        <trkpt lat="28.71978" lon="104.737582"><ele>466.2479</ele><time>2026-05-28T21:02:51.000Z</time></trkpt>
        <trkpt lat="28.719753" lon="104.737636"><ele>466.00906</ele><time>2026-05-28T21:02:55.000Z</time></trkpt>
        <trkpt lat="28.719726" lon="104.73768"><ele>465.05997</ele><time>2026-05-28T21:02:59.000Z</time></trkpt>
        <trkpt lat="28.719708" lon="104.737736"><ele>464.50412</ele><time>2026-05-28T21:03:03.000Z</time></trkpt>
        <trkpt lat="28.719675" lon="104.737784"><ele>463.3465</ele><time>2026-05-28T21:03:08.000Z</time></trkpt>
        <trkpt lat="28.719672" lon="104.737847"><ele>462.5081</ele><time>2026-05-28T21:03:12.000Z</time></trkpt>
        <trkpt lat="28.719683" lon="104.737902"><ele>461.36023</ele><time>2026-05-28T21:03:16.000Z</time></trkpt>
        <trkpt lat="28.719701" lon="104.737957"><ele>461.43402</ele><time>2026-05-28T21:03:19.000Z</time></trkpt>
        <trkpt lat="28.719732" lon="104.738015"><ele>461.78546</ele><time>2026-05-28T21:03:23.000Z</time></trkpt>
        <trkpt lat="28.719766" lon="104.738058"><ele>461.609</ele><time>2026-05-28T21:03:27.000Z</time></trkpt>
        <trkpt lat="28.719789" lon="104.738119"><ele>461.49463</ele><time>2026-05-28T21:03:31.000Z</time></trkpt>
        <trkpt lat="28.719809" lon="104.73818"><ele>462.5328</ele><time>2026-05-28T21:03:35.000Z</time></trkpt>
        <trkpt lat="28.719824" lon="104.738236"><ele>462.75003</ele><time>2026-05-28T21:03:39.000Z</time></trkpt>
        <trkpt lat="28.719818" lon="104.738292"><ele>463.14813</ele><time>2026-05-28T21:03:43.000Z</time></trkpt>
        <trkpt lat="28.719779" lon="104.738333"><ele>463.1295</ele><time>2026-05-28T21:03:48.000Z</time></trkpt>
        <trkpt lat="28.719748" lon="104.738374"><ele>463.68756</ele><time>2026-05-28T21:03:53.000Z</time></trkpt>
        <trkpt lat="28.71972" lon="104.738424"><ele>463.50314</ele><time>2026-05-28T21:03:58.000Z</time></trkpt>
        <trkpt lat="28.7197" lon="104.738472"><ele>463.96664</ele><time>2026-05-28T21:04:03.000Z</time></trkpt>
        <trkpt lat="28.719685" lon="104.738532"><ele>463.45715</ele><time>2026-05-28T21:04:08.000Z</time></trkpt>
        <trkpt lat="28.71966" lon="104.738584"><ele>463.88242</ele><time>2026-05-28T21:04:13.000Z</time></trkpt>
        <trkpt lat="28.719631" lon="104.738634"><ele>464.1378</ele><time>2026-05-28T21:04:18.000Z</time></trkpt>
        <trkpt lat="28.719588" lon="104.738671"><ele>465.41995</ele><time>2026-05-28T21:04:22.000Z</time></trkpt>
        <trkpt lat="28.719549" lon="104.738697"><ele>466.07965</ele><time>2026-05-28T21:04:26.000Z</time></trkpt>
        <trkpt lat="28.719501" lon="104.738717"><ele>465.97784</ele><time>2026-05-28T21:04:30.000Z</time></trkpt>
        <trkpt lat="28.71945" lon="104.738742"><ele>465.5072</ele><time>2026-05-28T21:04:34.000Z</time></trkpt>
        <trkpt lat="28.71941" lon="104.738784"><ele>464.52475</ele><time>2026-05-28T21:04:39.000Z</time></trkpt>
        <trkpt lat="28.719373" lon="104.738816"><ele>463.22485</ele><time>2026-05-28T21:04:43.000Z</time></trkpt>
        <trkpt lat="28.719337" lon="104.738848"><ele>462.2408</ele><time>2026-05-28T21:04:47.000Z</time></trkpt>
        <trkpt lat="28.719292" lon="104.738873"><ele>460.38513</ele><time>2026-05-28T21:04:51.000Z</time></trkpt>
        <trkpt lat="28.719231" lon="104.738895"><ele>460.44885</ele><time>2026-05-28T21:04:55.000Z</time></trkpt>
        <trkpt lat="28.719204" lon="104.738949"><ele>459.5301</ele><time>2026-05-28T21:05:00.000Z</time></trkpt>
        <trkpt lat="28.719191" lon="104.739008"><ele>459.6863</ele><time>2026-05-28T21:05:04.000Z</time></trkpt>
        <trkpt lat="28.719197" lon="104.739066"><ele>459.09906</ele><time>2026-05-28T21:05:08.000Z</time></trkpt>
        <trkpt lat="28.719193" lon="104.739124"><ele>460.03036</ele><time>2026-05-28T21:05:12.000Z</time></trkpt>
        <trkpt lat="28.719185" lon="104.739181"><ele>461.14365</ele><time>2026-05-28T21:05:16.000Z</time></trkpt>
        <trkpt lat="28.71917" lon="104.739243"><ele>460.26303</ele><time>2026-05-28T21:05:20.000Z</time></trkpt>
        <trkpt lat="28.719148" lon="104.7393"><ele>460.64166</ele><time>2026-05-28T21:05:25.000Z</time></trkpt>
        <trkpt lat="28.719123" lon="104.739347"><ele>460.80753</ele><time>2026-05-28T21:05:29.000Z</time></trkpt>
        <trkpt lat="28.71907" lon="104.739367"><ele>460.4612</ele><time>2026-05-28T21:05:33.000Z</time></trkpt>
        <trkpt lat="28.719014" lon="104.739372"><ele>460.8289</ele><time>2026-05-28T21:05:37.000Z</time></trkpt>
        <trkpt lat="28.718971" lon="104.739355"><ele>460.84714</ele><time>2026-05-28T21:05:40.000Z</time></trkpt>
        <trkpt lat="28.718914" lon="104.739359"><ele>460.04373</ele><time>2026-05-28T21:05:44.000Z</time></trkpt>
        <trkpt lat="28.718863" lon="104.739369"><ele>460.5043</ele><time>2026-05-28T21:05:48.000Z</time></trkpt>
        <trkpt lat="28.718816" lon="104.739408"><ele>460.15747</ele><time>2026-05-28T21:05:52.000Z</time></trkpt>
        <trkpt lat="28.7188" lon="104.739469"><ele>459.52002</ele><time>2026-05-28T21:05:56.000Z</time></trkpt>
        <trkpt lat="28.718789" lon="104.739526"><ele>459.34854</ele><time>2026-05-28T21:06:00.000Z</time></trkpt>
        <trkpt lat="28.7188" lon="104.739583"><ele>459.65198</ele><time>2026-05-28T21:06:04.000Z</time></trkpt>
        <trkpt lat="28.718784" lon="104.739638"><ele>459.1326</ele><time>2026-05-28T21:06:11.000Z</time></trkpt>
        <trkpt lat="28.718764" lon="104.739694"><ele>459.87195</ele><time>2026-05-28T21:06:15.000Z</time></trkpt>
        <trkpt lat="28.718717" lon="104.739719"><ele>460.37003</ele><time>2026-05-28T21:06:19.000Z</time></trkpt>
        <trkpt lat="28.718667" lon="104.739734"><ele>460.75522</ele><time>2026-05-28T21:06:24.000Z</time></trkpt>
        <trkpt lat="28.718615" lon="104.739738"><ele>460.7887</ele><time>2026-05-28T21:06:28.000Z</time></trkpt>
        <trkpt lat="28.718566" lon="104.739768"><ele>461.27567</ele><time>2026-05-28T21:06:32.000Z</time></trkpt>
        <trkpt lat="28.718524" lon="104.739787"><ele>461.6368</ele><time>2026-05-28T21:06:36.000Z</time></trkpt>
        <trkpt lat="28.718485" lon="104.739835"><ele>461.76468</ele><time>2026-05-28T21:06:41.000Z</time></trkpt>
        <trkpt lat="28.718477" lon="104.739899"><ele>460.82013</ele><time>2026-05-28T21:06:46.000Z</time></trkpt>
        <trkpt lat="28.718469" lon="104.739951"><ele>461.27835</ele><time>2026-05-28T21:06:50.000Z</time></trkpt>
        <trkpt lat="28.718467" lon="104.740004"><ele>460.76202</ele><time>2026-05-28T21:06:54.000Z</time></trkpt>
        <trkpt lat="28.718456" lon="104.740062"><ele>459.89847</ele><time>2026-05-28T21:06:58.000Z</time></trkpt>
        <trkpt lat="28.718429" lon="104.740107"><ele>461.11356</ele><time>2026-05-28T21:07:02.000Z</time></trkpt>
        <trkpt lat="28.718401" lon="104.740153"><ele>460.654</ele><time>2026-05-28T21:07:06.000Z</time></trkpt>
        <trkpt lat="28.718373" lon="104.740202"><ele>460.0747</ele><time>2026-05-28T21:07:10.000Z</time></trkpt>
        <trkpt lat="28.718351" lon="104.740253"><ele>459.78564</ele><time>2026-05-28T21:07:14.000Z</time></trkpt>
        <trkpt lat="28.718331" lon="104.740309"><ele>459.55048</ele><time>2026-05-28T21:07:18.000Z</time></trkpt>
        <trkpt lat="28.718298" lon="104.740348"><ele>459.8571</ele><time>2026-05-28T21:07:22.000Z</time></trkpt>
        <trkpt lat="28.71826" lon="104.740389"><ele>460.0756</ele><time>2026-05-28T21:07:26.000Z</time></trkpt>
        <trkpt lat="28.71821" lon="104.740419"><ele>460.29065</ele><time>2026-05-28T21:07:31.000Z</time></trkpt>
        <trkpt lat="28.718202" lon="104.740475"><ele>459.5318</ele><time>2026-05-28T21:07:35.000Z</time></trkpt>
        <trkpt lat="28.718166" lon="104.740518"><ele>459.65665</ele><time>2026-05-28T21:07:39.000Z</time></trkpt>
        <trkpt lat="28.718129" lon="104.740561"><ele>459.46298</ele><time>2026-05-28T21:07:43.000Z</time></trkpt>
        <trkpt lat="28.718091" lon="104.740603"><ele>459.1822</ele><time>2026-05-28T21:07:47.000Z</time></trkpt>
        <trkpt lat="28.718051" lon="104.740649"><ele>459.98782</ele><time>2026-05-28T21:07:50.000Z</time></trkpt>
        <trkpt lat="28.718031" lon="104.740708"><ele>459.88596</ele><time>2026-05-28T21:07:55.000Z</time></trkpt>
        <trkpt lat="28.718019" lon="104.740761"><ele>459.82098</ele><time>2026-05-28T21:07:59.000Z</time></trkpt>
        <trkpt lat="28.718012" lon="104.740816"><ele>459.4076</ele><time>2026-05-28T21:08:02.000Z</time></trkpt>
        <trkpt lat="28.717997" lon="104.740882"><ele>459.8428</ele><time>2026-05-28T21:08:06.000Z</time></trkpt>
        <trkpt lat="28.717982" lon="104.74094"><ele>461.66284</ele><time>2026-05-28T21:08:10.000Z</time></trkpt>
        <trkpt lat="28.717961" lon="104.740992"><ele>461.74722</ele><time>2026-05-28T21:08:14.000Z</time></trkpt>
        <trkpt lat="28.717927" lon="104.74103"><ele>460.58102</ele><time>2026-05-28T21:08:18.000Z</time></trkpt>
        <trkpt lat="28.717899" lon="104.74107"><ele>459.69348</ele><time>2026-05-28T21:08:21.000Z</time></trkpt>
        <trkpt lat="28.717878" lon="104.741134"><ele>460.54422</ele><time>2026-05-28T21:08:24.000Z</time></trkpt>
        <trkpt lat="28.717862" lon="104.741192"><ele>460.03024</ele><time>2026-05-28T21:08:28.000Z</time></trkpt>
        <trkpt lat="28.717834" lon="104.741236"><ele>460.1625</ele><time>2026-05-28T21:08:33.000Z</time></trkpt>
        <trkpt lat="28.717802" lon="104.74128"><ele>458.8871</ele><time>2026-05-28T21:08:37.000Z</time></trkpt>
        <trkpt lat="28.71778" lon="104.741325"><ele>458.64496</ele><time>2026-05-28T21:08:42.000Z</time></trkpt>
        <trkpt lat="28.717759" lon="104.741372"><ele>458.9969</ele><time>2026-05-28T21:08:46.000Z</time></trkpt>
        <trkpt lat="28.717751" lon="104.741435"><ele>458.0445</ele><time>2026-05-28T21:08:51.000Z</time></trkpt>
        <trkpt lat="28.717727" lon="104.741496"><ele>458.68738</ele><time>2026-05-28T21:08:55.000Z</time></trkpt>
        <trkpt lat="28.717749" lon="104.741549"><ele>458.67297</ele><time>2026-05-28T21:08:58.000Z</time></trkpt>
        <trkpt lat="28.717762" lon="104.741603"><ele>457.80292</ele><time>2026-05-28T21:09:02.000Z</time></trkpt>
        <trkpt lat="28.717788" lon="104.741661"><ele>458.33755</ele><time>2026-05-28T21:09:06.000Z</time></trkpt>
        <trkpt lat="28.717801" lon="104.741712"><ele>459.02832</ele><time>2026-05-28T21:09:10.000Z</time></trkpt>
        <trkpt lat="28.71783" lon="104.741756"><ele>458.06104</ele><time>2026-05-28T21:09:14.000Z</time></trkpt>
        <trkpt lat="28.717867" lon="104.741803"><ele>458.26385</ele><time>2026-05-28T21:09:18.000Z</time></trkpt>
        <trkpt lat="28.717866" lon="104.741862"><ele>458.10855</ele><time>2026-05-28T21:09:22.000Z</time></trkpt>
        <trkpt lat="28.717855" lon="104.74192"><ele>457.68137</ele><time>2026-05-28T21:09:27.000Z</time></trkpt>
        <trkpt lat="28.717829" lon="104.741963"><ele>457.30768</ele><time>2026-05-28T21:09:31.000Z</time></trkpt>
        <trkpt lat="28.717788" lon="104.741995"><ele>457.49338</ele><time>2026-05-28T21:09:37.000Z</time></trkpt>
        <trkpt lat="28.717746" lon="104.742013"><ele>457.6158</ele><time>2026-05-28T21:09:45.000Z</time></trkpt>
        <trkpt lat="28.717696" lon="104.742043"><ele>457.95917</ele><time>2026-05-28T21:09:50.000Z</time></trkpt>
        <trkpt lat="28.717653" lon="104.742059"><ele>457.2624</ele><time>2026-05-28T21:09:54.000Z</time></trkpt>
        <trkpt lat="28.7176" lon="104.742081"><ele>456.9469</ele><time>2026-05-28T21:09:58.000Z</time></trkpt>
        <trkpt lat="28.717546" lon="104.742092"><ele>457.59015</ele><time>2026-05-28T21:10:02.000Z</time></trkpt>
        <trkpt lat="28.7175" lon="104.742117"><ele>458.45663</ele><time>2026-05-28T21:10:06.000Z</time></trkpt>
        <trkpt lat="28.717451" lon="104.742143"><ele>458.12372</ele><time>2026-05-28T21:10:11.000Z</time></trkpt>
        <trkpt lat="28.717414" lon="104.742175"><ele>457.59</ele><time>2026-05-28T21:10:15.000Z</time></trkpt>
        <trkpt lat="28.717387" lon="104.74223"><ele>456.93192</ele><time>2026-05-28T21:10:20.000Z</time></trkpt>
        <trkpt lat="28.717351" lon="104.74227"><ele>457.33188</ele><time>2026-05-28T21:10:23.000Z</time></trkpt>
        <trkpt lat="28.71732" lon="104.742312"><ele>457.43576</ele><time>2026-05-28T21:10:26.000Z</time></trkpt>
        <trkpt lat="28.717295" lon="104.742362"><ele>456.58136</ele><time>2026-05-28T21:10:30.000Z</time></trkpt>
        <trkpt lat="28.71728" lon="104.742419"><ele>457.1925</ele><time>2026-05-28T21:10:33.000Z</time></trkpt>
        <trkpt lat="28.717264" lon="104.742476"><ele>457.8901</ele><time>2026-05-28T21:10:38.000Z</time></trkpt>
        <trkpt lat="28.717258" lon="104.742545"><ele>457.93588</ele><time>2026-05-28T21:10:43.000Z</time></trkpt>
        <trkpt lat="28.71724" lon="104.742594"><ele>456.97522</ele><time>2026-05-28T21:10:47.000Z</time></trkpt>
        <trkpt lat="28.71723" lon="104.742651"><ele>457.57</ele><time>2026-05-28T21:10:51.000Z</time></trkpt>
        <trkpt lat="28.717226" lon="104.742704"><ele>457.06802</ele><time>2026-05-28T21:10:56.000Z</time></trkpt>
        <trkpt lat="28.717228" lon="104.742757"><ele>457.01712</ele><time>2026-05-28T21:11:00.000Z</time></trkpt>
        <trkpt lat="28.717235" lon="104.742818"><ele>456.8469</ele><time>2026-05-28T21:11:04.000Z</time></trkpt>
        <trkpt lat="28.717238" lon="104.742877"><ele>456.4361</ele><time>2026-05-28T21:11:08.000Z</time></trkpt>
        <trkpt lat="28.717234" lon="104.74294"><ele>456.80643</ele><time>2026-05-28T21:11:14.000Z</time></trkpt>
        <trkpt lat="28.717204" lon="104.742991"><ele>455.81055</ele><time>2026-05-28T21:11:19.000Z</time></trkpt>
        <trkpt lat="28.717162" lon="104.743024"><ele>456.068</ele><time>2026-05-28T21:11:23.000Z</time></trkpt>
        <trkpt lat="28.717122" lon="104.743055"><ele>456.40717</ele><time>2026-05-28T21:11:27.000Z</time></trkpt>
        <trkpt lat="28.717081" lon="104.743091"><ele>456.1778</ele><time>2026-05-28T21:11:32.000Z</time></trkpt>
        <trkpt lat="28.717034" lon="104.743125"><ele>457.32257</ele><time>2026-05-28T21:11:37.000Z</time></trkpt>
        <trkpt lat="28.717" lon="104.74316"><ele>458.1542</ele><time>2026-05-28T21:11:40.000Z</time></trkpt>
        <trkpt lat="28.71695" lon="104.743175"><ele>458.94904</ele><time>2026-05-28T21:11:45.000Z</time></trkpt>
        <trkpt lat="28.716898" lon="104.743195"><ele>458.5362</ele><time>2026-05-28T21:11:49.000Z</time></trkpt>
        <trkpt lat="28.71685" lon="104.743188"><ele>458.38525</ele><time>2026-05-28T21:11:54.000Z</time></trkpt>
        <trkpt lat="28.716801" lon="104.743201"><ele>457.37634</ele><time>2026-05-28T21:11:59.000Z</time></trkpt>
        <trkpt lat="28.716759" lon="104.743222"><ele>457.3633</ele><time>2026-05-28T21:12:03.000Z</time></trkpt>
        <trkpt lat="28.716713" lon="104.743217"><ele>456.8088</ele><time>2026-05-28T21:12:07.000Z</time></trkpt>
        <trkpt lat="28.716667" lon="104.743183"><ele>456.78775</ele><time>2026-05-28T21:12:11.000Z</time></trkpt>
        <trkpt lat="28.716661" lon="104.743127"><ele>457.39203</ele><time>2026-05-28T21:12:16.000Z</time></trkpt>
        <trkpt lat="28.716663" lon="104.743073"><ele>458.32693</ele><time>2026-05-28T21:12:20.000Z</time></trkpt>
        <trkpt lat="28.716667" lon="104.743022"><ele>459.23608</ele><time>2026-05-28T21:12:24.000Z</time></trkpt>
        <trkpt lat="28.716684" lon="104.74296"><ele>458.89853</ele><time>2026-05-28T21:12:29.000Z</time></trkpt>
        <trkpt lat="28.716698" lon="104.742908"><ele>460.4835</ele><time>2026-05-28T21:12:33.000Z</time></trkpt>
        <trkpt lat="28.716705" lon="104.742856"><ele>461.42972</ele><time>2026-05-28T21:12:36.000Z</time></trkpt>
        <trkpt lat="28.716698" lon="104.742792"><ele>461.86212</ele><time>2026-05-28T21:12:40.000Z</time></trkpt>
        <trkpt lat="28.716683" lon="104.742731"><ele>461.96664</ele><time>2026-05-28T21:12:45.000Z</time></trkpt>
        <trkpt lat="28.716665" lon="104.742681"><ele>462.89224</ele><time>2026-05-28T21:12:49.000Z</time></trkpt>
        <trkpt lat="28.716637" lon="104.742638"><ele>463.4939</ele><time>2026-05-28T21:12:53.000Z</time></trkpt>
        <trkpt lat="28.716607" lon="104.7426"><ele>463.5786</ele><time>2026-05-28T21:12:57.000Z</time></trkpt>
        <trkpt lat="28.716578" lon="104.74254"><ele>462.91583</ele><time>2026-05-28T21:13:02.000Z</time></trkpt>
        <trkpt lat="28.716539" lon="104.74251"><ele>463.6536</ele><time>2026-05-28T21:13:07.000Z</time></trkpt>
        <trkpt lat="28.716498" lon="104.742474"><ele>463.68387</ele><time>2026-05-28T21:13:11.000Z</time></trkpt>
        <trkpt lat="28.716452" lon="104.74243"><ele>463.2997</ele><time>2026-05-28T21:13:16.000Z</time></trkpt>
        <trkpt lat="28.716414" lon="104.742401"><ele>463.04428</ele><time>2026-05-28T21:13:19.000Z</time></trkpt>
        <trkpt lat="28.716387" lon="104.742354"><ele>462.97803</ele><time>2026-05-28T21:13:23.000Z</time></trkpt>
        <trkpt lat="28.716347" lon="104.742322"><ele>463.71835</ele><time>2026-05-28T21:13:28.000Z</time></trkpt>
        <trkpt lat="28.716307" lon="104.742286"><ele>463.1524</ele><time>2026-05-28T21:13:32.000Z</time></trkpt>
        <trkpt lat="28.716264" lon="104.742266"><ele>463.8367</ele><time>2026-05-28T21:13:36.000Z</time></trkpt>
        <trkpt lat="28.716217" lon="104.742263"><ele>464.50552</ele><time>2026-05-28T21:13:39.000Z</time></trkpt>
        <trkpt lat="28.716172" lon="104.74222"><ele>464.63135</ele><time>2026-05-28T21:13:44.000Z</time></trkpt>
        <trkpt lat="28.716146" lon="104.742162"><ele>463.58447</ele><time>2026-05-28T21:13:49.000Z</time></trkpt>
        <trkpt lat="28.716131" lon="104.742109"><ele>463.69543</ele><time>2026-05-28T21:13:54.000Z</time></trkpt>
        <trkpt lat="28.716122" lon="104.742055"><ele>463.90582</ele><time>2026-05-28T21:13:59.000Z</time></trkpt>
        <trkpt lat="28.716128" lon="104.742002"><ele>463.89267</ele><time>2026-05-28T21:14:04.000Z</time></trkpt>
        <trkpt lat="28.716118" lon="104.741943"><ele>464.2792</ele><time>2026-05-28T21:14:10.000Z</time></trkpt>
        <trkpt lat="28.716099" lon="104.741886"><ele>465.3727</ele><time>2026-05-28T21:14:16.000Z</time></trkpt>
        <trkpt lat="28.716064" lon="104.741846"><ele>466.11444</ele><time>2026-05-28T21:14:20.000Z</time></trkpt>
        <trkpt lat="28.71601" lon="104.741836"><ele>466.4504</ele><time>2026-05-28T21:14:25.000Z</time></trkpt>
        <trkpt lat="28.715959" lon="104.741816"><ele>466.3675</ele><time>2026-05-28T21:14:29.000Z</time></trkpt>
        <trkpt lat="28.715906" lon="104.741792"><ele>465.70758</ele><time>2026-05-28T21:14:33.000Z</time></trkpt>
        <trkpt lat="28.715856" lon="104.741767"><ele>465.42065</ele><time>2026-05-28T21:14:37.000Z</time></trkpt>
        <trkpt lat="28.715818" lon="104.741731"><ele>464.72687</ele><time>2026-05-28T21:14:43.000Z</time></trkpt>
        <trkpt lat="28.715801" lon="104.741673"><ele>464.82303</ele><time>2026-05-28T21:14:47.000Z</time></trkpt>
        <trkpt lat="28.7158" lon="104.741607"><ele>465.6635</ele><time>2026-05-28T21:14:51.000Z</time></trkpt>
        <trkpt lat="28.715799" lon="104.741542"><ele>465.82028</ele><time>2026-05-28T21:14:55.000Z</time></trkpt>
        <trkpt lat="28.715795" lon="104.74148"><ele>466.7794</ele><time>2026-05-28T21:14:59.000Z</time></trkpt>
        <trkpt lat="28.715789" lon="104.741423"><ele>466.74023</ele><time>2026-05-28T21:15:03.000Z</time></trkpt>
        <trkpt lat="28.715791" lon="104.74137"><ele>465.80176</ele><time>2026-05-28T21:15:07.000Z</time></trkpt>
        <trkpt lat="28.715795" lon="104.741314"><ele>464.79266</ele><time>2026-05-28T21:15:11.000Z</time></trkpt>
        <trkpt lat="28.715797" lon="104.741259"><ele>465.65646</ele><time>2026-05-28T21:15:15.000Z</time></trkpt>
        <trkpt lat="28.715795" lon="104.741198"><ele>464.97183</ele><time>2026-05-28T21:15:20.000Z</time></trkpt>
        <trkpt lat="28.715781" lon="104.741148"><ele>464.46176</ele><time>2026-05-28T21:15:24.000Z</time></trkpt>
        <trkpt lat="28.715754" lon="104.741099"><ele>464.30228</ele><time>2026-05-28T21:15:29.000Z</time></trkpt>
        <trkpt lat="28.715719" lon="104.741063"><ele>463.23984</ele><time>2026-05-28T21:15:33.000Z</time></trkpt>
        <trkpt lat="28.715674" lon="104.741032"><ele>463.31723</ele><time>2026-05-28T21:15:37.000Z</time></trkpt>
        <trkpt lat="28.71563" lon="104.741016"><ele>463.19394</ele><time>2026-05-28T21:15:41.000Z</time></trkpt>
        <trkpt lat="28.715574" lon="104.74102"><ele>462.89536</ele><time>2026-05-28T21:15:46.000Z</time></trkpt>
        <trkpt lat="28.715525" lon="104.741021"><ele>462.43472</ele><time>2026-05-28T21:15:50.000Z</time></trkpt>
        <trkpt lat="28.715478" lon="104.741026"><ele>461.77286</ele><time>2026-05-28T21:15:54.000Z</time></trkpt>
        <trkpt lat="28.715428" lon="104.740997"><ele>460.84222</ele><time>2026-05-28T21:15:59.000Z</time></trkpt>
        <trkpt lat="28.715403" lon="104.740953"><ele>461.0302</ele><time>2026-05-28T21:16:03.000Z</time></trkpt>
        <trkpt lat="28.71538" lon="104.740906"><ele>461.3021</ele><time>2026-05-28T21:16:07.000Z</time></trkpt>
        <trkpt lat="28.715359" lon="104.740859"><ele>461.2664</ele><time>2026-05-28T21:16:11.000Z</time></trkpt>
        <trkpt lat="28.715341" lon="104.740812"><ele>461.2914</ele><time>2026-05-28T21:16:15.000Z</time></trkpt>
        <trkpt lat="28.715321" lon="104.740761"><ele>461.41522</ele><time>2026-05-28T21:16:19.000Z</time></trkpt>
        <trkpt lat="28.71529" lon="104.740714"><ele>460.96332</ele><time>2026-05-28T21:16:23.000Z</time></trkpt>
        <trkpt lat="28.715258" lon="104.740672"><ele>460.77325</ele><time>2026-05-28T21:16:27.000Z</time></trkpt>
        <trkpt lat="28.715213" lon="104.740638"><ele>460.44882</ele><time>2026-05-28T21:16:32.000Z</time></trkpt>
        <trkpt lat="28.715166" lon="104.740618"><ele>460.49152</ele><time>2026-05-28T21:16:36.000Z</time></trkpt>
        <trkpt lat="28.715111" lon="104.740612"><ele>460.30325</ele><time>2026-05-28T21:16:41.000Z</time></trkpt>
        <trkpt lat="28.715064" lon="104.740604"><ele>460.75687</ele><time>2026-05-28T21:16:45.000Z</time></trkpt>
        <trkpt lat="28.715019" lon="104.740604"><ele>461.0555</ele><time>2026-05-28T21:16:49.000Z</time></trkpt>
        <trkpt lat="28.714964" lon="104.740601"><ele>461.2311</ele><time>2026-05-28T21:16:54.000Z</time></trkpt>
        <trkpt lat="28.714912" lon="104.740585"><ele>461.43094</ele><time>2026-05-28T21:16:59.000Z</time></trkpt>
        <trkpt lat="28.714863" lon="104.740578"><ele>461.45462</ele><time>2026-05-28T21:17:03.000Z</time></trkpt>
        <trkpt lat="28.714816" lon="104.740568"><ele>461.7362</ele><time>2026-05-28T21:17:07.000Z</time></trkpt>
        <trkpt lat="28.71477" lon="104.740555"><ele>461.78784</ele><time>2026-05-28T21:17:11.000Z</time></trkpt>
        <trkpt lat="28.714726" lon="104.74054"><ele>462.1925</ele><time>2026-05-28T21:17:15.000Z</time></trkpt>
        <trkpt lat="28.714679" lon="104.740527"><ele>462.64935</ele><time>2026-05-28T21:17:19.000Z</time></trkpt>
        <trkpt lat="28.714634" lon="104.740512"><ele>462.4745</ele><time>2026-05-28T21:17:23.000Z</time></trkpt>
        <trkpt lat="28.714584" lon="104.740499"><ele>462.1057</ele><time>2026-05-28T21:17:28.000Z</time></trkpt>
        <trkpt lat="28.714537" lon="104.740494"><ele>461.5248</ele><time>2026-05-28T21:17:32.000Z</time></trkpt>
        <trkpt lat="28.714484" lon="104.740481"><ele>461.45578</ele><time>2026-05-28T21:17:37.000Z</time></trkpt>
        <trkpt lat="28.714437" lon="104.740468"><ele>461.07248</ele><time>2026-05-28T21:17:41.000Z</time></trkpt>
        <trkpt lat="28.714394" lon="104.740452"><ele>461.0968</ele><time>2026-05-28T21:17:45.000Z</time></trkpt>
        <trkpt lat="28.714348" lon="104.740426"><ele>460.61786</ele><time>2026-05-28T21:17:49.000Z</time></trkpt>
        <trkpt lat="28.714303" lon="104.740385"><ele>460.15308</ele><time>2026-05-28T21:17:54.000Z</time></trkpt>
        <trkpt lat="28.714248" lon="104.740397"><ele>458.99045</ele><time>2026-05-28T21:17:59.000Z</time></trkpt>
        <trkpt lat="28.714206" lon="104.74042"><ele>458.4688</ele><time>2026-05-28T21:18:04.000Z</time></trkpt>
        <trkpt lat="28.714172" lon="104.740464"><ele>458.24707</ele><time>2026-05-28T21:18:08.000Z</time></trkpt>
        <trkpt lat="28.714141" lon="104.740511"><ele>458.2339</ele><time>2026-05-28T21:18:12.000Z</time></trkpt>
        <trkpt lat="28.714115" lon="104.740564"><ele>457.77444</ele><time>2026-05-28T21:18:16.000Z</time></trkpt>
        <trkpt lat="28.71409" lon="104.740617"><ele>457.49585</ele><time>2026-05-28T21:18:20.000Z</time></trkpt>
        <trkpt lat="28.714043" lon="104.740629"><ele>457.84048</ele><time>2026-05-28T21:18:24.000Z</time></trkpt>
        <trkpt lat="28.713988" lon="104.740627"><ele>457.96445</ele><time>2026-05-28T21:18:31.000Z</time></trkpt>
        <trkpt lat="28.713946" lon="104.740604"><ele>458.27704</ele><time>2026-05-28T21:18:35.000Z</time></trkpt>
        <trkpt lat="28.71391" lon="104.740572"><ele>458.28375</ele><time>2026-05-28T21:18:40.000Z</time></trkpt>
        <trkpt lat="28.713863" lon="104.740551"><ele>457.8642</ele><time>2026-05-28T21:18:44.000Z</time></trkpt>
        <trkpt lat="28.713811" lon="104.740543"><ele>457.73718</ele><time>2026-05-28T21:18:49.000Z</time></trkpt>
        <trkpt lat="28.713761" lon="104.740528"><ele>457.86252</ele><time>2026-05-28T21:18:54.000Z</time></trkpt>
        <trkpt lat="28.713714" lon="104.740514"><ele>458.8141</ele><time>2026-05-28T21:18:59.000Z</time></trkpt>
        <trkpt lat="28.713668" lon="104.74051"><ele>459.1147</ele><time>2026-05-28T21:19:04.000Z</time></trkpt>
        <trkpt lat="28.713625" lon="104.74053"><ele>459.3202</ele><time>2026-05-28T21:19:08.000Z</time></trkpt>
        <trkpt lat="28.713572" lon="104.740531"><ele>459.0927</ele><time>2026-05-28T21:19:13.000Z</time></trkpt>
        <trkpt lat="28.713519" lon="104.740528"><ele>459.10672</ele><time>2026-05-28T21:19:18.000Z</time></trkpt>
        <trkpt lat="28.713466" lon="104.740534"><ele>459.19116</ele><time>2026-05-28T21:19:23.000Z</time></trkpt>
        <trkpt lat="28.71342" lon="104.740549"><ele>459.15784</ele><time>2026-05-28T21:19:27.000Z</time></trkpt>
        <trkpt lat="28.713374" lon="104.740565"><ele>458.73975</ele><time>2026-05-28T21:19:31.000Z</time></trkpt>
        <trkpt lat="28.713323" lon="104.740559"><ele>458.63406</ele><time>2026-05-28T21:19:35.000Z</time></trkpt>
        <trkpt lat="28.713276" lon="104.740553"><ele>458.7438</ele><time>2026-05-28T21:19:39.000Z</time></trkpt>
        <trkpt lat="28.713229" lon="104.740548"><ele>459.0292</ele><time>2026-05-28T21:19:43.000Z</time></trkpt>
        <trkpt lat="28.713176" lon="104.740545"><ele>459.72662</ele><time>2026-05-28T21:19:48.000Z</time></trkpt>
        <trkpt lat="28.713121" lon="104.740552"><ele>460.0681</ele><time>2026-05-28T21:19:53.000Z</time></trkpt>
        <trkpt lat="28.713076" lon="104.740577"><ele>462.6097</ele><time>2026-05-28T21:20:08.000Z</time></trkpt>
        <trkpt lat="28.713056" lon="104.740624"><ele>462.98074</ele><time>2026-05-28T21:20:19.000Z</time></trkpt>
        <trkpt lat="28.713032" lon="104.740677"><ele>462.76483</ele><time>2026-05-28T21:20:23.000Z</time></trkpt>
        <trkpt lat="28.713012" lon="104.740724"><ele>462.70032</ele><time>2026-05-28T21:20:27.000Z</time></trkpt>
        <trkpt lat="28.71296" lon="104.740713"><ele>463.6467</ele><time>2026-05-28T21:20:34.000Z</time></trkpt>
        <trkpt lat="28.71291" lon="104.740714"><ele>464.85422</ele><time>2026-05-28T21:20:40.000Z</time></trkpt>
        <trkpt lat="28.712882" lon="104.740756"><ele>465.39322</ele><time>2026-05-28T21:20:45.000Z</time></trkpt>
        <trkpt lat="28.712868" lon="104.740808"><ele>465.00726</ele><time>2026-05-28T21:20:55.000Z</time></trkpt>
        <trkpt lat="28.712821" lon="104.74083"><ele>466.3755</ele><time>2026-05-28T21:21:43.000Z</time></trkpt>
        <trkpt lat="28.712801" lon="104.740877"><ele>466.58728</ele><time>2026-05-28T21:21:50.000Z</time></trkpt>
        <trkpt lat="28.712818" lon="104.740928"><ele>467.6524</ele><time>2026-05-28T21:21:57.000Z</time></trkpt>
        <trkpt lat="28.712845" lon="104.74097"><ele>469.4302</ele><time>2026-05-28T21:22:10.000Z</time></trkpt>
        <trkpt lat="28.712844" lon="104.741024"><ele>466.8639</ele><time>2026-05-28T21:22:52.000Z</time></trkpt>
        <trkpt lat="28.712875" lon="104.741069"><ele>469.171</ele><time>2026-05-28T21:23:02.000Z</time></trkpt>
        <trkpt lat="28.712804" lon="104.741136"><ele>474.6509</ele><time>2026-05-28T21:23:40.000Z</time></trkpt>
        <trkpt lat="28.712762" lon="104.741111"><ele>472.43228</ele><time>2026-05-28T21:24:27.000Z</time></trkpt>
        <trkpt lat="28.71278" lon="104.741062"><ele>469.1221</ele><time>2026-05-28T21:25:39.000Z</time></trkpt>
        <trkpt lat="28.712781" lon="104.741064"><ele>471.48267</ele><time>2026-05-28T21:26:08.000Z</time></trkpt>
        <trkpt lat="28.712739" lon="104.741031"><ele>471.13028</ele><time>2026-05-28T21:27:35.000Z</time></trkpt>
        <trkpt lat="28.712705" lon="104.741067"><ele>470.65295</ele><time>2026-05-28T21:27:43.000Z</time></trkpt>
        <trkpt lat="28.712658" lon="104.741069"><ele>467.67157</ele><time>2026-05-28T21:27:54.000Z</time></trkpt>
        <trkpt lat="28.712617" lon="104.741027"><ele>472.3523</ele><time>2026-05-28T21:28:01.000Z</time></trkpt>
        <trkpt lat="28.712574" lon="104.741043"><ele>482.1273</ele><time>2026-05-28T21:28:36.000Z</time></trkpt>
        <trkpt lat="28.71253" lon="104.741027"><ele>481.75305</ele><time>2026-05-28T21:28:44.000Z</time></trkpt>
        <trkpt lat="28.712486" lon="104.74104"><ele>482.4985</ele><time>2026-05-28T21:28:51.000Z</time></trkpt>
        <trkpt lat="28.712441" lon="104.741042"><ele>482.60385</ele><time>2026-05-28T21:28:58.000Z</time></trkpt>
        <trkpt lat="28.712453" lon="104.741095"><ele>485.60892</ele><time>2026-05-28T21:29:07.000Z</time></trkpt>
        <trkpt lat="28.71246" lon="104.741152"><ele>488.54648</ele><time>2026-05-28T21:29:14.000Z</time></trkpt>
        <trkpt lat="28.712473" lon="104.741203"><ele>487.2266</ele><time>2026-05-28T21:29:29.000Z</time></trkpt>
        <trkpt lat="28.712417" lon="104.741182"><ele>489.28217</ele><time>2026-05-28T21:29:36.000Z</time></trkpt>
        <trkpt lat="28.712371" lon="104.741168"><ele>492.2571</ele><time>2026-05-28T21:29:45.000Z</time></trkpt>
        <trkpt lat="28.712324" lon="104.74117"><ele>495.3265</ele><time>2026-05-28T21:29:54.000Z</time></trkpt>
        <trkpt lat="28.712292" lon="104.74121"><ele>494.90082</ele><time>2026-05-28T21:30:03.000Z</time></trkpt>
        <trkpt lat="28.712249" lon="104.741234"><ele>493.42746</ele><time>2026-05-28T21:30:14.000Z</time></trkpt>
        <trkpt lat="28.712204" lon="104.741235"><ele>498.7209</ele><time>2026-05-28T21:30:26.000Z</time></trkpt>
        <trkpt lat="28.712234" lon="104.741277"><ele>495.40088</ele><time>2026-05-28T21:30:38.000Z</time></trkpt>
        <trkpt lat="28.712253" lon="104.741331"><ele>501.0698</ele><time>2026-05-28T21:30:52.000Z</time></trkpt>
        <trkpt lat="28.712223" lon="104.741376"><ele>501.04633</ele><time>2026-05-28T21:31:02.000Z</time></trkpt>
        <trkpt lat="28.712198" lon="104.741419"><ele>498.63272</ele><time>2026-05-28T21:31:10.000Z</time></trkpt>
        <trkpt lat="28.712158" lon="104.741381"><ele>502.0242</ele><time>2026-05-28T21:31:25.000Z</time></trkpt>
        <trkpt lat="28.712122" lon="104.741416"><ele>509.3431</ele><time>2026-05-28T21:31:38.000Z</time></trkpt>
        <trkpt lat="28.712116" lon="104.741468"><ele>514.6453</ele><time>2026-05-28T21:32:02.000Z</time></trkpt>
        <trkpt lat="28.712092" lon="104.741523"><ele>513.6517</ele><time>2026-05-28T21:32:08.000Z</time></trkpt>
        <trkpt lat="28.712103" lon="104.74158"><ele>515.4993</ele><time>2026-05-28T21:32:15.000Z</time></trkpt>
        <trkpt lat="28.712129" lon="104.741638"><ele>521.92633</ele><time>2026-05-28T21:32:24.000Z</time></trkpt>
        <trkpt lat="28.712151" lon="104.7417"><ele>525.0232</ele><time>2026-05-28T21:32:32.000Z</time></trkpt>
        <trkpt lat="28.712176" lon="104.741743"><ele>527.49945</ele><time>2026-05-28T21:32:38.000Z</time></trkpt>
        <trkpt lat="28.712201" lon="104.74179"><ele>527.8145</ele><time>2026-05-28T21:32:42.000Z</time></trkpt>
        <trkpt lat="28.712184" lon="104.741843"><ele>528.6757</ele><time>2026-05-28T21:32:49.000Z</time></trkpt>
        <trkpt lat="28.712136" lon="104.741848"><ele>534.8456</ele><time>2026-05-28T21:33:21.000Z</time></trkpt>
        <trkpt lat="28.712179" lon="104.741827"><ele>532.7961</ele><time>2026-05-28T21:33:28.000Z</time></trkpt>
        <trkpt lat="28.71218" lon="104.741775"><ele>533.338</ele><time>2026-05-28T21:33:41.000Z</time></trkpt>
        <trkpt lat="28.712128" lon="104.741768"><ele>531.4152</ele><time>2026-05-28T21:33:53.000Z</time></trkpt>
        <trkpt lat="28.71209" lon="104.741806"><ele>532.721</ele><time>2026-05-28T21:34:04.000Z</time></trkpt>
        <trkpt lat="28.712118" lon="104.741852"><ele>532.7635</ele><time>2026-05-28T21:34:11.000Z</time></trkpt>
        <trkpt lat="28.712094" lon="104.741902"><ele>533.4357</ele><time>2026-05-28T21:34:19.000Z</time></trkpt>
        <trkpt lat="28.712049" lon="104.741921"><ele>525.51306</ele><time>2026-05-28T21:35:16.000Z</time></trkpt>
        <trkpt lat="28.712003" lon="104.741899"><ele>535.56604</ele><time>2026-05-28T21:35:28.000Z</time></trkpt>
        <trkpt lat="28.712035" lon="104.741856"><ele>539.9759</ele><time>2026-05-28T21:35:34.000Z</time></trkpt>
        <trkpt lat="28.712029" lon="104.741799"><ele>540.08514</ele><time>2026-05-28T21:35:43.000Z</time></trkpt>
        <trkpt lat="28.71201" lon="104.741737"><ele>540.33264</ele><time>2026-05-28T21:35:50.000Z</time></trkpt>
        <trkpt lat="28.711971" lon="104.741709"><ele>540.4454</ele><time>2026-05-28T21:35:57.000Z</time></trkpt>
        <trkpt lat="28.711976" lon="104.741656"><ele>538.5807</ele><time>2026-05-28T21:36:04.000Z</time></trkpt>
        <trkpt lat="28.711968" lon="104.741603"><ele>537.2986</ele><time>2026-05-28T21:36:12.000Z</time></trkpt>
        <trkpt lat="28.711928" lon="104.74157"><ele>535.67053</ele><time>2026-05-28T21:36:21.000Z</time></trkpt>
        <trkpt lat="28.711893" lon="104.741525"><ele>535.1137</ele><time>2026-05-28T21:36:37.000Z</time></trkpt>
        <trkpt lat="28.711846" lon="104.741508"><ele>535.8539</ele><time>2026-05-28T21:36:41.000Z</time></trkpt>
        <trkpt lat="28.711801" lon="104.741492"><ele>537.5678</ele><time>2026-05-28T21:36:47.000Z</time></trkpt>
        <trkpt lat="28.711754" lon="104.741494"><ele>538.2665</ele><time>2026-05-28T21:36:52.000Z</time></trkpt>
        <trkpt lat="28.711714" lon="104.741463"><ele>540.71716</ele><time>2026-05-28T21:36:57.000Z</time></trkpt>
        <trkpt lat="28.711675" lon="104.741432"><ele>541.6744</ele><time>2026-05-28T21:37:03.000Z</time></trkpt>
        <trkpt lat="28.711634" lon="104.741395"><ele>543.4815</ele><time>2026-05-28T21:37:09.000Z</time></trkpt>
        <trkpt lat="28.711583" lon="104.741371"><ele>543.3956</ele><time>2026-05-28T21:37:26.000Z</time></trkpt>
        <trkpt lat="28.711532" lon="104.741367"><ele>545.05786</ele><time>2026-05-28T21:37:31.000Z</time></trkpt>
        <trkpt lat="28.711482" lon="104.741352"><ele>546.164</ele><time>2026-05-28T21:37:36.000Z</time></trkpt>
        <trkpt lat="28.711427" lon="104.74136"><ele>547.5796</ele><time>2026-05-28T21:37:41.000Z</time></trkpt>
        <trkpt lat="28.711378" lon="104.741381"><ele>548.2158</ele><time>2026-05-28T21:37:48.000Z</time></trkpt>
        <trkpt lat="28.711332" lon="104.741384"><ele>551.9345</ele><time>2026-05-28T21:37:52.000Z</time></trkpt>
        <trkpt lat="28.711284" lon="104.741375"><ele>556.1298</ele><time>2026-05-28T21:37:58.000Z</time></trkpt>
        <trkpt lat="28.711234" lon="104.741358"><ele>557.32056</ele><time>2026-05-28T21:38:05.000Z</time></trkpt>
        <trkpt lat="28.711178" lon="104.741361"><ele>558.5614</ele><time>2026-05-28T21:38:17.000Z</time></trkpt>
        <trkpt lat="28.711126" lon="104.74137"><ele>560.26794</ele><time>2026-05-28T21:38:22.000Z</time></trkpt>
        <trkpt lat="28.71108" lon="104.741379"><ele>562.73004</ele><time>2026-05-28T21:38:30.000Z</time></trkpt>
        <trkpt lat="28.71104" lon="104.741408"><ele>558.8458</ele><time>2026-05-28T21:39:38.000Z</time></trkpt>
        <trkpt lat="28.710999" lon="104.74144"><ele>559.0322</ele><time>2026-05-28T21:40:05.000Z</time></trkpt>
        <trkpt lat="28.710952" lon="104.74146"><ele>557.94446</ele><time>2026-05-28T21:40:11.000Z</time></trkpt>
        <trkpt lat="28.710908" lon="104.741486"><ele>562.2413</ele><time>2026-05-28T21:40:19.000Z</time></trkpt>
        <trkpt lat="28.710854" lon="104.741496"><ele>571.5811</ele><time>2026-05-28T21:40:32.000Z</time></trkpt>
        <trkpt lat="28.710845" lon="104.741443"><ele>573.1635</ele><time>2026-05-28T21:40:51.000Z</time></trkpt>
        <trkpt lat="28.710849" lon="104.741387"><ele>572.57465</ele><time>2026-05-28T21:41:05.000Z</time></trkpt>
        <trkpt lat="28.710907" lon="104.741294"><ele>570.9965</ele><time>2026-05-28T21:41:18.000Z</time></trkpt>
        <trkpt lat="28.710931" lon="104.741242"><ele>567.7927</ele><time>2026-05-28T21:41:26.000Z</time></trkpt>
        <trkpt lat="28.710955" lon="104.741191"><ele>566.2599</ele><time>2026-05-28T21:41:33.000Z</time></trkpt>
        <trkpt lat="28.710994" lon="104.741163"><ele>563.8752</ele><time>2026-05-28T21:41:42.000Z</time></trkpt>
        <trkpt lat="28.711004" lon="104.741111"><ele>556.57764</ele><time>2026-05-28T21:41:53.000Z</time></trkpt>
        <trkpt lat="28.710989" lon="104.741057"><ele>557.4461</ele><time>2026-05-28T21:42:06.000Z</time></trkpt>
        <trkpt lat="28.710962" lon="104.741009"><ele>555.64233</ele><time>2026-05-28T21:42:12.000Z</time></trkpt>
        <trkpt lat="28.710926" lon="104.740963"><ele>554.8129</ele><time>2026-05-28T21:42:21.000Z</time></trkpt>
        <trkpt lat="28.71089" lon="104.740927"><ele>554.2264</ele><time>2026-05-28T21:42:25.000Z</time></trkpt>
        <trkpt lat="28.710873" lon="104.740867"><ele>551.0176</ele><time>2026-05-28T21:42:34.000Z</time></trkpt>
        <trkpt lat="28.710855" lon="104.740818"><ele>550.709</ele><time>2026-05-28T21:42:39.000Z</time></trkpt>
        <trkpt lat="28.710861" lon="104.740765"><ele>548.94995</ele><time>2026-05-28T21:42:46.000Z</time></trkpt>
        <trkpt lat="28.710859" lon="104.740709"><ele>543.13806</ele><time>2026-05-28T21:42:54.000Z</time></trkpt>
        <trkpt lat="28.710866" lon="104.740653"><ele>543.8025</ele><time>2026-05-28T21:42:59.000Z</time></trkpt>
        <trkpt lat="28.710886" lon="104.740596"><ele>542.53424</ele><time>2026-05-28T21:43:06.000Z</time></trkpt>
        <trkpt lat="28.710867" lon="104.740544"><ele>539.1297</ele><time>2026-05-28T21:43:15.000Z</time></trkpt>
        <trkpt lat="28.710861" lon="104.740489"><ele>539.2826</ele><time>2026-05-28T21:43:22.000Z</time></trkpt>
        <trkpt lat="28.710867" lon="104.740438"><ele>538.3447</ele><time>2026-05-28T21:43:30.000Z</time></trkpt>
        <trkpt lat="28.710867" lon="104.740382"><ele>536.55756</ele><time>2026-05-28T21:43:35.000Z</time></trkpt>
        <trkpt lat="28.710909" lon="104.740346"><ele>538.17773</ele><time>2026-05-28T21:43:40.000Z</time></trkpt>
        <trkpt lat="28.710892" lon="104.740296"><ele>536.72736</ele><time>2026-05-28T21:43:49.000Z</time></trkpt>
        <trkpt lat="28.710851" lon="104.740272"><ele>536.0201</ele><time>2026-05-28T21:43:55.000Z</time></trkpt>
        <trkpt lat="28.710805" lon="104.740289"><ele>534.7179</ele><time>2026-05-28T21:44:07.000Z</time></trkpt>
        <trkpt lat="28.710754" lon="104.740286"><ele>532.0966</ele><time>2026-05-28T21:44:15.000Z</time></trkpt>
        <trkpt lat="28.71073" lon="104.74024"><ele>538.4634</ele><time>2026-05-28T21:44:30.000Z</time></trkpt>
        <trkpt lat="28.710683" lon="104.740237"><ele>540.02563</ele><time>2026-05-28T21:44:54.000Z</time></trkpt>
        <trkpt lat="28.710586" lon="104.740251"><ele>536.8526</ele><time>2026-05-28T21:45:04.000Z</time></trkpt>
        <trkpt lat="28.710548" lon="104.740209"><ele>539.0573</ele><time>2026-05-28T21:45:10.000Z</time></trkpt>
        <trkpt lat="28.710495" lon="104.740204"><ele>539.7198</ele><time>2026-05-28T21:45:18.000Z</time></trkpt>
        <trkpt lat="28.710491" lon="104.740147"><ele>547.07635</ele><time>2026-05-28T21:46:33.000Z</time></trkpt>
        <trkpt lat="28.710468" lon="104.740014"><ele>541.8872</ele><time>2026-05-28T21:46:48.000Z</time></trkpt>
        <trkpt lat="28.710447" lon="104.739967"><ele>539.8207</ele><time>2026-05-28T21:46:53.000Z</time></trkpt>
        <trkpt lat="28.710437" lon="104.739907"><ele>536.4564</ele><time>2026-05-28T21:47:03.000Z</time></trkpt>
        <trkpt lat="28.710453" lon="104.739853"><ele>534.2987</ele><time>2026-05-28T21:47:09.000Z</time></trkpt>
        <trkpt lat="28.710409" lon="104.739837"><ele>536.1961</ele><time>2026-05-28T21:47:45.000Z</time></trkpt>
        <trkpt lat="28.710323" lon="104.739784"><ele>534.28687</ele><time>2026-05-28T21:47:53.000Z</time></trkpt>
        <trkpt lat="28.710283" lon="104.739749"><ele>534.56305</ele><time>2026-05-28T21:47:56.000Z</time></trkpt>
        <trkpt lat="28.710232" lon="104.739715"><ele>534.2047</ele><time>2026-05-28T21:48:02.000Z</time></trkpt>
        <trkpt lat="28.710198" lon="104.739673"><ele>535.5</ele><time>2026-05-28T21:48:06.000Z</time></trkpt>
        <trkpt lat="28.710157" lon="104.739642"><ele>538.0415</ele><time>2026-05-28T21:48:11.000Z</time></trkpt>
        <trkpt lat="28.710106" lon="104.739619"><ele>538.456</ele><time>2026-05-28T21:48:15.000Z</time></trkpt>
        <trkpt lat="28.710071" lon="104.739578"><ele>541.3409</ele><time>2026-05-28T21:48:24.000Z</time></trkpt>
        <trkpt lat="28.710081" lon="104.739522"><ele>545.7412</ele><time>2026-05-28T21:49:04.000Z</time></trkpt>
        <trkpt lat="28.710035" lon="104.739506"><ele>547.44446</ele><time>2026-05-28T21:49:13.000Z</time></trkpt>
        <trkpt lat="28.70999" lon="104.739471"><ele>548.0672</ele><time>2026-05-28T21:49:19.000Z</time></trkpt>
        <trkpt lat="28.709944" lon="104.739487"><ele>546.8707</ele><time>2026-05-28T21:49:22.000Z</time></trkpt>
        <trkpt lat="28.70989" lon="104.739493"><ele>545.6713</ele><time>2026-05-28T21:49:26.000Z</time></trkpt>
        <trkpt lat="28.709844" lon="104.739467"><ele>546.34375</ele><time>2026-05-28T21:49:31.000Z</time></trkpt>
        <trkpt lat="28.709788" lon="104.739448"><ele>545.08435</ele><time>2026-05-28T21:49:35.000Z</time></trkpt>
        <trkpt lat="28.709742" lon="104.73944"><ele>547.80084</ele><time>2026-05-28T21:49:40.000Z</time></trkpt>
        <trkpt lat="28.709693" lon="104.739422"><ele>549.55835</ele><time>2026-05-28T21:49:43.000Z</time></trkpt>
        <trkpt lat="28.709648" lon="104.739429"><ele>553.19</ele><time>2026-05-28T21:49:48.000Z</time></trkpt>
        <trkpt lat="28.709599" lon="104.739455"><ele>554.4173</ele><time>2026-05-28T21:49:51.000Z</time></trkpt>
        <trkpt lat="28.709557" lon="104.739479"><ele>554.94965</ele><time>2026-05-28T21:49:55.000Z</time></trkpt>
        <trkpt lat="28.709505" lon="104.739495"><ele>558.1163</ele><time>2026-05-28T21:49:59.000Z</time></trkpt>
        <trkpt lat="28.709461" lon="104.739509"><ele>559.4284</ele><time>2026-05-28T21:50:02.000Z</time></trkpt>
        <trkpt lat="28.709413" lon="104.739518"><ele>561.2026</ele><time>2026-05-28T21:50:06.000Z</time></trkpt>
        <trkpt lat="28.709362" lon="104.739536"><ele>563.70386</ele><time>2026-05-28T21:50:12.000Z</time></trkpt>
        <trkpt lat="28.709318" lon="104.739564"><ele>565.61646</ele><time>2026-05-28T21:50:20.000Z</time></trkpt>
        <trkpt lat="28.709273" lon="104.739566"><ele>565.87933</ele><time>2026-05-28T21:50:23.000Z</time></trkpt>
        <trkpt lat="28.709224" lon="104.739582"><ele>566.38684</ele><time>2026-05-28T21:50:28.000Z</time></trkpt>
        <trkpt lat="28.709169" lon="104.739595"><ele>565.94165</ele><time>2026-05-28T21:50:34.000Z</time></trkpt>
        <trkpt lat="28.709129" lon="104.739629"><ele>565.40625</ele><time>2026-05-28T21:50:38.000Z</time></trkpt>
        <trkpt lat="28.709093" lon="104.739667"><ele>564.059</ele><time>2026-05-28T21:50:42.000Z</time></trkpt>
        <trkpt lat="28.709051" lon="104.739697"><ele>561.87463</ele><time>2026-05-28T21:50:47.000Z</time></trkpt>
        <trkpt lat="28.709007" lon="104.739731"><ele>560.8052</ele><time>2026-05-28T21:50:52.000Z</time></trkpt>
        <trkpt lat="28.708964" lon="104.739753"><ele>559.172</ele><time>2026-05-28T21:50:56.000Z</time></trkpt>
        <trkpt lat="28.708927" lon="104.739789"><ele>557.52057</ele><time>2026-05-28T21:51:01.000Z</time></trkpt>
        <trkpt lat="28.708886" lon="104.739814"><ele>557.377</ele><time>2026-05-28T21:51:06.000Z</time></trkpt>
        <trkpt lat="28.70886" lon="104.739863"><ele>560.0645</ele><time>2026-05-28T21:51:12.000Z</time></trkpt>
        <trkpt lat="28.708828" lon="104.739913"><ele>562.77875</ele><time>2026-05-28T21:51:19.000Z</time></trkpt>
        <trkpt lat="28.708788" lon="104.739952"><ele>565.0245</ele><time>2026-05-28T21:51:28.000Z</time></trkpt>
        <trkpt lat="28.708748" lon="104.73992"><ele>565.9296</ele><time>2026-05-28T21:51:44.000Z</time></trkpt>
        <trkpt lat="28.708705" lon="104.739949"><ele>567.4994</ele><time>2026-05-28T21:51:55.000Z</time></trkpt>
        <trkpt lat="28.708665" lon="104.739974"><ele>568.8635</ele><time>2026-05-28T21:52:02.000Z</time></trkpt>
        <trkpt lat="28.708623" lon="104.740016"><ele>569.83453</ele><time>2026-05-28T21:52:09.000Z</time></trkpt>
        <trkpt lat="28.708579" lon="104.740042"><ele>573.422</ele><time>2026-05-28T21:52:22.000Z</time></trkpt>
        <trkpt lat="28.708527" lon="104.740071"><ele>572.95447</ele><time>2026-05-28T21:52:28.000Z</time></trkpt>
        <trkpt lat="28.708483" lon="104.74012"><ele>576.81445</ele><time>2026-05-28T21:52:45.000Z</time></trkpt>
        <trkpt lat="28.708434" lon="104.740141"><ele>582.0443</ele><time>2026-05-28T21:53:06.000Z</time></trkpt>
        <trkpt lat="28.708389" lon="104.740142"><ele>582.97253</ele><time>2026-05-28T21:53:22.000Z</time></trkpt>
        <trkpt lat="28.708351" lon="104.740113"><ele>583.93665</ele><time>2026-05-28T21:54:12.000Z</time></trkpt>
        <trkpt lat="28.70831" lon="104.740138"><ele>585.4524</ele><time>2026-05-28T21:54:19.000Z</time></trkpt>
        <trkpt lat="28.708264" lon="104.740138"><ele>587.2796</ele><time>2026-05-28T21:54:26.000Z</time></trkpt>
        <trkpt lat="28.708215" lon="104.74013"><ele>587.2482</ele><time>2026-05-28T21:54:32.000Z</time></trkpt>
        <trkpt lat="28.708169" lon="104.740123"><ele>586.6987</ele><time>2026-05-28T21:54:37.000Z</time></trkpt>
        <trkpt lat="28.70812" lon="104.740104"><ele>585.9252</ele><time>2026-05-28T21:54:57.000Z</time></trkpt>
        <trkpt lat="28.708022" lon="104.740106"><ele>585.62634</ele><time>2026-05-28T21:55:14.000Z</time></trkpt>
        <trkpt lat="28.707989" lon="104.74007"><ele>585.9343</ele><time>2026-05-28T21:55:36.000Z</time></trkpt>
        <trkpt lat="28.707938" lon="104.740062"><ele>586.3724</ele><time>2026-05-28T21:56:31.000Z</time></trkpt>
        <trkpt lat="28.707923" lon="104.740013"><ele>587.1611</ele><time>2026-05-28T21:56:38.000Z</time></trkpt>
        <trkpt lat="28.707874" lon="104.739991"><ele>588.14624</ele><time>2026-05-28T21:56:43.000Z</time></trkpt>
        <trkpt lat="28.707814" lon="104.739944"><ele>588.11804</ele><time>2026-05-28T21:56:50.000Z</time></trkpt>
        <trkpt lat="28.707773" lon="104.739906"><ele>588.69586</ele><time>2026-05-28T21:56:56.000Z</time></trkpt>
        <trkpt lat="28.70772" lon="104.739881"><ele>594.37305</ele><time>2026-05-28T21:57:12.000Z</time></trkpt>
        <trkpt lat="28.707679" lon="104.739855"><ele>595.4359</ele><time>2026-05-28T21:57:22.000Z</time></trkpt>
        <trkpt lat="28.707636" lon="104.739836"><ele>596.5938</ele><time>2026-05-28T21:57:31.000Z</time></trkpt>
        <trkpt lat="28.707589" lon="104.739807"><ele>596.7278</ele><time>2026-05-28T21:57:40.000Z</time></trkpt>
        <trkpt lat="28.707547" lon="104.739779"><ele>599.8014</ele><time>2026-05-28T21:57:53.000Z</time></trkpt>
        <trkpt lat="28.707496" lon="104.739774"><ele>600.42487</ele><time>2026-05-28T21:58:06.000Z</time></trkpt>
        <trkpt lat="28.70745" lon="104.739781"><ele>600.6537</ele><time>2026-05-28T21:58:27.000Z</time></trkpt>
        <trkpt lat="28.707409" lon="104.739802"><ele>601.58057</ele><time>2026-05-28T21:58:42.000Z</time></trkpt>
        <trkpt lat="28.707391" lon="104.739859"><ele>603.54865</ele><time>2026-05-28T21:58:54.000Z</time></trkpt>
        <trkpt lat="28.707413" lon="104.739911"><ele>602.2116</ele><time>2026-05-28T21:59:05.000Z</time></trkpt>
        <trkpt lat="28.707438" lon="104.739959"><ele>600.7837</ele><time>2026-05-28T21:59:10.000Z</time></trkpt>
        <trkpt lat="28.707469" lon="104.740007"><ele>599.226</ele><time>2026-05-28T21:59:16.000Z</time></trkpt>
        <trkpt lat="28.707477" lon="104.740065"><ele>599.04205</ele><time>2026-05-28T21:59:23.000Z</time></trkpt>
        <trkpt lat="28.707454" lon="104.740113"><ele>598.44885</ele><time>2026-05-28T21:59:29.000Z</time></trkpt>
        <trkpt lat="28.707412" lon="104.740142"><ele>598.50354</ele><time>2026-05-28T21:59:35.000Z</time></trkpt>
        <trkpt lat="28.707381" lon="104.740188"><ele>598.87933</ele><time>2026-05-28T21:59:41.000Z</time></trkpt>
        <trkpt lat="28.707344" lon="104.740234"><ele>600.0052</ele><time>2026-05-28T21:59:46.000Z</time></trkpt>
        <trkpt lat="28.707299" lon="104.740268"><ele>600.0421</ele><time>2026-05-28T21:59:52.000Z</time></trkpt>
        <trkpt lat="28.70726" lon="104.740234"><ele>600.1812</ele><time>2026-05-28T21:59:56.000Z</time></trkpt>
        <trkpt lat="28.707219" lon="104.740194"><ele>600.835</ele><time>2026-05-28T22:00:02.000Z</time></trkpt>
        <trkpt lat="28.707177" lon="104.740156"><ele>601.1316</ele><time>2026-05-28T22:00:08.000Z</time></trkpt>
        <trkpt lat="28.707125" lon="104.740146"><ele>601.7322</ele><time>2026-05-28T22:00:14.000Z</time></trkpt>
        <trkpt lat="28.707079" lon="104.740137"><ele>602.45654</ele><time>2026-05-28T22:00:19.000Z</time></trkpt>
        <trkpt lat="28.70703" lon="104.740127"><ele>602.4242</ele><time>2026-05-28T22:00:24.000Z</time></trkpt>
        <trkpt lat="28.706979" lon="104.740133"><ele>602.09595</ele><time>2026-05-28T22:00:29.000Z</time></trkpt>
        <trkpt lat="28.706932" lon="104.740136"><ele>602.4205</ele><time>2026-05-28T22:00:33.000Z</time></trkpt>
        <trkpt lat="28.706883" lon="104.74013"><ele>602.3122</ele><time>2026-05-28T22:00:38.000Z</time></trkpt>
        <trkpt lat="28.706832" lon="104.740131"><ele>602.1491</ele><time>2026-05-28T22:00:42.000Z</time></trkpt>
        <trkpt lat="28.70678" lon="104.740122"><ele>601.719</ele><time>2026-05-28T22:00:47.000Z</time></trkpt>
        <trkpt lat="28.706736" lon="104.740103"><ele>600.5453</ele><time>2026-05-28T22:00:51.000Z</time></trkpt>
        <trkpt lat="28.706687" lon="104.740083"><ele>598.9298</ele><time>2026-05-28T22:00:55.000Z</time></trkpt>
        <trkpt lat="28.706643" lon="104.74007"><ele>599.6066</ele><time>2026-05-28T22:01:00.000Z</time></trkpt>
        <trkpt lat="28.706612" lon="104.740022"><ele>599.21967</ele><time>2026-05-28T22:01:05.000Z</time></trkpt>
        <trkpt lat="28.706601" lon="104.739958"><ele>598.46985</ele><time>2026-05-28T22:01:10.000Z</time></trkpt>
        <trkpt lat="28.70662" lon="104.739898"><ele>597.7141</ele><time>2026-05-28T22:01:14.000Z</time></trkpt>
        <trkpt lat="28.706651" lon="104.739849"><ele>597.41486</ele><time>2026-05-28T22:01:18.000Z</time></trkpt>
        <trkpt lat="28.706682" lon="104.739804"><ele>597.5187</ele><time>2026-05-28T22:01:22.000Z</time></trkpt>
        <trkpt lat="28.706717" lon="104.739759"><ele>597.48895</ele><time>2026-05-28T22:01:26.000Z</time></trkpt>
        <trkpt lat="28.706741" lon="104.739708"><ele>599.1756</ele><time>2026-05-28T22:01:30.000Z</time></trkpt>
        <trkpt lat="28.706772" lon="104.739663"><ele>601.1914</ele><time>2026-05-28T22:01:35.000Z</time></trkpt>
        <trkpt lat="28.706805" lon="104.739617"><ele>600.96765</ele><time>2026-05-28T22:01:40.000Z</time></trkpt>
        <trkpt lat="28.70682" lon="104.739563"><ele>601.7069</ele><time>2026-05-28T22:01:45.000Z</time></trkpt>
        <trkpt lat="28.706828" lon="104.739511"><ele>601.89307</ele><time>2026-05-28T22:01:50.000Z</time></trkpt>
        <trkpt lat="28.706809" lon="104.739463"><ele>602.59546</ele><time>2026-05-28T22:01:55.000Z</time></trkpt>
        <trkpt lat="28.706796" lon="104.739411"><ele>602.71155</ele><time>2026-05-28T22:01:59.000Z</time></trkpt>
        <trkpt lat="28.706792" lon="104.739358"><ele>603.124</ele><time>2026-05-28T22:02:03.000Z</time></trkpt>
        <trkpt lat="28.706817" lon="104.739313"><ele>603.57465</ele><time>2026-05-28T22:02:07.000Z</time></trkpt>
        <trkpt lat="28.706846" lon="104.739259"><ele>603.5949</ele><time>2026-05-28T22:02:11.000Z</time></trkpt>
        <trkpt lat="28.706855" lon="104.739207"><ele>605.73083</ele><time>2026-05-28T22:02:15.000Z</time></trkpt>
        <trkpt lat="28.706864" lon="104.739143"><ele>607.1869</ele><time>2026-05-28T22:02:20.000Z</time></trkpt>
        <trkpt lat="28.706874" lon="104.739086"><ele>608.79425</ele><time>2026-05-28T22:02:25.000Z</time></trkpt>
        <trkpt lat="28.70689" lon="104.739034"><ele>609.3438</ele><time>2026-05-28T22:02:30.000Z</time></trkpt>
        <trkpt lat="28.706898" lon="104.738982"><ele>609.95233</ele><time>2026-05-28T22:02:34.000Z</time></trkpt>
        <trkpt lat="28.706891" lon="104.738928"><ele>611.59863</ele><time>2026-05-28T22:02:39.000Z</time></trkpt>
        <trkpt lat="28.706914" lon="104.738877"><ele>610.8812</ele><time>2026-05-28T22:02:44.000Z</time></trkpt>
        <trkpt lat="28.706931" lon="104.738818"><ele>611.14105</ele><time>2026-05-28T22:02:49.000Z</time></trkpt>
        <trkpt lat="28.706945" lon="104.738767"><ele>611.55444</ele><time>2026-05-28T22:02:53.000Z</time></trkpt>
        <trkpt lat="28.706952" lon="104.738706"><ele>611.2166</ele><time>2026-05-28T22:02:57.000Z</time></trkpt>
        <trkpt lat="28.706943" lon="104.738652"><ele>609.6971</ele><time>2026-05-28T22:03:01.000Z</time></trkpt>
        <trkpt lat="28.706948" lon="104.738596"><ele>609.2986</ele><time>2026-05-28T22:03:06.000Z</time></trkpt>
        <trkpt lat="28.706959" lon="104.738544"><ele>609.3414</ele><time>2026-05-28T22:03:10.000Z</time></trkpt>
        <trkpt lat="28.706964" lon="104.738484"><ele>609.1579</ele><time>2026-05-28T22:03:15.000Z</time></trkpt>
        <trkpt lat="28.706965" lon="104.738432"><ele>609.4947</ele><time>2026-05-28T22:03:19.000Z</time></trkpt>
        <trkpt lat="28.706957" lon="104.738374"><ele>608.5528</ele><time>2026-05-28T22:03:24.000Z</time></trkpt>
        <trkpt lat="28.706947" lon="104.73832"><ele>608.4274</ele><time>2026-05-28T22:03:29.000Z</time></trkpt>
        <trkpt lat="28.706937" lon="104.738266"><ele>607.8975</ele><time>2026-05-28T22:03:34.000Z</time></trkpt>
        <trkpt lat="28.706907" lon="104.738218"><ele>607.0986</ele><time>2026-05-28T22:03:39.000Z</time></trkpt>
        <trkpt lat="28.706891" lon="104.738167"><ele>606.49084</ele><time>2026-05-28T22:03:43.000Z</time></trkpt>
        <trkpt lat="28.706874" lon="104.738112"><ele>605.8031</ele><time>2026-05-28T22:03:47.000Z</time></trkpt>
        <trkpt lat="28.706853" lon="104.738064"><ele>605.2885</ele><time>2026-05-28T22:03:51.000Z</time></trkpt>
        <trkpt lat="28.706838" lon="104.738009"><ele>605.3204</ele><time>2026-05-28T22:03:55.000Z</time></trkpt>
        <trkpt lat="28.706837" lon="104.737955"><ele>605.1285</ele><time>2026-05-28T22:03:59.000Z</time></trkpt>
        <trkpt lat="28.706859" lon="104.737909"><ele>604.72455</ele><time>2026-05-28T22:04:03.000Z</time></trkpt>
        <trkpt lat="28.706894" lon="104.737864"><ele>605.79974</ele><time>2026-05-28T22:04:07.000Z</time></trkpt>
        <trkpt lat="28.706931" lon="104.737833"><ele>607.2553</ele><time>2026-05-28T22:04:11.000Z</time></trkpt>
        <trkpt lat="28.70697" lon="104.737798"><ele>608.4455</ele><time>2026-05-28T22:04:16.000Z</time></trkpt>
        <trkpt lat="28.706989" lon="104.737747"><ele>609.3984</ele><time>2026-05-28T22:04:21.000Z</time></trkpt>
        <trkpt lat="28.707023" lon="104.737703"><ele>610.5097</ele><time>2026-05-28T22:04:27.000Z</time></trkpt>
        <trkpt lat="28.707047" lon="104.737655"><ele>611.53345</ele><time>2026-05-28T22:04:31.000Z</time></trkpt>
        <trkpt lat="28.707042" lon="104.737593"><ele>613.4149</ele><time>2026-05-28T22:04:37.000Z</time></trkpt>
        <trkpt lat="28.707026" lon="104.737542"><ele>613.44116</ele><time>2026-05-28T22:04:41.000Z</time></trkpt>
        <trkpt lat="28.707015" lon="104.737479"><ele>611.8939</ele><time>2026-05-28T22:04:47.000Z</time></trkpt>
        <trkpt lat="28.706996" lon="104.737422"><ele>612.2878</ele><time>2026-05-28T22:04:51.000Z</time></trkpt>
        <trkpt lat="28.706971" lon="104.737369"><ele>611.134</ele><time>2026-05-28T22:04:56.000Z</time></trkpt>
        <trkpt lat="28.706941" lon="104.737329"><ele>611.69354</ele><time>2026-05-28T22:05:00.000Z</time></trkpt>
        <trkpt lat="28.706901" lon="104.737299"><ele>610.55756</ele><time>2026-05-28T22:05:04.000Z</time></trkpt>
        <trkpt lat="28.706862" lon="104.737252"><ele>610.33527</ele><time>2026-05-28T22:05:09.000Z</time></trkpt>
        <trkpt lat="28.706828" lon="104.737217"><ele>609.5342</ele><time>2026-05-28T22:05:14.000Z</time></trkpt>
        <trkpt lat="28.706791" lon="104.737185"><ele>608.4468</ele><time>2026-05-28T22:05:22.000Z</time></trkpt>
        <trkpt lat="28.706742" lon="104.73716"><ele>608.4405</ele><time>2026-05-28T22:05:26.000Z</time></trkpt>
        <trkpt lat="28.706695" lon="104.737141"><ele>607.8811</ele><time>2026-05-28T22:05:30.000Z</time></trkpt>
        <trkpt lat="28.706649" lon="104.737128"><ele>606.56464</ele><time>2026-05-28T22:05:34.000Z</time></trkpt>
        <trkpt lat="28.706598" lon="104.737144"><ele>607.0245</ele><time>2026-05-28T22:05:39.000Z</time></trkpt>
        <trkpt lat="28.706553" lon="104.737155"><ele>606.636</ele><time>2026-05-28T22:05:43.000Z</time></trkpt>
        <trkpt lat="28.706505" lon="104.737171"><ele>606.5623</ele><time>2026-05-28T22:05:48.000Z</time></trkpt>
        <trkpt lat="28.70646" lon="104.73718"><ele>606.09436</ele><time>2026-05-28T22:05:53.000Z</time></trkpt>
        <trkpt lat="28.706405" lon="104.737192"><ele>605.4566</ele><time>2026-05-28T22:05:59.000Z</time></trkpt>
        <trkpt lat="28.706358" lon="104.737193"><ele>605.74054</ele><time>2026-05-28T22:06:04.000Z</time></trkpt>
        <trkpt lat="28.706305" lon="104.737204"><ele>605.4117</ele><time>2026-05-28T22:06:09.000Z</time></trkpt>
        <trkpt lat="28.706258" lon="104.737224"><ele>605.39355</ele><time>2026-05-28T22:06:14.000Z</time></trkpt>
        <trkpt lat="28.70621" lon="104.737221"><ele>605.9402</ele><time>2026-05-28T22:06:18.000Z</time></trkpt>
        <trkpt lat="28.706167" lon="104.737244"><ele>606.49725</ele><time>2026-05-28T22:06:22.000Z</time></trkpt>
        <trkpt lat="28.70613" lon="104.737277"><ele>607.19196</ele><time>2026-05-28T22:06:27.000Z</time></trkpt>
        <trkpt lat="28.706081" lon="104.737306"><ele>607.62396</ele><time>2026-05-28T22:06:32.000Z</time></trkpt>
        <trkpt lat="28.706045" lon="104.737342"><ele>608.00226</ele><time>2026-05-28T22:06:36.000Z</time></trkpt>
        <trkpt lat="28.706008" lon="104.73738"><ele>607.30145</ele><time>2026-05-28T22:06:41.000Z</time></trkpt>
        <trkpt lat="28.70597" lon="104.737416"><ele>607.3223</ele><time>2026-05-28T22:06:46.000Z</time></trkpt>
        <trkpt lat="28.705916" lon="104.737421"><ele>606.2628</ele><time>2026-05-28T22:06:51.000Z</time></trkpt>
        <trkpt lat="28.705867" lon="104.737416"><ele>605.1188</ele><time>2026-05-28T22:06:55.000Z</time></trkpt>
        <trkpt lat="28.705822" lon="104.73741"><ele>605.18787</ele><time>2026-05-28T22:07:00.000Z</time></trkpt>
        <trkpt lat="28.705766" lon="104.737402"><ele>605.3365</ele><time>2026-05-28T22:07:04.000Z</time></trkpt>
        <trkpt lat="28.70572" lon="104.737383"><ele>604.9556</ele><time>2026-05-28T22:07:08.000Z</time></trkpt>
        <trkpt lat="28.705678" lon="104.737341"><ele>604.8895</ele><time>2026-05-28T22:07:13.000Z</time></trkpt>
        <trkpt lat="28.705651" lon="104.737292"><ele>604.57733</ele><time>2026-05-28T22:07:17.000Z</time></trkpt>
        <trkpt lat="28.705624" lon="104.737242"><ele>605.5048</ele><time>2026-05-28T22:07:22.000Z</time></trkpt>
        <trkpt lat="28.705589" lon="104.737203"><ele>605.70685</ele><time>2026-05-28T22:07:27.000Z</time></trkpt>
        <trkpt lat="28.705566" lon="104.737152"><ele>606.55347</ele><time>2026-05-28T22:07:33.000Z</time></trkpt>
        <trkpt lat="28.705548" lon="104.737097"><ele>605.8038</ele><time>2026-05-28T22:07:37.000Z</time></trkpt>
        <trkpt lat="28.705529" lon="104.737044"><ele>605.9625</ele><time>2026-05-28T22:07:41.000Z</time></trkpt>
        <trkpt lat="28.705532" lon="104.736988"><ele>605.23364</ele><time>2026-05-28T22:07:45.000Z</time></trkpt>
        <trkpt lat="28.705523" lon="104.736928"><ele>605.186</ele><time>2026-05-28T22:07:49.000Z</time></trkpt>
        <trkpt lat="28.705529" lon="104.736869"><ele>604.61414</ele><time>2026-05-28T22:07:53.000Z</time></trkpt>
        <trkpt lat="28.705558" lon="104.736815"><ele>605.349</ele><time>2026-05-28T22:07:57.000Z</time></trkpt>
        <trkpt lat="28.705583" lon="104.736767"><ele>605.65735</ele><time>2026-05-28T22:08:01.000Z</time></trkpt>
        <trkpt lat="28.705602" lon="104.736717"><ele>607.59686</ele><time>2026-05-28T22:08:05.000Z</time></trkpt>
        <trkpt lat="28.70562" lon="104.736658"><ele>609.0847</ele><time>2026-05-28T22:08:10.000Z</time></trkpt>
        <trkpt lat="28.705639" lon="104.736602"><ele>609.21747</ele><time>2026-05-28T22:08:14.000Z</time></trkpt>
        <trkpt lat="28.705624" lon="104.736552"><ele>610.1411</ele><time>2026-05-28T22:08:20.000Z</time></trkpt>
        <trkpt lat="28.705648" lon="104.7365"><ele>609.6176</ele><time>2026-05-28T22:08:24.000Z</time></trkpt>
        <trkpt lat="28.705654" lon="104.73644"><ele>607.4596</ele><time>2026-05-28T22:08:30.000Z</time></trkpt>
        <trkpt lat="28.705662" lon="104.736377"><ele>607.1732</ele><time>2026-05-28T22:08:34.000Z</time></trkpt>
        <trkpt lat="28.705653" lon="104.736325"><ele>606.50946</ele><time>2026-05-28T22:08:38.000Z</time></trkpt>
        <trkpt lat="28.705659" lon="104.736264"><ele>604.7611</ele><time>2026-05-28T22:08:43.000Z</time></trkpt>
        <trkpt lat="28.705657" lon="104.736209"><ele>604.17554</ele><time>2026-05-28T22:08:47.000Z</time></trkpt>
        <trkpt lat="28.70564" lon="104.736148"><ele>603.8112</ele><time>2026-05-28T22:08:52.000Z</time></trkpt>
        <trkpt lat="28.705626" lon="104.736085"><ele>604.0768</ele><time>2026-05-28T22:08:57.000Z</time></trkpt>
        <trkpt lat="28.705627" lon="104.736032"><ele>602.42944</ele><time>2026-05-28T22:09:02.000Z</time></trkpt>
        <trkpt lat="28.705653" lon="104.735981"><ele>600.69073</ele><time>2026-05-28T22:09:06.000Z</time></trkpt>
        <trkpt lat="28.705674" lon="104.735923"><ele>600.7904</ele><time>2026-05-28T22:09:10.000Z</time></trkpt>
        <trkpt lat="28.70569" lon="104.735873"><ele>601.87573</ele><time>2026-05-28T22:09:17.000Z</time></trkpt>
        <trkpt lat="28.705708" lon="104.735813"><ele>603.668</ele><time>2026-05-28T22:09:21.000Z</time></trkpt>
        <trkpt lat="28.705717" lon="104.735761"><ele>604.39105</ele><time>2026-05-28T22:09:25.000Z</time></trkpt>
        <trkpt lat="28.70573" lon="104.735711"><ele>604.955</ele><time>2026-05-28T22:09:29.000Z</time></trkpt>
        <trkpt lat="28.705739" lon="104.735656"><ele>606.1578</ele><time>2026-05-28T22:09:34.000Z</time></trkpt>
        <trkpt lat="28.705758" lon="104.735598"><ele>607.20514</ele><time>2026-05-28T22:09:38.000Z</time></trkpt>
        <trkpt lat="28.705764" lon="104.735541"><ele>608.3903</ele><time>2026-05-28T22:09:43.000Z</time></trkpt>
        <trkpt lat="28.705776" lon="104.735491"><ele>608.502</ele><time>2026-05-28T22:09:46.000Z</time></trkpt>
        <trkpt lat="28.70578" lon="104.73543"><ele>608.66406</ele><time>2026-05-28T22:09:52.000Z</time></trkpt>
        <trkpt lat="28.705796" lon="104.735373"><ele>609.08765</ele><time>2026-05-28T22:09:57.000Z</time></trkpt>
        <trkpt lat="28.705818" lon="104.735311"><ele>609.88477</ele><time>2026-05-28T22:10:02.000Z</time></trkpt>
        <trkpt lat="28.705836" lon="104.735255"><ele>610.43866</ele><time>2026-05-28T22:10:06.000Z</time></trkpt>
        <trkpt lat="28.705839" lon="104.7352"><ele>611.5649</ele><time>2026-05-28T22:10:10.000Z</time></trkpt>
        <trkpt lat="28.705839" lon="104.735143"><ele>611.57367</ele><time>2026-05-28T22:10:14.000Z</time></trkpt>
        <trkpt lat="28.705818" lon="104.735095"><ele>612.1983</ele><time>2026-05-28T22:10:18.000Z</time></trkpt>
        <trkpt lat="28.705805" lon="104.735032"><ele>610.1909</ele><time>2026-05-28T22:10:24.000Z</time></trkpt>
        <trkpt lat="28.705778" lon="104.73499"><ele>609.4617</ele><time>2026-05-28T22:10:28.000Z</time></trkpt>
        <trkpt lat="28.705745" lon="104.734952"><ele>607.5511</ele><time>2026-05-28T22:10:34.000Z</time></trkpt>
        <trkpt lat="28.705703" lon="104.73492"><ele>606.8043</ele><time>2026-05-28T22:10:40.000Z</time></trkpt>
        <trkpt lat="28.70565" lon="104.734908"><ele>604.6438</ele><time>2026-05-28T22:10:45.000Z</time></trkpt>
        <trkpt lat="28.705612" lon="104.73487"><ele>601.3067</ele><time>2026-05-28T22:10:57.000Z</time></trkpt>
        <trkpt lat="28.705573" lon="104.73484"><ele>599.3891</ele><time>2026-05-28T22:11:02.000Z</time></trkpt>
        <trkpt lat="28.705548" lon="104.734796"><ele>599.6931</ele><time>2026-05-28T22:11:06.000Z</time></trkpt>
        <trkpt lat="28.705531" lon="104.734739"><ele>598.5062</ele><time>2026-05-28T22:11:11.000Z</time></trkpt>
        <trkpt lat="28.705536" lon="104.734674"><ele>597.5527</ele><time>2026-05-28T22:11:16.000Z</time></trkpt>
        <trkpt lat="28.70555" lon="104.734621"><ele>596.0953</ele><time>2026-05-28T22:11:21.000Z</time></trkpt>
        <trkpt lat="28.705553" lon="104.734569"><ele>595.7911</ele><time>2026-05-28T22:11:28.000Z</time></trkpt>
        <trkpt lat="28.705558" lon="104.734508"><ele>597.9356</ele><time>2026-05-28T22:11:33.000Z</time></trkpt>
        <trkpt lat="28.705569" lon="104.734456"><ele>598.9036</ele><time>2026-05-28T22:11:39.000Z</time></trkpt>
        <trkpt lat="28.705594" lon="104.734411"><ele>596.95483</ele><time>2026-05-28T22:11:45.000Z</time></trkpt>
        <trkpt lat="28.705636" lon="104.734371"><ele>596.4546</ele><time>2026-05-28T22:11:51.000Z</time></trkpt>
        <trkpt lat="28.705636" lon="104.734303"><ele>599.5326</ele><time>2026-05-28T22:11:56.000Z</time></trkpt>
        <trkpt lat="28.705642" lon="104.734239"><ele>602.3832</ele><time>2026-05-28T22:12:00.000Z</time></trkpt>
        <trkpt lat="28.705626" lon="104.73419"><ele>602.9912</ele><time>2026-05-28T22:12:04.000Z</time></trkpt>
        <trkpt lat="28.705617" lon="104.734128"><ele>603.89197</ele><time>2026-05-28T22:12:09.000Z</time></trkpt>
        <trkpt lat="28.705583" lon="104.734082"><ele>604.4517</ele><time>2026-05-28T22:12:14.000Z</time></trkpt>
        <trkpt lat="28.705543" lon="104.73404"><ele>605.25964</ele><time>2026-05-28T22:12:19.000Z</time></trkpt>
        <trkpt lat="28.705506" lon="104.734002"><ele>605.8202</ele><time>2026-05-28T22:12:24.000Z</time></trkpt>
        <trkpt lat="28.705472" lon="104.733965"><ele>605.8053</ele><time>2026-05-28T22:12:29.000Z</time></trkpt>
        <trkpt lat="28.705449" lon="104.733914"><ele>605.52936</ele><time>2026-05-28T22:12:34.000Z</time></trkpt>
        <trkpt lat="28.705427" lon="104.733856"><ele>605.967</ele><time>2026-05-28T22:12:39.000Z</time></trkpt>
        <trkpt lat="28.705403" lon="104.733809"><ele>607.14484</ele><time>2026-05-28T22:12:43.000Z</time></trkpt>
        <trkpt lat="28.705382" lon="104.733762"><ele>608.5857</ele><time>2026-05-28T22:12:47.000Z</time></trkpt>
        <trkpt lat="28.705356" lon="104.73371"><ele>609.6446</ele><time>2026-05-28T22:12:52.000Z</time></trkpt>
        <trkpt lat="28.705335" lon="104.733663"><ele>611.2929</ele><time>2026-05-28T22:12:58.000Z</time></trkpt>
        <trkpt lat="28.705282" lon="104.733649"><ele>615.6913</ele><time>2026-05-28T22:13:10.000Z</time></trkpt>
        <trkpt lat="28.705216" lon="104.73365"><ele>616.608</ele><time>2026-05-28T22:13:16.000Z</time></trkpt>
        <trkpt lat="28.70517" lon="104.733647"><ele>616.4547</ele><time>2026-05-28T22:13:21.000Z</time></trkpt>
        <trkpt lat="28.70512" lon="104.733656"><ele>615.7841</ele><time>2026-05-28T22:13:27.000Z</time></trkpt>
        <trkpt lat="28.705073" lon="104.73365"><ele>615.17804</ele><time>2026-05-28T22:13:32.000Z</time></trkpt>
        <trkpt lat="28.70503" lon="104.733621"><ele>615.248</ele><time>2026-05-28T22:13:39.000Z</time></trkpt>
        <trkpt lat="28.70498" lon="104.733623"><ele>616.0441</ele><time>2026-05-28T22:13:45.000Z</time></trkpt>
        <trkpt lat="28.704929" lon="104.733611"><ele>616.1252</ele><time>2026-05-28T22:13:53.000Z</time></trkpt>
        <trkpt lat="28.70488" lon="104.733606"><ele>616.4084</ele><time>2026-05-28T22:13:58.000Z</time></trkpt>
        <trkpt lat="28.704827" lon="104.733601"><ele>616.00336</ele><time>2026-05-28T22:14:03.000Z</time></trkpt>
        <trkpt lat="28.704777" lon="104.733614"><ele>616.09607</ele><time>2026-05-28T22:14:08.000Z</time></trkpt>
        <trkpt lat="28.704734" lon="104.733634"><ele>615.0487</ele><time>2026-05-28T22:14:12.000Z</time></trkpt>
        <trkpt lat="28.704686" lon="104.73366"><ele>614.2987</ele><time>2026-05-28T22:14:17.000Z</time></trkpt>
        <trkpt lat="28.704642" lon="104.733686"><ele>612.7466</ele><time>2026-05-28T22:14:22.000Z</time></trkpt>
        <trkpt lat="28.704592" lon="104.733709"><ele>610.9552</ele><time>2026-05-28T22:14:27.000Z</time></trkpt>
        <trkpt lat="28.704537" lon="104.733718"><ele>609.7979</ele><time>2026-05-28T22:14:32.000Z</time></trkpt>
        <trkpt lat="28.704486" lon="104.733741"><ele>609.26495</ele><time>2026-05-28T22:14:38.000Z</time></trkpt>
        <trkpt lat="28.704437" lon="104.733737"><ele>608.1304</ele><time>2026-05-28T22:14:42.000Z</time></trkpt>
        <trkpt lat="28.704385" lon="104.733745"><ele>607.6497</ele><time>2026-05-28T22:14:47.000Z</time></trkpt>
        <trkpt lat="28.704331" lon="104.733751"><ele>607.5731</ele><time>2026-05-28T22:14:52.000Z</time></trkpt>
        <trkpt lat="28.704277" lon="104.733765"><ele>608.3103</ele><time>2026-05-28T22:14:57.000Z</time></trkpt>
        <trkpt lat="28.70423" lon="104.733792"><ele>609.6633</ele><time>2026-05-28T22:15:02.000Z</time></trkpt>
        <trkpt lat="28.704187" lon="104.733818"><ele>610.6246</ele><time>2026-05-28T22:15:07.000Z</time></trkpt>
        <trkpt lat="28.704142" lon="104.733833"><ele>610.016</ele><time>2026-05-28T22:15:12.000Z</time></trkpt>
        <trkpt lat="28.704086" lon="104.733826"><ele>607.8206</ele><time>2026-05-28T22:15:17.000Z</time></trkpt>
        <trkpt lat="28.70404" lon="104.733812"><ele>606.59644</ele><time>2026-05-28T22:15:21.000Z</time></trkpt>
        <trkpt lat="28.703998" lon="104.733786"><ele>606.9809</ele><time>2026-05-28T22:15:25.000Z</time></trkpt>
        <trkpt lat="28.703961" lon="104.733742"><ele>605.7744</ele><time>2026-05-28T22:15:30.000Z</time></trkpt>
        <trkpt lat="28.703924" lon="104.733698"><ele>607.12537</ele><time>2026-05-28T22:15:34.000Z</time></trkpt>
        <trkpt lat="28.703887" lon="104.733649"><ele>608.4608</ele><time>2026-05-28T22:15:38.000Z</time></trkpt>
        <trkpt lat="28.703857" lon="104.733604"><ele>609.9432</ele><time>2026-05-28T22:15:42.000Z</time></trkpt>
        <trkpt lat="28.703822" lon="104.733561"><ele>609.9359</ele><time>2026-05-28T22:15:46.000Z</time></trkpt>
        <trkpt lat="28.703799" lon="104.733514"><ele>610.14294</ele><time>2026-05-28T22:15:50.000Z</time></trkpt>
        <trkpt lat="28.703768" lon="104.733469"><ele>609.80225</ele><time>2026-05-28T22:15:54.000Z</time></trkpt>
        <trkpt lat="28.703737" lon="104.733424"><ele>609.23126</ele><time>2026-05-28T22:15:58.000Z</time></trkpt>
        <trkpt lat="28.70371" lon="104.733381"><ele>608.1668</ele><time>2026-05-28T22:16:02.000Z</time></trkpt>
        <trkpt lat="28.703678" lon="104.733338"><ele>606.54144</ele><time>2026-05-28T22:16:06.000Z</time></trkpt>
        <trkpt lat="28.703655" lon="104.733288"><ele>604.64044</ele><time>2026-05-28T22:16:10.000Z</time></trkpt>
        <trkpt lat="28.703628" lon="104.733225"><ele>602.0604</ele><time>2026-05-28T22:16:15.000Z</time></trkpt>
        <trkpt lat="28.703601" lon="104.733176"><ele>601.7254</ele><time>2026-05-28T22:16:21.000Z</time></trkpt>
        <trkpt lat="28.703555" lon="104.733145"><ele>601.8879</ele><time>2026-05-28T22:16:26.000Z</time></trkpt>
        <trkpt lat="28.703512" lon="104.733115"><ele>603.18945</ele><time>2026-05-28T22:16:33.000Z</time></trkpt>
        <trkpt lat="28.70347" lon="104.733094"><ele>603.94824</ele><time>2026-05-28T22:16:46.000Z</time></trkpt>
        <trkpt lat="28.703432" lon="104.733063"><ele>603.72064</ele><time>2026-05-28T22:16:51.000Z</time></trkpt>
        <trkpt lat="28.703387" lon="104.733059"><ele>604.96924</ele><time>2026-05-28T22:16:56.000Z</time></trkpt>
        <trkpt lat="28.70336" lon="104.733017"><ele>604.75714</ele><time>2026-05-28T22:17:00.000Z</time></trkpt>
        <trkpt lat="28.703323" lon="104.732978"><ele>605.11255</ele><time>2026-05-28T22:17:04.000Z</time></trkpt>
        <trkpt lat="28.703288" lon="104.73293"><ele>605.31683</ele><time>2026-05-28T22:17:09.000Z</time></trkpt>
        <trkpt lat="28.703248" lon="104.73289"><ele>605.61505</ele><time>2026-05-28T22:17:14.000Z</time></trkpt>
        <trkpt lat="28.703211" lon="104.732848"><ele>605.667</ele><time>2026-05-28T22:17:19.000Z</time></trkpt>
        <trkpt lat="28.703184" lon="104.732803"><ele>606.07983</ele><time>2026-05-28T22:17:24.000Z</time></trkpt>
        <trkpt lat="28.70316" lon="104.732757"><ele>606.9522</ele><time>2026-05-28T22:17:29.000Z</time></trkpt>
        <trkpt lat="28.703142" lon="104.732702"><ele>608.0969</ele><time>2026-05-28T22:17:34.000Z</time></trkpt>
        <trkpt lat="28.703114" lon="104.732649"><ele>608.07056</ele><time>2026-05-28T22:17:40.000Z</time></trkpt>
        <trkpt lat="28.703075" lon="104.732607"><ele>608.3995</ele><time>2026-05-28T22:17:46.000Z</time></trkpt>
        <trkpt lat="28.70304" lon="104.732573"><ele>608.1693</ele><time>2026-05-28T22:17:54.000Z</time></trkpt>
        <trkpt lat="28.703014" lon="104.732527"><ele>609.21735</ele><time>2026-05-28T22:18:00.000Z</time></trkpt>
        <trkpt lat="28.702993" lon="104.732479"><ele>609.6187</ele><time>2026-05-28T22:18:05.000Z</time></trkpt>
        <trkpt lat="28.702962" lon="104.73243"><ele>610.29663</ele><time>2026-05-28T22:18:10.000Z</time></trkpt>
        <trkpt lat="28.702936" lon="104.732384"><ele>610.4807</ele><time>2026-05-28T22:18:15.000Z</time></trkpt>
        <trkpt lat="28.702907" lon="104.732332"><ele>610.5704</ele><time>2026-05-28T22:18:21.000Z</time></trkpt>
        <trkpt lat="28.702893" lon="104.732282"><ele>610.90564</ele><time>2026-05-28T22:18:25.000Z</time></trkpt>
        <trkpt lat="28.702876" lon="104.732224"><ele>610.5521</ele><time>2026-05-28T22:18:30.000Z</time></trkpt>
        <trkpt lat="28.702856" lon="104.732166"><ele>610.8619</ele><time>2026-05-28T22:18:36.000Z</time></trkpt>
        <trkpt lat="28.702827" lon="104.732124"><ele>611.74023</ele><time>2026-05-28T22:18:40.000Z</time></trkpt>
        <trkpt lat="28.702789" lon="104.732079"><ele>612.933</ele><time>2026-05-28T22:18:45.000Z</time></trkpt>
        <trkpt lat="28.702756" lon="104.732029"><ele>613.36304</ele><time>2026-05-28T22:18:50.000Z</time></trkpt>
        <trkpt lat="28.702719" lon="104.731987"><ele>613.20337</ele><time>2026-05-28T22:18:55.000Z</time></trkpt>
        <trkpt lat="28.702693" lon="104.731934"><ele>613.11383</ele><time>2026-05-28T22:19:00.000Z</time></trkpt>
        <trkpt lat="28.70266" lon="104.731886"><ele>613.49054</ele><time>2026-05-28T22:19:05.000Z</time></trkpt>
        <trkpt lat="28.702623" lon="104.731845"><ele>613.40625</ele><time>2026-05-28T22:19:11.000Z</time></trkpt>
        <trkpt lat="28.702586" lon="104.731807"><ele>613.02893</ele><time>2026-05-28T22:19:16.000Z</time></trkpt>
        <trkpt lat="28.702545" lon="104.731767"><ele>612.95264</ele><time>2026-05-28T22:19:21.000Z</time></trkpt>
        <trkpt lat="28.702512" lon="104.73173"><ele>612.8124</ele><time>2026-05-28T22:19:25.000Z</time></trkpt>
        <trkpt lat="28.70249" lon="104.731682"><ele>613.15533</ele><time>2026-05-28T22:19:30.000Z</time></trkpt>
        <trkpt lat="28.702467" lon="104.731638"><ele>612.9676</ele><time>2026-05-28T22:19:34.000Z</time></trkpt>
        <trkpt lat="28.702442" lon="104.731583"><ele>611.82684</ele><time>2026-05-28T22:19:39.000Z</time></trkpt>
        <trkpt lat="28.702411" lon="104.731545"><ele>612.1314</ele><time>2026-05-28T22:19:43.000Z</time></trkpt>
        <trkpt lat="28.702401" lon="104.73149"><ele>611.70074</ele><time>2026-05-28T22:19:47.000Z</time></trkpt>
        <trkpt lat="28.702373" lon="104.731444"><ele>610.8013</ele><time>2026-05-28T22:19:51.000Z</time></trkpt>
        <trkpt lat="28.702354" lon="104.731396"><ele>611.2144</ele><time>2026-05-28T22:19:55.000Z</time></trkpt>
        <trkpt lat="28.702338" lon="104.731337"><ele>610.4905</ele><time>2026-05-28T22:20:00.000Z</time></trkpt>
        <trkpt lat="28.702316" lon="104.731283"><ele>610.78674</ele><time>2026-05-28T22:20:05.000Z</time></trkpt>
        <trkpt lat="28.702304" lon="104.731225"><ele>610.0706</ele><time>2026-05-28T22:20:10.000Z</time></trkpt>
        <trkpt lat="28.702288" lon="104.731165"><ele>609.9548</ele><time>2026-05-28T22:20:15.000Z</time></trkpt>
        <trkpt lat="28.702267" lon="104.731119"><ele>610.00824</ele><time>2026-05-28T22:20:19.000Z</time></trkpt>
        <trkpt lat="28.702258" lon="104.731069"><ele>610.2951</ele><time>2026-05-28T22:20:23.000Z</time></trkpt>
        <trkpt lat="28.702239" lon="104.731014"><ele>609.511</ele><time>2026-05-28T22:20:27.000Z</time></trkpt>
        <trkpt lat="28.702227" lon="104.730961"><ele>608.6648</ele><time>2026-05-28T22:20:31.000Z</time></trkpt>
        <trkpt lat="28.702206" lon="104.730916"><ele>608.68164</ele><time>2026-05-28T22:20:35.000Z</time></trkpt>
        <trkpt lat="28.702175" lon="104.730876"><ele>608.2451</ele><time>2026-05-28T22:20:40.000Z</time></trkpt>
        <trkpt lat="28.702149" lon="104.730826"><ele>608.28876</ele><time>2026-05-28T22:20:45.000Z</time></trkpt>
        <trkpt lat="28.702121" lon="104.730771"><ele>607.24097</ele><time>2026-05-28T22:20:50.000Z</time></trkpt>
        <trkpt lat="28.702097" lon="104.730714"><ele>605.77264</ele><time>2026-05-28T22:20:55.000Z</time></trkpt>
        <trkpt lat="28.702071" lon="104.730672"><ele>604.2995</ele><time>2026-05-28T22:20:59.000Z</time></trkpt>
        <trkpt lat="28.70204" lon="104.730627"><ele>603.6262</ele><time>2026-05-28T22:21:04.000Z</time></trkpt>
        <trkpt lat="28.702019" lon="104.730575"><ele>602.94025</ele><time>2026-05-28T22:21:09.000Z</time></trkpt>
        <trkpt lat="28.701997" lon="104.730522"><ele>602.95197</ele><time>2026-05-28T22:21:13.000Z</time></trkpt>
        <trkpt lat="28.701974" lon="104.730477"><ele>603.5248</ele><time>2026-05-28T22:21:17.000Z</time></trkpt>
        <trkpt lat="28.701947" lon="104.730421"><ele>605.02606</ele><time>2026-05-28T22:21:21.000Z</time></trkpt>
        <trkpt lat="28.701913" lon="104.730375"><ele>604.0637</ele><time>2026-05-28T22:21:26.000Z</time></trkpt>
        <trkpt lat="28.701886" lon="104.730326"><ele>603.47186</ele><time>2026-05-28T22:21:31.000Z</time></trkpt>
        <trkpt lat="28.701865" lon="104.730264"><ele>601.9157</ele><time>2026-05-28T22:21:37.000Z</time></trkpt>
        <trkpt lat="28.701848" lon="104.730209"><ele>601.6648</ele><time>2026-05-28T22:21:41.000Z</time></trkpt>
        <trkpt lat="28.701828" lon="104.730161"><ele>601.79944</ele><time>2026-05-28T22:21:45.000Z</time></trkpt>
        <trkpt lat="28.701793" lon="104.730127"><ele>601.1337</ele><time>2026-05-28T22:21:49.000Z</time></trkpt>
        <trkpt lat="28.701749" lon="104.730095"><ele>601.77716</ele><time>2026-05-28T22:21:54.000Z</time></trkpt>
        <trkpt lat="28.701709" lon="104.73006"><ele>601.5946</ele><time>2026-05-28T22:21:57.000Z</time></trkpt>
        <trkpt lat="28.701672" lon="104.730022"><ele>600.45013</ele><time>2026-05-28T22:22:01.000Z</time></trkpt>
        <trkpt lat="28.701634" lon="104.729975"><ele>599.1561</ele><time>2026-05-28T22:22:06.000Z</time></trkpt>
        <trkpt lat="28.701638" lon="104.729916"><ele>597.1018</ele><time>2026-05-28T22:22:10.000Z</time></trkpt>
        <trkpt lat="28.70162" lon="104.729863"><ele>597.1042</ele><time>2026-05-28T22:22:15.000Z</time></trkpt>
        <trkpt lat="28.701617" lon="104.729807"><ele>596.08545</ele><time>2026-05-28T22:22:19.000Z</time></trkpt>
        <trkpt lat="28.701617" lon="104.729754"><ele>595.7463</ele><time>2026-05-28T22:22:22.000Z</time></trkpt>
        <trkpt lat="28.701614" lon="104.729693"><ele>596.8204</ele><time>2026-05-28T22:22:26.000Z</time></trkpt>
        <trkpt lat="28.701612" lon="104.729631"><ele>596.988</ele><time>2026-05-28T22:22:30.000Z</time></trkpt>
        <trkpt lat="28.701609" lon="104.729579"><ele>597.1313</ele><time>2026-05-28T22:22:34.000Z</time></trkpt>
        <trkpt lat="28.701626" lon="104.729523"><ele>595.8313</ele><time>2026-05-28T22:22:41.000Z</time></trkpt>
        <trkpt lat="28.701632" lon="104.729466"><ele>595.5672</ele><time>2026-05-28T22:22:45.000Z</time></trkpt>
        <trkpt lat="28.701675" lon="104.729442"><ele>594.6487</ele><time>2026-05-28T22:22:49.000Z</time></trkpt>
        <trkpt lat="28.701719" lon="104.72946"><ele>595.9503</ele><time>2026-05-28T22:23:01.000Z</time></trkpt>
        <trkpt lat="28.701671" lon="104.729449"><ele>595.3302</ele><time>2026-05-28T22:23:16.000Z</time></trkpt>
        <trkpt lat="28.701637" lon="104.729409"><ele>594.95483</ele><time>2026-05-28T22:23:22.000Z</time></trkpt>
        <trkpt lat="28.701626" lon="104.729358"><ele>596.66016</ele><time>2026-05-28T22:23:27.000Z</time></trkpt>
        <trkpt lat="28.70163" lon="104.729306"><ele>597.14923</ele><time>2026-05-28T22:23:47.000Z</time></trkpt>
        <trkpt lat="28.701628" lon="104.729251"><ele>598.3054</ele><time>2026-05-28T22:23:54.000Z</time></trkpt>
        <trkpt lat="28.701627" lon="104.729194"><ele>599.56177</ele><time>2026-05-28T22:23:59.000Z</time></trkpt>
        <trkpt lat="28.70161" lon="104.729138"><ele>598.87646</ele><time>2026-05-28T22:24:04.000Z</time></trkpt>
        <trkpt lat="28.701576" lon="104.729089"><ele>598.9248</ele><time>2026-05-28T22:24:09.000Z</time></trkpt>
        <trkpt lat="28.701544" lon="104.729035"><ele>599.92474</ele><time>2026-05-28T22:24:14.000Z</time></trkpt>
        <trkpt lat="28.701516" lon="104.728991"><ele>599.7198</ele><time>2026-05-28T22:24:19.000Z</time></trkpt>
        <trkpt lat="28.701489" lon="104.728943"><ele>600.2611</ele><time>2026-05-28T22:24:23.000Z</time></trkpt>
        <trkpt lat="28.701456" lon="104.728908"><ele>602.2409</ele><time>2026-05-28T22:24:28.000Z</time></trkpt>
        <trkpt lat="28.701422" lon="104.728863"><ele>602.833</ele><time>2026-05-28T22:24:34.000Z</time></trkpt>
        <trkpt lat="28.701393" lon="104.728817"><ele>603.3802</ele><time>2026-05-28T22:24:41.000Z</time></trkpt>
        <trkpt lat="28.701355" lon="104.728772"><ele>604.1717</ele><time>2026-05-28T22:24:47.000Z</time></trkpt>
        <trkpt lat="28.701318" lon="104.728723"><ele>604.4887</ele><time>2026-05-28T22:24:52.000Z</time></trkpt>
        <trkpt lat="28.701286" lon="104.728676"><ele>604.8035</ele><time>2026-05-28T22:24:57.000Z</time></trkpt>
        <trkpt lat="28.701254" lon="104.728639"><ele>605.9274</ele><time>2026-05-28T22:25:02.000Z</time></trkpt>
        <trkpt lat="28.701211" lon="104.728605"><ele>606.47156</ele><time>2026-05-28T22:25:07.000Z</time></trkpt>
        <trkpt lat="28.701174" lon="104.728574"><ele>606.5785</ele><time>2026-05-28T22:25:11.000Z</time></trkpt>
        <trkpt lat="28.701133" lon="104.72855"><ele>607.2145</ele><time>2026-05-28T22:25:15.000Z</time></trkpt>
        <trkpt lat="28.701084" lon="104.728535"><ele>607.9587</ele><time>2026-05-28T22:25:20.000Z</time></trkpt>
        <trkpt lat="28.701034" lon="104.728525"><ele>608.92175</ele><time>2026-05-28T22:25:25.000Z</time></trkpt>
        <trkpt lat="28.700989" lon="104.728517"><ele>609.27563</ele><time>2026-05-28T22:25:29.000Z</time></trkpt>
        <trkpt lat="28.700944" lon="104.728495"><ele>610.0658</ele><time>2026-05-28T22:25:33.000Z</time></trkpt>
        <trkpt lat="28.700904" lon="104.728461"><ele>610.0968</ele><time>2026-05-28T22:25:37.000Z</time></trkpt>
        <trkpt lat="28.700873" lon="104.728421"><ele>610.56757</ele><time>2026-05-28T22:25:42.000Z</time></trkpt>
        <trkpt lat="28.700871" lon="104.728361"><ele>611.6077</ele><time>2026-05-28T22:25:49.000Z</time></trkpt>
        <trkpt lat="28.700883" lon="104.728304"><ele>610.80975</ele><time>2026-05-28T22:25:53.000Z</time></trkpt>
        <trkpt lat="28.700899" lon="104.728239"><ele>610.98987</ele><time>2026-05-28T22:25:59.000Z</time></trkpt>
        <trkpt lat="28.700912" lon="104.72818"><ele>611.1409</ele><time>2026-05-28T22:26:03.000Z</time></trkpt>
        <trkpt lat="28.700924" lon="104.728131"><ele>611.1599</ele><time>2026-05-28T22:26:06.000Z</time></trkpt>
        <trkpt lat="28.700958" lon="104.728088"><ele>611.37585</ele><time>2026-05-28T22:26:12.000Z</time></trkpt>
        <trkpt lat="28.701013" lon="104.728079"><ele>612.7506</ele><time>2026-05-28T22:26:18.000Z</time></trkpt>
        <trkpt lat="28.70106" lon="104.728083"><ele>612.29126</ele><time>2026-05-28T22:26:24.000Z</time></trkpt>
        <trkpt lat="28.701107" lon="104.728094"><ele>611.9444</ele><time>2026-05-28T22:26:31.000Z</time></trkpt>
        <trkpt lat="28.701154" lon="104.728098"><ele>612.5931</ele><time>2026-05-28T22:26:36.000Z</time></trkpt>
        <trkpt lat="28.701209" lon="104.728102"><ele>612.8471</ele><time>2026-05-28T22:26:42.000Z</time></trkpt>
        <trkpt lat="28.701258" lon="104.728097"><ele>613.5666</ele><time>2026-05-28T22:26:47.000Z</time></trkpt>
        <trkpt lat="28.70131" lon="104.728085"><ele>614.25476</ele><time>2026-05-28T22:26:52.000Z</time></trkpt>
        <trkpt lat="28.701356" lon="104.728076"><ele>614.4625</ele><time>2026-05-28T22:26:57.000Z</time></trkpt>
        <trkpt lat="28.701403" lon="104.728072"><ele>613.854</ele><time>2026-05-28T22:27:02.000Z</time></trkpt>
        <trkpt lat="28.701447" lon="104.728098"><ele>615.6257</ele><time>2026-05-28T22:27:06.000Z</time></trkpt>
        <trkpt lat="28.7015" lon="104.728115"><ele>617.66376</ele><time>2026-05-28T22:27:11.000Z</time></trkpt>
        <trkpt lat="28.701543" lon="104.728131"><ele>619.48737</ele><time>2026-05-28T22:27:15.000Z</time></trkpt>
        <trkpt lat="28.701575" lon="104.728168"><ele>619.91</ele><time>2026-05-28T22:27:19.000Z</time></trkpt>
        <trkpt lat="28.701615" lon="104.728199"><ele>620.86957</ele><time>2026-05-28T22:27:24.000Z</time></trkpt>
        <trkpt lat="28.701653" lon="104.728238"><ele>621.7264</ele><time>2026-05-28T22:27:29.000Z</time></trkpt>
        <trkpt lat="28.701695" lon="104.728272"><ele>621.08923</ele><time>2026-05-28T22:27:34.000Z</time></trkpt>
        <trkpt lat="28.701739" lon="104.728299"><ele>620.5054</ele><time>2026-05-28T22:27:39.000Z</time></trkpt>
        <trkpt lat="28.701777" lon="104.728332"><ele>619.9962</ele><time>2026-05-28T22:27:44.000Z</time></trkpt>
        <trkpt lat="28.701814" lon="104.728361"><ele>621.39343</ele><time>2026-05-28T22:27:50.000Z</time></trkpt>
        <trkpt lat="28.701865" lon="104.728394"><ele>620.2723</ele><time>2026-05-28T22:27:56.000Z</time></trkpt>
        <trkpt lat="28.701906" lon="104.728429"><ele>620.47705</ele><time>2026-05-28T22:28:01.000Z</time></trkpt>
        <trkpt lat="28.701938" lon="104.728467"><ele>621.5637</ele><time>2026-05-28T22:28:06.000Z</time></trkpt>
        <trkpt lat="28.701975" lon="104.728508"><ele>622.28156</ele><time>2026-05-28T22:28:10.000Z</time></trkpt>
        <trkpt lat="28.702003" lon="104.728555"><ele>621.8088</ele><time>2026-05-28T22:28:15.000Z</time></trkpt>
        <trkpt lat="28.702041" lon="104.728592"><ele>620.8426</ele><time>2026-05-28T22:28:21.000Z</time></trkpt>
        <trkpt lat="28.702083" lon="104.728625"><ele>621.72217</ele><time>2026-05-28T22:28:26.000Z</time></trkpt>
        <trkpt lat="28.702135" lon="104.728645"><ele>622.22327</ele><time>2026-05-28T22:28:31.000Z</time></trkpt>
        <trkpt lat="28.702181" lon="104.728616"><ele>621.2744</ele><time>2026-05-28T22:28:36.000Z</time></trkpt>
        <trkpt lat="28.702209" lon="104.728571"><ele>621.7071</ele><time>2026-05-28T22:28:40.000Z</time></trkpt>
        <trkpt lat="28.702214" lon="104.728514"><ele>621.3158</ele><time>2026-05-28T22:28:45.000Z</time></trkpt>
        <trkpt lat="28.702199" lon="104.728465"><ele>621.2933</ele><time>2026-05-28T22:28:49.000Z</time></trkpt>
        <trkpt lat="28.702171" lon="104.728422"><ele>622.5101</ele><time>2026-05-28T22:28:53.000Z</time></trkpt>
        <trkpt lat="28.702135" lon="104.728387"><ele>622.10406</ele><time>2026-05-28T22:28:58.000Z</time></trkpt>
        <trkpt lat="28.702098" lon="104.728354"><ele>622.98694</ele><time>2026-05-28T22:29:03.000Z</time></trkpt>
        <trkpt lat="28.702076" lon="104.728309"><ele>623.4602</ele><time>2026-05-28T22:29:07.000Z</time></trkpt>
        <trkpt lat="28.702043" lon="104.72827"><ele>624.2854</ele><time>2026-05-28T22:29:12.000Z</time></trkpt>
        <trkpt lat="28.702011" lon="104.728225"><ele>624.94745</ele><time>2026-05-28T22:29:17.000Z</time></trkpt>
        <trkpt lat="28.701977" lon="104.728181"><ele>626.56757</ele><time>2026-05-28T22:29:22.000Z</time></trkpt>
        <trkpt lat="28.701944" lon="104.728133"><ele>626.463</ele><time>2026-05-28T22:29:27.000Z</time></trkpt>
        <trkpt lat="28.7019" lon="104.728097"><ele>626.0873</ele><time>2026-05-28T22:29:32.000Z</time></trkpt>
        <trkpt lat="28.701858" lon="104.728059"><ele>628.1544</ele><time>2026-05-28T22:29:37.000Z</time></trkpt>
        <trkpt lat="28.701821" lon="104.728019"><ele>627.11945</ele><time>2026-05-28T22:29:42.000Z</time></trkpt>
        <trkpt lat="28.70178" lon="104.727993"><ele>627.7314</ele><time>2026-05-28T22:29:47.000Z</time></trkpt>
        <trkpt lat="28.701751" lon="104.727954"><ele>627.59485</ele><time>2026-05-28T22:29:52.000Z</time></trkpt>
        <trkpt lat="28.701712" lon="104.727912"><ele>628.9172</ele><time>2026-05-28T22:29:57.000Z</time></trkpt>
        <trkpt lat="28.701676" lon="104.72787"><ele>629.1977</ele><time>2026-05-28T22:30:02.000Z</time></trkpt>
        <trkpt lat="28.701646" lon="104.727827"><ele>630.5341</ele><time>2026-05-28T22:30:07.000Z</time></trkpt>
        <trkpt lat="28.70162" lon="104.727784"><ele>630.3232</ele><time>2026-05-28T22:30:12.000Z</time></trkpt>
        <trkpt lat="28.70159" lon="104.727731"><ele>630.86237</ele><time>2026-05-28T22:30:18.000Z</time></trkpt>
        <trkpt lat="28.701557" lon="104.727686"><ele>630.60547</ele><time>2026-05-28T22:30:24.000Z</time></trkpt>
        <trkpt lat="28.701531" lon="104.727632"><ele>630.9273</ele><time>2026-05-28T22:30:30.000Z</time></trkpt>
        <trkpt lat="28.701504" lon="104.727587"><ele>631.9558</ele><time>2026-05-28T22:30:35.000Z</time></trkpt>
        <trkpt lat="28.701473" lon="104.72754"><ele>632.741</ele><time>2026-05-28T22:30:41.000Z</time></trkpt>
        <trkpt lat="28.701449" lon="104.727495"><ele>633.8376</ele><time>2026-05-28T22:30:46.000Z</time></trkpt>
        <trkpt lat="28.701415" lon="104.727456"><ele>634.36584</ele><time>2026-05-28T22:30:51.000Z</time></trkpt>
        <trkpt lat="28.701377" lon="104.727409"><ele>634.74023</ele><time>2026-05-28T22:30:56.000Z</time></trkpt>
        <trkpt lat="28.701339" lon="104.727362"><ele>637.35535</ele><time>2026-05-28T22:31:02.000Z</time></trkpt>
        <trkpt lat="28.701329" lon="104.727299"><ele>636.98804</ele><time>2026-05-28T22:31:07.000Z</time></trkpt>
        <trkpt lat="28.701348" lon="104.727241"><ele>636.5907</ele><time>2026-05-28T22:31:11.000Z</time></trkpt>
        <trkpt lat="28.701364" lon="104.727188"><ele>635.4555</ele><time>2026-05-28T22:31:16.000Z</time></trkpt>
        <trkpt lat="28.701385" lon="104.727134"><ele>635.6448</ele><time>2026-05-28T22:31:21.000Z</time></trkpt>
        <trkpt lat="28.701403" lon="104.727085"><ele>635.9689</ele><time>2026-05-28T22:31:25.000Z</time></trkpt>
        <trkpt lat="28.701421" lon="104.727038"><ele>636.511</ele><time>2026-05-28T22:31:29.000Z</time></trkpt>
        <trkpt lat="28.701421" lon="104.726982"><ele>637.11707</ele><time>2026-05-28T22:31:34.000Z</time></trkpt>
        <trkpt lat="28.701408" lon="104.72693"><ele>637.2926</ele><time>2026-05-28T22:31:39.000Z</time></trkpt>
        <trkpt lat="28.701395" lon="104.72687"><ele>638.94135</ele><time>2026-05-28T22:31:44.000Z</time></trkpt>
        <trkpt lat="28.701372" lon="104.72682"><ele>640.81647</ele><time>2026-05-28T22:31:50.000Z</time></trkpt>
        <trkpt lat="28.701346" lon="104.726764"><ele>643.245</ele><time>2026-05-28T22:31:55.000Z</time></trkpt>
        <trkpt lat="28.701334" lon="104.726706"><ele>644.6293</ele><time>2026-05-28T22:32:00.000Z</time></trkpt>
        <trkpt lat="28.701333" lon="104.726653"><ele>647.093</ele><time>2026-05-28T22:32:05.000Z</time></trkpt>
        <trkpt lat="28.701328" lon="104.726601"><ele>647.26776</ele><time>2026-05-28T22:32:10.000Z</time></trkpt>
        <trkpt lat="28.701323" lon="104.72655"><ele>649.09766</ele><time>2026-05-28T22:32:14.000Z</time></trkpt>
        <trkpt lat="28.701315" lon="104.726494"><ele>649.6119</ele><time>2026-05-28T22:32:21.000Z</time></trkpt>
        <trkpt lat="28.701342" lon="104.72644"><ele>650.1521</ele><time>2026-05-28T22:32:28.000Z</time></trkpt>
        <trkpt lat="28.701384" lon="104.726405"><ele>651.5843</ele><time>2026-05-28T22:32:34.000Z</time></trkpt>
        <trkpt lat="28.701438" lon="104.726374"><ele>651.25104</ele><time>2026-05-28T22:32:39.000Z</time></trkpt>
        <trkpt lat="28.701484" lon="104.726371"><ele>651.8279</ele><time>2026-05-28T22:32:42.000Z</time></trkpt>
        <trkpt lat="28.701534" lon="104.72637"><ele>651.42175</ele><time>2026-05-28T22:32:46.000Z</time></trkpt>
        <trkpt lat="28.701584" lon="104.72636"><ele>650.34784</ele><time>2026-05-28T22:32:50.000Z</time></trkpt>
        <trkpt lat="28.701629" lon="104.726352"><ele>649.1439</ele><time>2026-05-28T22:32:54.000Z</time></trkpt>
        <trkpt lat="28.70168" lon="104.726339"><ele>648.6561</ele><time>2026-05-28T22:32:59.000Z</time></trkpt>
        <trkpt lat="28.701728" lon="104.726335"><ele>647.484</ele><time>2026-05-28T22:33:03.000Z</time></trkpt>
        <trkpt lat="28.701776" lon="104.726328"><ele>647.1094</ele><time>2026-05-28T22:33:07.000Z</time></trkpt>
        <trkpt lat="28.701821" lon="104.726334"><ele>646.21606</ele><time>2026-05-28T22:33:11.000Z</time></trkpt>
        <trkpt lat="28.701865" lon="104.726352"><ele>644.81757</ele><time>2026-05-28T22:33:15.000Z</time></trkpt>
        <trkpt lat="28.701911" lon="104.726359"><ele>644.85614</ele><time>2026-05-28T22:33:18.000Z</time></trkpt>
        <trkpt lat="28.701956" lon="104.726364"><ele>642.7406</ele><time>2026-05-28T22:33:22.000Z</time></trkpt>
        <trkpt lat="28.702001" lon="104.72639"><ele>641.59753</ele><time>2026-05-28T22:33:28.000Z</time></trkpt>
        <trkpt lat="28.702051" lon="104.726401"><ele>640.55035</ele><time>2026-05-28T22:33:34.000Z</time></trkpt>
        <trkpt lat="28.702101" lon="104.726386"><ele>639.47235</ele><time>2026-05-28T22:33:40.000Z</time></trkpt>
        <trkpt lat="28.702147" lon="104.726348"><ele>638.331</ele><time>2026-05-28T22:33:45.000Z</time></trkpt>
        <trkpt lat="28.70218" lon="104.7263"><ele>638.1815</ele><time>2026-05-28T22:33:51.000Z</time></trkpt>
        <trkpt lat="28.702193" lon="104.72625"><ele>638.5237</ele><time>2026-05-28T22:33:56.000Z</time></trkpt>
        <trkpt lat="28.702193" lon="104.726192"><ele>639.61804</ele><time>2026-05-28T22:34:01.000Z</time></trkpt>
        <trkpt lat="28.70218" lon="104.726134"><ele>640.27124</ele><time>2026-05-28T22:34:07.000Z</time></trkpt>
        <trkpt lat="28.702165" lon="104.726075"><ele>640.9989</ele><time>2026-05-28T22:34:12.000Z</time></trkpt>
        <trkpt lat="28.702168" lon="104.726021"><ele>641.46924</ele><time>2026-05-28T22:34:16.000Z</time></trkpt>
        <trkpt lat="28.702154" lon="104.725969"><ele>641.5264</ele><time>2026-05-28T22:34:20.000Z</time></trkpt>
        <trkpt lat="28.70215" lon="104.725907"><ele>641.80743</ele><time>2026-05-28T22:34:24.000Z</time></trkpt>
        <trkpt lat="28.702148" lon="104.725847"><ele>643.25183</ele><time>2026-05-28T22:34:29.000Z</time></trkpt>
        <trkpt lat="28.702144" lon="104.72579"><ele>643.95447</ele><time>2026-05-28T22:34:34.000Z</time></trkpt>
        <trkpt lat="28.702139" lon="104.725733"><ele>644.3842</ele><time>2026-05-28T22:34:39.000Z</time></trkpt>
        <trkpt lat="28.702141" lon="104.725681"><ele>645.0058</ele><time>2026-05-28T22:34:44.000Z</time></trkpt>
        <trkpt lat="28.702121" lon="104.725626"><ele>646.29333</ele><time>2026-05-28T22:34:49.000Z</time></trkpt>
        <trkpt lat="28.702112" lon="104.725571"><ele>646.7076</ele><time>2026-05-28T22:34:54.000Z</time></trkpt>
        <trkpt lat="28.7021" lon="104.72551"><ele>646.9958</ele><time>2026-05-28T22:34:59.000Z</time></trkpt>
        <trkpt lat="28.702085" lon="104.72546"><ele>647.7755</ele><time>2026-05-28T22:35:03.000Z</time></trkpt>
        <trkpt lat="28.702065" lon="104.725413"><ele>648.2834</ele><time>2026-05-28T22:35:07.000Z</time></trkpt>
        <trkpt lat="28.702043" lon="104.725363"><ele>648.1177</ele><time>2026-05-28T22:35:11.000Z</time></trkpt>
        <trkpt lat="28.70203" lon="104.725307"><ele>647.1627</ele><time>2026-05-28T22:35:15.000Z</time></trkpt>
        <trkpt lat="28.70202" lon="104.725246"><ele>647.1813</ele><time>2026-05-28T22:35:20.000Z</time></trkpt>
        <trkpt lat="28.701989" lon="104.725204"><ele>649.04956</ele><time>2026-05-28T22:35:25.000Z</time></trkpt>
        <trkpt lat="28.701962" lon="104.725163"><ele>649.66046</ele><time>2026-05-28T22:35:29.000Z</time></trkpt>
        <trkpt lat="28.701944" lon="104.725106"><ele>649.52405</ele><time>2026-05-28T22:35:34.000Z</time></trkpt>
        <trkpt lat="28.701939" lon="104.725043"><ele>649.8049</ele><time>2026-05-28T22:35:39.000Z</time></trkpt>
        <trkpt lat="28.701943" lon="104.724991"><ele>649.7689</ele><time>2026-05-28T22:35:43.000Z</time></trkpt>
        <trkpt lat="28.701902" lon="104.724954"><ele>650.8813</ele><time>2026-05-28T22:35:49.000Z</time></trkpt>
        <trkpt lat="28.701853" lon="104.724949"><ele>653.3152</ele><time>2026-05-28T22:35:54.000Z</time></trkpt>
        <trkpt lat="28.701804" lon="104.724942"><ele>654.42645</ele><time>2026-05-28T22:36:00.000Z</time></trkpt>
        <trkpt lat="28.701761" lon="104.724967"><ele>654.8462</ele><time>2026-05-28T22:36:06.000Z</time></trkpt>
        <trkpt lat="28.701709" lon="104.724983"><ele>655.65564</ele><time>2026-05-28T22:36:17.000Z</time></trkpt>
        <trkpt lat="28.701664" lon="104.724999"><ele>656.5785</ele><time>2026-05-28T22:36:22.000Z</time></trkpt>
        <trkpt lat="28.701616" lon="104.725016"><ele>658.79614</ele><time>2026-05-28T22:36:28.000Z</time></trkpt>
        <trkpt lat="28.701566" lon="104.725035"><ele>660.27374</ele><time>2026-05-28T22:36:36.000Z</time></trkpt>
        <trkpt lat="28.701526" lon="104.725062"><ele>660.0055</ele><time>2026-05-28T22:36:43.000Z</time></trkpt>
        <trkpt lat="28.701481" lon="104.725089"><ele>661.41034</ele><time>2026-05-28T22:36:47.000Z</time></trkpt>
        <trkpt lat="28.701435" lon="104.725111"><ele>665.01953</ele><time>2026-05-28T22:36:53.000Z</time></trkpt>
        <trkpt lat="28.701389" lon="104.725125"><ele>664.29956</ele><time>2026-05-28T22:37:01.000Z</time></trkpt>
        <trkpt lat="28.701337" lon="104.725153"><ele>665.7288</ele><time>2026-05-28T22:37:08.000Z</time></trkpt>
        <trkpt lat="28.701288" lon="104.725175"><ele>664.6417</ele><time>2026-05-28T22:37:14.000Z</time></trkpt>
        <trkpt lat="28.701244" lon="104.725201"><ele>665.86584</ele><time>2026-05-28T22:37:21.000Z</time></trkpt>
        <trkpt lat="28.701202" lon="104.725225"><ele>667.46686</ele><time>2026-05-28T22:37:27.000Z</time></trkpt>
        <trkpt lat="28.701159" lon="104.725247"><ele>668.8882</ele><time>2026-05-28T22:37:32.000Z</time></trkpt>
        <trkpt lat="28.701109" lon="104.725246"><ele>668.80316</ele><time>2026-05-28T22:37:38.000Z</time></trkpt>
        <trkpt lat="28.701078" lon="104.725286"><ele>664.1112</ele><time>2026-05-28T22:38:07.000Z</time></trkpt>
        <trkpt lat="28.701034" lon="104.725314"><ele>668.93756</ele><time>2026-05-28T22:38:56.000Z</time></trkpt>
        <trkpt lat="28.701013" lon="104.725362"><ele>668.08075</ele><time>2026-05-28T22:39:00.000Z</time></trkpt>
        <trkpt lat="28.701006" lon="104.725413"><ele>667.7109</ele><time>2026-05-28T22:39:05.000Z</time></trkpt>
        <trkpt lat="28.701013" lon="104.725464"><ele>666.8556</ele><time>2026-05-28T22:39:10.000Z</time></trkpt>
        <trkpt lat="28.701015" lon="104.725516"><ele>666.16724</ele><time>2026-05-28T22:39:15.000Z</time></trkpt>
        <trkpt lat="28.701021" lon="104.725575"><ele>666.2349</ele><time>2026-05-28T22:39:21.000Z</time></trkpt>
        <trkpt lat="28.701035" lon="104.725635"><ele>665.69196</ele><time>2026-05-28T22:39:26.000Z</time></trkpt>
        <trkpt lat="28.701029" lon="104.725686"><ele>666.05176</ele><time>2026-05-28T22:39:31.000Z</time></trkpt>
        <trkpt lat="28.701024" lon="104.725738"><ele>666.1279</ele><time>2026-05-28T22:39:36.000Z</time></trkpt>
        <trkpt lat="28.701015" lon="104.725792"><ele>665.3684</ele><time>2026-05-28T22:39:42.000Z</time></trkpt>
        <trkpt lat="28.700996" lon="104.725842"><ele>665.33997</ele><time>2026-05-28T22:39:47.000Z</time></trkpt>
        <trkpt lat="28.700963" lon="104.725891"><ele>665.739</ele><time>2026-05-28T22:39:53.000Z</time></trkpt>
        <trkpt lat="28.700943" lon="104.725941"><ele>667.5442</ele><time>2026-05-28T22:40:00.000Z</time></trkpt>
        <trkpt lat="28.700932" lon="104.725994"><ele>668.5685</ele><time>2026-05-28T22:40:11.000Z</time></trkpt>
        <trkpt lat="28.700887" lon="104.726027"><ele>669.40295</ele><time>2026-05-28T22:40:18.000Z</time></trkpt>
        <trkpt lat="28.700838" lon="104.726032"><ele>669.1972</ele><time>2026-05-28T22:40:28.000Z</time></trkpt>
        <trkpt lat="28.700794" lon="104.726052"><ele>669.5477</ele><time>2026-05-28T22:40:37.000Z</time></trkpt>
        <trkpt lat="28.700746" lon="104.726062"><ele>669.7982</ele><time>2026-05-28T22:40:51.000Z</time></trkpt>
        <trkpt lat="28.700765" lon="104.726006"><ele>669.58405</ele><time>2026-05-28T22:41:10.000Z</time></trkpt>
        <trkpt lat="28.700792" lon="104.725964"><ele>670.15356</ele><time>2026-05-28T22:41:15.000Z</time></trkpt>
        <trkpt lat="28.700799" lon="104.726021"><ele>669.08057</ele><time>2026-05-28T22:41:32.000Z</time></trkpt>
        <trkpt lat="28.700771" lon="104.726069"><ele>669.3116</ele><time>2026-05-28T22:41:39.000Z</time></trkpt>
        <trkpt lat="28.700824" lon="104.726068"><ele>670.6364</ele><time>2026-05-28T22:41:47.000Z</time></trkpt>
        <trkpt lat="28.700812" lon="104.726118"><ele>670.2155</ele><time>2026-05-28T22:41:56.000Z</time></trkpt>
        <trkpt lat="28.700831" lon="104.726068"><ele>669.53204</ele><time>2026-05-28T22:42:11.000Z</time></trkpt>
        <trkpt lat="28.700831" lon="104.726017"><ele>669.60065</ele><time>2026-05-28T22:42:17.000Z</time></trkpt>
        <trkpt lat="28.700811" lon="104.725967"><ele>668.62274</ele><time>2026-05-28T22:42:43.000Z</time></trkpt>
        <trkpt lat="28.700799" lon="104.725913"><ele>668.7424</ele><time>2026-05-28T22:42:49.000Z</time></trkpt>
        <trkpt lat="28.700786" lon="104.725847"><ele>667.6134</ele><time>2026-05-28T22:42:54.000Z</time></trkpt>
        <trkpt lat="28.700767" lon="104.725794"><ele>668.664</ele><time>2026-05-28T22:42:58.000Z</time></trkpt>
        <trkpt lat="28.700748" lon="104.725736"><ele>667.8981</ele><time>2026-05-28T22:43:03.000Z</time></trkpt>
        <trkpt lat="28.700732" lon="104.725688"><ele>668.76025</ele><time>2026-05-28T22:43:06.000Z</time></trkpt>
        <trkpt lat="28.700705" lon="104.72564"><ele>670.27045</ele><time>2026-05-28T22:43:10.000Z</time></trkpt>
        <trkpt lat="28.700691" lon="104.725581"><ele>670.45557</ele><time>2026-05-28T22:43:15.000Z</time></trkpt>
        <trkpt lat="28.700675" lon="104.725528"><ele>669.96533</ele><time>2026-05-28T22:43:19.000Z</time></trkpt>
        <trkpt lat="28.700673" lon="104.72547"><ele>669.4572</ele><time>2026-05-28T22:43:23.000Z</time></trkpt>
        <trkpt lat="28.700654" lon="104.725423"><ele>669.0865</ele><time>2026-05-28T22:43:27.000Z</time></trkpt>
        <trkpt lat="28.700618" lon="104.725382"><ele>669.29626</ele><time>2026-05-28T22:43:32.000Z</time></trkpt>
        <trkpt lat="28.70059" lon="104.725342"><ele>668.0247</ele><time>2026-05-28T22:43:39.000Z</time></trkpt>
        <trkpt lat="28.700552" lon="104.7253"><ele>665.92114</ele><time>2026-05-28T22:43:44.000Z</time></trkpt>
        <trkpt lat="28.700529" lon="104.725245"><ele>664.7129</ele><time>2026-05-28T22:43:49.000Z</time></trkpt>
        <trkpt lat="28.700494" lon="104.725196"><ele>664.3097</ele><time>2026-05-28T22:43:55.000Z</time></trkpt>
        <trkpt lat="28.700458" lon="104.725164"><ele>662.7172</ele><time>2026-05-28T22:43:59.000Z</time></trkpt>
        <trkpt lat="28.700404" lon="104.725138"><ele>663.69366</ele><time>2026-05-28T22:44:03.000Z</time></trkpt>
        <trkpt lat="28.700368" lon="104.725097"><ele>662.05255</ele><time>2026-05-28T22:44:07.000Z</time></trkpt>
        <trkpt lat="28.700356" lon="104.725047"><ele>660.0626</ele><time>2026-05-28T22:44:11.000Z</time></trkpt>
        <trkpt lat="28.700338" lon="104.725"><ele>659.90283</ele><time>2026-05-28T22:44:15.000Z</time></trkpt>
        <trkpt lat="28.700332" lon="104.724948"><ele>658.3629</ele><time>2026-05-28T22:44:20.000Z</time></trkpt>
        <trkpt lat="28.700316" lon="104.724889"><ele>656.33203</ele><time>2026-05-28T22:44:25.000Z</time></trkpt>
        <trkpt lat="28.700325" lon="104.724826"><ele>655.2053</ele><time>2026-05-28T22:44:31.000Z</time></trkpt>
        <trkpt lat="28.700329" lon="104.724761"><ele>654.3624</ele><time>2026-05-28T22:44:41.000Z</time></trkpt>
        <trkpt lat="28.700292" lon="104.724731"><ele>654.0506</ele><time>2026-05-28T22:44:47.000Z</time></trkpt>
        <trkpt lat="28.700328" lon="104.724696"><ele>652.3396</ele><time>2026-05-28T22:44:55.000Z</time></trkpt>
        <trkpt lat="28.700277" lon="104.724696"><ele>651.6576</ele><time>2026-05-28T22:45:04.000Z</time></trkpt>
        <trkpt lat="28.70023" lon="104.724661"><ele>647.1058</ele><time>2026-05-28T22:45:17.000Z</time></trkpt>
        <trkpt lat="28.700223" lon="104.72461"><ele>638.887</ele><time>2026-05-28T22:45:38.000Z</time></trkpt>
        <trkpt lat="28.700168" lon="104.724588"><ele>635.7964</ele><time>2026-05-28T22:45:48.000Z</time></trkpt>
        <trkpt lat="28.700179" lon="104.724536"><ele>633.8928</ele><time>2026-05-28T22:45:54.000Z</time></trkpt>
        <trkpt lat="28.700182" lon="104.724472"><ele>630.96106</ele><time>2026-05-28T22:46:07.000Z</time></trkpt>
        <trkpt lat="28.700228" lon="104.724444"><ele>627.61694</ele><time>2026-05-28T22:46:15.000Z</time></trkpt>
        <trkpt lat="28.70024" lon="104.724395"><ele>626.03986</ele><time>2026-05-28T22:46:31.000Z</time></trkpt>
        <trkpt lat="28.700274" lon="104.724359"><ele>624.8064</ele><time>2026-05-28T22:46:45.000Z</time></trkpt>
        <trkpt lat="28.700292" lon="104.724306"><ele>624.45605</ele><time>2026-05-28T22:46:51.000Z</time></trkpt>
        <trkpt lat="28.700316" lon="104.724249"><ele>620.82935</ele><time>2026-05-28T22:47:01.000Z</time></trkpt>
        <trkpt lat="28.700294" lon="104.724203"><ele>617.81915</ele><time>2026-05-28T22:47:14.000Z</time></trkpt>
        <trkpt lat="28.700303" lon="104.724144"><ele>617.5558</ele><time>2026-05-28T22:47:20.000Z</time></trkpt>
        <trkpt lat="28.700296" lon="104.724093"><ele>614.0645</ele><time>2026-05-28T22:47:30.000Z</time></trkpt>
        <trkpt lat="28.700281" lon="104.724033"><ele>612.8395</ele><time>2026-05-28T22:47:39.000Z</time></trkpt>
        <trkpt lat="28.700266" lon="104.72398"><ele>610.9199</ele><time>2026-05-28T22:47:44.000Z</time></trkpt>
        <trkpt lat="28.700214" lon="104.723954"><ele>609.70306</ele><time>2026-05-28T22:47:47.000Z</time></trkpt>
        <trkpt lat="28.700207" lon="104.723901"><ele>610.2972</ele><time>2026-05-28T22:47:51.000Z</time></trkpt>
        <trkpt lat="28.700191" lon="104.723842"><ele>610.37897</ele><time>2026-05-28T22:47:57.000Z</time></trkpt>
        <trkpt lat="28.700158" lon="104.723803"><ele>607.93756</ele><time>2026-05-28T22:48:09.000Z</time></trkpt>
        <trkpt lat="28.70011" lon="104.72377"><ele>605.2344</ele><time>2026-05-28T22:48:21.000Z</time></trkpt>
        <trkpt lat="28.700075" lon="104.723718"><ele>605.8522</ele><time>2026-05-28T22:48:25.000Z</time></trkpt>
        <trkpt lat="28.700062" lon="104.723666"><ele>607.00806</ele><time>2026-05-28T22:48:29.000Z</time></trkpt>
        <trkpt lat="28.700053" lon="104.723614"><ele>607.02155</ele><time>2026-05-28T22:48:35.000Z</time></trkpt>
        <trkpt lat="28.700021" lon="104.723574"><ele>606.78534</ele><time>2026-05-28T22:48:40.000Z</time></trkpt>
        <trkpt lat="28.700001" lon="104.723525"><ele>606.79156</ele><time>2026-05-28T22:48:44.000Z</time></trkpt>
        <trkpt lat="28.699987" lon="104.723467"><ele>607.2202</ele><time>2026-05-28T22:48:48.000Z</time></trkpt>
        <trkpt lat="28.699972" lon="104.723416"><ele>605.7394</ele><time>2026-05-28T22:48:52.000Z</time></trkpt>
        <trkpt lat="28.699962" lon="104.723359"><ele>605.94965</ele><time>2026-05-28T22:48:57.000Z</time></trkpt>
        <trkpt lat="28.699946" lon="104.72331"><ele>605.51776</ele><time>2026-05-28T22:49:01.000Z</time></trkpt>
        <trkpt lat="28.699924" lon="104.723264"><ele>604.5916</ele><time>2026-05-28T22:49:05.000Z</time></trkpt>
        <trkpt lat="28.699911" lon="104.723214"><ele>603.59796</ele><time>2026-05-28T22:49:10.000Z</time></trkpt>
        <trkpt lat="28.699896" lon="104.723161"><ele>602.2188</ele><time>2026-05-28T22:49:15.000Z</time></trkpt>
        <trkpt lat="28.69985" lon="104.723114"><ele>599.716</ele><time>2026-05-28T22:49:21.000Z</time></trkpt>
        <trkpt lat="28.699832" lon="104.723065"><ele>597.997</ele><time>2026-05-28T22:49:28.000Z</time></trkpt>
        <trkpt lat="28.699807" lon="104.723022"><ele>596.72217</ele><time>2026-05-28T22:49:36.000Z</time></trkpt>
        <trkpt lat="28.699787" lon="104.72297"><ele>596.4016</ele><time>2026-05-28T22:49:41.000Z</time></trkpt>
        <trkpt lat="28.699772" lon="104.722921"><ele>595.0664</ele><time>2026-05-28T22:49:48.000Z</time></trkpt>
        <trkpt lat="28.699746" lon="104.722875"><ele>594.3825</ele><time>2026-05-28T22:49:53.000Z</time></trkpt>
        <trkpt lat="28.699704" lon="104.722849"><ele>594.1616</ele><time>2026-05-28T22:50:04.000Z</time></trkpt>
        <trkpt lat="28.699682" lon="104.722804"><ele>590.797</ele><time>2026-05-28T22:50:11.000Z</time></trkpt>
        <trkpt lat="28.699653" lon="104.722751"><ele>587.0696</ele><time>2026-05-28T22:50:18.000Z</time></trkpt>
        <trkpt lat="28.699641" lon="104.722699"><ele>584.31415</ele><time>2026-05-28T22:50:24.000Z</time></trkpt>
        <trkpt lat="28.699613" lon="104.722643"><ele>586.0515</ele><time>2026-05-28T22:50:29.000Z</time></trkpt>
        <trkpt lat="28.699613" lon="104.722592"><ele>586.2506</ele><time>2026-05-28T22:50:33.000Z</time></trkpt>
        <trkpt lat="28.699571" lon="104.722565"><ele>586.3215</ele><time>2026-05-28T22:50:37.000Z</time></trkpt>
        <trkpt lat="28.699541" lon="104.722524"><ele>585.3834</ele><time>2026-05-28T22:50:41.000Z</time></trkpt>
        <trkpt lat="28.699522" lon="104.722477"><ele>584.50916</ele><time>2026-05-28T22:50:46.000Z</time></trkpt>
        <trkpt lat="28.699505" lon="104.722423"><ele>583.9037</ele><time>2026-05-28T22:50:50.000Z</time></trkpt>
        <trkpt lat="28.699501" lon="104.722367"><ele>581.0295</ele><time>2026-05-28T22:50:54.000Z</time></trkpt>
        <trkpt lat="28.6995" lon="104.722305"><ele>580.4211</ele><time>2026-05-28T22:50:58.000Z</time></trkpt>
        <trkpt lat="28.699473" lon="104.72225"><ele>580.04755</ele><time>2026-05-28T22:51:03.000Z</time></trkpt>
        <trkpt lat="28.699448" lon="104.722207"><ele>579.9455</ele><time>2026-05-28T22:51:07.000Z</time></trkpt>
        <trkpt lat="28.699437" lon="104.722145"><ele>577.7311</ele><time>2026-05-28T22:51:13.000Z</time></trkpt>
        <trkpt lat="28.699437" lon="104.722087"><ele>575.4973</ele><time>2026-05-28T22:51:19.000Z</time></trkpt>
        <trkpt lat="28.699438" lon="104.722035"><ele>574.3551</ele><time>2026-05-28T22:51:24.000Z</time></trkpt>
        <trkpt lat="28.699435" lon="104.721983"><ele>571.5104</ele><time>2026-05-28T22:51:29.000Z</time></trkpt>
        <trkpt lat="28.699438" lon="104.721926"><ele>569.3574</ele><time>2026-05-28T22:51:36.000Z</time></trkpt>
        <trkpt lat="28.699441" lon="104.721871"><ele>566.2309</ele><time>2026-05-28T22:51:44.000Z</time></trkpt>
        <trkpt lat="28.699424" lon="104.721819"><ele>564.658</ele><time>2026-05-28T22:51:53.000Z</time></trkpt>
        <trkpt lat="28.699391" lon="104.721784"><ele>561.50464</ele><time>2026-05-28T22:52:02.000Z</time></trkpt>
        <trkpt lat="28.699366" lon="104.72174"><ele>559.81793</ele><time>2026-05-28T22:52:10.000Z</time></trkpt>
        <trkpt lat="28.699368" lon="104.721686"><ele>558.73956</ele><time>2026-05-28T22:52:26.000Z</time></trkpt>
        <trkpt lat="28.699365" lon="104.721628"><ele>556.7465</ele><time>2026-05-28T22:52:49.000Z</time></trkpt>
        <trkpt lat="28.699315" lon="104.721622"><ele>554.9801</ele><time>2026-05-28T22:53:53.000Z</time></trkpt>
        <trkpt lat="28.699281" lon="104.721656"><ele>555.2514</ele><time>2026-05-28T22:54:03.000Z</time></trkpt>
        <trkpt lat="28.69926" lon="104.721703"><ele>555.1721</ele><time>2026-05-28T22:54:21.000Z</time></trkpt>
        <trkpt lat="28.699213" lon="104.7217"><ele>557.40027</ele><time>2026-05-28T22:54:51.000Z</time></trkpt>
        <trkpt lat="28.699187" lon="104.721657"><ele>555.79645</ele><time>2026-05-28T22:55:18.000Z</time></trkpt>
        <trkpt lat="28.699214" lon="104.721613"><ele>553.43146</ele><time>2026-05-28T22:56:19.000Z</time></trkpt>
        <trkpt lat="28.699162" lon="104.721593"><ele>552.672</ele><time>2026-05-28T22:56:31.000Z</time></trkpt>
        <trkpt lat="28.699063" lon="104.721563"><ele>551.6879</ele><time>2026-05-28T22:56:39.000Z</time></trkpt>
        <trkpt lat="28.699014" lon="104.721528"><ele>549.4337</ele><time>2026-05-28T22:56:44.000Z</time></trkpt>
        <trkpt lat="28.698973" lon="104.721498"><ele>545.5276</ele><time>2026-05-28T22:56:53.000Z</time></trkpt>
        <trkpt lat="28.698887" lon="104.721434"><ele>544.6834</ele><time>2026-05-28T22:57:02.000Z</time></trkpt>
        <trkpt lat="28.698839" lon="104.721414"><ele>543.68317</ele><time>2026-05-28T22:57:08.000Z</time></trkpt>
        <trkpt lat="28.698787" lon="104.721402"><ele>544.2457</ele><time>2026-05-28T22:57:14.000Z</time></trkpt>
        <trkpt lat="28.698739" lon="104.721378"><ele>544.30225</ele><time>2026-05-28T22:57:20.000Z</time></trkpt>
        <trkpt lat="28.698693" lon="104.721353"><ele>543.2022</ele><time>2026-05-28T22:57:25.000Z</time></trkpt>
        <trkpt lat="28.69866" lon="104.721313"><ele>542.7447</ele><time>2026-05-28T22:57:32.000Z</time></trkpt>
        <trkpt lat="28.698611" lon="104.72128"><ele>542.86707</ele><time>2026-05-28T22:57:39.000Z</time></trkpt>
        <trkpt lat="28.698567" lon="104.721262"><ele>542.7654</ele><time>2026-05-28T22:57:47.000Z</time></trkpt>
        <trkpt lat="28.698521" lon="104.72124"><ele>541.3285</ele><time>2026-05-28T22:57:54.000Z</time></trkpt>
        <trkpt lat="28.698477" lon="104.721216"><ele>542.8046</ele><time>2026-05-28T22:58:08.000Z</time></trkpt>
        <trkpt lat="28.698435" lon="104.721235"><ele>543.99005</ele><time>2026-05-28T22:58:15.000Z</time></trkpt>
        <trkpt lat="28.698394" lon="104.721266"><ele>544.7514</ele><time>2026-05-28T22:58:24.000Z</time></trkpt>
        <trkpt lat="28.698346" lon="104.721252"><ele>545.6987</ele><time>2026-05-28T22:58:30.000Z</time></trkpt>
        <trkpt lat="28.698295" lon="104.721244"><ele>546.2504</ele><time>2026-05-28T22:58:43.000Z</time></trkpt>
        <trkpt lat="28.698246" lon="104.721249"><ele>547.64404</ele><time>2026-05-28T22:58:49.000Z</time></trkpt>
        <trkpt lat="28.698205" lon="104.721227"><ele>547.87256</ele><time>2026-05-28T22:58:57.000Z</time></trkpt>
        <trkpt lat="28.698163" lon="104.721196"><ele>552.1441</ele><time>2026-05-28T22:59:12.000Z</time></trkpt>
        <trkpt lat="28.69812" lon="104.721177"><ele>554.004</ele><time>2026-05-28T22:59:19.000Z</time></trkpt>
        <trkpt lat="28.698072" lon="104.721182"><ele>555.7021</ele><time>2026-05-28T22:59:29.000Z</time></trkpt>
        <trkpt lat="28.698023" lon="104.721198"><ele>555.3055</ele><time>2026-05-28T23:00:02.000Z</time></trkpt>
        <trkpt lat="28.697979" lon="104.721212"><ele>555.5397</ele><time>2026-05-28T23:00:07.000Z</time></trkpt>
        <trkpt lat="28.69793" lon="104.721233"><ele>555.1845</ele><time>2026-05-28T23:00:12.000Z</time></trkpt>
        <trkpt lat="28.697883" lon="104.72126"><ele>554.9085</ele><time>2026-05-28T23:00:17.000Z</time></trkpt>
        <trkpt lat="28.697835" lon="104.721285"><ele>553.9739</ele><time>2026-05-28T23:00:24.000Z</time></trkpt>
        <trkpt lat="28.697783" lon="104.721281"><ele>553.5798</ele><time>2026-05-28T23:00:30.000Z</time></trkpt>
        <trkpt lat="28.697746" lon="104.72124"><ele>554.2038</ele><time>2026-05-28T23:00:39.000Z</time></trkpt>
        <trkpt lat="28.697695" lon="104.721233"><ele>554.76495</ele><time>2026-05-28T23:00:47.000Z</time></trkpt>
        <trkpt lat="28.69765" lon="104.721226"><ele>555.9806</ele><time>2026-05-28T23:00:52.000Z</time></trkpt>
        <trkpt lat="28.6976" lon="104.721215"><ele>558.0143</ele><time>2026-05-28T23:00:58.000Z</time></trkpt>
        <trkpt lat="28.697554" lon="104.721187"><ele>559.5154</ele><time>2026-05-28T23:01:04.000Z</time></trkpt>
        <trkpt lat="28.697502" lon="104.721193"><ele>560.51215</ele><time>2026-05-28T23:01:12.000Z</time></trkpt>
        <trkpt lat="28.697454" lon="104.721197"><ele>560.6638</ele><time>2026-05-28T23:01:16.000Z</time></trkpt>
        <trkpt lat="28.697367" lon="104.721226"><ele>563.21326</ele><time>2026-05-28T23:01:49.000Z</time></trkpt>
        <trkpt lat="28.69732" lon="104.721215"><ele>562.94073</ele><time>2026-05-28T23:01:54.000Z</time></trkpt>
        <trkpt lat="28.69728" lon="104.721188"><ele>562.53986</ele><time>2026-05-28T23:02:01.000Z</time></trkpt>
        <trkpt lat="28.697246" lon="104.721154"><ele>562.5894</ele><time>2026-05-28T23:02:06.000Z</time></trkpt>
        <trkpt lat="28.697197" lon="104.721152"><ele>564.0717</ele><time>2026-05-28T23:02:11.000Z</time></trkpt>
        <trkpt lat="28.69715" lon="104.721141"><ele>564.70154</ele><time>2026-05-28T23:02:16.000Z</time></trkpt>
        <trkpt lat="28.697105" lon="104.721138"><ele>564.65356</ele><time>2026-05-28T23:02:24.000Z</time></trkpt>
        <trkpt lat="28.697059" lon="104.721142"><ele>564.1784</ele><time>2026-05-28T23:02:28.000Z</time></trkpt>
        <trkpt lat="28.697006" lon="104.721139"><ele>563.59973</ele><time>2026-05-28T23:02:33.000Z</time></trkpt>
        <trkpt lat="28.696956" lon="104.721136"><ele>564.90607</ele><time>2026-05-28T23:02:39.000Z</time></trkpt>
        <trkpt lat="28.696903" lon="104.721119"><ele>564.98004</ele><time>2026-05-28T23:02:49.000Z</time></trkpt>
        <trkpt lat="28.696875" lon="104.721074"><ele>566.5169</ele><time>2026-05-28T23:02:54.000Z</time></trkpt>
        <trkpt lat="28.696856" lon="104.721025"><ele>568.4058</ele><time>2026-05-28T23:02:58.000Z</time></trkpt>
        <trkpt lat="28.696848" lon="104.720967"><ele>569.6821</ele><time>2026-05-28T23:03:03.000Z</time></trkpt>
        <trkpt lat="28.696821" lon="104.720924"><ele>573.43475</ele><time>2026-05-28T23:03:08.000Z</time></trkpt>
        <trkpt lat="28.6968" lon="104.720871"><ele>575.8964</ele><time>2026-05-28T23:03:14.000Z</time></trkpt>
        <trkpt lat="28.69677" lon="104.720827"><ele>576.97974</ele><time>2026-05-28T23:03:21.000Z</time></trkpt>
        <trkpt lat="28.696734" lon="104.720793"><ele>578.23987</ele><time>2026-05-28T23:03:26.000Z</time></trkpt>
        <trkpt lat="28.696729" lon="104.720737"><ele>578.8121</ele><time>2026-05-28T23:03:31.000Z</time></trkpt>
        <trkpt lat="28.696737" lon="104.720682"><ele>577.5231</ele><time>2026-05-28T23:03:37.000Z</time></trkpt>
        <trkpt lat="28.696712" lon="104.720637"><ele>576.91656</ele><time>2026-05-28T23:03:44.000Z</time></trkpt>
        <trkpt lat="28.696658" lon="104.720637"><ele>577.97723</ele><time>2026-05-28T23:03:51.000Z</time></trkpt>
        <trkpt lat="28.696612" lon="104.720645"><ele>580.12634</ele><time>2026-05-28T23:03:56.000Z</time></trkpt>
        <trkpt lat="28.696576" lon="104.720678"><ele>580.2757</ele><time>2026-05-28T23:04:01.000Z</time></trkpt>
        <trkpt lat="28.696519" lon="104.720688"><ele>579.976</ele><time>2026-05-28T23:04:08.000Z</time></trkpt>
        <trkpt lat="28.69647" lon="104.720704"><ele>578.02893</ele><time>2026-05-28T23:04:15.000Z</time></trkpt>
        <trkpt lat="28.696418" lon="104.720691"><ele>575.55786</ele><time>2026-05-28T23:04:23.000Z</time></trkpt>
        <trkpt lat="28.696368" lon="104.720662"><ele>572.8579</ele><time>2026-05-28T23:04:36.000Z</time></trkpt>
        <trkpt lat="28.69632" lon="104.720665"><ele>571.9992</ele><time>2026-05-28T23:04:42.000Z</time></trkpt>
        <trkpt lat="28.696275" lon="104.72067"><ele>571.8054</ele><time>2026-05-28T23:04:46.000Z</time></trkpt>
        <trkpt lat="28.696226" lon="104.720669"><ele>570.1645</ele><time>2026-05-28T23:04:53.000Z</time></trkpt>
        <trkpt lat="28.696184" lon="104.720629"><ele>569.29785</ele><time>2026-05-28T23:04:58.000Z</time></trkpt>
        <trkpt lat="28.696144" lon="104.720604"><ele>568.47784</ele><time>2026-05-28T23:05:03.000Z</time></trkpt>
        <trkpt lat="28.69609" lon="104.720585"><ele>568.04004</ele><time>2026-05-28T23:05:09.000Z</time></trkpt>
        <trkpt lat="28.696048" lon="104.720557"><ele>567.83405</ele><time>2026-05-28T23:05:14.000Z</time></trkpt>
        <trkpt lat="28.696012" lon="104.720521"><ele>567.6913</ele><time>2026-05-28T23:05:19.000Z</time></trkpt>
        <trkpt lat="28.695966" lon="104.720482"><ele>568.0902</ele><time>2026-05-28T23:05:24.000Z</time></trkpt>
        <trkpt lat="28.695928" lon="104.720453"><ele>569.9721</ele><time>2026-05-28T23:05:28.000Z</time></trkpt>
        <trkpt lat="28.695912" lon="104.720397"><ele>570.03394</ele><time>2026-05-28T23:05:33.000Z</time></trkpt>
        <trkpt lat="28.695918" lon="104.720341"><ele>569.2038</ele><time>2026-05-28T23:05:37.000Z</time></trkpt>
        <trkpt lat="28.695913" lon="104.720284"><ele>569.2835</ele><time>2026-05-28T23:05:41.000Z</time></trkpt>
        <trkpt lat="28.695935" lon="104.720235"><ele>571.1027</ele><time>2026-05-28T23:05:48.000Z</time></trkpt>
        <trkpt lat="28.695927" lon="104.720179"><ele>571.8706</ele><time>2026-05-28T23:05:53.000Z</time></trkpt>
        <trkpt lat="28.695948" lon="104.720125"><ele>573.26904</ele><time>2026-05-28T23:05:59.000Z</time></trkpt>
        <trkpt lat="28.695927" lon="104.720069"><ele>575.2532</ele><time>2026-05-28T23:06:05.000Z</time></trkpt>
        <trkpt lat="28.695919" lon="104.720015"><ele>575.4317</ele><time>2026-05-28T23:06:08.000Z</time></trkpt>
        <trkpt lat="28.695909" lon="104.719962"><ele>576.8378</ele><time>2026-05-28T23:06:12.000Z</time></trkpt>
        <trkpt lat="28.695879" lon="104.71991"><ele>578.6859</ele><time>2026-05-28T23:06:17.000Z</time></trkpt>
        <trkpt lat="28.695873" lon="104.719852"><ele>579.9771</ele><time>2026-05-28T23:06:23.000Z</time></trkpt>
        <trkpt lat="28.695904" lon="104.719812"><ele>580.1607</ele><time>2026-05-28T23:06:27.000Z</time></trkpt>
        <trkpt lat="28.695911" lon="104.719755"><ele>578.8368</ele><time>2026-05-28T23:06:33.000Z</time></trkpt>
        <trkpt lat="28.695912" lon="104.719703"><ele>580.48804</ele><time>2026-05-28T23:06:37.000Z</time></trkpt>
        <trkpt lat="28.695922" lon="104.719645"><ele>582.5138</ele><time>2026-05-28T23:06:46.000Z</time></trkpt>
        <trkpt lat="28.695946" lon="104.719595"><ele>586.0797</ele><time>2026-05-28T23:06:51.000Z</time></trkpt>
        <trkpt lat="28.69596" lon="104.719546"><ele>590.9315</ele><time>2026-05-28T23:06:57.000Z</time></trkpt>
        <trkpt lat="28.695927" lon="104.719502"><ele>594.0812</ele><time>2026-05-28T23:07:02.000Z</time></trkpt>
        <trkpt lat="28.695892" lon="104.719468"><ele>595.699</ele><time>2026-05-28T23:07:06.000Z</time></trkpt>
        <trkpt lat="28.695853" lon="104.719499"><ele>595.7654</ele><time>2026-05-28T23:07:13.000Z</time></trkpt>
        <trkpt lat="28.695802" lon="104.719512"><ele>584.8199</ele><time>2026-05-28T23:07:26.000Z</time></trkpt>
        <trkpt lat="28.695752" lon="104.719487"><ele>586.5519</ele><time>2026-05-28T23:07:33.000Z</time></trkpt>
        <trkpt lat="28.695701" lon="104.719492"><ele>584.4323</ele><time>2026-05-28T23:07:39.000Z</time></trkpt>
        <trkpt lat="28.695654" lon="104.719492"><ele>581.7104</ele><time>2026-05-28T23:07:43.000Z</time></trkpt>
        <trkpt lat="28.695606" lon="104.719467"><ele>580.3011</ele><time>2026-05-28T23:07:48.000Z</time></trkpt>
        <trkpt lat="28.69556" lon="104.719439"><ele>579.3419</ele><time>2026-05-28T23:07:53.000Z</time></trkpt>
        <trkpt lat="28.695533" lon="104.719398"><ele>579.43475</ele><time>2026-05-28T23:07:58.000Z</time></trkpt>
        <trkpt lat="28.695522" lon="104.719339"><ele>579.60516</ele><time>2026-05-28T23:08:02.000Z</time></trkpt>
        <trkpt lat="28.695529" lon="104.719288"><ele>580.1093</ele><time>2026-05-28T23:08:06.000Z</time></trkpt>
        <trkpt lat="28.695536" lon="104.719223"><ele>579.63776</ele><time>2026-05-28T23:08:12.000Z</time></trkpt>
        <trkpt lat="28.695547" lon="104.71917"><ele>580.27673</ele><time>2026-05-28T23:08:17.000Z</time></trkpt>
        <trkpt lat="28.695514" lon="104.719122"><ele>581.689</ele><time>2026-05-28T23:08:21.000Z</time></trkpt>
        <trkpt lat="28.695505" lon="104.719058"><ele>583.34357</ele><time>2026-05-28T23:08:26.000Z</time></trkpt>
        <trkpt lat="28.695505" lon="104.719"><ele>581.9637</ele><time>2026-05-28T23:08:30.000Z</time></trkpt>
        <trkpt lat="28.695485" lon="104.718938"><ele>584.1042</ele><time>2026-05-28T23:08:35.000Z</time></trkpt>
        <trkpt lat="28.695492" lon="104.718886"><ele>584.6197</ele><time>2026-05-28T23:08:39.000Z</time></trkpt>
        <trkpt lat="28.695503" lon="104.718835"><ele>585.8029</ele><time>2026-05-28T23:08:44.000Z</time></trkpt>
        <trkpt lat="28.695523" lon="104.718782"><ele>586.2528</ele><time>2026-05-28T23:08:48.000Z</time></trkpt>
        <trkpt lat="28.69553" lon="104.718728"><ele>585.6975</ele><time>2026-05-28T23:08:51.000Z</time></trkpt>
        <trkpt lat="28.695544" lon="104.718679"><ele>586.3007</ele><time>2026-05-28T23:08:57.000Z</time></trkpt>
        <trkpt lat="28.695551" lon="104.718625"><ele>585.94434</ele><time>2026-05-28T23:09:00.000Z</time></trkpt>
        <trkpt lat="28.695506" lon="104.718646"><ele>589.7914</ele><time>2026-05-28T23:09:04.000Z</time></trkpt>
        <trkpt lat="28.695478" lon="104.718694"><ele>591.9914</ele><time>2026-05-28T23:09:11.000Z</time></trkpt>
        <trkpt lat="28.695446" lon="104.718736"><ele>590.914</ele><time>2026-05-28T23:09:16.000Z</time></trkpt>
        <trkpt lat="28.695395" lon="104.718756"><ele>588.63165</ele><time>2026-05-28T23:09:22.000Z</time></trkpt>
        <trkpt lat="28.695338" lon="104.718751"><ele>587.4453</ele><time>2026-05-28T23:09:26.000Z</time></trkpt>
        <trkpt lat="28.695294" lon="104.718738"><ele>587.11035</ele><time>2026-05-28T23:09:32.000Z</time></trkpt>
        <trkpt lat="28.695239" lon="104.718736"><ele>586.4511</ele><time>2026-05-28T23:09:38.000Z</time></trkpt>
        <trkpt lat="28.695188" lon="104.71873"><ele>587.24255</ele><time>2026-05-28T23:09:44.000Z</time></trkpt>
        <trkpt lat="28.695138" lon="104.718735"><ele>586.40155</ele><time>2026-05-28T23:09:49.000Z</time></trkpt>
        <trkpt lat="28.695095" lon="104.718714"><ele>584.90845</ele><time>2026-05-28T23:09:54.000Z</time></trkpt>
        <trkpt lat="28.695052" lon="104.71869"><ele>585.07385</ele><time>2026-05-28T23:09:58.000Z</time></trkpt>
        <trkpt lat="28.69502" lon="104.718648"><ele>586.72266</ele><time>2026-05-28T23:10:03.000Z</time></trkpt>
        <trkpt lat="28.69499" lon="104.718602"><ele>589.0996</ele><time>2026-05-28T23:10:11.000Z</time></trkpt>
        <trkpt lat="28.694972" lon="104.718553"><ele>591.0867</ele><time>2026-05-28T23:10:15.000Z</time></trkpt>
        <trkpt lat="28.694923" lon="104.718561"><ele>594.57025</ele><time>2026-05-28T23:10:21.000Z</time></trkpt>
        <trkpt lat="28.694876" lon="104.718602"><ele>594.078</ele><time>2026-05-28T23:10:24.000Z</time></trkpt>
        <trkpt lat="28.694835" lon="104.718636"><ele>592.7576</ele><time>2026-05-28T23:10:32.000Z</time></trkpt>
        <trkpt lat="28.694794" lon="104.718671"><ele>591.00006</ele><time>2026-05-28T23:10:37.000Z</time></trkpt>
        <trkpt lat="28.694754" lon="104.718699"><ele>591</ele><time>2026-05-28T23:10:41.000Z</time></trkpt>
        <trkpt lat="28.694711" lon="104.718716"><ele>589.5675</ele><time>2026-05-28T23:10:47.000Z</time></trkpt>
        <trkpt lat="28.694668" lon="104.718742"><ele>589.85815</ele><time>2026-05-28T23:10:51.000Z</time></trkpt>
        <trkpt lat="28.694626" lon="104.718776"><ele>589.4773</ele><time>2026-05-28T23:10:55.000Z</time></trkpt>
        <trkpt lat="28.694577" lon="104.71879"><ele>588.8571</ele><time>2026-05-28T23:10:59.000Z</time></trkpt>
        <trkpt lat="28.694533" lon="104.71882"><ele>588.4442</ele><time>2026-05-28T23:11:04.000Z</time></trkpt>
        <trkpt lat="28.694476" lon="104.718826"><ele>587.77795</ele><time>2026-05-28T23:11:09.000Z</time></trkpt>
        <trkpt lat="28.694438" lon="104.718789"><ele>587.97736</ele><time>2026-05-28T23:11:13.000Z</time></trkpt>
        <trkpt lat="28.694397" lon="104.718762"><ele>587.6371</ele><time>2026-05-28T23:11:17.000Z</time></trkpt>
        <trkpt lat="28.694363" lon="104.718726"><ele>586.34406</ele><time>2026-05-28T23:11:21.000Z</time></trkpt>
        <trkpt lat="28.694313" lon="104.718701"><ele>587.1698</ele><time>2026-05-28T23:11:26.000Z</time></trkpt>
        <trkpt lat="28.694268" lon="104.718683"><ele>587.0981</ele><time>2026-05-28T23:11:30.000Z</time></trkpt>
        <trkpt lat="28.694221" lon="104.718668"><ele>586.07733</ele><time>2026-05-28T23:11:35.000Z</time></trkpt>
        <trkpt lat="28.694181" lon="104.718634"><ele>586.6028</ele><time>2026-05-28T23:11:40.000Z</time></trkpt>
        <trkpt lat="28.694148" lon="104.718585"><ele>585.765</ele><time>2026-05-28T23:11:47.000Z</time></trkpt>
        <trkpt lat="28.694149" lon="104.718533"><ele>586.4278</ele><time>2026-05-28T23:11:51.000Z</time></trkpt>
        <trkpt lat="28.694171" lon="104.718479"><ele>587.5086</ele><time>2026-05-28T23:11:56.000Z</time></trkpt>
        <trkpt lat="28.694195" lon="104.718434"><ele>589.47064</ele><time>2026-05-28T23:12:01.000Z</time></trkpt>
        <trkpt lat="28.694224" lon="104.718382"><ele>589.12146</ele><time>2026-05-28T23:12:05.000Z</time></trkpt>
        <trkpt lat="28.694235" lon="104.718326"><ele>590.06494</ele><time>2026-05-28T23:12:09.000Z</time></trkpt>
        <trkpt lat="28.694247" lon="104.718273"><ele>590.7981</ele><time>2026-05-28T23:12:12.000Z</time></trkpt>
        <trkpt lat="28.694256" lon="104.718216"><ele>591.7646</ele><time>2026-05-28T23:12:16.000Z</time></trkpt>
        <trkpt lat="28.694249" lon="104.71816"><ele>592.58203</ele><time>2026-05-28T23:12:20.000Z</time></trkpt>
        <trkpt lat="28.694258" lon="104.718083"><ele>591.45807</ele><time>2026-05-28T23:12:25.000Z</time></trkpt>
        <trkpt lat="28.694262" lon="104.718025"><ele>592.1754</ele><time>2026-05-28T23:12:27.000Z</time></trkpt>
        <trkpt lat="28.694292" lon="104.71798"><ele>593.85864</ele><time>2026-05-28T23:12:30.000Z</time></trkpt>
        <trkpt lat="28.694308" lon="104.717916"><ele>592.7113</ele><time>2026-05-28T23:12:36.000Z</time></trkpt>
        <trkpt lat="28.694316" lon="104.717859"><ele>591.0112</ele><time>2026-05-28T23:12:40.000Z</time></trkpt>
        <trkpt lat="28.694328" lon="104.717803"><ele>590.82556</ele><time>2026-05-28T23:12:44.000Z</time></trkpt>
        <trkpt lat="28.694343" lon="104.717743"><ele>592.042</ele><time>2026-05-28T23:12:49.000Z</time></trkpt>
        <trkpt lat="28.694342" lon="104.71768"><ele>590.737</ele><time>2026-05-28T23:12:53.000Z</time></trkpt>
        <trkpt lat="28.694366" lon="104.717635"><ele>592.04095</ele><time>2026-05-28T23:13:01.000Z</time></trkpt>
        <trkpt lat="28.694383" lon="104.717575"><ele>594.0988</ele><time>2026-05-28T23:13:07.000Z</time></trkpt>
        <trkpt lat="28.694341" lon="104.717538"><ele>594.40936</ele><time>2026-05-28T23:13:12.000Z</time></trkpt>
        <trkpt lat="28.694305" lon="104.717507"><ele>593.6395</ele><time>2026-05-28T23:13:15.000Z</time></trkpt>
        <trkpt lat="28.694269" lon="104.71747"><ele>591.75616</ele><time>2026-05-28T23:13:20.000Z</time></trkpt>
        <trkpt lat="28.694253" lon="104.717405"><ele>589.7067</ele><time>2026-05-28T23:13:25.000Z</time></trkpt>
        <trkpt lat="28.694216" lon="104.717353"><ele>588.0617</ele><time>2026-05-28T23:13:30.000Z</time></trkpt>
        <trkpt lat="28.694203" lon="104.7173"><ele>587.2669</ele><time>2026-05-28T23:13:35.000Z</time></trkpt>
        <trkpt lat="28.694216" lon="104.717248"><ele>584.25214</ele><time>2026-05-28T23:13:40.000Z</time></trkpt>
        <trkpt lat="28.694251" lon="104.717201"><ele>583.8554</ele><time>2026-05-28T23:13:46.000Z</time></trkpt>
        <trkpt lat="28.69427" lon="104.717151"><ele>583.9841</ele><time>2026-05-28T23:13:49.000Z</time></trkpt>
        <trkpt lat="28.694298" lon="104.717101"><ele>584.4988</ele><time>2026-05-28T23:13:55.000Z</time></trkpt>
        <trkpt lat="28.694338" lon="104.717064"><ele>584.5583</ele><time>2026-05-28T23:14:01.000Z</time></trkpt>
        <trkpt lat="28.694379" lon="104.717039"><ele>586.2574</ele><time>2026-05-28T23:14:06.000Z</time></trkpt>
        <trkpt lat="28.694395" lon="104.716981"><ele>587.63</ele><time>2026-05-28T23:14:12.000Z</time></trkpt>
        <trkpt lat="28.694437" lon="104.716947"><ele>586.60504</ele><time>2026-05-28T23:14:18.000Z</time></trkpt>
        <trkpt lat="28.69448" lon="104.716917"><ele>585.21606</ele><time>2026-05-28T23:14:22.000Z</time></trkpt>
        <trkpt lat="28.69449" lon="104.71686"><ele>588.5607</ele><time>2026-05-28T23:14:28.000Z</time></trkpt>
        <trkpt lat="28.694446" lon="104.716813"><ele>591.3081</ele><time>2026-05-28T23:14:34.000Z</time></trkpt>
        <trkpt lat="28.694428" lon="104.716755"><ele>591.654</ele><time>2026-05-28T23:14:39.000Z</time></trkpt>
        <trkpt lat="28.694415" lon="104.716703"><ele>590.33234</ele><time>2026-05-28T23:14:44.000Z</time></trkpt>
        <trkpt lat="28.694433" lon="104.716651"><ele>589.16956</ele><time>2026-05-28T23:14:49.000Z</time></trkpt>
        <trkpt lat="28.694443" lon="104.716597"><ele>587.5217</ele><time>2026-05-28T23:14:54.000Z</time></trkpt>
        <trkpt lat="28.694463" lon="104.716551"><ele>586.07904</ele><time>2026-05-28T23:15:01.000Z</time></trkpt>
        <trkpt lat="28.694476" lon="104.716502"><ele>586.0558</ele><time>2026-05-28T23:15:06.000Z</time></trkpt>
        <trkpt lat="28.694493" lon="104.716451"><ele>586.1867</ele><time>2026-05-28T23:15:13.000Z</time></trkpt>
        <trkpt lat="28.694533" lon="104.716421"><ele>589.9146</ele><time>2026-05-28T23:15:20.000Z</time></trkpt>
        <trkpt lat="28.694558" lon="104.716368"><ele>591.91437</ele><time>2026-05-28T23:15:24.000Z</time></trkpt>
        <trkpt lat="28.694573" lon="104.716313"><ele>593.59357</ele><time>2026-05-28T23:15:29.000Z</time></trkpt>
        <trkpt lat="28.694577" lon="104.716256"><ele>593.86615</ele><time>2026-05-28T23:15:32.000Z</time></trkpt>
        <trkpt lat="28.694624" lon="104.716227"><ele>594.9184</ele><time>2026-05-28T23:15:38.000Z</time></trkpt>
        <trkpt lat="28.694615" lon="104.716123"><ele>596.3046</ele><time>2026-05-28T23:15:46.000Z</time></trkpt>
        <trkpt lat="28.694575" lon="104.71609"><ele>595.30896</ele><time>2026-05-28T23:15:51.000Z</time></trkpt>
        <trkpt lat="28.694537" lon="104.716059"><ele>596.18396</ele><time>2026-05-28T23:15:59.000Z</time></trkpt>
        <trkpt lat="28.694515" lon="104.716012"><ele>595.8724</ele><time>2026-05-28T23:16:08.000Z</time></trkpt>
        <trkpt lat="28.694487" lon="104.715968"><ele>593.6002</ele><time>2026-05-28T23:16:13.000Z</time></trkpt>
        <trkpt lat="28.694449" lon="104.715931"><ele>592.02606</ele><time>2026-05-28T23:16:19.000Z</time></trkpt>
        <trkpt lat="28.694395" lon="104.715911"><ele>588.8556</ele><time>2026-05-28T23:16:24.000Z</time></trkpt>
        <trkpt lat="28.694348" lon="104.71588"><ele>588.7488</ele><time>2026-05-28T23:16:28.000Z</time></trkpt>
        <trkpt lat="28.694292" lon="104.715856"><ele>589.0108</ele><time>2026-05-28T23:16:34.000Z</time></trkpt>
        <trkpt lat="28.694249" lon="104.715831"><ele>586.73914</ele><time>2026-05-28T23:16:40.000Z</time></trkpt>
        <trkpt lat="28.69422" lon="104.715785"><ele>585.7868</ele><time>2026-05-28T23:16:44.000Z</time></trkpt>
        <trkpt lat="28.694213" lon="104.715726"><ele>584.07684</ele><time>2026-05-28T23:16:48.000Z</time></trkpt>
        <trkpt lat="28.694228" lon="104.715669"><ele>583.94745</ele><time>2026-05-28T23:16:54.000Z</time></trkpt>
        <trkpt lat="28.694266" lon="104.715638"><ele>582.1853</ele><time>2026-05-28T23:16:59.000Z</time></trkpt>
        <trkpt lat="28.694291" lon="104.715587"><ele>581.8251</ele><time>2026-05-28T23:17:04.000Z</time></trkpt>
        <trkpt lat="28.694319" lon="104.715528"><ele>582.8478</ele><time>2026-05-28T23:17:09.000Z</time></trkpt>
        <trkpt lat="28.694356" lon="104.715487"><ele>584.50903</ele><time>2026-05-28T23:17:13.000Z</time></trkpt>
        <trkpt lat="28.694396" lon="104.715439"><ele>585.5114</ele><time>2026-05-28T23:17:18.000Z</time></trkpt>
        <trkpt lat="28.694435" lon="104.715404"><ele>587.054</ele><time>2026-05-28T23:17:22.000Z</time></trkpt>
        <trkpt lat="28.694464" lon="104.715362"><ele>588.22266</ele><time>2026-05-28T23:17:27.000Z</time></trkpt>
        <trkpt lat="28.694471" lon="104.715305"><ele>589.20496</ele><time>2026-05-28T23:17:31.000Z</time></trkpt>
        <trkpt lat="28.694452" lon="104.715256"><ele>588.47</ele><time>2026-05-28T23:17:34.000Z</time></trkpt>
        <trkpt lat="28.694459" lon="104.715192"><ele>587.6464</ele><time>2026-05-28T23:17:38.000Z</time></trkpt>
        <trkpt lat="28.694497" lon="104.715147"><ele>589.00793</ele><time>2026-05-28T23:17:42.000Z</time></trkpt>
        <trkpt lat="28.694515" lon="104.715098"><ele>590.6399</ele><time>2026-05-28T23:17:46.000Z</time></trkpt>
        <trkpt lat="28.694544" lon="104.715053"><ele>591.24567</ele><time>2026-05-28T23:17:51.000Z</time></trkpt>
        <trkpt lat="28.694581" lon="104.714991"><ele>590.9467</ele><time>2026-05-28T23:17:55.000Z</time></trkpt>
        <trkpt lat="28.694625" lon="104.71497"><ele>591.52563</ele><time>2026-05-28T23:17:58.000Z</time></trkpt>
        <trkpt lat="28.694673" lon="104.714941"><ele>590.82715</ele><time>2026-05-28T23:18:02.000Z</time></trkpt>
        <trkpt lat="28.69471" lon="104.714907"><ele>591.31354</ele><time>2026-05-28T23:18:08.000Z</time></trkpt>
        <trkpt lat="28.694726" lon="104.714851"><ele>592.697</ele><time>2026-05-28T23:18:13.000Z</time></trkpt>
        <trkpt lat="28.694736" lon="104.71479"><ele>596.13336</ele><time>2026-05-28T23:18:20.000Z</time></trkpt>
        <trkpt lat="28.694735" lon="104.714735"><ele>597.3623</ele><time>2026-05-28T23:18:25.000Z</time></trkpt>
        <trkpt lat="28.694744" lon="104.714669"><ele>598.06775</ele><time>2026-05-28T23:18:31.000Z</time></trkpt>
        <trkpt lat="28.694742" lon="104.714604"><ele>597.20374</ele><time>2026-05-28T23:18:38.000Z</time></trkpt>
        <trkpt lat="28.694752" lon="104.714542"><ele>595.5247</ele><time>2026-05-28T23:18:45.000Z</time></trkpt>
        <trkpt lat="28.694721" lon="104.714489"><ele>595.42535</ele><time>2026-05-28T23:18:50.000Z</time></trkpt>
        <trkpt lat="28.694682" lon="104.714449"><ele>594.29065</ele><time>2026-05-28T23:18:55.000Z</time></trkpt>
        <trkpt lat="28.69466" lon="104.714399"><ele>594.8678</ele><time>2026-05-28T23:18:59.000Z</time></trkpt>
        <trkpt lat="28.694628" lon="104.714351"><ele>594.3196</ele><time>2026-05-28T23:19:03.000Z</time></trkpt>
        <trkpt lat="28.69461" lon="104.714298"><ele>594.7308</ele><time>2026-05-28T23:19:08.000Z</time></trkpt>
        <trkpt lat="28.694618" lon="104.714247"><ele>594.4156</ele><time>2026-05-28T23:19:12.000Z</time></trkpt>
        <trkpt lat="28.694619" lon="104.714185"><ele>593.2441</ele><time>2026-05-28T23:19:17.000Z</time></trkpt>
        <trkpt lat="28.694624" lon="104.714129"><ele>592.9291</ele><time>2026-05-28T23:19:21.000Z</time></trkpt>
        <trkpt lat="28.694655" lon="104.714086"><ele>592.5084</ele><time>2026-05-28T23:19:25.000Z</time></trkpt>
        <trkpt lat="28.69468" lon="104.714039"><ele>594.2136</ele><time>2026-05-28T23:19:30.000Z</time></trkpt>
        <trkpt lat="28.694652" lon="104.713978"><ele>593.7139</ele><time>2026-05-28T23:19:34.000Z</time></trkpt>
        <trkpt lat="28.694636" lon="104.713929"><ele>593.3246</ele><time>2026-05-28T23:19:38.000Z</time></trkpt>
        <trkpt lat="28.694639" lon="104.713878"><ele>591.92065</ele><time>2026-05-28T23:19:42.000Z</time></trkpt>
        <trkpt lat="28.694638" lon="104.713823"><ele>591.8321</ele><time>2026-05-28T23:19:46.000Z</time></trkpt>
        <trkpt lat="28.694653" lon="104.713769"><ele>591.5772</ele><time>2026-05-28T23:19:51.000Z</time></trkpt>
        <trkpt lat="28.694693" lon="104.713719"><ele>589.92</ele><time>2026-05-28T23:19:57.000Z</time></trkpt>
        <trkpt lat="28.694739" lon="104.713685"><ele>588.1423</ele><time>2026-05-28T23:20:08.000Z</time></trkpt>
        <trkpt lat="28.694785" lon="104.71367"><ele>585.72833</ele><time>2026-05-28T23:20:15.000Z</time></trkpt>
        <trkpt lat="28.694808" lon="104.713612"><ele>587.454</ele><time>2026-05-28T23:20:19.000Z</time></trkpt>
        <trkpt lat="28.694837" lon="104.713571"><ele>588.10974</ele><time>2026-05-28T23:20:22.000Z</time></trkpt>
        <trkpt lat="28.694869" lon="104.713529"><ele>590.03064</ele><time>2026-05-28T23:20:26.000Z</time></trkpt>
        <trkpt lat="28.694889" lon="104.713479"><ele>591.6646</ele><time>2026-05-28T23:20:29.000Z</time></trkpt>
        <trkpt lat="28.695045" lon="104.713314"><ele>595.0401</ele><time>2026-05-28T23:20:50.000Z</time></trkpt>
        <trkpt lat="28.695027" lon="104.71326"><ele>597.7894</ele><time>2026-05-28T23:20:56.000Z</time></trkpt>
        <trkpt lat="28.695001" lon="104.713201"><ele>595.7424</ele><time>2026-05-28T23:21:00.000Z</time></trkpt>
        <trkpt lat="28.694977" lon="104.713152"><ele>596.91473</ele><time>2026-05-28T23:21:03.000Z</time></trkpt>
        <trkpt lat="28.694972" lon="104.713093"><ele>594.5061</ele><time>2026-05-28T23:21:08.000Z</time></trkpt>
        <trkpt lat="28.694958" lon="104.713039"><ele>593.201</ele><time>2026-05-28T23:21:13.000Z</time></trkpt>
        <trkpt lat="28.694934" lon="104.712991"><ele>592.0143</ele><time>2026-05-28T23:21:19.000Z</time></trkpt>
        <trkpt lat="28.6949" lon="104.712948"><ele>594.0374</ele><time>2026-05-28T23:21:25.000Z</time></trkpt>
        <trkpt lat="28.694864" lon="104.712916"><ele>596.01526</ele><time>2026-05-28T23:21:29.000Z</time></trkpt>
        <trkpt lat="28.69485" lon="104.712862"><ele>593.54016</ele><time>2026-05-28T23:21:34.000Z</time></trkpt>
        <trkpt lat="28.694811" lon="104.712832"><ele>594.2232</ele><time>2026-05-28T23:21:38.000Z</time></trkpt>
        <trkpt lat="28.694781" lon="104.712787"><ele>592.71375</ele><time>2026-05-28T23:21:42.000Z</time></trkpt>
        <trkpt lat="28.694748" lon="104.712746"><ele>592.243</ele><time>2026-05-28T23:21:47.000Z</time></trkpt>
        <trkpt lat="28.69472" lon="104.712701"><ele>590.1596</ele><time>2026-05-28T23:21:52.000Z</time></trkpt>
        <trkpt lat="28.694736" lon="104.712647"><ele>589.74994</ele><time>2026-05-28T23:21:58.000Z</time></trkpt>
        <trkpt lat="28.694783" lon="104.712544"><ele>590.99744</ele><time>2026-05-28T23:26:56.000Z</time></trkpt>
        <trkpt lat="28.694819" lon="104.712506"><ele>588.67615</ele><time>2026-05-28T23:27:06.000Z</time></trkpt>
        <trkpt lat="28.694861" lon="104.712483"><ele>587.4945</ele><time>2026-05-28T23:27:12.000Z</time></trkpt>
        <trkpt lat="28.69489" lon="104.712436"><ele>590.5287</ele><time>2026-05-28T23:27:28.000Z</time></trkpt>
        <trkpt lat="28.694938" lon="104.712435"><ele>591.8584</ele><time>2026-05-28T23:28:16.000Z</time></trkpt>
        <trkpt lat="28.694984" lon="104.712456"><ele>590.98834</ele><time>2026-05-28T23:28:24.000Z</time></trkpt>
        <trkpt lat="28.695028" lon="104.712432"><ele>592.38275</ele><time>2026-05-28T23:28:33.000Z</time></trkpt>
        <trkpt lat="28.695062" lon="104.712389"><ele>592.87665</ele><time>2026-05-28T23:28:38.000Z</time></trkpt>
        <trkpt lat="28.695083" lon="104.712337"><ele>590.5269</ele><time>2026-05-28T23:28:44.000Z</time></trkpt>
        <trkpt lat="28.695089" lon="104.712285"><ele>589.3247</ele><time>2026-05-28T23:28:50.000Z</time></trkpt>
        <trkpt lat="28.695122" lon="104.712246"><ele>587.0049</ele><time>2026-05-28T23:29:51.000Z</time></trkpt>
        <trkpt lat="28.69514" lon="104.712197"><ele>590.97784</ele><time>2026-05-28T23:32:21.000Z</time></trkpt>
        <trkpt lat="28.695179" lon="104.712158"><ele>589.04425</ele><time>2026-05-28T23:32:34.000Z</time></trkpt>
        <trkpt lat="28.695168" lon="104.712039"><ele>588.55133</ele><time>2026-05-28T23:32:43.000Z</time></trkpt>
        <trkpt lat="28.695138" lon="104.711996"><ele>584.9131</ele><time>2026-05-28T23:32:54.000Z</time></trkpt>
        <trkpt lat="28.695144" lon="104.711944"><ele>582.97437</ele><time>2026-05-28T23:32:59.000Z</time></trkpt>
        <trkpt lat="28.695129" lon="104.711893"><ele>579.6289</ele><time>2026-05-28T23:33:02.000Z</time></trkpt>
        <trkpt lat="28.695148" lon="104.711845"><ele>578.4307</ele><time>2026-05-28T23:33:09.000Z</time></trkpt>
        <trkpt lat="28.695157" lon="104.711795"><ele>577.886</ele><time>2026-05-28T23:33:13.000Z</time></trkpt>
        <trkpt lat="28.69517" lon="104.711736"><ele>576.2332</ele><time>2026-05-28T23:33:18.000Z</time></trkpt>
        <trkpt lat="28.695183" lon="104.711687"><ele>574.0448</ele><time>2026-05-28T23:33:22.000Z</time></trkpt>
        <trkpt lat="28.695191" lon="104.711629"><ele>573.6717</ele><time>2026-05-28T23:33:28.000Z</time></trkpt>
        <trkpt lat="28.695193" lon="104.711576"><ele>573.5915</ele><time>2026-05-28T23:33:33.000Z</time></trkpt>
        <trkpt lat="28.695193" lon="104.711508"><ele>575.7572</ele><time>2026-05-28T23:33:41.000Z</time></trkpt>
        <trkpt lat="28.695185" lon="104.711452"><ele>574.68146</ele><time>2026-05-28T23:33:45.000Z</time></trkpt>
        <trkpt lat="28.69518" lon="104.711399"><ele>574.0178</ele><time>2026-05-28T23:33:49.000Z</time></trkpt>
        <trkpt lat="28.695174" lon="104.711347"><ele>573.27094</ele><time>2026-05-28T23:33:53.000Z</time></trkpt>
        <trkpt lat="28.695166" lon="104.711296"><ele>574.0689</ele><time>2026-05-28T23:33:58.000Z</time></trkpt>
        <trkpt lat="28.695168" lon="104.711245"><ele>574.00305</ele><time>2026-05-28T23:34:04.000Z</time></trkpt>
        <trkpt lat="28.695187" lon="104.711193"><ele>573.7357</ele><time>2026-05-28T23:34:09.000Z</time></trkpt>
        <trkpt lat="28.695179" lon="104.711137"><ele>571.1326</ele><time>2026-05-28T23:34:17.000Z</time></trkpt>
        <trkpt lat="28.695198" lon="104.711089"><ele>570.7474</ele><time>2026-05-28T23:34:23.000Z</time></trkpt>
        <trkpt lat="28.695192" lon="104.711033"><ele>569.3271</ele><time>2026-05-28T23:34:28.000Z</time></trkpt>
        <trkpt lat="28.695182" lon="104.710975"><ele>570.11475</ele><time>2026-05-28T23:34:33.000Z</time></trkpt>
        <trkpt lat="28.695176" lon="104.710924"><ele>571.96967</ele><time>2026-05-28T23:34:45.000Z</time></trkpt>
        <trkpt lat="28.695166" lon="104.710859"><ele>572.1181</ele><time>2026-05-28T23:35:02.000Z</time></trkpt>
        <trkpt lat="28.695179" lon="104.710809"><ele>571.1542</ele><time>2026-05-28T23:35:09.000Z</time></trkpt>
        <trkpt lat="28.695181" lon="104.710753"><ele>570.7546</ele><time>2026-05-28T23:35:15.000Z</time></trkpt>
        <trkpt lat="28.695174" lon="104.710695"><ele>570.5967</ele><time>2026-05-28T23:35:20.000Z</time></trkpt>
        <trkpt lat="28.69517" lon="104.710638"><ele>569.0246</ele><time>2026-05-28T23:35:28.000Z</time></trkpt>
        <trkpt lat="28.695178" lon="104.710574"><ele>570.0358</ele><time>2026-05-28T23:37:25.000Z</time></trkpt>
        <trkpt lat="28.695188" lon="104.710517"><ele>569.3951</ele><time>2026-05-28T23:38:03.000Z</time></trkpt>
        <trkpt lat="28.69517" lon="104.710464"><ele>569.2297</ele><time>2026-05-28T23:38:33.000Z</time></trkpt>
        <trkpt lat="28.695164" lon="104.71041"><ele>568.00244</ele><time>2026-05-28T23:38:38.000Z</time></trkpt>
        <trkpt lat="28.695164" lon="104.710343"><ele>565.5113</ele><time>2026-05-28T23:38:44.000Z</time></trkpt>
        <trkpt lat="28.695156" lon="104.710286"><ele>564.5835</ele><time>2026-05-28T23:38:47.000Z</time></trkpt>
        <trkpt lat="28.695158" lon="104.710234"><ele>564.4595</ele><time>2026-05-28T23:38:50.000Z</time></trkpt>
        <trkpt lat="28.695171" lon="104.710176"><ele>561.67145</ele><time>2026-05-28T23:38:54.000Z</time></trkpt>
        <trkpt lat="28.695179" lon="104.710112"><ele>557.48553</ele><time>2026-05-28T23:39:00.000Z</time></trkpt>
        <trkpt lat="28.695166" lon="104.710061"><ele>556.17645</ele><time>2026-05-28T23:39:06.000Z</time></trkpt>
        <trkpt lat="28.69515" lon="104.710011"><ele>551.78766</ele><time>2026-05-28T23:39:15.000Z</time></trkpt>
        <trkpt lat="28.695111" lon="104.709978"><ele>551.87164</ele><time>2026-05-28T23:39:23.000Z</time></trkpt>
        <trkpt lat="28.695126" lon="104.709928"><ele>550.82227</ele><time>2026-05-28T23:39:31.000Z</time></trkpt>
        <trkpt lat="28.695101" lon="104.709885"><ele>549.1825</ele><time>2026-05-28T23:39:42.000Z</time></trkpt>
        <trkpt lat="28.695104" lon="104.709816"><ele>548.74475</ele><time>2026-05-28T23:39:51.000Z</time></trkpt>
        <trkpt lat="28.695047" lon="104.709812"><ele>547.37366</ele><time>2026-05-28T23:40:04.000Z</time></trkpt>
        <trkpt lat="28.695036" lon="104.709753"><ele>546.4883</ele><time>2026-05-28T23:40:18.000Z</time></trkpt>
        <trkpt lat="28.695033" lon="104.709679"><ele>544.59265</ele><time>2026-05-28T23:40:25.000Z</time></trkpt>
        <trkpt lat="28.695031" lon="104.709625"><ele>545.4451</ele><time>2026-05-28T23:40:27.000Z</time></trkpt>
        <trkpt lat="28.695054" lon="104.709567"><ele>546.4335</ele><time>2026-05-28T23:40:30.000Z</time></trkpt>
        <trkpt lat="28.695106" lon="104.709545"><ele>546.4976</ele><time>2026-05-28T23:40:33.000Z</time></trkpt>
        <trkpt lat="28.695138" lon="104.709501"><ele>547.666</ele><time>2026-05-28T23:40:37.000Z</time></trkpt>
        <trkpt lat="28.695154" lon="104.709446"><ele>544.8814</ele><time>2026-05-28T23:40:43.000Z</time></trkpt>
        <trkpt lat="28.695167" lon="104.709392"><ele>543.958</ele><time>2026-05-28T23:40:49.000Z</time></trkpt>
        <trkpt lat="28.695176" lon="104.70934"><ele>540.7778</ele><time>2026-05-28T23:41:01.000Z</time></trkpt>
        <trkpt lat="28.695189" lon="104.709283"><ele>538.9038</ele><time>2026-05-28T23:41:09.000Z</time></trkpt>
        <trkpt lat="28.695229" lon="104.709225"><ele>536.45886</ele><time>2026-05-28T23:41:15.000Z</time></trkpt>
        <trkpt lat="28.69526" lon="104.709176"><ele>533.7906</ele><time>2026-05-28T23:41:21.000Z</time></trkpt>
        <trkpt lat="28.695308" lon="104.709149"><ele>532.25415</ele><time>2026-05-28T23:41:29.000Z</time></trkpt>
        <trkpt lat="28.695357" lon="104.709143"><ele>528.32965</ele><time>2026-05-28T23:41:43.000Z</time></trkpt>
        <trkpt lat="28.695405" lon="104.709113"><ele>525.1533</ele><time>2026-05-28T23:41:51.000Z</time></trkpt>
        <trkpt lat="28.695451" lon="104.709129"><ele>523.0389</ele><time>2026-05-28T23:42:07.000Z</time></trkpt>
        <trkpt lat="28.695505" lon="104.709114"><ele>521.17456</ele><time>2026-05-28T23:42:14.000Z</time></trkpt>
        <trkpt lat="28.695542" lon="104.709083"><ele>520.41974</ele><time>2026-05-28T23:42:18.000Z</time></trkpt>
        <trkpt lat="28.695587" lon="104.709063"><ele>518.6579</ele><time>2026-05-28T23:42:26.000Z</time></trkpt>
        <trkpt lat="28.695627" lon="104.709019"><ele>517.3269</ele><time>2026-05-28T23:42:34.000Z</time></trkpt>
        <trkpt lat="28.695669" lon="104.709036"><ele>516.61664</ele><time>2026-05-28T23:42:40.000Z</time></trkpt>
        <trkpt lat="28.695706" lon="104.708984"><ele>515.16895</ele><time>2026-05-28T23:42:45.000Z</time></trkpt>
        <trkpt lat="28.695749" lon="104.708967"><ele>513.55945</ele><time>2026-05-28T23:42:48.000Z</time></trkpt>
        <trkpt lat="28.695797" lon="104.708956"><ele>515.59796</ele><time>2026-05-28T23:42:51.000Z</time></trkpt>
        <trkpt lat="28.695851" lon="104.70894"><ele>514.9705</ele><time>2026-05-28T23:42:55.000Z</time></trkpt>
        <trkpt lat="28.695891" lon="104.708911"><ele>515.8413</ele><time>2026-05-28T23:42:59.000Z</time></trkpt>
        <trkpt lat="28.695943" lon="104.708892"><ele>513.86523</ele><time>2026-05-28T23:43:06.000Z</time></trkpt>
        <trkpt lat="28.695991" lon="104.70887"><ele>512.4848</ele><time>2026-05-28T23:43:12.000Z</time></trkpt>
        <trkpt lat="28.696037" lon="104.70885"><ele>511.56244</ele><time>2026-05-28T23:43:16.000Z</time></trkpt>
        <trkpt lat="28.696081" lon="104.708825"><ele>511.97736</ele><time>2026-05-28T23:43:21.000Z</time></trkpt>
        <trkpt lat="28.696126" lon="104.708801"><ele>512.5875</ele><time>2026-05-28T23:43:29.000Z</time></trkpt>
        <trkpt lat="28.696171" lon="104.708776"><ele>511.75082</ele><time>2026-05-28T23:43:34.000Z</time></trkpt>
        <trkpt lat="28.696218" lon="104.708745"><ele>512.5971</ele><time>2026-05-28T23:43:39.000Z</time></trkpt>
        <trkpt lat="28.696271" lon="104.708717"><ele>510.35608</ele><time>2026-05-28T23:43:46.000Z</time></trkpt>
        <trkpt lat="28.696321" lon="104.708698"><ele>509.47836</ele><time>2026-05-28T23:43:51.000Z</time></trkpt>
        <trkpt lat="28.69636" lon="104.708655"><ele>507.2624</ele><time>2026-05-28T23:43:57.000Z</time></trkpt>
        <trkpt lat="28.696406" lon="104.708639"><ele>506.2721</ele><time>2026-05-28T23:44:02.000Z</time></trkpt>
        <trkpt lat="28.696452" lon="104.708617"><ele>507.2958</ele><time>2026-05-28T23:44:07.000Z</time></trkpt>
        <trkpt lat="28.696496" lon="104.708603"><ele>506.3348</ele><time>2026-05-28T23:44:13.000Z</time></trkpt>
        <trkpt lat="28.696537" lon="104.70858"><ele>505.05396</ele><time>2026-05-28T23:44:18.000Z</time></trkpt>
        <trkpt lat="28.696576" lon="104.708546"><ele>505.5078</ele><time>2026-05-28T23:44:23.000Z</time></trkpt>
        <trkpt lat="28.696614" lon="104.708518"><ele>505.52002</ele><time>2026-05-28T23:44:29.000Z</time></trkpt>
        <trkpt lat="28.696658" lon="104.708495"><ele>505.12048</ele><time>2026-05-28T23:44:35.000Z</time></trkpt>
        <trkpt lat="28.696688" lon="104.708457"><ele>504.92105</ele><time>2026-05-28T23:44:40.000Z</time></trkpt>
        <trkpt lat="28.696721" lon="104.708421"><ele>504.05453</ele><time>2026-05-28T23:44:46.000Z</time></trkpt>
        <trkpt lat="28.696733" lon="104.708363"><ele>501.99384</ele><time>2026-05-28T23:44:51.000Z</time></trkpt>
        <trkpt lat="28.696769" lon="104.708322"><ele>502.3624</ele><time>2026-05-28T23:44:55.000Z</time></trkpt>
        <trkpt lat="28.696807" lon="104.70828"><ele>503.1779</ele><time>2026-05-28T23:44:58.000Z</time></trkpt>
        <trkpt lat="28.696841" lon="104.708236"><ele>501.6291</ele><time>2026-05-28T23:45:04.000Z</time></trkpt>
        <trkpt lat="28.696874" lon="104.708193"><ele>501.14194</ele><time>2026-05-28T23:45:10.000Z</time></trkpt>
        <trkpt lat="28.696897" lon="104.708148"><ele>500.44586</ele><time>2026-05-28T23:45:16.000Z</time></trkpt>
        <trkpt lat="28.69692" lon="104.708101"><ele>499.4167</ele><time>2026-05-28T23:45:20.000Z</time></trkpt>
        <trkpt lat="28.696949" lon="104.70806"><ele>498.22552</ele><time>2026-05-28T23:45:25.000Z</time></trkpt>
        <trkpt lat="28.69697" lon="104.708002"><ele>498.4941</ele><time>2026-05-28T23:45:31.000Z</time></trkpt>
        <trkpt lat="28.696987" lon="104.707951"><ele>495.70294</ele><time>2026-05-28T23:45:37.000Z</time></trkpt>
        <trkpt lat="28.69699" lon="104.707899"><ele>494.2499</ele><time>2026-05-28T23:45:42.000Z</time></trkpt>
        <trkpt lat="28.696988" lon="104.707847"><ele>493.1607</ele><time>2026-05-28T23:45:49.000Z</time></trkpt>
        <trkpt lat="28.696981" lon="104.707788"><ele>492.52307</ele><time>2026-05-28T23:45:54.000Z</time></trkpt>
        <trkpt lat="28.696977" lon="104.70773"><ele>491.07715</ele><time>2026-05-28T23:45:57.000Z</time></trkpt>
        <trkpt lat="28.696994" lon="104.707678"><ele>489.6499</ele><time>2026-05-28T23:46:03.000Z</time></trkpt>
        <trkpt lat="28.696968" lon="104.707632"><ele>487.9625</ele><time>2026-05-28T23:46:09.000Z</time></trkpt>
        <trkpt lat="28.696955" lon="104.707578"><ele>485.2799</ele><time>2026-05-28T23:46:15.000Z</time></trkpt>
        <trkpt lat="28.696956" lon="104.707515"><ele>483.73788</ele><time>2026-05-28T23:46:20.000Z</time></trkpt>
        <trkpt lat="28.69694" lon="104.707466"><ele>482.77585</ele><time>2026-05-28T23:46:25.000Z</time></trkpt>
        <trkpt lat="28.696908" lon="104.707422"><ele>482.2982</ele><time>2026-05-28T23:46:30.000Z</time></trkpt>
        <trkpt lat="28.696892" lon="104.707372"><ele>482.0428</ele><time>2026-05-28T23:46:34.000Z</time></trkpt>
        <trkpt lat="28.696869" lon="104.707319"><ele>483.57645</ele><time>2026-05-28T23:46:39.000Z</time></trkpt>
        <trkpt lat="28.696839" lon="104.70728"><ele>484.04208</ele><time>2026-05-28T23:46:44.000Z</time></trkpt>
        <trkpt lat="28.696814" lon="104.707226"><ele>484.3167</ele><time>2026-05-28T23:46:48.000Z</time></trkpt>
        <trkpt lat="28.696815" lon="104.707167"><ele>484.5089</ele><time>2026-05-28T23:46:53.000Z</time></trkpt>
        <trkpt lat="28.696814" lon="104.707116"><ele>485.0897</ele><time>2026-05-28T23:46:58.000Z</time></trkpt>
        <trkpt lat="28.696789" lon="104.70707"><ele>483.26843</ele><time>2026-05-28T23:47:03.000Z</time></trkpt>
        <trkpt lat="28.696755" lon="104.707024"><ele>482.49695</ele><time>2026-05-28T23:47:11.000Z</time></trkpt>
        <trkpt lat="28.696743" lon="104.706974"><ele>483.38968</ele><time>2026-05-28T23:47:14.000Z</time></trkpt>
        <trkpt lat="28.696725" lon="104.70692"><ele>484.05765</ele><time>2026-05-28T23:47:18.000Z</time></trkpt>
        <trkpt lat="28.696708" lon="104.70686"><ele>484.27805</ele><time>2026-05-28T23:47:22.000Z</time></trkpt>
        <trkpt lat="28.696685" lon="104.706806"><ele>484.5528</ele><time>2026-05-28T23:47:27.000Z</time></trkpt>
        <trkpt lat="28.696653" lon="104.706767"><ele>484.4461</ele><time>2026-05-28T23:47:34.000Z</time></trkpt>
        <trkpt lat="28.696629" lon="104.70672"><ele>484.9787</ele><time>2026-05-28T23:47:45.000Z</time></trkpt>
        <trkpt lat="28.696608" lon="104.706667"><ele>484.80508</ele><time>2026-05-28T23:48:08.000Z</time></trkpt>
        <trkpt lat="28.696609" lon="104.70661"><ele>485.79025</ele><time>2026-05-28T23:48:13.000Z</time></trkpt>
        <trkpt lat="28.696626" lon="104.70656"><ele>486.36948</ele><time>2026-05-28T23:48:18.000Z</time></trkpt>
        <trkpt lat="28.69665" lon="104.706513"><ele>485.98215</ele><time>2026-05-28T23:48:22.000Z</time></trkpt>
        <trkpt lat="28.696674" lon="104.706462"><ele>485.33856</ele><time>2026-05-28T23:48:27.000Z</time></trkpt>
        <trkpt lat="28.696717" lon="104.706431"><ele>485.7124</ele><time>2026-05-28T23:48:31.000Z</time></trkpt>
        <trkpt lat="28.696764" lon="104.706406"><ele>485.4246</ele><time>2026-05-28T23:48:36.000Z</time></trkpt>
        <trkpt lat="28.696812" lon="104.706393"><ele>485.63596</ele><time>2026-05-28T23:48:42.000Z</time></trkpt>
        <trkpt lat="28.696855" lon="104.706409"><ele>484.86884</ele><time>2026-05-28T23:48:48.000Z</time></trkpt>
        <trkpt lat="28.696904" lon="104.706417"><ele>483.7991</ele><time>2026-05-28T23:48:56.000Z</time></trkpt>
        <trkpt lat="28.696939" lon="104.706449"><ele>482.63696</ele><time>2026-05-28T23:49:01.000Z</time></trkpt>
        <trkpt lat="28.696971" lon="104.706486"><ele>481.7282</ele><time>2026-05-28T23:49:19.000Z</time></trkpt>
        <trkpt lat="28.696992" lon="104.706534"><ele>479.0308</ele><time>2026-05-28T23:49:32.000Z</time></trkpt>
        <trkpt lat="28.69704" lon="104.706532"><ele>477.67023</ele><time>2026-05-28T23:49:39.000Z</time></trkpt>
        <trkpt lat="28.697101" lon="104.706522"><ele>475.17377</ele><time>2026-05-28T23:49:47.000Z</time></trkpt>
        <trkpt lat="28.697145" lon="104.706545"><ele>473.4024</ele><time>2026-05-28T23:49:56.000Z</time></trkpt>
        <trkpt lat="28.697185" lon="104.706511"><ele>471.95563</ele><time>2026-05-28T23:50:00.000Z</time></trkpt>
        <trkpt lat="28.697232" lon="104.70649"><ele>471.23804</ele><time>2026-05-28T23:50:04.000Z</time></trkpt>
        <trkpt lat="28.697269" lon="104.706447"><ele>470.39066</ele><time>2026-05-28T23:50:08.000Z</time></trkpt>
        <trkpt lat="28.697292" lon="104.706394"><ele>469.29608</ele><time>2026-05-28T23:50:12.000Z</time></trkpt>
        <trkpt lat="28.697348" lon="104.706364"><ele>469.662</ele><time>2026-05-28T23:50:16.000Z</time></trkpt>
        <trkpt lat="28.69739" lon="104.70634"><ele>470.33865</ele><time>2026-05-28T23:50:20.000Z</time></trkpt>
        <trkpt lat="28.697418" lon="104.706298"><ele>469.02304</ele><time>2026-05-28T23:50:27.000Z</time></trkpt>
        <trkpt lat="28.697461" lon="104.706278"><ele>467.88034</ele><time>2026-05-28T23:50:33.000Z</time></trkpt>
        <trkpt lat="28.697509" lon="104.706233"><ele>466.83142</ele><time>2026-05-28T23:50:37.000Z</time></trkpt>
        <trkpt lat="28.697547" lon="104.706191"><ele>466.16403</ele><time>2026-05-28T23:50:41.000Z</time></trkpt>
        <trkpt lat="28.697586" lon="104.706158"><ele>466.4192</ele><time>2026-05-28T23:50:46.000Z</time></trkpt>
        <trkpt lat="28.69759" lon="104.706104"><ele>466.71008</ele><time>2026-05-28T23:50:52.000Z</time></trkpt>
        <trkpt lat="28.697608" lon="104.706053"><ele>465.68335</ele><time>2026-05-28T23:50:58.000Z</time></trkpt>
        <trkpt lat="28.697624" lon="104.705994"><ele>464.97986</ele><time>2026-05-28T23:51:02.000Z</time></trkpt>
        <trkpt lat="28.697652" lon="104.705949"><ele>465.17307</ele><time>2026-05-28T23:51:05.000Z</time></trkpt>
        <trkpt lat="28.697681" lon="104.705994"><ele>464.8367</ele><time>2026-05-28T23:51:09.000Z</time></trkpt>
        <trkpt lat="28.697722" lon="104.70603"><ele>465.24136</ele><time>2026-05-28T23:51:14.000Z</time></trkpt>
        <trkpt lat="28.69777" lon="104.706025"><ele>466.12064</ele><time>2026-05-28T23:51:19.000Z</time></trkpt>
        <trkpt lat="28.697792" lon="104.705972"><ele>464.78467</ele><time>2026-05-28T23:51:25.000Z</time></trkpt>
        <trkpt lat="28.697817" lon="104.705929"><ele>464.2445</ele><time>2026-05-28T23:51:30.000Z</time></trkpt>
        <trkpt lat="28.697836" lon="104.70587"><ele>461.93896</ele><time>2026-05-28T23:51:37.000Z</time></trkpt>
        <trkpt lat="28.697865" lon="104.70583"><ele>460.5549</ele><time>2026-05-28T23:51:43.000Z</time></trkpt>
        <trkpt lat="28.697903" lon="104.705795"><ele>460.1337</ele><time>2026-05-28T23:51:47.000Z</time></trkpt>
        <trkpt lat="28.697955" lon="104.705812"><ele>459.48007</ele><time>2026-05-28T23:51:50.000Z</time></trkpt>
        <trkpt lat="28.697984" lon="104.70577"><ele>458.64905</ele><time>2026-05-28T23:51:55.000Z</time></trkpt>
        <trkpt lat="28.698028" lon="104.705741"><ele>458.3194</ele><time>2026-05-28T23:52:03.000Z</time></trkpt>
        <trkpt lat="28.698074" lon="104.70573"><ele>457.81512</ele><time>2026-05-28T23:52:09.000Z</time></trkpt>
        <trkpt lat="28.698124" lon="104.70573"><ele>456.22418</ele><time>2026-05-28T23:52:14.000Z</time></trkpt>
        <trkpt lat="28.698175" lon="104.70574"><ele>456.06607</ele><time>2026-05-28T23:52:20.000Z</time></trkpt>
        <trkpt lat="28.69822" lon="104.705761"><ele>453.6199</ele><time>2026-05-28T23:52:28.000Z</time></trkpt>
        <trkpt lat="28.698264" lon="104.70573"><ele>452.5454</ele><time>2026-05-28T23:52:35.000Z</time></trkpt>
        <trkpt lat="28.698303" lon="104.705703"><ele>452.0644</ele><time>2026-05-28T23:52:40.000Z</time></trkpt>
        <trkpt lat="28.698333" lon="104.705662"><ele>450.58533</ele><time>2026-05-28T23:52:46.000Z</time></trkpt>
        <trkpt lat="28.698375" lon="104.705636"><ele>449.44803</ele><time>2026-05-28T23:52:50.000Z</time></trkpt>
        <trkpt lat="28.698421" lon="104.705626"><ele>448.2164</ele><time>2026-05-28T23:52:54.000Z</time></trkpt>
        <trkpt lat="28.698469" lon="104.70562"><ele>447.28308</ele><time>2026-05-28T23:52:59.000Z</time></trkpt>
        <trkpt lat="28.698515" lon="104.705618"><ele>445.28363</ele><time>2026-05-28T23:53:07.000Z</time></trkpt>
        <trkpt lat="28.698559" lon="104.705605"><ele>443.43408</ele><time>2026-05-28T23:53:13.000Z</time></trkpt>
        <trkpt lat="28.698602" lon="104.705557"><ele>441.509</ele><time>2026-05-28T23:53:19.000Z</time></trkpt>
        <trkpt lat="28.698637" lon="104.70552"><ele>440.40103</ele><time>2026-05-28T23:53:27.000Z</time></trkpt>
        <trkpt lat="28.698687" lon="104.705528"><ele>438.56836</ele><time>2026-05-28T23:53:34.000Z</time></trkpt>
        <trkpt lat="28.698739" lon="104.705538"><ele>438.13477</ele><time>2026-05-28T23:53:39.000Z</time></trkpt>
        <trkpt lat="28.698786" lon="104.705536"><ele>437.58386</ele><time>2026-05-28T23:53:42.000Z</time></trkpt>
        <trkpt lat="28.698839" lon="104.705537"><ele>438.42017</ele><time>2026-05-28T23:53:46.000Z</time></trkpt>
        <trkpt lat="28.698878" lon="104.705565"><ele>437.35504</ele><time>2026-05-28T23:53:50.000Z</time></trkpt>
        <trkpt lat="28.69893" lon="104.705593"><ele>436.7845</ele><time>2026-05-28T23:53:55.000Z</time></trkpt>
        <trkpt lat="28.698983" lon="104.705601"><ele>437.08368</ele><time>2026-05-28T23:53:59.000Z</time></trkpt>
        <trkpt lat="28.699036" lon="104.705594"><ele>435.92346</ele><time>2026-05-28T23:54:05.000Z</time></trkpt>
        <trkpt lat="28.699095" lon="104.705603"><ele>434.1683</ele><time>2026-05-28T23:54:12.000Z</time></trkpt>
        <trkpt lat="28.699147" lon="104.705595"><ele>433.85104</ele><time>2026-05-28T23:54:15.000Z</time></trkpt>
        <trkpt lat="28.6992" lon="104.705581"><ele>433.7212</ele><time>2026-05-28T23:54:20.000Z</time></trkpt>
        <trkpt lat="28.699247" lon="104.705561"><ele>434.29855</ele><time>2026-05-28T23:54:26.000Z</time></trkpt>
        <trkpt lat="28.699292" lon="104.705576"><ele>433.90842</ele><time>2026-05-28T23:54:30.000Z</time></trkpt>
        <trkpt lat="28.699344" lon="104.705603"><ele>433.3836</ele><time>2026-05-28T23:54:35.000Z</time></trkpt>
        <trkpt lat="28.699384" lon="104.705639"><ele>433.75525</ele><time>2026-05-28T23:54:40.000Z</time></trkpt>
        <trkpt lat="28.699423" lon="104.705677"><ele>432.73645</ele><time>2026-05-28T23:54:44.000Z</time></trkpt>
        <trkpt lat="28.699466" lon="104.705702"><ele>431.63443</ele><time>2026-05-28T23:54:48.000Z</time></trkpt>
        <trkpt lat="28.699518" lon="104.705709"><ele>431.05975</ele><time>2026-05-28T23:54:53.000Z</time></trkpt>
        <trkpt lat="28.69958" lon="104.705735"><ele>429.56207</ele><time>2026-05-28T23:54:59.000Z</time></trkpt>
        <trkpt lat="28.699625" lon="104.705762"><ele>429.39383</ele><time>2026-05-28T23:55:04.000Z</time></trkpt>
        <trkpt lat="28.699675" lon="104.705776"><ele>429.58112</ele><time>2026-05-28T23:55:12.000Z</time></trkpt>
        <trkpt lat="28.699727" lon="104.705804"><ele>426.44266</ele><time>2026-05-28T23:55:18.000Z</time></trkpt>
        <trkpt lat="28.699768" lon="104.705848"><ele>426.2085</ele><time>2026-05-28T23:55:22.000Z</time></trkpt>
        <trkpt lat="28.699799" lon="104.705889"><ele>424.76138</ele><time>2026-05-28T23:55:26.000Z</time></trkpt>
        <trkpt lat="28.699824" lon="104.705935"><ele>424.03848</ele><time>2026-05-28T23:55:30.000Z</time></trkpt>
        <trkpt lat="28.699866" lon="104.705976"><ele>423.36484</ele><time>2026-05-28T23:55:34.000Z</time></trkpt>
        <trkpt lat="28.699868" lon="104.70603"><ele>423.56464</ele><time>2026-05-28T23:55:38.000Z</time></trkpt>
        <trkpt lat="28.699852" lon="104.706079"><ele>421.92615</ele><time>2026-05-28T23:55:42.000Z</time></trkpt>
        <trkpt lat="28.699844" lon="104.706133"><ele>422.44318</ele><time>2026-05-28T23:55:47.000Z</time></trkpt>
        <trkpt lat="28.699826" lon="104.706182"><ele>423.1832</ele><time>2026-05-28T23:55:52.000Z</time></trkpt>
        <trkpt lat="28.699842" lon="104.70624"><ele>424.49564</ele><time>2026-05-28T23:55:57.000Z</time></trkpt>
        <trkpt lat="28.699842" lon="104.706291"><ele>425.5559</ele><time>2026-05-28T23:56:02.000Z</time></trkpt>
        <trkpt lat="28.699867" lon="104.706343"><ele>425.97238</ele><time>2026-05-28T23:56:06.000Z</time></trkpt>
        <trkpt lat="28.699908" lon="104.706313"><ele>425.0092</ele><time>2026-05-28T23:56:11.000Z</time></trkpt>
        <trkpt lat="28.699953" lon="104.706303"><ele>425.93936</ele><time>2026-05-28T23:56:15.000Z</time></trkpt>
        <trkpt lat="28.700004" lon="104.706297"><ele>426.88632</ele><time>2026-05-28T23:56:21.000Z</time></trkpt>
        <trkpt lat="28.700051" lon="104.706294"><ele>428.29468</ele><time>2026-05-28T23:56:25.000Z</time></trkpt>
        <trkpt lat="28.700103" lon="104.706317"><ele>428.53436</ele><time>2026-05-28T23:56:32.000Z</time></trkpt>
        <trkpt lat="28.700158" lon="104.706311"><ele>428.5959</ele><time>2026-05-28T23:56:37.000Z</time></trkpt>
        <trkpt lat="28.700203" lon="104.706313"><ele>428.13565</ele><time>2026-05-28T23:56:43.000Z</time></trkpt>
        <trkpt lat="28.700254" lon="104.706312"><ele>427.7158</ele><time>2026-05-28T23:56:48.000Z</time></trkpt>
        <trkpt lat="28.700292" lon="104.706352"><ele>426.28964</ele><time>2026-05-28T23:56:52.000Z</time></trkpt>
        <trkpt lat="28.700328" lon="104.706397"><ele>426.34695</ele><time>2026-05-28T23:56:56.000Z</time></trkpt>
        <trkpt lat="28.700363" lon="104.706433"><ele>423.5136</ele><time>2026-05-28T23:57:00.000Z</time></trkpt>
        <trkpt lat="28.700416" lon="104.706444"><ele>422.063</ele><time>2026-05-28T23:57:03.000Z</time></trkpt>
        <trkpt lat="28.700472" lon="104.706461"><ele>421.143</ele><time>2026-05-28T23:57:08.000Z</time></trkpt>
        <trkpt lat="28.700533" lon="104.706475"><ele>420.6692</ele><time>2026-05-28T23:57:12.000Z</time></trkpt>
        <trkpt lat="28.700573" lon="104.706498"><ele>419.46036</ele><time>2026-05-28T23:57:15.000Z</time></trkpt>
        <trkpt lat="28.700604" lon="104.706539"><ele>420.83313</ele><time>2026-05-28T23:57:21.000Z</time></trkpt>
        <trkpt lat="28.700641" lon="104.706585"><ele>419.68335</ele><time>2026-05-28T23:57:24.000Z</time></trkpt>
        <trkpt lat="28.70067" lon="104.706625"><ele>419.77753</ele><time>2026-05-28T23:57:28.000Z</time></trkpt>
        <trkpt lat="28.700703" lon="104.706661"><ele>420.25174</ele><time>2026-05-28T23:57:31.000Z</time></trkpt>
        <trkpt lat="28.70073" lon="104.706711"><ele>417.1087</ele><time>2026-05-28T23:57:35.000Z</time></trkpt>
        <trkpt lat="28.70075" lon="104.706761"><ele>412.11383</ele><time>2026-05-28T23:57:41.000Z</time></trkpt>
        <trkpt lat="28.700777" lon="104.706715"><ele>410.38232</ele><time>2026-05-28T23:57:52.000Z</time></trkpt>
        <trkpt lat="28.700799" lon="104.706762"><ele>408.382</ele><time>2026-05-28T23:57:58.000Z</time></trkpt>
        <trkpt lat="28.700828" lon="104.706804"><ele>407.76538</ele><time>2026-05-28T23:58:03.000Z</time></trkpt>
        <trkpt lat="28.700876" lon="104.706823"><ele>404.37976</ele><time>2026-05-28T23:58:18.000Z</time></trkpt>
        <trkpt lat="28.700899" lon="104.706878"><ele>401.92154</ele><time>2026-05-28T23:58:23.000Z</time></trkpt>
        <trkpt lat="28.700917" lon="104.706932"><ele>400.5081</ele><time>2026-05-28T23:58:27.000Z</time></trkpt>
        <trkpt lat="28.700944" lon="104.706977"><ele>397.68466</ele><time>2026-05-28T23:58:34.000Z</time></trkpt>
        <trkpt lat="28.700963" lon="104.70703"><ele>397.51398</ele><time>2026-05-28T23:58:38.000Z</time></trkpt>
        <trkpt lat="28.700942" lon="104.707087"><ele>395.3522</ele><time>2026-05-28T23:58:43.000Z</time></trkpt>
        <trkpt lat="28.700928" lon="104.707141"><ele>393.16144</ele><time>2026-05-28T23:58:48.000Z</time></trkpt>
        <trkpt lat="28.700972" lon="104.707185"><ele>402.97104</ele><time>2026-05-28T23:58:56.000Z</time></trkpt>
        <trkpt lat="28.701027" lon="104.707177"><ele>407.93304</ele><time>2026-05-28T23:59:03.000Z</time></trkpt>
        <trkpt lat="28.701074" lon="104.707186"><ele>408.6364</ele><time>2026-05-28T23:59:07.000Z</time></trkpt>
        <trkpt lat="28.701126" lon="104.707164"><ele>408.80057</ele><time>2026-05-28T23:59:13.000Z</time></trkpt>
        <trkpt lat="28.701179" lon="104.707177"><ele>408.35297</ele><time>2026-05-28T23:59:17.000Z</time></trkpt>
        <trkpt lat="28.701219" lon="104.707213"><ele>406.96356</ele><time>2026-05-28T23:59:21.000Z</time></trkpt>
        <trkpt lat="28.701264" lon="104.707245"><ele>406.81317</ele><time>2026-05-28T23:59:26.000Z</time></trkpt>
        <trkpt lat="28.701302" lon="104.707277"><ele>405.63696</ele><time>2026-05-28T23:59:30.000Z</time></trkpt>
        <trkpt lat="28.701353" lon="104.707298"><ele>404.5652</ele><time>2026-05-28T23:59:34.000Z</time></trkpt>
        <trkpt lat="28.701397" lon="104.707326"><ele>403.30682</ele><time>2026-05-28T23:59:38.000Z</time></trkpt>
        <trkpt lat="28.701433" lon="104.707359"><ele>402.75598</ele><time>2026-05-28T23:59:42.000Z</time></trkpt>
        <trkpt lat="28.701475" lon="104.7074"><ele>402.63205</ele><time>2026-05-28T23:59:47.000Z</time></trkpt>
        <trkpt lat="28.701522" lon="104.707406"><ele>402.72437</ele><time>2026-05-28T23:59:52.000Z</time></trkpt>
        <trkpt lat="28.701568" lon="104.707438"><ele>402.60034</ele><time>2026-05-28T23:59:57.000Z</time></trkpt>
        <trkpt lat="28.7016" lon="104.707478"><ele>404.0487</ele><time>2026-05-29T00:00:01.000Z</time></trkpt>
        <trkpt lat="28.701583" lon="104.707532"><ele>403.21667</ele><time>2026-05-29T00:00:05.000Z</time></trkpt>
        <trkpt lat="28.701595" lon="104.70759"><ele>401.1892</ele><time>2026-05-29T00:00:11.000Z</time></trkpt>
        <trkpt lat="28.701612" lon="104.707647"><ele>399.44147</ele><time>2026-05-29T00:00:16.000Z</time></trkpt>
        <trkpt lat="28.701618" lon="104.707704"><ele>398.11444</ele><time>2026-05-29T00:00:21.000Z</time></trkpt>
        <trkpt lat="28.701624" lon="104.707767"><ele>399.4198</ele><time>2026-05-29T00:00:26.000Z</time></trkpt>
        <trkpt lat="28.701667" lon="104.707802"><ele>400.55466</ele><time>2026-05-29T00:00:33.000Z</time></trkpt>
        <trkpt lat="28.701719" lon="104.707792"><ele>402.3304</ele><time>2026-05-29T00:00:40.000Z</time></trkpt>
        <trkpt lat="28.701768" lon="104.707783"><ele>403.46</ele><time>2026-05-29T00:00:47.000Z</time></trkpt>
        <trkpt lat="28.701812" lon="104.707759"><ele>405.4102</ele><time>2026-05-29T00:00:51.000Z</time></trkpt>
        <trkpt lat="28.701855" lon="104.707735"><ele>405.91187</ele><time>2026-05-29T00:00:59.000Z</time></trkpt>
        <trkpt lat="28.701906" lon="104.707729"><ele>417.72778</ele><time>2026-05-29T00:01:05.000Z</time></trkpt>
        <trkpt lat="28.701956" lon="104.707713"><ele>423.02588</ele><time>2026-05-29T00:01:11.000Z</time></trkpt>
        <trkpt lat="28.702001" lon="104.707698"><ele>427.99185</ele><time>2026-05-29T00:01:20.000Z</time></trkpt>
        <trkpt lat="28.702014" lon="104.70764"><ele>427.336</ele><time>2026-05-29T00:01:24.000Z</time></trkpt>
        <trkpt lat="28.70202" lon="104.707577"><ele>428.55887</ele><time>2026-05-29T00:01:28.000Z</time></trkpt>
        <trkpt lat="28.702021" lon="104.707511"><ele>428.91885</ele><time>2026-05-29T00:01:38.000Z</time></trkpt>
        <trkpt lat="28.702013" lon="104.707452"><ele>429.8941</ele><time>2026-05-29T00:01:44.000Z</time></trkpt>
        <trkpt lat="28.702005" lon="104.707396"><ele>431.177</ele><time>2026-05-29T00:01:51.000Z</time></trkpt>
        <trkpt lat="28.702011" lon="104.707344"><ele>430.20996</ele><time>2026-05-29T00:01:59.000Z</time></trkpt>
        <trkpt lat="28.702021" lon="104.707293"><ele>430.32812</ele><time>2026-05-29T00:02:06.000Z</time></trkpt>
        <trkpt lat="28.702021" lon="104.707229"><ele>430.7792</ele><time>2026-05-29T00:02:14.000Z</time></trkpt>
        <trkpt lat="28.702016" lon="104.707178"><ele>430.73538</ele><time>2026-05-29T00:02:20.000Z</time></trkpt>
        <trkpt lat="28.702016" lon="104.707123"><ele>430.5792</ele><time>2026-05-29T00:02:26.000Z</time></trkpt>
        <trkpt lat="28.702023" lon="104.70707"><ele>431.20883</ele><time>2026-05-29T00:02:32.000Z</time></trkpt>
        <trkpt lat="28.70202" lon="104.707018"><ele>431.875</ele><time>2026-05-29T00:02:37.000Z</time></trkpt>
        <trkpt lat="28.70202" lon="104.706964"><ele>430.96872</ele><time>2026-05-29T00:02:42.000Z</time></trkpt>
        <trkpt lat="28.702037" lon="104.70691"><ele>430.85977</ele><time>2026-05-29T00:02:47.000Z</time></trkpt>
        <trkpt lat="28.70205" lon="104.706861"><ele>432.0722</ele><time>2026-05-29T00:02:51.000Z</time></trkpt>
        <trkpt lat="28.702085" lon="104.706815"><ele>433.41907</ele><time>2026-05-29T00:02:57.000Z</time></trkpt>
        <trkpt lat="28.70212" lon="104.706775"><ele>434.99664</ele><time>2026-05-29T00:03:02.000Z</time></trkpt>
        <trkpt lat="28.702154" lon="104.70674"><ele>435.48468</ele><time>2026-05-29T00:03:06.000Z</time></trkpt>
        <trkpt lat="28.702188" lon="104.706703"><ele>438.40433</ele><time>2026-05-29T00:03:14.000Z</time></trkpt>
        <trkpt lat="28.702191" lon="104.706651"><ele>443.54123</ele><time>2026-05-29T00:03:21.000Z</time></trkpt>
        <trkpt lat="28.702196" lon="104.706591"><ele>445.09274</ele><time>2026-05-29T00:03:34.000Z</time></trkpt>
        <trkpt lat="28.702207" lon="104.70654"><ele>445.5801</ele><time>2026-05-29T00:03:40.000Z</time></trkpt>
        <trkpt lat="28.702176" lon="104.706493"><ele>447.8746</ele><time>2026-05-29T00:03:49.000Z</time></trkpt>
        <trkpt lat="28.702143" lon="104.706454"><ele>449.59335</ele><time>2026-05-29T00:03:56.000Z</time></trkpt>
        <trkpt lat="28.702115" lon="104.706407"><ele>448.87573</ele><time>2026-05-29T00:04:03.000Z</time></trkpt>
        <trkpt lat="28.702095" lon="104.706358"><ele>445.8461</ele><time>2026-05-29T00:04:11.000Z</time></trkpt>
        <trkpt lat="28.70207" lon="104.706313"><ele>445.1274</ele><time>2026-05-29T00:04:19.000Z</time></trkpt>
        <trkpt lat="28.702034" lon="104.706272"><ele>446.61288</ele><time>2026-05-29T00:04:27.000Z</time></trkpt>
        <trkpt lat="28.70201" lon="104.706227"><ele>446.1416</ele><time>2026-05-29T00:04:34.000Z</time></trkpt>
        <trkpt lat="28.701968" lon="104.706198"><ele>447.29242</ele><time>2026-05-29T00:04:42.000Z</time></trkpt>
        <trkpt lat="28.701929" lon="104.706171"><ele>447.703</ele><time>2026-05-29T00:04:49.000Z</time></trkpt>
        <trkpt lat="28.701889" lon="104.706144"><ele>447.7474</ele><time>2026-05-29T00:04:55.000Z</time></trkpt>
        <trkpt lat="28.70186" lon="104.706099"><ele>447.40857</ele><time>2026-05-29T00:05:01.000Z</time></trkpt>
        <trkpt lat="28.701849" lon="104.706044"><ele>448.17566</ele><time>2026-05-29T00:05:06.000Z</time></trkpt>
        <trkpt lat="28.701832" lon="104.70599"><ele>449.54135</ele><time>2026-05-29T00:05:13.000Z</time></trkpt>
        <trkpt lat="28.701811" lon="104.705935"><ele>450.64795</ele><time>2026-05-29T00:05:20.000Z</time></trkpt>
        <trkpt lat="28.701808" lon="104.705881"><ele>451.7378</ele><time>2026-05-29T00:05:27.000Z</time></trkpt>
        <trkpt lat="28.70181" lon="104.705829"><ele>451.70502</ele><time>2026-05-29T00:05:32.000Z</time></trkpt>
        <trkpt lat="28.701816" lon="104.705776"><ele>451.59225</ele><time>2026-05-29T00:05:45.000Z</time></trkpt>
        <trkpt lat="28.701844" lon="104.70572"><ele>453.20474</ele><time>2026-05-29T00:05:56.000Z</time></trkpt>
        <trkpt lat="28.701871" lon="104.70567"><ele>454.91248</ele><time>2026-05-29T00:06:04.000Z</time></trkpt>
        <trkpt lat="28.7019" lon="104.705626"><ele>456.6358</ele><time>2026-05-29T00:06:12.000Z</time></trkpt>
        <trkpt lat="28.701932" lon="104.705588"><ele>456.80054</ele><time>2026-05-29T00:06:18.000Z</time></trkpt>
        <trkpt lat="28.701956" lon="104.705542"><ele>458.7293</ele><time>2026-05-29T00:06:24.000Z</time></trkpt>
        <trkpt lat="28.701997" lon="104.705504"><ele>460.5837</ele><time>2026-05-29T00:06:30.000Z</time></trkpt>
        <trkpt lat="28.702031" lon="104.70547"><ele>461.76944</ele><time>2026-05-29T00:06:36.000Z</time></trkpt>
        <trkpt lat="28.70207" lon="104.70544"><ele>462.93655</ele><time>2026-05-29T00:06:42.000Z</time></trkpt>
        <trkpt lat="28.702111" lon="104.705413"><ele>464.65308</ele><time>2026-05-29T00:06:48.000Z</time></trkpt>
        <trkpt lat="28.702143" lon="104.705369"><ele>465.90903</ele><time>2026-05-29T00:07:24.000Z</time></trkpt>
        <trkpt lat="28.702187" lon="104.705329"><ele>467.90933</ele><time>2026-05-29T00:07:31.000Z</time></trkpt>
        <trkpt lat="28.702181" lon="104.705259"><ele>468.8006</ele><time>2026-05-29T00:07:37.000Z</time></trkpt>
        <trkpt lat="28.702134" lon="104.705237"><ele>468.47885</ele><time>2026-05-29T00:07:44.000Z</time></trkpt>
        <trkpt lat="28.702106" lon="104.705191"><ele>467.66846</ele><time>2026-05-29T00:07:50.000Z</time></trkpt>
        <trkpt lat="28.702076" lon="104.705142"><ele>466.63705</ele><time>2026-05-29T00:07:57.000Z</time></trkpt>
        <trkpt lat="28.702069" lon="104.70509"><ele>465.3839</ele><time>2026-05-29T00:08:03.000Z</time></trkpt>
        <trkpt lat="28.70207" lon="104.705031"><ele>465.0136</ele><time>2026-05-29T00:08:08.000Z</time></trkpt>
        <trkpt lat="28.702107" lon="104.704997"><ele>464.22638</ele><time>2026-05-29T00:08:13.000Z</time></trkpt>
        <trkpt lat="28.702152" lon="104.705011"><ele>465.15372</ele><time>2026-05-29T00:08:19.000Z</time></trkpt>
        <trkpt lat="28.7022" lon="104.705028"><ele>466.9551</ele><time>2026-05-29T00:08:26.000Z</time></trkpt>
        <trkpt lat="28.702252" lon="104.705033"><ele>466.9505</ele><time>2026-05-29T00:08:32.000Z</time></trkpt>
        <trkpt lat="28.702298" lon="104.705056"><ele>467.4389</ele><time>2026-05-29T00:08:40.000Z</time></trkpt>
        <trkpt lat="28.702339" lon="104.705085"><ele>468.34293</ele><time>2026-05-29T00:08:47.000Z</time></trkpt>
        <trkpt lat="28.702393" lon="104.705098"><ele>468.98495</ele><time>2026-05-29T00:08:54.000Z</time></trkpt>
        <trkpt lat="28.702434" lon="104.705133"><ele>470.11972</ele><time>2026-05-29T00:09:00.000Z</time></trkpt>
        <trkpt lat="28.70249" lon="104.705154"><ele>470.81873</ele><time>2026-05-29T00:09:05.000Z</time></trkpt>
        <trkpt lat="28.702536" lon="104.705173"><ele>472.1577</ele><time>2026-05-29T00:09:11.000Z</time></trkpt>
        <trkpt lat="28.702587" lon="104.705184"><ele>471.87466</ele><time>2026-05-29T00:09:16.000Z</time></trkpt>
        <trkpt lat="28.702634" lon="104.7052"><ele>471.49313</ele><time>2026-05-29T00:09:23.000Z</time></trkpt>
        <trkpt lat="28.702689" lon="104.705206"><ele>472.73843</ele><time>2026-05-29T00:09:30.000Z</time></trkpt>
        <trkpt lat="28.702738" lon="104.705211"><ele>472.75186</ele><time>2026-05-29T00:09:35.000Z</time></trkpt>
        <trkpt lat="28.702789" lon="104.705199"><ele>473.57346</ele><time>2026-05-29T00:09:40.000Z</time></trkpt>
        <trkpt lat="28.702838" lon="104.705202"><ele>474.50226</ele><time>2026-05-29T00:09:44.000Z</time></trkpt>
        <trkpt lat="28.702896" lon="104.705199"><ele>474.92157</ele><time>2026-05-29T00:09:50.000Z</time></trkpt>
        <trkpt lat="28.702945" lon="104.705199"><ele>474.24268</ele><time>2026-05-29T00:09:57.000Z</time></trkpt>
        <trkpt lat="28.70299" lon="104.705195"><ele>473.95123</ele><time>2026-05-29T00:10:03.000Z</time></trkpt>
        <trkpt lat="28.703038" lon="104.705201"><ele>474.4642</ele><time>2026-05-29T00:10:07.000Z</time></trkpt>
        <trkpt lat="28.703083" lon="104.705209"><ele>475.5455</ele><time>2026-05-29T00:10:12.000Z</time></trkpt>
        <trkpt lat="28.703136" lon="104.7052"><ele>475.85806</ele><time>2026-05-29T00:10:17.000Z</time></trkpt>
        <trkpt lat="28.703186" lon="104.7052"><ele>476.25507</ele><time>2026-05-29T00:10:21.000Z</time></trkpt>
        <trkpt lat="28.703231" lon="104.7052"><ele>477.10748</ele><time>2026-05-29T00:10:26.000Z</time></trkpt>
        <trkpt lat="28.703274" lon="104.705224"><ele>477.9298</ele><time>2026-05-29T00:10:30.000Z</time></trkpt>
        <trkpt lat="28.703322" lon="104.705255"><ele>478.98907</ele><time>2026-05-29T00:10:35.000Z</time></trkpt>
        <trkpt lat="28.703347" lon="104.7053"><ele>479.46146</ele><time>2026-05-29T00:10:40.000Z</time></trkpt>
        <trkpt lat="28.703374" lon="104.705359"><ele>479.32938</ele><time>2026-05-29T00:10:46.000Z</time></trkpt>
        <trkpt lat="28.703373" lon="104.705419"><ele>479.392</ele><time>2026-05-29T00:10:51.000Z</time></trkpt>
        <trkpt lat="28.703375" lon="104.705472"><ele>479.24783</ele><time>2026-05-29T00:10:57.000Z</time></trkpt>
        <trkpt lat="28.703401" lon="104.705517"><ele>479.42758</ele><time>2026-05-29T00:11:01.000Z</time></trkpt>
        <trkpt lat="28.70343" lon="104.705563"><ele>479.46817</ele><time>2026-05-29T00:11:06.000Z</time></trkpt>
        <trkpt lat="28.703455" lon="104.705606"><ele>479.43262</ele><time>2026-05-29T00:11:11.000Z</time></trkpt>
        <trkpt lat="28.703489" lon="104.705653"><ele>479.2302</ele><time>2026-05-29T00:11:16.000Z</time></trkpt>
        <trkpt lat="28.703531" lon="104.705682"><ele>479.82108</ele><time>2026-05-29T00:11:21.000Z</time></trkpt>
        <trkpt lat="28.70358" lon="104.705696"><ele>478.95044</ele><time>2026-05-29T00:11:26.000Z</time></trkpt>
        <trkpt lat="28.703632" lon="104.705695"><ele>478.77878</ele><time>2026-05-29T00:11:31.000Z</time></trkpt>
        <trkpt lat="28.703682" lon="104.705695"><ele>478.61084</ele><time>2026-05-29T00:11:36.000Z</time></trkpt>
        <trkpt lat="28.703727" lon="104.705679"><ele>479.19138</ele><time>2026-05-29T00:11:41.000Z</time></trkpt>
        <trkpt lat="28.703777" lon="104.705678"><ele>479.04184</ele><time>2026-05-29T00:11:46.000Z</time></trkpt>
        <trkpt lat="28.703822" lon="104.705662"><ele>478.51553</ele><time>2026-05-29T00:11:52.000Z</time></trkpt>
        <trkpt lat="28.703881" lon="104.705661"><ele>478.686</ele><time>2026-05-29T00:11:58.000Z</time></trkpt>
        <trkpt lat="28.703929" lon="104.705668"><ele>478.9655</ele><time>2026-05-29T00:12:03.000Z</time></trkpt>
        <trkpt lat="28.703982" lon="104.705669"><ele>479.80093</ele><time>2026-05-29T00:12:09.000Z</time></trkpt>
        <trkpt lat="28.704036" lon="104.705676"><ele>480.8204</ele><time>2026-05-29T00:12:14.000Z</time></trkpt>
        <trkpt lat="28.704084" lon="104.705671"><ele>483.0124</ele><time>2026-05-29T00:12:19.000Z</time></trkpt>
        <trkpt lat="28.704137" lon="104.705667"><ele>480.9511</ele><time>2026-05-29T00:12:24.000Z</time></trkpt>
        <trkpt lat="28.704187" lon="104.705675"><ele>481.67804</ele><time>2026-05-29T00:12:29.000Z</time></trkpt>
        <trkpt lat="28.704232" lon="104.705692"><ele>481.26547</ele><time>2026-05-29T00:12:33.000Z</time></trkpt>
        <trkpt lat="28.70429" lon="104.705699"><ele>481.5161</ele><time>2026-05-29T00:12:38.000Z</time></trkpt>
        <trkpt lat="28.704338" lon="104.705718"><ele>481.04202</ele><time>2026-05-29T00:12:42.000Z</time></trkpt>
        <trkpt lat="28.704385" lon="104.705734"><ele>482.03687</ele><time>2026-05-29T00:12:47.000Z</time></trkpt>
        <trkpt lat="28.704436" lon="104.705758"><ele>483.24683</ele><time>2026-05-29T00:12:53.000Z</time></trkpt>
        <trkpt lat="28.704472" lon="104.705789"><ele>484.17413</ele><time>2026-05-29T00:12:58.000Z</time></trkpt>
        <trkpt lat="28.704515" lon="104.705808"><ele>483.89813</ele><time>2026-05-29T00:13:03.000Z</time></trkpt>
        <trkpt lat="28.70456" lon="104.705825"><ele>484.37143</ele><time>2026-05-29T00:13:09.000Z</time></trkpt>
        <trkpt lat="28.704606" lon="104.705852"><ele>484.71808</ele><time>2026-05-29T00:13:15.000Z</time></trkpt>
        <trkpt lat="28.704658" lon="104.705836"><ele>485.50623</ele><time>2026-05-29T00:13:19.000Z</time></trkpt>
        <trkpt lat="28.7047" lon="104.705809"><ele>485.86768</ele><time>2026-05-29T00:13:24.000Z</time></trkpt>
        <trkpt lat="28.704745" lon="104.705769"><ele>486.8231</ele><time>2026-05-29T00:13:29.000Z</time></trkpt>
        <trkpt lat="28.704793" lon="104.705753"><ele>488.31876</ele><time>2026-05-29T00:13:34.000Z</time></trkpt>
        <trkpt lat="28.704838" lon="104.705752"><ele>489.355</ele><time>2026-05-29T00:13:38.000Z</time></trkpt>
        <trkpt lat="28.704888" lon="104.705738"><ele>489.7228</ele><time>2026-05-29T00:13:43.000Z</time></trkpt>
        <trkpt lat="28.704925" lon="104.705697"><ele>490.64688</ele><time>2026-05-29T00:13:50.000Z</time></trkpt>
        <trkpt lat="28.704973" lon="104.705686"><ele>491.53888</ele><time>2026-05-29T00:13:56.000Z</time></trkpt>
        <trkpt lat="28.705022" lon="104.705673"><ele>492.7387</ele><time>2026-05-29T00:14:01.000Z</time></trkpt>
        <trkpt lat="28.705072" lon="104.705669"><ele>492.17703</ele><time>2026-05-29T00:14:06.000Z</time></trkpt>
        <trkpt lat="28.705121" lon="104.705673"><ele>491.65363</ele><time>2026-05-29T00:14:11.000Z</time></trkpt>
        <trkpt lat="28.705168" lon="104.705664"><ele>492.91986</ele><time>2026-05-29T00:14:17.000Z</time></trkpt>
        <trkpt lat="28.705221" lon="104.70567"><ele>493.26382</ele><time>2026-05-29T00:14:22.000Z</time></trkpt>
        <trkpt lat="28.705278" lon="104.705672"><ele>493.6026</ele><time>2026-05-29T00:14:27.000Z</time></trkpt>
        <trkpt lat="28.705325" lon="104.705673"><ele>494.14316</ele><time>2026-05-29T00:14:38.000Z</time></trkpt>
        <trkpt lat="28.705369" lon="104.705711"><ele>493.81567</ele><time>2026-05-29T00:16:04.000Z</time></trkpt>
        <trkpt lat="28.705415" lon="104.705696"><ele>494.82187</ele><time>2026-05-29T00:16:12.000Z</time></trkpt>
        <trkpt lat="28.705459" lon="104.705674"><ele>494.45575</ele><time>2026-05-29T00:16:18.000Z</time></trkpt>
        <trkpt lat="28.705497" lon="104.705646"><ele>494.43463</ele><time>2026-05-29T00:16:23.000Z</time></trkpt>
        <trkpt lat="28.705544" lon="104.705633"><ele>494.372</ele><time>2026-05-29T00:16:29.000Z</time></trkpt>
        <trkpt lat="28.705583" lon="104.705605"><ele>494.45688</ele><time>2026-05-29T00:16:34.000Z</time></trkpt>
        <trkpt lat="28.705617" lon="104.705569"><ele>495.08685</ele><time>2026-05-29T00:16:39.000Z</time></trkpt>
        <trkpt lat="28.705667" lon="104.705551"><ele>495.53943</ele><time>2026-05-29T00:16:44.000Z</time></trkpt>
        <trkpt lat="28.705712" lon="104.705567"><ele>496.82907</ele><time>2026-05-29T00:16:49.000Z</time></trkpt>
        <trkpt lat="28.705731" lon="104.705614"><ele>497.77786</ele><time>2026-05-29T00:16:55.000Z</time></trkpt>
        <trkpt lat="28.705764" lon="104.70565"><ele>498.93127</ele><time>2026-05-29T00:17:01.000Z</time></trkpt>
        <trkpt lat="28.705791" lon="104.705708"><ele>500.75012</ele><time>2026-05-29T00:17:07.000Z</time></trkpt>
        <trkpt lat="28.705834" lon="104.705751"><ele>501.758</ele><time>2026-05-29T00:17:12.000Z</time></trkpt>
        <trkpt lat="28.705888" lon="104.705762"><ele>503.48193</ele><time>2026-05-29T00:17:17.000Z</time></trkpt>
        <trkpt lat="28.705935" lon="104.705757"><ele>504.8064</ele><time>2026-05-29T00:17:21.000Z</time></trkpt>
        <trkpt lat="28.705982" lon="104.705741"><ele>504.59274</ele><time>2026-05-29T00:17:26.000Z</time></trkpt>
        <trkpt lat="28.706034" lon="104.705743"><ele>504.6042</ele><time>2026-05-29T00:17:31.000Z</time></trkpt>
        <trkpt lat="28.706081" lon="104.705738"><ele>504.22815</ele><time>2026-05-29T00:17:36.000Z</time></trkpt>
        <trkpt lat="28.706122" lon="104.705707"><ele>503.00266</ele><time>2026-05-29T00:17:42.000Z</time></trkpt>
        <trkpt lat="28.706164" lon="104.705673"><ele>504.08292</ele><time>2026-05-29T00:17:48.000Z</time></trkpt>
        <trkpt lat="28.706207" lon="104.705655"><ele>505.04413</ele><time>2026-05-29T00:17:55.000Z</time></trkpt>
        <trkpt lat="28.706262" lon="104.705647"><ele>505.73764</ele><time>2026-05-29T00:18:01.000Z</time></trkpt>
        <trkpt lat="28.706312" lon="104.705636"><ele>504.7764</ele><time>2026-05-29T00:18:06.000Z</time></trkpt>
        <trkpt lat="28.706359" lon="104.705636"><ele>506.24542</ele><time>2026-05-29T00:18:11.000Z</time></trkpt>
        <trkpt lat="28.706402" lon="104.705617"><ele>507.476</ele><time>2026-05-29T00:18:16.000Z</time></trkpt>
        <trkpt lat="28.706453" lon="104.705617"><ele>508.48676</ele><time>2026-05-29T00:18:20.000Z</time></trkpt>
        <trkpt lat="28.706506" lon="104.70562"><ele>510.16602</ele><time>2026-05-29T00:18:25.000Z</time></trkpt>
        <trkpt lat="28.706554" lon="104.705613"><ele>511.1699</ele><time>2026-05-29T00:18:30.000Z</time></trkpt>
        <trkpt lat="28.706595" lon="104.705589"><ele>511.96658</ele><time>2026-05-29T00:18:34.000Z</time></trkpt>
        <trkpt lat="28.706651" lon="104.705592"><ele>514.50397</ele><time>2026-05-29T00:18:40.000Z</time></trkpt>
        <trkpt lat="28.706699" lon="104.705577"><ele>513.92303</ele><time>2026-05-29T00:18:47.000Z</time></trkpt>
        <trkpt lat="28.70673" lon="104.705538"><ele>515.31647</ele><time>2026-05-29T00:18:52.000Z</time></trkpt>
        <trkpt lat="28.70677" lon="104.705508"><ele>514.677</ele><time>2026-05-29T00:18:57.000Z</time></trkpt>
        <trkpt lat="28.706793" lon="104.705459"><ele>516.5369</ele><time>2026-05-29T00:19:04.000Z</time></trkpt>
        <trkpt lat="28.706837" lon="104.705422"><ele>517.08826</ele><time>2026-05-29T00:19:10.000Z</time></trkpt>
        <trkpt lat="28.706871" lon="104.705374"><ele>517.4204</ele><time>2026-05-29T00:19:17.000Z</time></trkpt>
        <trkpt lat="28.706893" lon="104.705326"><ele>516.8244</ele><time>2026-05-29T00:19:23.000Z</time></trkpt>
        <trkpt lat="28.706927" lon="104.705278"><ele>516.0881</ele><time>2026-05-29T00:19:28.000Z</time></trkpt>
        <trkpt lat="28.706953" lon="104.705233"><ele>514.7588</ele><time>2026-05-29T00:19:32.000Z</time></trkpt>
        <trkpt lat="28.706986" lon="104.705192"><ele>513.7217</ele><time>2026-05-29T00:19:36.000Z</time></trkpt>
        <trkpt lat="28.707029" lon="104.705155"><ele>513.8678</ele><time>2026-05-29T00:19:41.000Z</time></trkpt>
        <trkpt lat="28.70707" lon="104.705116"><ele>513.3544</ele><time>2026-05-29T00:19:46.000Z</time></trkpt>
        <trkpt lat="28.707115" lon="104.7051"><ele>513.2874</ele><time>2026-05-29T00:19:52.000Z</time></trkpt>
        <trkpt lat="28.707165" lon="104.705082"><ele>513.42096</ele><time>2026-05-29T00:19:58.000Z</time></trkpt>
        <trkpt lat="28.707221" lon="104.705065"><ele>515.00903</ele><time>2026-05-29T00:20:04.000Z</time></trkpt>
        <trkpt lat="28.707265" lon="104.705043"><ele>516.07336</ele><time>2026-05-29T00:20:10.000Z</time></trkpt>
        <trkpt lat="28.707294" lon="104.704999"><ele>515.4991</ele><time>2026-05-29T00:20:16.000Z</time></trkpt>
        <trkpt lat="28.707321" lon="104.704955"><ele>515.6588</ele><time>2026-05-29T00:20:22.000Z</time></trkpt>
        <trkpt lat="28.707352" lon="104.704911"><ele>513.298</ele><time>2026-05-29T00:20:27.000Z</time></trkpt>
        <trkpt lat="28.707381" lon="104.704867"><ele>512.8989</ele><time>2026-05-29T00:20:34.000Z</time></trkpt>
        <trkpt lat="28.707401" lon="104.704806"><ele>513.1084</ele><time>2026-05-29T00:20:40.000Z</time></trkpt>
        <trkpt lat="28.70741" lon="104.70475"><ele>512.0583</ele><time>2026-05-29T00:20:44.000Z</time></trkpt>
        <trkpt lat="28.707414" lon="104.704691"><ele>511.8023</ele><time>2026-05-29T00:20:48.000Z</time></trkpt>
        <trkpt lat="28.707421" lon="104.70464"><ele>510.79834</ele><time>2026-05-29T00:20:52.000Z</time></trkpt>
        <trkpt lat="28.70743" lon="104.704585"><ele>510.853</ele><time>2026-05-29T00:20:56.000Z</time></trkpt>
        <trkpt lat="28.70744" lon="104.704529"><ele>511.07928</ele><time>2026-05-29T00:21:01.000Z</time></trkpt>
        <trkpt lat="28.707444" lon="104.704466"><ele>510.43045</ele><time>2026-05-29T00:21:06.000Z</time></trkpt>
        <trkpt lat="28.707463" lon="104.704408"><ele>510.34796</ele><time>2026-05-29T00:21:10.000Z</time></trkpt>
        <trkpt lat="28.707496" lon="104.70436"><ele>511.18375</ele><time>2026-05-29T00:21:16.000Z</time></trkpt>
        <trkpt lat="28.707533" lon="104.704326"><ele>511.15067</ele><time>2026-05-29T00:21:21.000Z</time></trkpt>
        <trkpt lat="28.707578" lon="104.704296"><ele>510.25583</ele><time>2026-05-29T00:21:27.000Z</time></trkpt>
        <trkpt lat="28.707613" lon="104.704255"><ele>509.4612</ele><time>2026-05-29T00:21:32.000Z</time></trkpt>
        <trkpt lat="28.707637" lon="104.704206"><ele>508.5782</ele><time>2026-05-29T00:21:36.000Z</time></trkpt>
        <trkpt lat="28.707675" lon="104.704157"><ele>507.6673</ele><time>2026-05-29T00:21:42.000Z</time></trkpt>
        <trkpt lat="28.707705" lon="104.704115"><ele>506.9707</ele><time>2026-05-29T00:21:47.000Z</time></trkpt>
        <trkpt lat="28.707729" lon="104.704069"><ele>506.0945</ele><time>2026-05-29T00:21:53.000Z</time></trkpt>
        <trkpt lat="28.707721" lon="104.704015"><ele>505.70383</ele><time>2026-05-29T00:21:59.000Z</time></trkpt>
        <trkpt lat="28.7077" lon="104.703957"><ele>505.38525</ele><time>2026-05-29T00:22:04.000Z</time></trkpt>
        <trkpt lat="28.7077" lon="104.703887"><ele>503.88486</ele><time>2026-05-29T00:22:09.000Z</time></trkpt>
        <trkpt lat="28.707707" lon="104.70382"><ele>504.23288</ele><time>2026-05-29T00:22:13.000Z</time></trkpt>
        <trkpt lat="28.707713" lon="104.703757"><ele>503.3016</ele><time>2026-05-29T00:22:18.000Z</time></trkpt>
        <trkpt lat="28.707698" lon="104.703699"><ele>502.6865</ele><time>2026-05-29T00:22:22.000Z</time></trkpt>
        <trkpt lat="28.707704" lon="104.703637"><ele>501.65637</ele><time>2026-05-29T00:22:26.000Z</time></trkpt>
        <trkpt lat="28.70772" lon="104.703584"><ele>500.25357</ele><time>2026-05-29T00:22:30.000Z</time></trkpt>
        <trkpt lat="28.707776" lon="104.703591"><ele>499.5012</ele><time>2026-05-29T00:22:34.000Z</time></trkpt>
        <trkpt lat="28.707816" lon="104.70362"><ele>498.61063</ele><time>2026-05-29T00:22:38.000Z</time></trkpt>
        <trkpt lat="28.707837" lon="104.70367"><ele>496.70953</ele><time>2026-05-29T00:22:42.000Z</time></trkpt>
        <trkpt lat="28.707842" lon="104.703727"><ele>496.14743</ele><time>2026-05-29T00:22:45.000Z</time></trkpt>
        <trkpt lat="28.707877" lon="104.703768"><ele>495.88867</ele><time>2026-05-29T00:22:49.000Z</time></trkpt>
        <trkpt lat="28.707891" lon="104.703818"><ele>494.40305</ele><time>2026-05-29T00:22:52.000Z</time></trkpt>
        <trkpt lat="28.707912" lon="104.703874"><ele>493.6176</ele><time>2026-05-29T00:22:56.000Z</time></trkpt>
        <trkpt lat="28.707951" lon="104.703911"><ele>492.10898</ele><time>2026-05-29T00:23:02.000Z</time></trkpt>
        <trkpt lat="28.707962" lon="104.703968"><ele>491.01135</ele><time>2026-05-29T00:23:07.000Z</time></trkpt>
        <trkpt lat="28.707971" lon="104.704028"><ele>491.52573</ele><time>2026-05-29T00:23:13.000Z</time></trkpt>
        <trkpt lat="28.707995" lon="104.704076"><ele>491.5266</ele><time>2026-05-29T00:23:16.000Z</time></trkpt>
        <trkpt lat="28.708005" lon="104.704128"><ele>489.80917</ele><time>2026-05-29T00:23:19.000Z</time></trkpt>
        <trkpt lat="28.707995" lon="104.704195"><ele>489.7809</ele><time>2026-05-29T00:23:23.000Z</time></trkpt>
        <trkpt lat="28.707986" lon="104.704245"><ele>488.74182</ele><time>2026-05-29T00:23:28.000Z</time></trkpt>
        <trkpt lat="28.707982" lon="104.704303"><ele>487.6675</ele><time>2026-05-29T00:23:32.000Z</time></trkpt>
        <trkpt lat="28.707973" lon="104.704357"><ele>486.94876</ele><time>2026-05-29T00:23:37.000Z</time></trkpt>
        <trkpt lat="28.707951" lon="104.70441"><ele>486.08755</ele><time>2026-05-29T00:23:42.000Z</time></trkpt>
        <trkpt lat="28.707962" lon="104.704472"><ele>485.09393</ele><time>2026-05-29T00:23:47.000Z</time></trkpt>
        <trkpt lat="28.707963" lon="104.704529"><ele>484.57013</ele><time>2026-05-29T00:23:56.000Z</time></trkpt>
        <trkpt lat="28.707947" lon="104.70458"><ele>483.2308</ele><time>2026-05-29T00:24:00.000Z</time></trkpt>
        <trkpt lat="28.707942" lon="104.704632"><ele>483.58545</ele><time>2026-05-29T00:24:04.000Z</time></trkpt>
        <trkpt lat="28.707939" lon="104.704692"><ele>484.57767</ele><time>2026-05-29T00:24:08.000Z</time></trkpt>
        <trkpt lat="28.707949" lon="104.704751"><ele>483.03757</ele><time>2026-05-29T00:24:14.000Z</time></trkpt>
        <trkpt lat="28.707952" lon="104.704804"><ele>481.85416</ele><time>2026-05-29T00:24:19.000Z</time></trkpt>
        <trkpt lat="28.707968" lon="104.704862"><ele>481.2008</ele><time>2026-05-29T00:24:24.000Z</time></trkpt>
        <trkpt lat="28.707933" lon="104.704895"><ele>478.64066</ele><time>2026-05-29T00:24:28.000Z</time></trkpt>
        <trkpt lat="28.707928" lon="104.704951"><ele>479.38507</ele><time>2026-05-29T00:24:33.000Z</time></trkpt>
        <trkpt lat="28.707915" lon="104.705011"><ele>479.5253</ele><time>2026-05-29T00:24:39.000Z</time></trkpt>
        <trkpt lat="28.70792" lon="104.705063"><ele>479.85803</ele><time>2026-05-29T00:24:44.000Z</time></trkpt>
        <trkpt lat="28.707935" lon="104.705115"><ele>479.77475</ele><time>2026-05-29T00:24:51.000Z</time></trkpt>
        <trkpt lat="28.707969" lon="104.705156"><ele>479.6152</ele><time>2026-05-29T00:24:56.000Z</time></trkpt>
        <trkpt lat="28.708015" lon="104.705183"><ele>479.91742</ele><time>2026-05-29T00:25:01.000Z</time></trkpt>
        <trkpt lat="28.708064" lon="104.705201"><ele>478.82294</ele><time>2026-05-29T00:25:06.000Z</time></trkpt>
        <trkpt lat="28.708107" lon="104.705223"><ele>476.6042</ele><time>2026-05-29T00:25:12.000Z</time></trkpt>
        <trkpt lat="28.708156" lon="104.705245"><ele>475.066</ele><time>2026-05-29T00:25:18.000Z</time></trkpt>
        <trkpt lat="28.708203" lon="104.705252"><ele>474.10815</ele><time>2026-05-29T00:25:22.000Z</time></trkpt>
        <trkpt lat="28.708254" lon="104.705269"><ele>472.44614</ele><time>2026-05-29T00:25:27.000Z</time></trkpt>
        <trkpt lat="28.7083" lon="104.705298"><ele>469.1761</ele><time>2026-05-29T00:25:32.000Z</time></trkpt>
        <trkpt lat="28.708327" lon="104.705346"><ele>467.2477</ele><time>2026-05-29T00:25:37.000Z</time></trkpt>
        <trkpt lat="28.708349" lon="104.7054"><ele>465.89655</ele><time>2026-05-29T00:25:42.000Z</time></trkpt>
        <trkpt lat="28.708356" lon="104.705451"><ele>465.6387</ele><time>2026-05-29T00:25:46.000Z</time></trkpt>
        <trkpt lat="28.708368" lon="104.705501"><ele>464.5217</ele><time>2026-05-29T00:25:51.000Z</time></trkpt>
        <trkpt lat="28.708379" lon="104.705558"><ele>463.3108</ele><time>2026-05-29T00:25:56.000Z</time></trkpt>
        <trkpt lat="28.708383" lon="104.705616"><ele>464.21307</ele><time>2026-05-29T00:26:03.000Z</time></trkpt>
        <trkpt lat="28.708379" lon="104.705673"><ele>464.6096</ele><time>2026-05-29T00:26:08.000Z</time></trkpt>
        <trkpt lat="28.708392" lon="104.705729"><ele>465.98273</ele><time>2026-05-29T00:26:13.000Z</time></trkpt>
        <trkpt lat="28.708407" lon="104.705778"><ele>467.58765</ele><time>2026-05-29T00:26:19.000Z</time></trkpt>
        <trkpt lat="28.708431" lon="104.705826"><ele>465.2387</ele><time>2026-05-29T00:26:25.000Z</time></trkpt>
        <trkpt lat="28.708481" lon="104.705832"><ele>465.35318</ele><time>2026-05-29T00:26:56.000Z</time></trkpt>
        <trkpt lat="28.708537" lon="104.705826"><ele>464.80603</ele><time>2026-05-29T00:27:13.000Z</time></trkpt>
        <trkpt lat="28.708574" lon="104.705797"><ele>464.02847</ele><time>2026-05-29T00:27:18.000Z</time></trkpt>
        <trkpt lat="28.708604" lon="104.705736"><ele>462.05734</ele><time>2026-05-29T00:27:27.000Z</time></trkpt>
        <trkpt lat="28.708585" lon="104.705682"><ele>460.53244</ele><time>2026-05-29T00:27:33.000Z</time></trkpt>
        <trkpt lat="28.70857" lon="104.705627"><ele>458.89584</ele><time>2026-05-29T00:27:40.000Z</time></trkpt>
      </trkseg>
  </trk>
</gpx>